<?xml version="1.0" encoding="UTF-8" standalone="no" ?>
<gpx xmlns="http://www.topografix.com/GPX/1/1" xmlns:xsi="http://www.w3.org/2001/XMLSchema-instance" xsi:schemaLocation="http://www.topografix.com/GPX/1/1 http://www.topografix.com/GPX/1/1/gpx.xsd" version="1.1" creator="VisuGPX - https://www.visugpx.com">
  <metadata>
    <name>Le coup de la roue libre givrée</name>
    <desc><![CDATA[Le coup de la roue libre givrée]]></desc>
  </metadata>
  <trk>
    <name><![CDATA[28/12/2014 9:05]]></name>
    <trkseg>
      <trkpt lat="47.51816" lon="6.77485">
        <ele>387</ele>
        <time>2014-12-28T08:05:51Z</time>
      </trkpt>
      <trkpt lat="47.51811" lon="6.77482">
        <ele>387</ele>
        <time>2014-12-28T08:05:52Z</time>
      </trkpt>
      <trkpt lat="47.51808" lon="6.77489">
        <ele>387</ele>
        <time>2014-12-28T08:05:53Z</time>
      </trkpt>
      <trkpt lat="47.5181" lon="6.77491">
        <ele>387</ele>
        <time>2014-12-28T08:05:54Z</time>
      </trkpt>
      <trkpt lat="47.51818" lon="6.77488">
        <ele>387</ele>
        <time>2014-12-28T08:05:55Z</time>
      </trkpt>
      <trkpt lat="47.51815" lon="6.77479">
        <ele>387</ele>
        <time>2014-12-28T08:05:55Z</time>
      </trkpt>
      <trkpt lat="47.51813" lon="6.77479">
        <ele>387</ele>
        <time>2014-12-28T08:05:57Z</time>
      </trkpt>
      <trkpt lat="47.51825" lon="6.77476">
        <ele>387</ele>
        <time>2014-12-28T08:05:58Z</time>
      </trkpt>
      <trkpt lat="47.5183" lon="6.7748">
        <ele>387</ele>
        <time>2014-12-28T08:05:59Z</time>
      </trkpt>
      <trkpt lat="47.51825" lon="6.77486">
        <ele>387</ele>
        <time>2014-12-28T08:06:00Z</time>
      </trkpt>
      <trkpt lat="47.51826" lon="6.77491">
        <ele>387</ele>
        <time>2014-12-28T08:06:01Z</time>
      </trkpt>
      <trkpt lat="47.51815" lon="6.77476">
        <ele>387</ele>
        <time>2014-12-28T08:06:02Z</time>
      </trkpt>
      <trkpt lat="47.51815" lon="6.77478">
        <ele>387</ele>
        <time>2014-12-28T08:06:03Z</time>
      </trkpt>
      <trkpt lat="47.51826" lon="6.77486">
        <ele>387</ele>
        <time>2014-12-28T08:06:04Z</time>
      </trkpt>
      <trkpt lat="47.51835" lon="6.77498">
        <ele>386</ele>
        <time>2014-12-28T08:06:05Z</time>
      </trkpt>
      <trkpt lat="47.51829" lon="6.77484">
        <ele>387</ele>
        <time>2014-12-28T08:06:06Z</time>
      </trkpt>
      <trkpt lat="47.51826" lon="6.77489">
        <ele>387</ele>
        <time>2014-12-28T08:06:07Z</time>
      </trkpt>
      <trkpt lat="47.51823" lon="6.77487">
        <ele>387</ele>
        <time>2014-12-28T08:06:08Z</time>
      </trkpt>
      <trkpt lat="47.51831" lon="6.7748">
        <ele>387</ele>
        <time>2014-12-28T08:06:09Z</time>
      </trkpt>
      <trkpt lat="47.51829" lon="6.77487">
        <ele>387</ele>
        <time>2014-12-28T08:06:10Z</time>
      </trkpt>
      <trkpt lat="47.51805" lon="6.7748">
        <ele>387</ele>
        <time>2014-12-28T08:06:11Z</time>
      </trkpt>
      <trkpt lat="47.51798" lon="6.77463">
        <ele>387</ele>
        <time>2014-12-28T08:06:12Z</time>
      </trkpt>
      <trkpt lat="47.51786" lon="6.77457">
        <ele>387</ele>
        <time>2014-12-28T08:06:13Z</time>
      </trkpt>
      <trkpt lat="47.51803" lon="6.77443">
        <ele>387</ele>
        <time>2014-12-28T08:06:14Z</time>
      </trkpt>
      <trkpt lat="47.51814" lon="6.77444">
        <ele>386</ele>
        <time>2014-12-28T08:06:15Z</time>
      </trkpt>
      <trkpt lat="47.51809" lon="6.77456">
        <ele>387</ele>
        <time>2014-12-28T08:06:16Z</time>
      </trkpt>
      <trkpt lat="47.51802" lon="6.7746">
        <ele>387</ele>
        <time>2014-12-28T08:06:17Z</time>
      </trkpt>
      <trkpt lat="47.51819" lon="6.77473">
        <ele>387</ele>
        <time>2014-12-28T08:06:18Z</time>
      </trkpt>
      <trkpt lat="47.51811" lon="6.77471">
        <ele>387</ele>
        <time>2014-12-28T08:06:19Z</time>
      </trkpt>
      <trkpt lat="47.51829" lon="6.77469">
        <ele>386</ele>
        <time>2014-12-28T08:06:20Z</time>
      </trkpt>
      <trkpt lat="47.51816" lon="6.77479">
        <ele>387</ele>
        <time>2014-12-28T08:06:21Z</time>
      </trkpt>
      <trkpt lat="47.51808" lon="6.77481">
        <ele>387</ele>
        <time>2014-12-28T08:06:22Z</time>
      </trkpt>
      <trkpt lat="47.51799" lon="6.77474">
        <ele>387</ele>
        <time>2014-12-28T08:06:23Z</time>
      </trkpt>
      <trkpt lat="47.51798" lon="6.77482">
        <ele>387</ele>
        <time>2014-12-28T08:06:24Z</time>
      </trkpt>
      <trkpt lat="47.51778" lon="6.77481">
        <ele>388</ele>
        <time>2014-12-28T08:06:25Z</time>
      </trkpt>
      <trkpt lat="47.51776" lon="6.77481">
        <ele>388</ele>
        <time>2014-12-28T08:06:26Z</time>
      </trkpt>
      <trkpt lat="47.51792" lon="6.77479">
        <ele>387</ele>
        <time>2014-12-28T08:06:27Z</time>
      </trkpt>
      <trkpt lat="47.51827" lon="6.7748">
        <ele>387</ele>
        <time>2014-12-28T08:06:28Z</time>
      </trkpt>
      <trkpt lat="47.51824" lon="6.77472">
        <ele>386</ele>
        <time>2014-12-28T08:06:29Z</time>
      </trkpt>
      <trkpt lat="47.51794" lon="6.77477">
        <ele>387</ele>
        <time>2014-12-28T08:06:30Z</time>
      </trkpt>
      <trkpt lat="47.51796" lon="6.77478">
        <ele>387</ele>
        <time>2014-12-28T08:06:32Z</time>
      </trkpt>
      <trkpt lat="47.518" lon="6.77479">
        <ele>387</ele>
        <time>2014-12-28T08:06:34Z</time>
      </trkpt>
      <trkpt lat="47.51796" lon="6.77481">
        <ele>387</ele>
        <time>2014-12-28T08:07:35Z</time>
      </trkpt>
      <trkpt lat="47.51793" lon="6.77484">
        <ele>387</ele>
        <time>2014-12-28T08:07:38Z</time>
      </trkpt>
      <trkpt lat="47.51795" lon="6.77479">
        <ele>387</ele>
        <time>2014-12-28T08:09:45Z</time>
      </trkpt>
      <trkpt lat="47.51797" lon="6.7748">
        <ele>387</ele>
        <time>2014-12-28T08:09:46Z</time>
      </trkpt>
      <trkpt lat="47.518" lon="6.7748">
        <ele>387</ele>
        <time>2014-12-28T08:10:32Z</time>
      </trkpt>
      <trkpt lat="47.51802" lon="6.7748">
        <ele>387</ele>
        <time>2014-12-28T08:10:33Z</time>
      </trkpt>
      <trkpt lat="47.51804" lon="6.77482">
        <ele>387</ele>
        <time>2014-12-28T08:10:34Z</time>
      </trkpt>
      <trkpt lat="47.51806" lon="6.77484">
        <ele>387</ele>
        <time>2014-12-28T08:10:35Z</time>
      </trkpt>
      <trkpt lat="47.51809" lon="6.77482">
        <ele>387</ele>
        <time>2014-12-28T08:10:38Z</time>
      </trkpt>
      <trkpt lat="47.5181" lon="6.77481">
        <ele>387</ele>
        <time>2014-12-28T08:10:39Z</time>
      </trkpt>
      <trkpt lat="47.51806" lon="6.7748">
        <ele>387</ele>
        <time>2014-12-28T08:10:48Z</time>
      </trkpt>
      <trkpt lat="47.51805" lon="6.7748">
        <ele>387</ele>
        <time>2014-12-28T08:10:49Z</time>
      </trkpt>
      <trkpt lat="47.51802" lon="6.77475">
        <ele>387</ele>
        <time>2014-12-28T08:11:41Z</time>
      </trkpt>
      <trkpt lat="47.51803" lon="6.77474">
        <ele>387</ele>
        <time>2014-12-28T08:11:42Z</time>
      </trkpt>
      <trkpt lat="47.51806" lon="6.77478">
        <ele>387</ele>
        <time>2014-12-28T08:11:55Z</time>
      </trkpt>
      <trkpt lat="47.51806" lon="6.7748">
        <ele>387</ele>
        <time>2014-12-28T08:11:56Z</time>
      </trkpt>
      <trkpt lat="47.51808" lon="6.77484">
        <ele>387</ele>
        <time>2014-12-28T08:11:58Z</time>
      </trkpt>
      <trkpt lat="47.51808" lon="6.77486">
        <ele>387</ele>
        <time>2014-12-28T08:11:59Z</time>
      </trkpt>
      <trkpt lat="47.51809" lon="6.77491">
        <ele>387</ele>
        <time>2014-12-28T08:12:01Z</time>
      </trkpt>
      <trkpt lat="47.5181" lon="6.77493">
        <ele>387</ele>
        <time>2014-12-28T08:12:02Z</time>
      </trkpt>
      <trkpt lat="47.51809" lon="6.77499">
        <ele>387</ele>
        <time>2014-12-28T08:12:05Z</time>
      </trkpt>
      <trkpt lat="47.51809" lon="6.775">
        <ele>387</ele>
        <time>2014-12-28T08:12:06Z</time>
      </trkpt>
      <trkpt lat="47.51806" lon="6.77505">
        <ele>388</ele>
        <time>2014-12-28T08:13:21Z</time>
      </trkpt>
      <trkpt lat="47.51805" lon="6.77504">
        <ele>388</ele>
        <time>2014-12-28T08:13:22Z</time>
      </trkpt>
      <trkpt lat="47.518" lon="6.77502">
        <ele>388</ele>
        <time>2014-12-28T08:13:24Z</time>
      </trkpt>
      <trkpt lat="47.51798" lon="6.77501">
        <ele>388</ele>
        <time>2014-12-28T08:13:25Z</time>
      </trkpt>
      <trkpt lat="47.51795" lon="6.775">
        <ele>387</ele>
        <time>2014-12-28T08:13:26Z</time>
      </trkpt>
      <trkpt lat="47.51792" lon="6.77499">
        <ele>388</ele>
        <time>2014-12-28T08:13:27Z</time>
      </trkpt>
      <trkpt lat="47.51789" lon="6.77498">
        <ele>388</ele>
        <time>2014-12-28T08:13:28Z</time>
      </trkpt>
      <trkpt lat="47.51786" lon="6.77496">
        <ele>388</ele>
        <time>2014-12-28T08:13:29Z</time>
      </trkpt>
      <trkpt lat="47.51783" lon="6.77495">
        <ele>388</ele>
        <time>2014-12-28T08:13:30Z</time>
      </trkpt>
      <trkpt lat="47.51779" lon="6.77494">
        <ele>388</ele>
        <time>2014-12-28T08:13:31Z</time>
      </trkpt>
      <trkpt lat="47.51775" lon="6.77493">
        <ele>389</ele>
        <time>2014-12-28T08:13:32Z</time>
      </trkpt>
      <trkpt lat="47.51771" lon="6.77492">
        <ele>389</ele>
        <time>2014-12-28T08:13:33Z</time>
      </trkpt>
      <trkpt lat="47.51767" lon="6.77492">
        <ele>389</ele>
        <time>2014-12-28T08:13:34Z</time>
      </trkpt>
      <trkpt lat="47.51763" lon="6.77492">
        <ele>389</ele>
        <time>2014-12-28T08:13:35Z</time>
      </trkpt>
      <trkpt lat="47.51752" lon="6.77492">
        <ele>389</ele>
        <time>2014-12-28T08:13:38Z</time>
      </trkpt>
      <trkpt lat="47.51748" lon="6.77491">
        <ele>389</ele>
        <time>2014-12-28T08:13:39Z</time>
      </trkpt>
      <trkpt lat="47.51745" lon="6.7749">
        <ele>389</ele>
        <time>2014-12-28T08:13:40Z</time>
      </trkpt>
      <trkpt lat="47.51743" lon="6.77489">
        <ele>389</ele>
        <time>2014-12-28T08:13:41Z</time>
      </trkpt>
      <trkpt lat="47.5174" lon="6.77489">
        <ele>389</ele>
        <time>2014-12-28T08:13:42Z</time>
      </trkpt>
      <trkpt lat="47.51736" lon="6.77491">
        <ele>389</ele>
        <time>2014-12-28T08:13:44Z</time>
      </trkpt>
      <trkpt lat="47.51735" lon="6.77495">
        <ele>389</ele>
        <time>2014-12-28T08:13:45Z</time>
      </trkpt>
      <trkpt lat="47.51734" lon="6.775">
        <ele>389</ele>
        <time>2014-12-28T08:13:46Z</time>
      </trkpt>
      <trkpt lat="47.51734" lon="6.77506">
        <ele>390</ele>
        <time>2014-12-28T08:13:47Z</time>
      </trkpt>
      <trkpt lat="47.51733" lon="6.77512">
        <ele>390</ele>
        <time>2014-12-28T08:13:48Z</time>
      </trkpt>
      <trkpt lat="47.51732" lon="6.77518">
        <ele>390</ele>
        <time>2014-12-28T08:13:49Z</time>
      </trkpt>
      <trkpt lat="47.51731" lon="6.77524">
        <ele>390</ele>
        <time>2014-12-28T08:13:50Z</time>
      </trkpt>
      <trkpt lat="47.51729" lon="6.77531">
        <ele>390</ele>
        <time>2014-12-28T08:13:51Z</time>
      </trkpt>
      <trkpt lat="47.51727" lon="6.77537">
        <ele>390</ele>
        <time>2014-12-28T08:13:52Z</time>
      </trkpt>
      <trkpt lat="47.51726" lon="6.77543">
        <ele>390</ele>
        <time>2014-12-28T08:13:53Z</time>
      </trkpt>
      <trkpt lat="47.51725" lon="6.77549">
        <ele>390</ele>
        <time>2014-12-28T08:13:54Z</time>
      </trkpt>
      <trkpt lat="47.51724" lon="6.77554">
        <ele>390</ele>
        <time>2014-12-28T08:13:55Z</time>
      </trkpt>
      <trkpt lat="47.51724" lon="6.77559">
        <ele>390</ele>
        <time>2014-12-28T08:13:56Z</time>
      </trkpt>
      <trkpt lat="47.51723" lon="6.77562">
        <ele>390</ele>
        <time>2014-12-28T08:13:57Z</time>
      </trkpt>
      <trkpt lat="47.51719" lon="6.77566">
        <ele>390</ele>
        <time>2014-12-28T08:13:59Z</time>
      </trkpt>
      <trkpt lat="47.51717" lon="6.77566">
        <ele>390</ele>
        <time>2014-12-28T08:14:00Z</time>
      </trkpt>
      <trkpt lat="47.51715" lon="6.77567">
        <ele>390</ele>
        <time>2014-12-28T08:14:01Z</time>
      </trkpt>
      <trkpt lat="47.51712" lon="6.77567">
        <ele>390</ele>
        <time>2014-12-28T08:14:02Z</time>
      </trkpt>
      <trkpt lat="47.5171" lon="6.77565">
        <ele>390</ele>
        <time>2014-12-28T08:14:03Z</time>
      </trkpt>
      <trkpt lat="47.51707" lon="6.77562">
        <ele>390</ele>
        <time>2014-12-28T08:14:04Z</time>
      </trkpt>
      <trkpt lat="47.51705" lon="6.7756">
        <ele>389</ele>
        <time>2014-12-28T08:14:05Z</time>
      </trkpt>
      <trkpt lat="47.51699" lon="6.77547">
        <ele>389</ele>
        <time>2014-12-28T08:14:06Z</time>
      </trkpt>
      <trkpt lat="47.51694" lon="6.77543">
        <ele>389</ele>
        <time>2014-12-28T08:14:07Z</time>
      </trkpt>
      <trkpt lat="47.5169" lon="6.77539">
        <ele>389</ele>
        <time>2014-12-28T08:14:08Z</time>
      </trkpt>
      <trkpt lat="47.51686" lon="6.77534">
        <ele>389</ele>
        <time>2014-12-28T08:14:09Z</time>
      </trkpt>
      <trkpt lat="47.51682" lon="6.77529">
        <ele>389</ele>
        <time>2014-12-28T08:14:09Z</time>
      </trkpt>
      <trkpt lat="47.51677" lon="6.77524">
        <ele>389</ele>
        <time>2014-12-28T08:14:11Z</time>
      </trkpt>
      <trkpt lat="47.51673" lon="6.77519">
        <ele>389</ele>
        <time>2014-12-28T08:14:12Z</time>
      </trkpt>
      <trkpt lat="47.51669" lon="6.77515">
        <ele>389</ele>
        <time>2014-12-28T08:14:13Z</time>
      </trkpt>
      <trkpt lat="47.51665" lon="6.7751">
        <ele>388</ele>
        <time>2014-12-28T08:14:14Z</time>
      </trkpt>
      <trkpt lat="47.51661" lon="6.77506">
        <ele>388</ele>
        <time>2014-12-28T08:14:15Z</time>
      </trkpt>
      <trkpt lat="47.51657" lon="6.77501">
        <ele>388</ele>
        <time>2014-12-28T08:14:16Z</time>
      </trkpt>
      <trkpt lat="47.51653" lon="6.77497">
        <ele>388</ele>
        <time>2014-12-28T08:14:17Z</time>
      </trkpt>
      <trkpt lat="47.51648" lon="6.77492">
        <ele>388</ele>
        <time>2014-12-28T08:14:18Z</time>
      </trkpt>
      <trkpt lat="47.51644" lon="6.77487">
        <ele>387</ele>
        <time>2014-12-28T08:14:19Z</time>
      </trkpt>
      <trkpt lat="47.5164" lon="6.77482">
        <ele>387</ele>
        <time>2014-12-28T08:14:20Z</time>
      </trkpt>
      <trkpt lat="47.51636" lon="6.77478">
        <ele>386</ele>
        <time>2014-12-28T08:14:21Z</time>
      </trkpt>
      <trkpt lat="47.51631" lon="6.77473">
        <ele>386</ele>
        <time>2014-12-28T08:14:22Z</time>
      </trkpt>
      <trkpt lat="47.51627" lon="6.77467">
        <ele>386</ele>
        <time>2014-12-28T08:14:23Z</time>
      </trkpt>
      <trkpt lat="47.51622" lon="6.77462">
        <ele>385</ele>
        <time>2014-12-28T08:14:24Z</time>
      </trkpt>
      <trkpt lat="47.51618" lon="6.77456">
        <ele>385</ele>
        <time>2014-12-28T08:14:25Z</time>
      </trkpt>
      <trkpt lat="47.51614" lon="6.77451">
        <ele>384</ele>
        <time>2014-12-28T08:14:26Z</time>
      </trkpt>
      <trkpt lat="47.51609" lon="6.77446">
        <ele>384</ele>
        <time>2014-12-28T08:14:27Z</time>
      </trkpt>
      <trkpt lat="47.51605" lon="6.77441">
        <ele>384</ele>
        <time>2014-12-28T08:14:28Z</time>
      </trkpt>
      <trkpt lat="47.516" lon="6.77436">
        <ele>383</ele>
        <time>2014-12-28T08:14:29Z</time>
      </trkpt>
      <trkpt lat="47.51595" lon="6.7743">
        <ele>383</ele>
        <time>2014-12-28T08:14:30Z</time>
      </trkpt>
      <trkpt lat="47.51591" lon="6.77425">
        <ele>383</ele>
        <time>2014-12-28T08:14:31Z</time>
      </trkpt>
      <trkpt lat="47.51586" lon="6.77418">
        <ele>383</ele>
        <time>2014-12-28T08:14:32Z</time>
      </trkpt>
      <trkpt lat="47.51582" lon="6.77413">
        <ele>382</ele>
        <time>2014-12-28T08:14:33Z</time>
      </trkpt>
      <trkpt lat="47.51577" lon="6.77407">
        <ele>382</ele>
        <time>2014-12-28T08:14:34Z</time>
      </trkpt>
      <trkpt lat="47.51572" lon="6.77401">
        <ele>382</ele>
        <time>2014-12-28T08:14:35Z</time>
      </trkpt>
      <trkpt lat="47.51558" lon="6.77384">
        <ele>381</ele>
        <time>2014-12-28T08:14:38Z</time>
      </trkpt>
      <trkpt lat="47.51553" lon="6.77378">
        <ele>381</ele>
        <time>2014-12-28T08:14:39Z</time>
      </trkpt>
      <trkpt lat="47.51548" lon="6.77372">
        <ele>380</ele>
        <time>2014-12-28T08:14:40Z</time>
      </trkpt>
      <trkpt lat="47.51543" lon="6.77366">
        <ele>380</ele>
        <time>2014-12-28T08:14:41Z</time>
      </trkpt>
      <trkpt lat="47.51538" lon="6.77359">
        <ele>380</ele>
        <time>2014-12-28T08:14:42Z</time>
      </trkpt>
      <trkpt lat="47.51532" lon="6.77353">
        <ele>379</ele>
        <time>2014-12-28T08:14:43Z</time>
      </trkpt>
      <trkpt lat="47.51528" lon="6.77346">
        <ele>379</ele>
        <time>2014-12-28T08:14:44Z</time>
      </trkpt>
      <trkpt lat="47.51524" lon="6.7734">
        <ele>378</ele>
        <time>2014-12-28T08:14:45Z</time>
      </trkpt>
      <trkpt lat="47.5152" lon="6.77334">
        <ele>378</ele>
        <time>2014-12-28T08:14:46Z</time>
      </trkpt>
      <trkpt lat="47.51515" lon="6.77329">
        <ele>378</ele>
        <time>2014-12-28T08:14:47Z</time>
      </trkpt>
      <trkpt lat="47.51511" lon="6.77323">
        <ele>377</ele>
        <time>2014-12-28T08:14:48Z</time>
      </trkpt>
      <trkpt lat="47.51508" lon="6.77318">
        <ele>377</ele>
        <time>2014-12-28T08:14:49Z</time>
      </trkpt>
      <trkpt lat="47.51505" lon="6.77313">
        <ele>377</ele>
        <time>2014-12-28T08:14:50Z</time>
      </trkpt>
      <trkpt lat="47.51502" lon="6.77307">
        <ele>377</ele>
        <time>2014-12-28T08:14:51Z</time>
      </trkpt>
      <trkpt lat="47.515" lon="6.773">
        <ele>377</ele>
        <time>2014-12-28T08:14:52Z</time>
      </trkpt>
      <trkpt lat="47.51499" lon="6.77292">
        <ele>376</ele>
        <time>2014-12-28T08:14:53Z</time>
      </trkpt>
      <trkpt lat="47.51498" lon="6.77285">
        <ele>376</ele>
        <time>2014-12-28T08:14:54Z</time>
      </trkpt>
      <trkpt lat="47.51497" lon="6.77276">
        <ele>376</ele>
        <time>2014-12-28T08:14:55Z</time>
      </trkpt>
      <trkpt lat="47.51497" lon="6.77267">
        <ele>376</ele>
        <time>2014-12-28T08:14:56Z</time>
      </trkpt>
      <trkpt lat="47.51497" lon="6.77259">
        <ele>376</ele>
        <time>2014-12-28T08:14:57Z</time>
      </trkpt>
      <trkpt lat="47.51497" lon="6.77247">
        <ele>375</ele>
        <time>2014-12-28T08:14:58Z</time>
      </trkpt>
      <trkpt lat="47.51497" lon="6.77238">
        <ele>375</ele>
        <time>2014-12-28T08:14:59Z</time>
      </trkpt>
      <trkpt lat="47.51497" lon="6.77231">
        <ele>375</ele>
        <time>2014-12-28T08:15:00Z</time>
      </trkpt>
      <trkpt lat="47.51496" lon="6.77224">
        <ele>375</ele>
        <time>2014-12-28T08:15:01Z</time>
      </trkpt>
      <trkpt lat="47.51494" lon="6.77218">
        <ele>375</ele>
        <time>2014-12-28T08:15:02Z</time>
      </trkpt>
      <trkpt lat="47.51491" lon="6.77214">
        <ele>375</ele>
        <time>2014-12-28T08:15:03Z</time>
      </trkpt>
      <trkpt lat="47.51489" lon="6.77211">
        <ele>375</ele>
        <time>2014-12-28T08:15:04Z</time>
      </trkpt>
      <trkpt lat="47.51487" lon="6.7721">
        <ele>375</ele>
        <time>2014-12-28T08:15:05Z</time>
      </trkpt>
      <trkpt lat="47.51483" lon="6.77209">
        <ele>375</ele>
        <time>2014-12-28T08:15:06Z</time>
      </trkpt>
      <trkpt lat="47.51478" lon="6.7721">
        <ele>375</ele>
        <time>2014-12-28T08:15:07Z</time>
      </trkpt>
      <trkpt lat="47.51473" lon="6.77213">
        <ele>375</ele>
        <time>2014-12-28T08:15:08Z</time>
      </trkpt>
      <trkpt lat="47.51467" lon="6.77216">
        <ele>375</ele>
        <time>2014-12-28T08:15:09Z</time>
      </trkpt>
      <trkpt lat="47.51463" lon="6.77219">
        <ele>375</ele>
        <time>2014-12-28T08:15:10Z</time>
      </trkpt>
      <trkpt lat="47.51458" lon="6.77221">
        <ele>375</ele>
        <time>2014-12-28T08:15:11Z</time>
      </trkpt>
      <trkpt lat="47.51453" lon="6.77223">
        <ele>375</ele>
        <time>2014-12-28T08:15:12Z</time>
      </trkpt>
      <trkpt lat="47.51449" lon="6.77226">
        <ele>375</ele>
        <time>2014-12-28T08:15:13Z</time>
      </trkpt>
      <trkpt lat="47.51444" lon="6.77229">
        <ele>375</ele>
        <time>2014-12-28T08:15:14Z</time>
      </trkpt>
      <trkpt lat="47.51439" lon="6.7723">
        <ele>375</ele>
        <time>2014-12-28T08:15:15Z</time>
      </trkpt>
      <trkpt lat="47.51435" lon="6.77232">
        <ele>375</ele>
        <time>2014-12-28T08:15:16Z</time>
      </trkpt>
      <trkpt lat="47.51431" lon="6.77235">
        <ele>375</ele>
        <time>2014-12-28T08:15:17Z</time>
      </trkpt>
      <trkpt lat="47.51427" lon="6.77237">
        <ele>375</ele>
        <time>2014-12-28T08:15:18Z</time>
      </trkpt>
      <trkpt lat="47.51423" lon="6.7724">
        <ele>375</ele>
        <time>2014-12-28T08:15:19Z</time>
      </trkpt>
      <trkpt lat="47.5142" lon="6.77244">
        <ele>375</ele>
        <time>2014-12-28T08:15:20Z</time>
      </trkpt>
      <trkpt lat="47.51416" lon="6.77247">
        <ele>375</ele>
        <time>2014-12-28T08:15:21Z</time>
      </trkpt>
      <trkpt lat="47.51411" lon="6.77248">
        <ele>375</ele>
        <time>2014-12-28T08:15:22Z</time>
      </trkpt>
      <trkpt lat="47.51407" lon="6.77252">
        <ele>376</ele>
        <time>2014-12-28T08:15:23Z</time>
      </trkpt>
      <trkpt lat="47.51403" lon="6.77256">
        <ele>376</ele>
        <time>2014-12-28T08:15:24Z</time>
      </trkpt>
      <trkpt lat="47.51399" lon="6.77259">
        <ele>376</ele>
        <time>2014-12-28T08:15:25Z</time>
      </trkpt>
      <trkpt lat="47.51396" lon="6.77262">
        <ele>376</ele>
        <time>2014-12-28T08:15:26Z</time>
      </trkpt>
      <trkpt lat="47.51391" lon="6.77264">
        <ele>376</ele>
        <time>2014-12-28T08:15:27Z</time>
      </trkpt>
      <trkpt lat="47.51388" lon="6.77267">
        <ele>376</ele>
        <time>2014-12-28T08:15:28Z</time>
      </trkpt>
      <trkpt lat="47.51384" lon="6.77271">
        <ele>377</ele>
        <time>2014-12-28T08:15:29Z</time>
      </trkpt>
      <trkpt lat="47.51382" lon="6.77274">
        <ele>377</ele>
        <time>2014-12-28T08:15:30Z</time>
      </trkpt>
      <trkpt lat="47.51378" lon="6.77277">
        <ele>377</ele>
        <time>2014-12-28T08:15:31Z</time>
      </trkpt>
      <trkpt lat="47.51375" lon="6.77281">
        <ele>377</ele>
        <time>2014-12-28T08:15:32Z</time>
      </trkpt>
      <trkpt lat="47.51372" lon="6.77283">
        <ele>377</ele>
        <time>2014-12-28T08:15:33Z</time>
      </trkpt>
      <trkpt lat="47.51368" lon="6.77286">
        <ele>378</ele>
        <time>2014-12-28T08:15:34Z</time>
      </trkpt>
      <trkpt lat="47.51365" lon="6.77288">
        <ele>378</ele>
        <time>2014-12-28T08:15:35Z</time>
      </trkpt>
      <trkpt lat="47.51362" lon="6.7729">
        <ele>378</ele>
        <time>2014-12-28T08:15:36Z</time>
      </trkpt>
      <trkpt lat="47.51339" lon="6.77304">
        <ele>380</ele>
        <time>2014-12-28T08:15:44Z</time>
      </trkpt>
      <trkpt lat="47.51336" lon="6.77305">
        <ele>380</ele>
        <time>2014-12-28T08:15:45Z</time>
      </trkpt>
      <trkpt lat="47.51332" lon="6.77305">
        <ele>380</ele>
        <time>2014-12-28T08:15:46Z</time>
      </trkpt>
      <trkpt lat="47.51329" lon="6.77304">
        <ele>380</ele>
        <time>2014-12-28T08:15:47Z</time>
      </trkpt>
      <trkpt lat="47.51325" lon="6.77304">
        <ele>380</ele>
        <time>2014-12-28T08:15:48Z</time>
      </trkpt>
      <trkpt lat="47.51321" lon="6.77302">
        <ele>379</ele>
        <time>2014-12-28T08:15:49Z</time>
      </trkpt>
      <trkpt lat="47.51317" lon="6.77301">
        <ele>379</ele>
        <time>2014-12-28T08:15:50Z</time>
      </trkpt>
      <trkpt lat="47.51313" lon="6.77299">
        <ele>378</ele>
        <time>2014-12-28T08:15:51Z</time>
      </trkpt>
      <trkpt lat="47.51309" lon="6.77297">
        <ele>378</ele>
        <time>2014-12-28T08:15:52Z</time>
      </trkpt>
      <trkpt lat="47.51306" lon="6.77295">
        <ele>378</ele>
        <time>2014-12-28T08:15:53Z</time>
      </trkpt>
      <trkpt lat="47.51302" lon="6.77293">
        <ele>377</ele>
        <time>2014-12-28T08:15:54Z</time>
      </trkpt>
      <trkpt lat="47.51298" lon="6.77291">
        <ele>377</ele>
        <time>2014-12-28T08:15:55Z</time>
      </trkpt>
      <trkpt lat="47.51295" lon="6.77289">
        <ele>377</ele>
        <time>2014-12-28T08:15:56Z</time>
      </trkpt>
      <trkpt lat="47.51291" lon="6.77285">
        <ele>376</ele>
        <time>2014-12-28T08:15:57Z</time>
      </trkpt>
      <trkpt lat="47.51287" lon="6.77282">
        <ele>376</ele>
        <time>2014-12-28T08:15:58Z</time>
      </trkpt>
      <trkpt lat="47.51284" lon="6.77278">
        <ele>376</ele>
        <time>2014-12-28T08:15:59Z</time>
      </trkpt>
      <trkpt lat="47.5128" lon="6.77275">
        <ele>376</ele>
        <time>2014-12-28T08:16:00Z</time>
      </trkpt>
      <trkpt lat="47.51276" lon="6.77271">
        <ele>377</ele>
        <time>2014-12-28T08:16:01Z</time>
      </trkpt>
      <trkpt lat="47.51273" lon="6.77267">
        <ele>377</ele>
        <time>2014-12-28T08:16:02Z</time>
      </trkpt>
      <trkpt lat="47.5127" lon="6.77262">
        <ele>377</ele>
        <time>2014-12-28T08:16:03Z</time>
      </trkpt>
      <trkpt lat="47.51267" lon="6.77254">
        <ele>378</ele>
        <time>2014-12-28T08:16:04Z</time>
      </trkpt>
      <trkpt lat="47.51263" lon="6.77249">
        <ele>378</ele>
        <time>2014-12-28T08:16:05Z</time>
      </trkpt>
      <trkpt lat="47.5126" lon="6.77242">
        <ele>378</ele>
        <time>2014-12-28T08:16:06Z</time>
      </trkpt>
      <trkpt lat="47.51257" lon="6.77236">
        <ele>378</ele>
        <time>2014-12-28T08:16:07Z</time>
      </trkpt>
      <trkpt lat="47.51253" lon="6.77231">
        <ele>378</ele>
        <time>2014-12-28T08:16:08Z</time>
      </trkpt>
      <trkpt lat="47.51249" lon="6.77225">
        <ele>378</ele>
        <time>2014-12-28T08:16:09Z</time>
      </trkpt>
      <trkpt lat="47.51246" lon="6.77219">
        <ele>378</ele>
        <time>2014-12-28T08:16:10Z</time>
      </trkpt>
      <trkpt lat="47.51243" lon="6.77213">
        <ele>378</ele>
        <time>2014-12-28T08:16:11Z</time>
      </trkpt>
      <trkpt lat="47.5124" lon="6.77208">
        <ele>377</ele>
        <time>2014-12-28T08:16:12Z</time>
      </trkpt>
      <trkpt lat="47.51237" lon="6.77203">
        <ele>377</ele>
        <time>2014-12-28T08:16:13Z</time>
      </trkpt>
      <trkpt lat="47.51233" lon="6.77198">
        <ele>377</ele>
        <time>2014-12-28T08:16:14Z</time>
      </trkpt>
      <trkpt lat="47.5123" lon="6.77192">
        <ele>377</ele>
        <time>2014-12-28T08:16:15Z</time>
      </trkpt>
      <trkpt lat="47.51227" lon="6.77187">
        <ele>377</ele>
        <time>2014-12-28T08:16:16Z</time>
      </trkpt>
      <trkpt lat="47.51224" lon="6.77181">
        <ele>377</ele>
        <time>2014-12-28T08:16:17Z</time>
      </trkpt>
      <trkpt lat="47.51221" lon="6.77175">
        <ele>377</ele>
        <time>2014-12-28T08:16:18Z</time>
      </trkpt>
      <trkpt lat="47.51217" lon="6.7717">
        <ele>377</ele>
        <time>2014-12-28T08:16:19Z</time>
      </trkpt>
      <trkpt lat="47.51214" lon="6.77164">
        <ele>378</ele>
        <time>2014-12-28T08:16:20Z</time>
      </trkpt>
      <trkpt lat="47.51211" lon="6.77157">
        <ele>377</ele>
        <time>2014-12-28T08:16:21Z</time>
      </trkpt>
      <trkpt lat="47.51208" lon="6.7715">
        <ele>377</ele>
        <time>2014-12-28T08:16:22Z</time>
      </trkpt>
      <trkpt lat="47.51205" lon="6.77143">
        <ele>377</ele>
        <time>2014-12-28T08:16:23Z</time>
      </trkpt>
      <trkpt lat="47.51201" lon="6.77137">
        <ele>377</ele>
        <time>2014-12-28T08:16:24Z</time>
      </trkpt>
      <trkpt lat="47.51198" lon="6.77131">
        <ele>377</ele>
        <time>2014-12-28T08:16:25Z</time>
      </trkpt>
      <trkpt lat="47.51194" lon="6.77124">
        <ele>377</ele>
        <time>2014-12-28T08:16:26Z</time>
      </trkpt>
      <trkpt lat="47.5119" lon="6.77117">
        <ele>377</ele>
        <time>2014-12-28T08:16:27Z</time>
      </trkpt>
      <trkpt lat="47.51187" lon="6.77111">
        <ele>377</ele>
        <time>2014-12-28T08:16:28Z</time>
      </trkpt>
      <trkpt lat="47.51182" lon="6.77104">
        <ele>377</ele>
        <time>2014-12-28T08:16:29Z</time>
      </trkpt>
      <trkpt lat="47.51179" lon="6.77097">
        <ele>377</ele>
        <time>2014-12-28T08:16:30Z</time>
      </trkpt>
      <trkpt lat="47.51174" lon="6.77091">
        <ele>377</ele>
        <time>2014-12-28T08:16:31Z</time>
      </trkpt>
      <trkpt lat="47.5117" lon="6.77085">
        <ele>377</ele>
        <time>2014-12-28T08:16:32Z</time>
      </trkpt>
      <trkpt lat="47.51166" lon="6.77079">
        <ele>377</ele>
        <time>2014-12-28T08:16:33Z</time>
      </trkpt>
      <trkpt lat="47.51162" lon="6.77073">
        <ele>377</ele>
        <time>2014-12-28T08:16:34Z</time>
      </trkpt>
      <trkpt lat="47.51157" lon="6.77068">
        <ele>377</ele>
        <time>2014-12-28T08:16:35Z</time>
      </trkpt>
      <trkpt lat="47.51152" lon="6.77063">
        <ele>377</ele>
        <time>2014-12-28T08:16:36Z</time>
      </trkpt>
      <trkpt lat="47.5111" lon="6.77025">
        <ele>374</ele>
        <time>2014-12-28T08:16:44Z</time>
      </trkpt>
      <trkpt lat="47.51104" lon="6.77022">
        <ele>374</ele>
        <time>2014-12-28T08:16:45Z</time>
      </trkpt>
      <trkpt lat="47.51098" lon="6.77018">
        <ele>374</ele>
        <time>2014-12-28T08:16:46Z</time>
      </trkpt>
      <trkpt lat="47.51093" lon="6.77013">
        <ele>374</ele>
        <time>2014-12-28T08:16:47Z</time>
      </trkpt>
      <trkpt lat="47.51086" lon="6.77008">
        <ele>374</ele>
        <time>2014-12-28T08:16:48Z</time>
      </trkpt>
      <trkpt lat="47.51081" lon="6.77002">
        <ele>374</ele>
        <time>2014-12-28T08:16:49Z</time>
      </trkpt>
      <trkpt lat="47.51076" lon="6.76997">
        <ele>374</ele>
        <time>2014-12-28T08:16:50Z</time>
      </trkpt>
      <trkpt lat="47.51071" lon="6.76993">
        <ele>374</ele>
        <time>2014-12-28T08:16:51Z</time>
      </trkpt>
      <trkpt lat="47.51066" lon="6.76988">
        <ele>374</ele>
        <time>2014-12-28T08:16:52Z</time>
      </trkpt>
      <trkpt lat="47.51062" lon="6.76982">
        <ele>374</ele>
        <time>2014-12-28T08:16:53Z</time>
      </trkpt>
      <trkpt lat="47.51056" lon="6.76977">
        <ele>374</ele>
        <time>2014-12-28T08:16:54Z</time>
      </trkpt>
      <trkpt lat="47.51052" lon="6.76972">
        <ele>374</ele>
        <time>2014-12-28T08:16:55Z</time>
      </trkpt>
      <trkpt lat="47.51047" lon="6.76969">
        <ele>374</ele>
        <time>2014-12-28T08:16:56Z</time>
      </trkpt>
      <trkpt lat="47.51042" lon="6.76965">
        <ele>374</ele>
        <time>2014-12-28T08:16:57Z</time>
      </trkpt>
      <trkpt lat="47.51037" lon="6.76959">
        <ele>374</ele>
        <time>2014-12-28T08:16:58Z</time>
      </trkpt>
      <trkpt lat="47.51032" lon="6.76955">
        <ele>374</ele>
        <time>2014-12-28T08:16:59Z</time>
      </trkpt>
      <trkpt lat="47.51028" lon="6.76951">
        <ele>374</ele>
        <time>2014-12-28T08:17:00Z</time>
      </trkpt>
      <trkpt lat="47.51023" lon="6.76947">
        <ele>374</ele>
        <time>2014-12-28T08:17:01Z</time>
      </trkpt>
      <trkpt lat="47.51019" lon="6.76944">
        <ele>375</ele>
        <time>2014-12-28T08:17:01Z</time>
      </trkpt>
      <trkpt lat="47.51014" lon="6.76941">
        <ele>375</ele>
        <time>2014-12-28T08:17:03Z</time>
      </trkpt>
      <trkpt lat="47.5101" lon="6.76937">
        <ele>375</ele>
        <time>2014-12-28T08:17:04Z</time>
      </trkpt>
      <trkpt lat="47.51005" lon="6.76934">
        <ele>375</ele>
        <time>2014-12-28T08:17:05Z</time>
      </trkpt>
      <trkpt lat="47.51001" lon="6.76932">
        <ele>375</ele>
        <time>2014-12-28T08:17:06Z</time>
      </trkpt>
      <trkpt lat="47.50998" lon="6.7693">
        <ele>375</ele>
        <time>2014-12-28T08:17:07Z</time>
      </trkpt>
      <trkpt lat="47.50994" lon="6.76926">
        <ele>375</ele>
        <time>2014-12-28T08:17:08Z</time>
      </trkpt>
      <trkpt lat="47.50991" lon="6.76921">
        <ele>375</ele>
        <time>2014-12-28T08:17:09Z</time>
      </trkpt>
      <trkpt lat="47.50986" lon="6.76917">
        <ele>375</ele>
        <time>2014-12-28T08:17:10Z</time>
      </trkpt>
      <trkpt lat="47.50982" lon="6.76914">
        <ele>376</ele>
        <time>2014-12-28T08:17:11Z</time>
      </trkpt>
      <trkpt lat="47.50978" lon="6.76912">
        <ele>376</ele>
        <time>2014-12-28T08:17:12Z</time>
      </trkpt>
      <trkpt lat="47.50973" lon="6.76912">
        <ele>376</ele>
        <time>2014-12-28T08:17:13Z</time>
      </trkpt>
      <trkpt lat="47.50969" lon="6.76909">
        <ele>376</ele>
        <time>2014-12-28T08:17:14Z</time>
      </trkpt>
      <trkpt lat="47.50964" lon="6.76907">
        <ele>377</ele>
        <time>2014-12-28T08:17:15Z</time>
      </trkpt>
      <trkpt lat="47.50961" lon="6.76903">
        <ele>377</ele>
        <time>2014-12-28T08:17:16Z</time>
      </trkpt>
      <trkpt lat="47.50957" lon="6.769">
        <ele>377</ele>
        <time>2014-12-28T08:17:17Z</time>
      </trkpt>
      <trkpt lat="47.50953" lon="6.76895">
        <ele>377</ele>
        <time>2014-12-28T08:17:18Z</time>
      </trkpt>
      <trkpt lat="47.5095" lon="6.76889">
        <ele>377</ele>
        <time>2014-12-28T08:17:19Z</time>
      </trkpt>
      <trkpt lat="47.50947" lon="6.76884">
        <ele>377</ele>
        <time>2014-12-28T08:17:20Z</time>
      </trkpt>
      <trkpt lat="47.50944" lon="6.7688">
        <ele>378</ele>
        <time>2014-12-28T08:17:21Z</time>
      </trkpt>
      <trkpt lat="47.50941" lon="6.76877">
        <ele>378</ele>
        <time>2014-12-28T08:17:22Z</time>
      </trkpt>
      <trkpt lat="47.50938" lon="6.76874">
        <ele>378</ele>
        <time>2014-12-28T08:17:23Z</time>
      </trkpt>
      <trkpt lat="47.50935" lon="6.7687">
        <ele>378</ele>
        <time>2014-12-28T08:17:24Z</time>
      </trkpt>
      <trkpt lat="47.50931" lon="6.76865">
        <ele>378</ele>
        <time>2014-12-28T08:17:25Z</time>
      </trkpt>
      <trkpt lat="47.50929" lon="6.76862">
        <ele>379</ele>
        <time>2014-12-28T08:17:26Z</time>
      </trkpt>
      <trkpt lat="47.50926" lon="6.76856">
        <ele>379</ele>
        <time>2014-12-28T08:17:27Z</time>
      </trkpt>
      <trkpt lat="47.50924" lon="6.76852">
        <ele>379</ele>
        <time>2014-12-28T08:17:28Z</time>
      </trkpt>
      <trkpt lat="47.50922" lon="6.76849">
        <ele>379</ele>
        <time>2014-12-28T08:17:29Z</time>
      </trkpt>
      <trkpt lat="47.50921" lon="6.76845">
        <ele>379</ele>
        <time>2014-12-28T08:17:30Z</time>
      </trkpt>
      <trkpt lat="47.50919" lon="6.76839">
        <ele>379</ele>
        <time>2014-12-28T08:17:31Z</time>
      </trkpt>
      <trkpt lat="47.50916" lon="6.76833">
        <ele>380</ele>
        <time>2014-12-28T08:17:32Z</time>
      </trkpt>
      <trkpt lat="47.50914" lon="6.76828">
        <ele>380</ele>
        <time>2014-12-28T08:17:33Z</time>
      </trkpt>
      <trkpt lat="47.50911" lon="6.76821">
        <ele>380</ele>
        <time>2014-12-28T08:17:34Z</time>
      </trkpt>
      <trkpt lat="47.50908" lon="6.76817">
        <ele>380</ele>
        <time>2014-12-28T08:17:35Z</time>
      </trkpt>
      <trkpt lat="47.50898" lon="6.76797">
        <ele>380</ele>
        <time>2014-12-28T08:17:38Z</time>
      </trkpt>
      <trkpt lat="47.50895" lon="6.76792">
        <ele>380</ele>
        <time>2014-12-28T08:17:39Z</time>
      </trkpt>
      <trkpt lat="47.50891" lon="6.76787">
        <ele>380</ele>
        <time>2014-12-28T08:17:40Z</time>
      </trkpt>
      <trkpt lat="47.50891" lon="6.76783">
        <ele>380</ele>
        <time>2014-12-28T08:17:41Z</time>
      </trkpt>
      <trkpt lat="47.50889" lon="6.76778">
        <ele>380</ele>
        <time>2014-12-28T08:17:42Z</time>
      </trkpt>
      <trkpt lat="47.50885" lon="6.76773">
        <ele>380</ele>
        <time>2014-12-28T08:17:43Z</time>
      </trkpt>
      <trkpt lat="47.50882" lon="6.76768">
        <ele>380</ele>
        <time>2014-12-28T08:17:43Z</time>
      </trkpt>
      <trkpt lat="47.5088" lon="6.76763">
        <ele>381</ele>
        <time>2014-12-28T08:17:45Z</time>
      </trkpt>
      <trkpt lat="47.50878" lon="6.76758">
        <ele>381</ele>
        <time>2014-12-28T08:17:46Z</time>
      </trkpt>
      <trkpt lat="47.50876" lon="6.76752">
        <ele>381</ele>
        <time>2014-12-28T08:17:47Z</time>
      </trkpt>
      <trkpt lat="47.50876" lon="6.76746">
        <ele>382</ele>
        <time>2014-12-28T08:17:48Z</time>
      </trkpt>
      <trkpt lat="47.50873" lon="6.76741">
        <ele>383</ele>
        <time>2014-12-28T08:17:49Z</time>
      </trkpt>
      <trkpt lat="47.5087" lon="6.76737">
        <ele>383</ele>
        <time>2014-12-28T08:17:50Z</time>
      </trkpt>
      <trkpt lat="47.50868" lon="6.76732">
        <ele>383</ele>
        <time>2014-12-28T08:17:51Z</time>
      </trkpt>
      <trkpt lat="47.50867" lon="6.76728">
        <ele>384</ele>
        <time>2014-12-28T08:17:52Z</time>
      </trkpt>
      <trkpt lat="47.50864" lon="6.76722">
        <ele>384</ele>
        <time>2014-12-28T08:17:53Z</time>
      </trkpt>
      <trkpt lat="47.50863" lon="6.76717">
        <ele>384</ele>
        <time>2014-12-28T08:17:54Z</time>
      </trkpt>
      <trkpt lat="47.50861" lon="6.76713">
        <ele>384</ele>
        <time>2014-12-28T08:17:55Z</time>
      </trkpt>
      <trkpt lat="47.5086" lon="6.76706">
        <ele>385</ele>
        <time>2014-12-28T08:17:56Z</time>
      </trkpt>
      <trkpt lat="47.50858" lon="6.76701">
        <ele>385</ele>
        <time>2014-12-28T08:17:57Z</time>
      </trkpt>
      <trkpt lat="47.50857" lon="6.76697">
        <ele>386</ele>
        <time>2014-12-28T08:17:58Z</time>
      </trkpt>
      <trkpt lat="47.50854" lon="6.76692">
        <ele>386</ele>
        <time>2014-12-28T08:17:59Z</time>
      </trkpt>
      <trkpt lat="47.50852" lon="6.76688">
        <ele>387</ele>
        <time>2014-12-28T08:18:00Z</time>
      </trkpt>
      <trkpt lat="47.5085" lon="6.76683">
        <ele>387</ele>
        <time>2014-12-28T08:18:01Z</time>
      </trkpt>
      <trkpt lat="47.50848" lon="6.76679">
        <ele>387</ele>
        <time>2014-12-28T08:18:02Z</time>
      </trkpt>
      <trkpt lat="47.50847" lon="6.76674">
        <ele>388</ele>
        <time>2014-12-28T08:18:03Z</time>
      </trkpt>
      <trkpt lat="47.50845" lon="6.7667">
        <ele>388</ele>
        <time>2014-12-28T08:18:04Z</time>
      </trkpt>
      <trkpt lat="47.50844" lon="6.76665">
        <ele>388</ele>
        <time>2014-12-28T08:18:05Z</time>
      </trkpt>
      <trkpt lat="47.50842" lon="6.7666">
        <ele>388</ele>
        <time>2014-12-28T08:18:06Z</time>
      </trkpt>
      <trkpt lat="47.5084" lon="6.76654">
        <ele>388</ele>
        <time>2014-12-28T08:18:07Z</time>
      </trkpt>
      <trkpt lat="47.50838" lon="6.76648">
        <ele>388</ele>
        <time>2014-12-28T08:18:08Z</time>
      </trkpt>
      <trkpt lat="47.50836" lon="6.76642">
        <ele>388</ele>
        <time>2014-12-28T08:18:09Z</time>
      </trkpt>
      <trkpt lat="47.50833" lon="6.76636">
        <ele>388</ele>
        <time>2014-12-28T08:18:10Z</time>
      </trkpt>
      <trkpt lat="47.5083" lon="6.7663">
        <ele>389</ele>
        <time>2014-12-28T08:18:11Z</time>
      </trkpt>
      <trkpt lat="47.50829" lon="6.76625">
        <ele>389</ele>
        <time>2014-12-28T08:18:12Z</time>
      </trkpt>
      <trkpt lat="47.50827" lon="6.7662">
        <ele>389</ele>
        <time>2014-12-28T08:18:13Z</time>
      </trkpt>
      <trkpt lat="47.50825" lon="6.76613">
        <ele>389</ele>
        <time>2014-12-28T08:18:14Z</time>
      </trkpt>
      <trkpt lat="47.50822" lon="6.76608">
        <ele>389</ele>
        <time>2014-12-28T08:18:16Z</time>
      </trkpt>
      <trkpt lat="47.50821" lon="6.76606">
        <ele>389</ele>
        <time>2014-12-28T08:18:17Z</time>
      </trkpt>
      <trkpt lat="47.50817" lon="6.76605">
        <ele>389</ele>
        <time>2014-12-28T08:18:19Z</time>
      </trkpt>
      <trkpt lat="47.50814" lon="6.76604">
        <ele>389</ele>
        <time>2014-12-28T08:18:19Z</time>
      </trkpt>
      <trkpt lat="47.50812" lon="6.76601">
        <ele>389</ele>
        <time>2014-12-28T08:18:23Z</time>
      </trkpt>
      <trkpt lat="47.50812" lon="6.76599">
        <ele>389</ele>
        <time>2014-12-28T08:18:24Z</time>
      </trkpt>
      <trkpt lat="47.50809" lon="6.76594">
        <ele>389</ele>
        <time>2014-12-28T08:18:30Z</time>
      </trkpt>
      <trkpt lat="47.50808" lon="6.76595">
        <ele>389</ele>
        <time>2014-12-28T08:18:31Z</time>
      </trkpt>
      <trkpt lat="47.50804" lon="6.76597">
        <ele>390</ele>
        <time>2014-12-28T08:18:34Z</time>
      </trkpt>
      <trkpt lat="47.50803" lon="6.76598">
        <ele>390</ele>
        <time>2014-12-28T08:18:35Z</time>
      </trkpt>
      <trkpt lat="47.50801" lon="6.76599">
        <ele>390</ele>
        <time>2014-12-28T08:18:36Z</time>
      </trkpt>
      <trkpt lat="47.50786" lon="6.76604">
        <ele>391</ele>
        <time>2014-12-28T08:18:44Z</time>
      </trkpt>
      <trkpt lat="47.50783" lon="6.76608">
        <ele>391</ele>
        <time>2014-12-28T08:18:52Z</time>
      </trkpt>
      <trkpt lat="47.50782" lon="6.76609">
        <ele>391</ele>
        <time>2014-12-28T08:18:53Z</time>
      </trkpt>
      <trkpt lat="47.50779" lon="6.76609">
        <ele>391</ele>
        <time>2014-12-28T08:18:55Z</time>
      </trkpt>
      <trkpt lat="47.50777" lon="6.76609">
        <ele>392</ele>
        <time>2014-12-28T08:18:56Z</time>
      </trkpt>
      <trkpt lat="47.50773" lon="6.76609">
        <ele>392</ele>
        <time>2014-12-28T08:18:58Z</time>
      </trkpt>
      <trkpt lat="47.5077" lon="6.76609">
        <ele>392</ele>
        <time>2014-12-28T08:18:59Z</time>
      </trkpt>
      <trkpt lat="47.50768" lon="6.76609">
        <ele>392</ele>
        <time>2014-12-28T08:19:00Z</time>
      </trkpt>
      <trkpt lat="47.50765" lon="6.76609">
        <ele>392</ele>
        <time>2014-12-28T08:19:01Z</time>
      </trkpt>
      <trkpt lat="47.50763" lon="6.76609">
        <ele>392</ele>
        <time>2014-12-28T08:19:02Z</time>
      </trkpt>
      <trkpt lat="47.50761" lon="6.76609">
        <ele>393</ele>
        <time>2014-12-28T08:19:03Z</time>
      </trkpt>
      <trkpt lat="47.50758" lon="6.76608">
        <ele>393</ele>
        <time>2014-12-28T08:19:04Z</time>
      </trkpt>
      <trkpt lat="47.50756" lon="6.76608">
        <ele>393</ele>
        <time>2014-12-28T08:19:05Z</time>
      </trkpt>
      <trkpt lat="47.50753" lon="6.76607">
        <ele>393</ele>
        <time>2014-12-28T08:19:06Z</time>
      </trkpt>
      <trkpt lat="47.50751" lon="6.76606">
        <ele>393</ele>
        <time>2014-12-28T08:19:07Z</time>
      </trkpt>
      <trkpt lat="47.50748" lon="6.76606">
        <ele>393</ele>
        <time>2014-12-28T08:19:08Z</time>
      </trkpt>
      <trkpt lat="47.50746" lon="6.76605">
        <ele>393</ele>
        <time>2014-12-28T08:19:09Z</time>
      </trkpt>
      <trkpt lat="47.50744" lon="6.76604">
        <ele>393</ele>
        <time>2014-12-28T08:19:10Z</time>
      </trkpt>
      <trkpt lat="47.50741" lon="6.76603">
        <ele>393</ele>
        <time>2014-12-28T08:19:11Z</time>
      </trkpt>
      <trkpt lat="47.50739" lon="6.76603">
        <ele>393</ele>
        <time>2014-12-28T08:19:12Z</time>
      </trkpt>
      <trkpt lat="47.50737" lon="6.76602">
        <ele>393</ele>
        <time>2014-12-28T08:19:13Z</time>
      </trkpt>
      <trkpt lat="47.50732" lon="6.76601">
        <ele>393</ele>
        <time>2014-12-28T08:19:15Z</time>
      </trkpt>
      <trkpt lat="47.5073" lon="6.76601">
        <ele>393</ele>
        <time>2014-12-28T08:19:16Z</time>
      </trkpt>
      <trkpt lat="47.50728" lon="6.766">
        <ele>393</ele>
        <time>2014-12-28T08:19:17Z</time>
      </trkpt>
      <trkpt lat="47.50725" lon="6.76599">
        <ele>393</ele>
        <time>2014-12-28T08:19:18Z</time>
      </trkpt>
      <trkpt lat="47.50723" lon="6.76598">
        <ele>394</ele>
        <time>2014-12-28T08:19:19Z</time>
      </trkpt>
      <trkpt lat="47.50721" lon="6.76597">
        <ele>394</ele>
        <time>2014-12-28T08:19:20Z</time>
      </trkpt>
      <trkpt lat="47.50719" lon="6.76596">
        <ele>394</ele>
        <time>2014-12-28T08:19:21Z</time>
      </trkpt>
      <trkpt lat="47.50716" lon="6.76596">
        <ele>394</ele>
        <time>2014-12-28T08:19:22Z</time>
      </trkpt>
      <trkpt lat="47.50714" lon="6.76595">
        <ele>394</ele>
        <time>2014-12-28T08:19:23Z</time>
      </trkpt>
      <trkpt lat="47.50712" lon="6.76595">
        <ele>394</ele>
        <time>2014-12-28T08:19:24Z</time>
      </trkpt>
      <trkpt lat="47.50709" lon="6.76595">
        <ele>394</ele>
        <time>2014-12-28T08:19:25Z</time>
      </trkpt>
      <trkpt lat="47.50707" lon="6.76595">
        <ele>394</ele>
        <time>2014-12-28T08:19:26Z</time>
      </trkpt>
      <trkpt lat="47.50702" lon="6.76594">
        <ele>395</ele>
        <time>2014-12-28T08:19:28Z</time>
      </trkpt>
      <trkpt lat="47.50701" lon="6.76594">
        <ele>395</ele>
        <time>2014-12-28T08:19:29Z</time>
      </trkpt>
      <trkpt lat="47.50697" lon="6.76594">
        <ele>395</ele>
        <time>2014-12-28T08:19:31Z</time>
      </trkpt>
      <trkpt lat="47.50695" lon="6.76594">
        <ele>395</ele>
        <time>2014-12-28T08:19:32Z</time>
      </trkpt>
      <trkpt lat="47.50691" lon="6.76594">
        <ele>395</ele>
        <time>2014-12-28T08:19:34Z</time>
      </trkpt>
      <trkpt lat="47.50689" lon="6.76594">
        <ele>396</ele>
        <time>2014-12-28T08:19:35Z</time>
      </trkpt>
      <trkpt lat="47.50683" lon="6.76594">
        <ele>396</ele>
        <time>2014-12-28T08:19:38Z</time>
      </trkpt>
      <trkpt lat="47.50679" lon="6.76595">
        <ele>396</ele>
        <time>2014-12-28T08:19:40Z</time>
      </trkpt>
      <trkpt lat="47.50677" lon="6.76595">
        <ele>396</ele>
        <time>2014-12-28T08:19:41Z</time>
      </trkpt>
      <trkpt lat="47.50673" lon="6.76596">
        <ele>396</ele>
        <time>2014-12-28T08:19:43Z</time>
      </trkpt>
      <trkpt lat="47.50671" lon="6.76597">
        <ele>396</ele>
        <time>2014-12-28T08:19:44Z</time>
      </trkpt>
      <trkpt lat="47.50667" lon="6.76598">
        <ele>396</ele>
        <time>2014-12-28T08:19:46Z</time>
      </trkpt>
      <trkpt lat="47.50666" lon="6.76598">
        <ele>396</ele>
        <time>2014-12-28T08:19:47Z</time>
      </trkpt>
      <trkpt lat="47.50662" lon="6.76597">
        <ele>396</ele>
        <time>2014-12-28T08:19:49Z</time>
      </trkpt>
      <trkpt lat="47.5066" lon="6.76598">
        <ele>396</ele>
        <time>2014-12-28T08:19:50Z</time>
      </trkpt>
      <trkpt lat="47.50656" lon="6.76597">
        <ele>396</ele>
        <time>2014-12-28T08:19:52Z</time>
      </trkpt>
      <trkpt lat="47.50654" lon="6.76597">
        <ele>396</ele>
        <time>2014-12-28T08:19:53Z</time>
      </trkpt>
      <trkpt lat="47.5065" lon="6.76598">
        <ele>396</ele>
        <time>2014-12-28T08:19:55Z</time>
      </trkpt>
      <trkpt lat="47.50649" lon="6.76599">
        <ele>396</ele>
        <time>2014-12-28T08:19:56Z</time>
      </trkpt>
      <trkpt lat="47.50645" lon="6.766">
        <ele>396</ele>
        <time>2014-12-28T08:19:58Z</time>
      </trkpt>
      <trkpt lat="47.50643" lon="6.76601">
        <ele>396</ele>
        <time>2014-12-28T08:19:59Z</time>
      </trkpt>
      <trkpt lat="47.50639" lon="6.76604">
        <ele>397</ele>
        <time>2014-12-28T08:20:01Z</time>
      </trkpt>
      <trkpt lat="47.50637" lon="6.76605">
        <ele>397</ele>
        <time>2014-12-28T08:20:02Z</time>
      </trkpt>
      <trkpt lat="47.50633" lon="6.76608">
        <ele>397</ele>
        <time>2014-12-28T08:20:04Z</time>
      </trkpt>
      <trkpt lat="47.50631" lon="6.76608">
        <ele>397</ele>
        <time>2014-12-28T08:20:05Z</time>
      </trkpt>
      <trkpt lat="47.50628" lon="6.7661">
        <ele>397</ele>
        <time>2014-12-28T08:20:07Z</time>
      </trkpt>
      <trkpt lat="47.50626" lon="6.76612">
        <ele>397</ele>
        <time>2014-12-28T08:20:08Z</time>
      </trkpt>
      <trkpt lat="47.50622" lon="6.76614">
        <ele>397</ele>
        <time>2014-12-28T08:20:10Z</time>
      </trkpt>
      <trkpt lat="47.50621" lon="6.76615">
        <ele>397</ele>
        <time>2014-12-28T08:20:11Z</time>
      </trkpt>
      <trkpt lat="47.50617" lon="6.76617">
        <ele>397</ele>
        <time>2014-12-28T08:20:13Z</time>
      </trkpt>
      <trkpt lat="47.50615" lon="6.76618">
        <ele>397</ele>
        <time>2014-12-28T08:20:14Z</time>
      </trkpt>
      <trkpt lat="47.50612" lon="6.76621">
        <ele>397</ele>
        <time>2014-12-28T08:20:16Z</time>
      </trkpt>
      <trkpt lat="47.5061" lon="6.76623">
        <ele>397</ele>
        <time>2014-12-28T08:20:17Z</time>
      </trkpt>
      <trkpt lat="47.50606" lon="6.76625">
        <ele>397</ele>
        <time>2014-12-28T08:20:19Z</time>
      </trkpt>
      <trkpt lat="47.50605" lon="6.76626">
        <ele>397</ele>
        <time>2014-12-28T08:20:20Z</time>
      </trkpt>
      <trkpt lat="47.50601" lon="6.76628">
        <ele>398</ele>
        <time>2014-12-28T08:20:22Z</time>
      </trkpt>
      <trkpt lat="47.50599" lon="6.76628">
        <ele>398</ele>
        <time>2014-12-28T08:20:23Z</time>
      </trkpt>
      <trkpt lat="47.50595" lon="6.7663">
        <ele>398</ele>
        <time>2014-12-28T08:20:25Z</time>
      </trkpt>
      <trkpt lat="47.50593" lon="6.76631">
        <ele>398</ele>
        <time>2014-12-28T08:20:26Z</time>
      </trkpt>
      <trkpt lat="47.50589" lon="6.76632">
        <ele>398</ele>
        <time>2014-12-28T08:20:28Z</time>
      </trkpt>
      <trkpt lat="47.50587" lon="6.76632">
        <ele>398</ele>
        <time>2014-12-28T08:20:29Z</time>
      </trkpt>
      <trkpt lat="47.50584" lon="6.76633">
        <ele>398</ele>
        <time>2014-12-28T08:20:31Z</time>
      </trkpt>
      <trkpt lat="47.50582" lon="6.76633">
        <ele>398</ele>
        <time>2014-12-28T08:20:32Z</time>
      </trkpt>
      <trkpt lat="47.50579" lon="6.76635">
        <ele>398</ele>
        <time>2014-12-28T08:20:34Z</time>
      </trkpt>
      <trkpt lat="47.50577" lon="6.76635">
        <ele>398</ele>
        <time>2014-12-28T08:20:35Z</time>
      </trkpt>
      <trkpt lat="47.50572" lon="6.76637">
        <ele>398</ele>
        <time>2014-12-28T08:20:38Z</time>
      </trkpt>
      <trkpt lat="47.50568" lon="6.76638">
        <ele>398</ele>
        <time>2014-12-28T08:20:40Z</time>
      </trkpt>
      <trkpt lat="47.50566" lon="6.76639">
        <ele>398</ele>
        <time>2014-12-28T08:20:41Z</time>
      </trkpt>
      <trkpt lat="47.50562" lon="6.7664">
        <ele>398</ele>
        <time>2014-12-28T08:20:43Z</time>
      </trkpt>
      <trkpt lat="47.50559" lon="6.7664">
        <ele>398</ele>
        <time>2014-12-28T08:20:44Z</time>
      </trkpt>
      <trkpt lat="47.50555" lon="6.7664">
        <ele>398</ele>
        <time>2014-12-28T08:20:46Z</time>
      </trkpt>
      <trkpt lat="47.50553" lon="6.76641">
        <ele>398</ele>
        <time>2014-12-28T08:20:47Z</time>
      </trkpt>
      <trkpt lat="47.50549" lon="6.76642">
        <ele>398</ele>
        <time>2014-12-28T08:20:49Z</time>
      </trkpt>
      <trkpt lat="47.50547" lon="6.76642">
        <ele>398</ele>
        <time>2014-12-28T08:20:50Z</time>
      </trkpt>
      <trkpt lat="47.50544" lon="6.76643">
        <ele>398</ele>
        <time>2014-12-28T08:20:52Z</time>
      </trkpt>
      <trkpt lat="47.50541" lon="6.76644">
        <ele>398</ele>
        <time>2014-12-28T08:20:53Z</time>
      </trkpt>
      <trkpt lat="47.50539" lon="6.76644">
        <ele>398</ele>
        <time>2014-12-28T08:20:54Z</time>
      </trkpt>
      <trkpt lat="47.50537" lon="6.76644">
        <ele>398</ele>
        <time>2014-12-28T08:20:55Z</time>
      </trkpt>
      <trkpt lat="47.50534" lon="6.76645">
        <ele>398</ele>
        <time>2014-12-28T08:20:56Z</time>
      </trkpt>
      <trkpt lat="47.50532" lon="6.76646">
        <ele>399</ele>
        <time>2014-12-28T08:20:57Z</time>
      </trkpt>
      <trkpt lat="47.50529" lon="6.76646">
        <ele>399</ele>
        <time>2014-12-28T08:20:58Z</time>
      </trkpt>
      <trkpt lat="47.50527" lon="6.76647">
        <ele>399</ele>
        <time>2014-12-28T08:20:59Z</time>
      </trkpt>
      <trkpt lat="47.50524" lon="6.76648">
        <ele>399</ele>
        <time>2014-12-28T08:21:00Z</time>
      </trkpt>
      <trkpt lat="47.50522" lon="6.76649">
        <ele>399</ele>
        <time>2014-12-28T08:21:01Z</time>
      </trkpt>
      <trkpt lat="47.50519" lon="6.7665">
        <ele>399</ele>
        <time>2014-12-28T08:21:02Z</time>
      </trkpt>
      <trkpt lat="47.50517" lon="6.76651">
        <ele>399</ele>
        <time>2014-12-28T08:21:03Z</time>
      </trkpt>
      <trkpt lat="47.50514" lon="6.76652">
        <ele>399</ele>
        <time>2014-12-28T08:21:04Z</time>
      </trkpt>
      <trkpt lat="47.50511" lon="6.76653">
        <ele>399</ele>
        <time>2014-12-28T08:21:05Z</time>
      </trkpt>
      <trkpt lat="47.50509" lon="6.76655">
        <ele>399</ele>
        <time>2014-12-28T08:21:06Z</time>
      </trkpt>
      <trkpt lat="47.50506" lon="6.76656">
        <ele>399</ele>
        <time>2014-12-28T08:21:07Z</time>
      </trkpt>
      <trkpt lat="47.50503" lon="6.76658">
        <ele>399</ele>
        <time>2014-12-28T08:21:08Z</time>
      </trkpt>
      <trkpt lat="47.505" lon="6.76659">
        <ele>398</ele>
        <time>2014-12-28T08:21:09Z</time>
      </trkpt>
      <trkpt lat="47.50497" lon="6.7666">
        <ele>398</ele>
        <time>2014-12-28T08:21:10Z</time>
      </trkpt>
      <trkpt lat="47.50493" lon="6.76662">
        <ele>398</ele>
        <time>2014-12-28T08:21:11Z</time>
      </trkpt>
      <trkpt lat="47.5049" lon="6.76663">
        <ele>398</ele>
        <time>2014-12-28T08:21:12Z</time>
      </trkpt>
      <trkpt lat="47.50487" lon="6.76665">
        <ele>398</ele>
        <time>2014-12-28T08:21:13Z</time>
      </trkpt>
      <trkpt lat="47.50484" lon="6.76667">
        <ele>398</ele>
        <time>2014-12-28T08:21:14Z</time>
      </trkpt>
      <trkpt lat="47.50481" lon="6.76668">
        <ele>398</ele>
        <time>2014-12-28T08:21:15Z</time>
      </trkpt>
      <trkpt lat="47.50478" lon="6.7667">
        <ele>397</ele>
        <time>2014-12-28T08:21:16Z</time>
      </trkpt>
      <trkpt lat="47.50474" lon="6.76672">
        <ele>397</ele>
        <time>2014-12-28T08:21:17Z</time>
      </trkpt>
      <trkpt lat="47.50471" lon="6.76674">
        <ele>397</ele>
        <time>2014-12-28T08:21:18Z</time>
      </trkpt>
      <trkpt lat="47.50468" lon="6.76675">
        <ele>397</ele>
        <time>2014-12-28T08:21:19Z</time>
      </trkpt>
      <trkpt lat="47.50466" lon="6.76677">
        <ele>397</ele>
        <time>2014-12-28T08:21:20Z</time>
      </trkpt>
      <trkpt lat="47.50463" lon="6.76679">
        <ele>397</ele>
        <time>2014-12-28T08:21:21Z</time>
      </trkpt>
      <trkpt lat="47.5046" lon="6.7668">
        <ele>397</ele>
        <time>2014-12-28T08:21:22Z</time>
      </trkpt>
      <trkpt lat="47.50457" lon="6.76682">
        <ele>397</ele>
        <time>2014-12-28T08:21:23Z</time>
      </trkpt>
      <trkpt lat="47.50454" lon="6.76683">
        <ele>396</ele>
        <time>2014-12-28T08:21:24Z</time>
      </trkpt>
      <trkpt lat="47.50452" lon="6.76684">
        <ele>396</ele>
        <time>2014-12-28T08:21:25Z</time>
      </trkpt>
      <trkpt lat="47.50449" lon="6.76686">
        <ele>396</ele>
        <time>2014-12-28T08:21:26Z</time>
      </trkpt>
      <trkpt lat="47.50446" lon="6.76686">
        <ele>396</ele>
        <time>2014-12-28T08:21:27Z</time>
      </trkpt>
      <trkpt lat="47.50443" lon="6.76688">
        <ele>396</ele>
        <time>2014-12-28T08:21:28Z</time>
      </trkpt>
      <trkpt lat="47.5044" lon="6.76689">
        <ele>397</ele>
        <time>2014-12-28T08:21:29Z</time>
      </trkpt>
      <trkpt lat="47.50438" lon="6.7669">
        <ele>397</ele>
        <time>2014-12-28T08:21:29Z</time>
      </trkpt>
      <trkpt lat="47.50435" lon="6.76692">
        <ele>397</ele>
        <time>2014-12-28T08:21:31Z</time>
      </trkpt>
      <trkpt lat="47.50432" lon="6.76693">
        <ele>397</ele>
        <time>2014-12-28T08:21:32Z</time>
      </trkpt>
      <trkpt lat="47.5043" lon="6.76693">
        <ele>397</ele>
        <time>2014-12-28T08:21:33Z</time>
      </trkpt>
      <trkpt lat="47.50426" lon="6.76694">
        <ele>397</ele>
        <time>2014-12-28T08:21:35Z</time>
      </trkpt>
      <trkpt lat="47.50419" lon="6.76697">
        <ele>397</ele>
        <time>2014-12-28T08:21:38Z</time>
      </trkpt>
      <trkpt lat="47.50415" lon="6.76698">
        <ele>397</ele>
        <time>2014-12-28T08:21:40Z</time>
      </trkpt>
      <trkpt lat="47.50412" lon="6.76699">
        <ele>397</ele>
        <time>2014-12-28T08:21:41Z</time>
      </trkpt>
      <trkpt lat="47.50408" lon="6.76701">
        <ele>397</ele>
        <time>2014-12-28T08:21:43Z</time>
      </trkpt>
      <trkpt lat="47.50406" lon="6.76702">
        <ele>397</ele>
        <time>2014-12-28T08:21:44Z</time>
      </trkpt>
      <trkpt lat="47.50404" lon="6.76703">
        <ele>397</ele>
        <time>2014-12-28T08:21:45Z</time>
      </trkpt>
      <trkpt lat="47.50402" lon="6.76705">
        <ele>397</ele>
        <time>2014-12-28T08:21:46Z</time>
      </trkpt>
      <trkpt lat="47.504" lon="6.76706">
        <ele>397</ele>
        <time>2014-12-28T08:21:47Z</time>
      </trkpt>
      <trkpt lat="47.50397" lon="6.76707">
        <ele>397</ele>
        <time>2014-12-28T08:21:48Z</time>
      </trkpt>
      <trkpt lat="47.50395" lon="6.76708">
        <ele>397</ele>
        <time>2014-12-28T08:21:49Z</time>
      </trkpt>
      <trkpt lat="47.50392" lon="6.76709">
        <ele>397</ele>
        <time>2014-12-28T08:21:50Z</time>
      </trkpt>
      <trkpt lat="47.5039" lon="6.7671">
        <ele>397</ele>
        <time>2014-12-28T08:21:51Z</time>
      </trkpt>
      <trkpt lat="47.50387" lon="6.76711">
        <ele>397</ele>
        <time>2014-12-28T08:21:52Z</time>
      </trkpt>
      <trkpt lat="47.50385" lon="6.76712">
        <ele>397</ele>
        <time>2014-12-28T08:21:53Z</time>
      </trkpt>
      <trkpt lat="47.50382" lon="6.76713">
        <ele>397</ele>
        <time>2014-12-28T08:21:54Z</time>
      </trkpt>
      <trkpt lat="47.50379" lon="6.76714">
        <ele>397</ele>
        <time>2014-12-28T08:21:55Z</time>
      </trkpt>
      <trkpt lat="47.50377" lon="6.76715">
        <ele>397</ele>
        <time>2014-12-28T08:21:56Z</time>
      </trkpt>
      <trkpt lat="47.50375" lon="6.76716">
        <ele>397</ele>
        <time>2014-12-28T08:21:57Z</time>
      </trkpt>
      <trkpt lat="47.50373" lon="6.76717">
        <ele>397</ele>
        <time>2014-12-28T08:21:58Z</time>
      </trkpt>
      <trkpt lat="47.5037" lon="6.76718">
        <ele>397</ele>
        <time>2014-12-28T08:21:59Z</time>
      </trkpt>
      <trkpt lat="47.50368" lon="6.76718">
        <ele>397</ele>
        <time>2014-12-28T08:22:00Z</time>
      </trkpt>
      <trkpt lat="47.50366" lon="6.76718">
        <ele>397</ele>
        <time>2014-12-28T08:22:01Z</time>
      </trkpt>
      <trkpt lat="47.50364" lon="6.76718">
        <ele>397</ele>
        <time>2014-12-28T08:22:02Z</time>
      </trkpt>
      <trkpt lat="47.50359" lon="6.76718">
        <ele>397</ele>
        <time>2014-12-28T08:22:04Z</time>
      </trkpt>
      <trkpt lat="47.50357" lon="6.76719">
        <ele>397</ele>
        <time>2014-12-28T08:22:05Z</time>
      </trkpt>
      <trkpt lat="47.50354" lon="6.76719">
        <ele>397</ele>
        <time>2014-12-28T08:22:06Z</time>
      </trkpt>
      <trkpt lat="47.50352" lon="6.7672">
        <ele>397</ele>
        <time>2014-12-28T08:22:07Z</time>
      </trkpt>
      <trkpt lat="47.50349" lon="6.76721">
        <ele>397</ele>
        <time>2014-12-28T08:22:08Z</time>
      </trkpt>
      <trkpt lat="47.50347" lon="6.76722">
        <ele>397</ele>
        <time>2014-12-28T08:22:09Z</time>
      </trkpt>
      <trkpt lat="47.50345" lon="6.76723">
        <ele>397</ele>
        <time>2014-12-28T08:22:10Z</time>
      </trkpt>
      <trkpt lat="47.50342" lon="6.76723">
        <ele>397</ele>
        <time>2014-12-28T08:22:11Z</time>
      </trkpt>
      <trkpt lat="47.5034" lon="6.76724">
        <ele>397</ele>
        <time>2014-12-28T08:22:12Z</time>
      </trkpt>
      <trkpt lat="47.50338" lon="6.76725">
        <ele>397</ele>
        <time>2014-12-28T08:22:13Z</time>
      </trkpt>
      <trkpt lat="47.50333" lon="6.76727">
        <ele>397</ele>
        <time>2014-12-28T08:22:15Z</time>
      </trkpt>
      <trkpt lat="47.50331" lon="6.76728">
        <ele>397</ele>
        <time>2014-12-28T08:22:16Z</time>
      </trkpt>
      <trkpt lat="47.50327" lon="6.7673">
        <ele>397</ele>
        <time>2014-12-28T08:22:18Z</time>
      </trkpt>
      <trkpt lat="47.50325" lon="6.76732">
        <ele>397</ele>
        <time>2014-12-28T08:22:19Z</time>
      </trkpt>
      <trkpt lat="47.50323" lon="6.76734">
        <ele>398</ele>
        <time>2014-12-28T08:22:20Z</time>
      </trkpt>
      <trkpt lat="47.50321" lon="6.76735">
        <ele>398</ele>
        <time>2014-12-28T08:22:21Z</time>
      </trkpt>
      <trkpt lat="47.50319" lon="6.76737">
        <ele>398</ele>
        <time>2014-12-28T08:22:22Z</time>
      </trkpt>
      <trkpt lat="47.50317" lon="6.76738">
        <ele>398</ele>
        <time>2014-12-28T08:22:23Z</time>
      </trkpt>
      <trkpt lat="47.50314" lon="6.76739">
        <ele>398</ele>
        <time>2014-12-28T08:22:24Z</time>
      </trkpt>
      <trkpt lat="47.50311" lon="6.7674">
        <ele>398</ele>
        <time>2014-12-28T08:22:25Z</time>
      </trkpt>
      <trkpt lat="47.50309" lon="6.76741">
        <ele>398</ele>
        <time>2014-12-28T08:22:26Z</time>
      </trkpt>
      <trkpt lat="47.50306" lon="6.76742">
        <ele>398</ele>
        <time>2014-12-28T08:22:27Z</time>
      </trkpt>
      <trkpt lat="47.50304" lon="6.76742">
        <ele>398</ele>
        <time>2014-12-28T08:22:28Z</time>
      </trkpt>
      <trkpt lat="47.50301" lon="6.76743">
        <ele>398</ele>
        <time>2014-12-28T08:22:29Z</time>
      </trkpt>
      <trkpt lat="47.50299" lon="6.76744">
        <ele>398</ele>
        <time>2014-12-28T08:22:29Z</time>
      </trkpt>
      <trkpt lat="47.50296" lon="6.76745">
        <ele>398</ele>
        <time>2014-12-28T08:22:31Z</time>
      </trkpt>
      <trkpt lat="47.50294" lon="6.76746">
        <ele>398</ele>
        <time>2014-12-28T08:22:32Z</time>
      </trkpt>
      <trkpt lat="47.50292" lon="6.76746">
        <ele>398</ele>
        <time>2014-12-28T08:22:33Z</time>
      </trkpt>
      <trkpt lat="47.50288" lon="6.76748">
        <ele>398</ele>
        <time>2014-12-28T08:22:35Z</time>
      </trkpt>
      <trkpt lat="47.50282" lon="6.76748">
        <ele>399</ele>
        <time>2014-12-28T08:22:38Z</time>
      </trkpt>
      <trkpt lat="47.50279" lon="6.76749">
        <ele>399</ele>
        <time>2014-12-28T08:22:40Z</time>
      </trkpt>
      <trkpt lat="47.50277" lon="6.76749">
        <ele>399</ele>
        <time>2014-12-28T08:22:41Z</time>
      </trkpt>
      <trkpt lat="47.50273" lon="6.76749">
        <ele>399</ele>
        <time>2014-12-28T08:22:43Z</time>
      </trkpt>
      <trkpt lat="47.50272" lon="6.76749">
        <ele>399</ele>
        <time>2014-12-28T08:22:44Z</time>
      </trkpt>
      <trkpt lat="47.50268" lon="6.76749">
        <ele>399</ele>
        <time>2014-12-28T08:22:46Z</time>
      </trkpt>
      <trkpt lat="47.50266" lon="6.7675">
        <ele>399</ele>
        <time>2014-12-28T08:22:47Z</time>
      </trkpt>
      <trkpt lat="47.50263" lon="6.76751">
        <ele>399</ele>
        <time>2014-12-28T08:22:49Z</time>
      </trkpt>
      <trkpt lat="47.50261" lon="6.76751">
        <ele>399</ele>
        <time>2014-12-28T08:22:50Z</time>
      </trkpt>
      <trkpt lat="47.50258" lon="6.7675">
        <ele>399</ele>
        <time>2014-12-28T08:22:52Z</time>
      </trkpt>
      <trkpt lat="47.50256" lon="6.7675">
        <ele>399</ele>
        <time>2014-12-28T08:22:53Z</time>
      </trkpt>
      <trkpt lat="47.50255" lon="6.76745">
        <ele>399</ele>
        <time>2014-12-28T08:22:55Z</time>
      </trkpt>
      <trkpt lat="47.50253" lon="6.76743">
        <ele>399</ele>
        <time>2014-12-28T08:22:56Z</time>
      </trkpt>
      <trkpt lat="47.50251" lon="6.76739">
        <ele>399</ele>
        <time>2014-12-28T08:22:58Z</time>
      </trkpt>
      <trkpt lat="47.5025" lon="6.76737">
        <ele>400</ele>
        <time>2014-12-28T08:22:59Z</time>
      </trkpt>
      <trkpt lat="47.50247" lon="6.76732">
        <ele>400</ele>
        <time>2014-12-28T08:23:02Z</time>
      </trkpt>
      <trkpt lat="47.50246" lon="6.7673">
        <ele>400</ele>
        <time>2014-12-28T08:23:03Z</time>
      </trkpt>
      <trkpt lat="47.50244" lon="6.76727">
        <ele>400</ele>
        <time>2014-12-28T08:23:05Z</time>
      </trkpt>
      <trkpt lat="47.50243" lon="6.76724">
        <ele>400</ele>
        <time>2014-12-28T08:23:06Z</time>
      </trkpt>
      <trkpt lat="47.50241" lon="6.7672">
        <ele>400</ele>
        <time>2014-12-28T08:23:08Z</time>
      </trkpt>
      <trkpt lat="47.5024" lon="6.76717">
        <ele>400</ele>
        <time>2014-12-28T08:23:09Z</time>
      </trkpt>
      <trkpt lat="47.50238" lon="6.76713">
        <ele>400</ele>
        <time>2014-12-28T08:23:11Z</time>
      </trkpt>
      <trkpt lat="47.50237" lon="6.76711">
        <ele>400</ele>
        <time>2014-12-28T08:23:12Z</time>
      </trkpt>
      <trkpt lat="47.50236" lon="6.76707">
        <ele>400</ele>
        <time>2014-12-28T08:23:14Z</time>
      </trkpt>
      <trkpt lat="47.50235" lon="6.76705">
        <ele>400</ele>
        <time>2014-12-28T08:23:15Z</time>
      </trkpt>
      <trkpt lat="47.50233" lon="6.76701">
        <ele>400</ele>
        <time>2014-12-28T08:23:17Z</time>
      </trkpt>
      <trkpt lat="47.50232" lon="6.76698">
        <ele>400</ele>
        <time>2014-12-28T08:23:18Z</time>
      </trkpt>
      <trkpt lat="47.5023" lon="6.76694">
        <ele>400</ele>
        <time>2014-12-28T08:23:20Z</time>
      </trkpt>
      <trkpt lat="47.50229" lon="6.76692">
        <ele>400</ele>
        <time>2014-12-28T08:23:21Z</time>
      </trkpt>
      <trkpt lat="47.50228" lon="6.76687">
        <ele>400</ele>
        <time>2014-12-28T08:23:23Z</time>
      </trkpt>
      <trkpt lat="47.50227" lon="6.76685">
        <ele>400</ele>
        <time>2014-12-28T08:23:24Z</time>
      </trkpt>
      <trkpt lat="47.50225" lon="6.7668">
        <ele>400</ele>
        <time>2014-12-28T08:23:26Z</time>
      </trkpt>
      <trkpt lat="47.50224" lon="6.76678">
        <ele>400</ele>
        <time>2014-12-28T08:23:27Z</time>
      </trkpt>
      <trkpt lat="47.50223" lon="6.76673">
        <ele>400</ele>
        <time>2014-12-28T08:23:29Z</time>
      </trkpt>
      <trkpt lat="47.50222" lon="6.7667">
        <ele>400</ele>
        <time>2014-12-28T08:23:30Z</time>
      </trkpt>
      <trkpt lat="47.50221" lon="6.76665">
        <ele>400</ele>
        <time>2014-12-28T08:23:31Z</time>
      </trkpt>
      <trkpt lat="47.50219" lon="6.76663">
        <ele>400</ele>
        <time>2014-12-28T08:23:33Z</time>
      </trkpt>
      <trkpt lat="47.50217" lon="6.76658">
        <ele>400</ele>
        <time>2014-12-28T08:23:35Z</time>
      </trkpt>
      <trkpt lat="47.50215" lon="6.76651">
        <ele>401</ele>
        <time>2014-12-28T08:23:38Z</time>
      </trkpt>
      <trkpt lat="47.50213" lon="6.76646">
        <ele>401</ele>
        <time>2014-12-28T08:23:40Z</time>
      </trkpt>
      <trkpt lat="47.50212" lon="6.76643">
        <ele>401</ele>
        <time>2014-12-28T08:23:41Z</time>
      </trkpt>
      <trkpt lat="47.5021" lon="6.76638">
        <ele>401</ele>
        <time>2014-12-28T08:23:43Z</time>
      </trkpt>
      <trkpt lat="47.50209" lon="6.76635">
        <ele>401</ele>
        <time>2014-12-28T08:23:44Z</time>
      </trkpt>
      <trkpt lat="47.50207" lon="6.7663">
        <ele>402</ele>
        <time>2014-12-28T08:23:46Z</time>
      </trkpt>
      <trkpt lat="47.50206" lon="6.76628">
        <ele>402</ele>
        <time>2014-12-28T08:23:47Z</time>
      </trkpt>
      <trkpt lat="47.50203" lon="6.76624">
        <ele>402</ele>
        <time>2014-12-28T08:23:49Z</time>
      </trkpt>
      <trkpt lat="47.50203" lon="6.76622">
        <ele>402</ele>
        <time>2014-12-28T08:23:50Z</time>
      </trkpt>
      <trkpt lat="47.50204" lon="6.76616">
        <ele>402</ele>
        <time>2014-12-28T08:23:52Z</time>
      </trkpt>
      <trkpt lat="47.50205" lon="6.76613">
        <ele>402</ele>
        <time>2014-12-28T08:23:53Z</time>
      </trkpt>
      <trkpt lat="47.50205" lon="6.76609">
        <ele>402</ele>
        <time>2014-12-28T08:23:55Z</time>
      </trkpt>
      <trkpt lat="47.50205" lon="6.76606">
        <ele>402</ele>
        <time>2014-12-28T08:23:56Z</time>
      </trkpt>
      <trkpt lat="47.50205" lon="6.76601">
        <ele>402</ele>
        <time>2014-12-28T08:23:58Z</time>
      </trkpt>
      <trkpt lat="47.50204" lon="6.76598">
        <ele>402</ele>
        <time>2014-12-28T08:23:59Z</time>
      </trkpt>
      <trkpt lat="47.50202" lon="6.76592">
        <ele>403</ele>
        <time>2014-12-28T08:24:01Z</time>
      </trkpt>
      <trkpt lat="47.50202" lon="6.76589">
        <ele>403</ele>
        <time>2014-12-28T08:24:02Z</time>
      </trkpt>
      <trkpt lat="47.50203" lon="6.76584">
        <ele>403</ele>
        <time>2014-12-28T08:24:04Z</time>
      </trkpt>
      <trkpt lat="47.50203" lon="6.76582">
        <ele>402</ele>
        <time>2014-12-28T08:24:05Z</time>
      </trkpt>
      <trkpt lat="47.50207" lon="6.76586">
        <ele>402</ele>
        <time>2014-12-28T08:24:45Z</time>
      </trkpt>
      <trkpt lat="47.50208" lon="6.76587">
        <ele>402</ele>
        <time>2014-12-28T08:24:46Z</time>
      </trkpt>
      <trkpt lat="47.50211" lon="6.76587">
        <ele>401</ele>
        <time>2014-12-28T08:24:48Z</time>
      </trkpt>
      <trkpt lat="47.50213" lon="6.76586">
        <ele>401</ele>
        <time>2014-12-28T08:24:49Z</time>
      </trkpt>
      <trkpt lat="47.50216" lon="6.76586">
        <ele>401</ele>
        <time>2014-12-28T08:24:51Z</time>
      </trkpt>
      <trkpt lat="47.50218" lon="6.76586">
        <ele>400</ele>
        <time>2014-12-28T08:24:52Z</time>
      </trkpt>
      <trkpt lat="47.5022" lon="6.76585">
        <ele>400</ele>
        <time>2014-12-28T08:24:53Z</time>
      </trkpt>
      <trkpt lat="47.50223" lon="6.76585">
        <ele>399</ele>
        <time>2014-12-28T08:24:54Z</time>
      </trkpt>
      <trkpt lat="47.50226" lon="6.76584">
        <ele>399</ele>
        <time>2014-12-28T08:24:55Z</time>
      </trkpt>
      <trkpt lat="47.50228" lon="6.76584">
        <ele>399</ele>
        <time>2014-12-28T08:24:56Z</time>
      </trkpt>
      <trkpt lat="47.50231" lon="6.76582">
        <ele>398</ele>
        <time>2014-12-28T08:24:57Z</time>
      </trkpt>
      <trkpt lat="47.50233" lon="6.7658">
        <ele>398</ele>
        <time>2014-12-28T08:24:58Z</time>
      </trkpt>
      <trkpt lat="47.50234" lon="6.76575">
        <ele>398</ele>
        <time>2014-12-28T08:24:59Z</time>
      </trkpt>
      <trkpt lat="47.50235" lon="6.7657">
        <ele>398</ele>
        <time>2014-12-28T08:25:00Z</time>
      </trkpt>
      <trkpt lat="47.50235" lon="6.76564">
        <ele>398</ele>
        <time>2014-12-28T08:25:01Z</time>
      </trkpt>
      <trkpt lat="47.50234" lon="6.76559">
        <ele>397</ele>
        <time>2014-12-28T08:25:02Z</time>
      </trkpt>
      <trkpt lat="47.50233" lon="6.76553">
        <ele>397</ele>
        <time>2014-12-28T08:25:03Z</time>
      </trkpt>
      <trkpt lat="47.50232" lon="6.76548">
        <ele>397</ele>
        <time>2014-12-28T08:25:04Z</time>
      </trkpt>
      <trkpt lat="47.50231" lon="6.76543">
        <ele>397</ele>
        <time>2014-12-28T08:25:05Z</time>
      </trkpt>
      <trkpt lat="47.50229" lon="6.76538">
        <ele>397</ele>
        <time>2014-12-28T08:25:06Z</time>
      </trkpt>
      <trkpt lat="47.50228" lon="6.76532">
        <ele>396</ele>
        <time>2014-12-28T08:25:07Z</time>
      </trkpt>
      <trkpt lat="47.50227" lon="6.76526">
        <ele>396</ele>
        <time>2014-12-28T08:25:08Z</time>
      </trkpt>
      <trkpt lat="47.50225" lon="6.76521">
        <ele>396</ele>
        <time>2014-12-28T08:25:09Z</time>
      </trkpt>
      <trkpt lat="47.50224" lon="6.76515">
        <ele>396</ele>
        <time>2014-12-28T08:25:10Z</time>
      </trkpt>
      <trkpt lat="47.50223" lon="6.76509">
        <ele>396</ele>
        <time>2014-12-28T08:25:11Z</time>
      </trkpt>
      <trkpt lat="47.50221" lon="6.76504">
        <ele>396</ele>
        <time>2014-12-28T08:25:12Z</time>
      </trkpt>
      <trkpt lat="47.50219" lon="6.76498">
        <ele>394</ele>
        <time>2014-12-28T08:25:13Z</time>
      </trkpt>
      <trkpt lat="47.50217" lon="6.76493">
        <ele>394</ele>
        <time>2014-12-28T08:25:14Z</time>
      </trkpt>
      <trkpt lat="47.50215" lon="6.76487">
        <ele>394</ele>
        <time>2014-12-28T08:25:15Z</time>
      </trkpt>
      <trkpt lat="47.50214" lon="6.76481">
        <ele>395</ele>
        <time>2014-12-28T08:25:16Z</time>
      </trkpt>
      <trkpt lat="47.5021" lon="6.76473">
        <ele>395</ele>
        <time>2014-12-28T08:25:17Z</time>
      </trkpt>
      <trkpt lat="47.50209" lon="6.76466">
        <ele>395</ele>
        <time>2014-12-28T08:25:18Z</time>
      </trkpt>
      <trkpt lat="47.50207" lon="6.76459">
        <ele>395</ele>
        <time>2014-12-28T08:25:19Z</time>
      </trkpt>
      <trkpt lat="47.50205" lon="6.76454">
        <ele>395</ele>
        <time>2014-12-28T08:25:20Z</time>
      </trkpt>
      <trkpt lat="47.50204" lon="6.76449">
        <ele>395</ele>
        <time>2014-12-28T08:25:21Z</time>
      </trkpt>
      <trkpt lat="47.50203" lon="6.76445">
        <ele>395</ele>
        <time>2014-12-28T08:25:22Z</time>
      </trkpt>
      <trkpt lat="47.50202" lon="6.76441">
        <ele>395</ele>
        <time>2014-12-28T08:25:23Z</time>
      </trkpt>
      <trkpt lat="47.502" lon="6.76433">
        <ele>396</ele>
        <time>2014-12-28T08:25:24Z</time>
      </trkpt>
      <trkpt lat="47.50199" lon="6.76427">
        <ele>396</ele>
        <time>2014-12-28T08:25:25Z</time>
      </trkpt>
      <trkpt lat="47.50197" lon="6.76421">
        <ele>396</ele>
        <time>2014-12-28T08:25:26Z</time>
      </trkpt>
      <trkpt lat="47.50196" lon="6.76417">
        <ele>393</ele>
        <time>2014-12-28T08:25:27Z</time>
      </trkpt>
      <trkpt lat="47.50195" lon="6.76411">
        <ele>393</ele>
        <time>2014-12-28T08:25:28Z</time>
      </trkpt>
      <trkpt lat="47.50193" lon="6.76406">
        <ele>394</ele>
        <time>2014-12-28T08:25:29Z</time>
      </trkpt>
      <trkpt lat="47.50192" lon="6.764">
        <ele>394</ele>
        <time>2014-12-28T08:25:30Z</time>
      </trkpt>
      <trkpt lat="47.5019" lon="6.76395">
        <ele>394</ele>
        <time>2014-12-28T08:25:31Z</time>
      </trkpt>
      <trkpt lat="47.50189" lon="6.76391">
        <ele>394</ele>
        <time>2014-12-28T08:25:32Z</time>
      </trkpt>
      <trkpt lat="47.50188" lon="6.76386">
        <ele>393</ele>
        <time>2014-12-28T08:25:33Z</time>
      </trkpt>
      <trkpt lat="47.50187" lon="6.7638">
        <ele>393</ele>
        <time>2014-12-28T08:25:34Z</time>
      </trkpt>
      <trkpt lat="47.50185" lon="6.76374">
        <ele>392</ele>
        <time>2014-12-28T08:25:35Z</time>
      </trkpt>
      <trkpt lat="47.50181" lon="6.76355">
        <ele>391</ele>
        <time>2014-12-28T08:25:38Z</time>
      </trkpt>
      <trkpt lat="47.50178" lon="6.76349">
        <ele>391</ele>
        <time>2014-12-28T08:25:39Z</time>
      </trkpt>
      <trkpt lat="47.50175" lon="6.76344">
        <ele>391</ele>
        <time>2014-12-28T08:25:40Z</time>
      </trkpt>
      <trkpt lat="47.50172" lon="6.76338">
        <ele>391</ele>
        <time>2014-12-28T08:25:41Z</time>
      </trkpt>
      <trkpt lat="47.50169" lon="6.76333">
        <ele>390</ele>
        <time>2014-12-28T08:25:42Z</time>
      </trkpt>
      <trkpt lat="47.5017" lon="6.76326">
        <ele>390</ele>
        <time>2014-12-28T08:25:43Z</time>
      </trkpt>
      <trkpt lat="47.50167" lon="6.7632">
        <ele>391</ele>
        <time>2014-12-28T08:25:44Z</time>
      </trkpt>
      <trkpt lat="47.50164" lon="6.76313">
        <ele>391</ele>
        <time>2014-12-28T08:25:45Z</time>
      </trkpt>
      <trkpt lat="47.50164" lon="6.76306">
        <ele>391</ele>
        <time>2014-12-28T08:25:46Z</time>
      </trkpt>
      <trkpt lat="47.50163" lon="6.763">
        <ele>390</ele>
        <time>2014-12-28T08:25:47Z</time>
      </trkpt>
      <trkpt lat="47.50162" lon="6.76294">
        <ele>390</ele>
        <time>2014-12-28T08:25:48Z</time>
      </trkpt>
      <trkpt lat="47.50161" lon="6.76288">
        <ele>389</ele>
        <time>2014-12-28T08:25:49Z</time>
      </trkpt>
      <trkpt lat="47.50161" lon="6.76283">
        <ele>389</ele>
        <time>2014-12-28T08:25:50Z</time>
      </trkpt>
      <trkpt lat="47.5016" lon="6.76276">
        <ele>388</ele>
        <time>2014-12-28T08:25:51Z</time>
      </trkpt>
      <trkpt lat="47.50158" lon="6.76269">
        <ele>387</ele>
        <time>2014-12-28T08:25:52Z</time>
      </trkpt>
      <trkpt lat="47.50157" lon="6.76262">
        <ele>387</ele>
        <time>2014-12-28T08:25:53Z</time>
      </trkpt>
      <trkpt lat="47.50156" lon="6.76256">
        <ele>386</ele>
        <time>2014-12-28T08:25:54Z</time>
      </trkpt>
      <trkpt lat="47.50155" lon="6.76249">
        <ele>386</ele>
        <time>2014-12-28T08:25:55Z</time>
      </trkpt>
      <trkpt lat="47.50154" lon="6.76244">
        <ele>386</ele>
        <time>2014-12-28T08:25:56Z</time>
      </trkpt>
      <trkpt lat="47.50154" lon="6.76238">
        <ele>386</ele>
        <time>2014-12-28T08:25:57Z</time>
      </trkpt>
      <trkpt lat="47.50151" lon="6.76229">
        <ele>386</ele>
        <time>2014-12-28T08:25:58Z</time>
      </trkpt>
      <trkpt lat="47.5015" lon="6.76222">
        <ele>385</ele>
        <time>2014-12-28T08:25:59Z</time>
      </trkpt>
      <trkpt lat="47.5015" lon="6.76215">
        <ele>385</ele>
        <time>2014-12-28T08:26:00Z</time>
      </trkpt>
      <trkpt lat="47.50149" lon="6.76209">
        <ele>384</ele>
        <time>2014-12-28T08:26:01Z</time>
      </trkpt>
      <trkpt lat="47.50149" lon="6.76202">
        <ele>383</ele>
        <time>2014-12-28T08:26:02Z</time>
      </trkpt>
      <trkpt lat="47.50145" lon="6.76195">
        <ele>383</ele>
        <time>2014-12-28T08:26:03Z</time>
      </trkpt>
      <trkpt lat="47.50145" lon="6.76187">
        <ele>382</ele>
        <time>2014-12-28T08:26:04Z</time>
      </trkpt>
      <trkpt lat="47.50143" lon="6.76178">
        <ele>382</ele>
        <time>2014-12-28T08:26:05Z</time>
      </trkpt>
      <trkpt lat="47.50141" lon="6.7617">
        <ele>382</ele>
        <time>2014-12-28T08:26:06Z</time>
      </trkpt>
      <trkpt lat="47.50139" lon="6.76163">
        <ele>380</ele>
        <time>2014-12-28T08:26:07Z</time>
      </trkpt>
      <trkpt lat="47.50138" lon="6.76156">
        <ele>380</ele>
        <time>2014-12-28T08:26:08Z</time>
      </trkpt>
      <trkpt lat="47.50136" lon="6.76149">
        <ele>381</ele>
        <time>2014-12-28T08:26:09Z</time>
      </trkpt>
      <trkpt lat="47.50134" lon="6.76144">
        <ele>382</ele>
        <time>2014-12-28T08:26:10Z</time>
      </trkpt>
      <trkpt lat="47.50133" lon="6.76138">
        <ele>382</ele>
        <time>2014-12-28T08:26:11Z</time>
      </trkpt>
      <trkpt lat="47.50131" lon="6.76132">
        <ele>382</ele>
        <time>2014-12-28T08:26:12Z</time>
      </trkpt>
      <trkpt lat="47.5013" lon="6.76125">
        <ele>382</ele>
        <time>2014-12-28T08:26:13Z</time>
      </trkpt>
      <trkpt lat="47.5013" lon="6.76117">
        <ele>382</ele>
        <time>2014-12-28T08:26:14Z</time>
      </trkpt>
      <trkpt lat="47.50129" lon="6.7611">
        <ele>382</ele>
        <time>2014-12-28T08:26:15Z</time>
      </trkpt>
      <trkpt lat="47.50126" lon="6.76098">
        <ele>382</ele>
        <time>2014-12-28T08:26:16Z</time>
      </trkpt>
      <trkpt lat="47.50126" lon="6.76089">
        <ele>382</ele>
        <time>2014-12-28T08:26:17Z</time>
      </trkpt>
      <trkpt lat="47.50126" lon="6.7608">
        <ele>379</ele>
        <time>2014-12-28T08:26:18Z</time>
      </trkpt>
      <trkpt lat="47.50125" lon="6.76068">
        <ele>379</ele>
        <time>2014-12-28T08:26:19Z</time>
      </trkpt>
      <trkpt lat="47.50125" lon="6.76058">
        <ele>379</ele>
        <time>2014-12-28T08:26:20Z</time>
      </trkpt>
      <trkpt lat="47.50125" lon="6.7605">
        <ele>378</ele>
        <time>2014-12-28T08:26:21Z</time>
      </trkpt>
      <trkpt lat="47.50124" lon="6.76043">
        <ele>378</ele>
        <time>2014-12-28T08:26:22Z</time>
      </trkpt>
      <trkpt lat="47.50124" lon="6.76037">
        <ele>378</ele>
        <time>2014-12-28T08:26:23Z</time>
      </trkpt>
      <trkpt lat="47.50123" lon="6.76031">
        <ele>378</ele>
        <time>2014-12-28T08:26:24Z</time>
      </trkpt>
      <trkpt lat="47.50121" lon="6.76025">
        <ele>378</ele>
        <time>2014-12-28T08:26:25Z</time>
      </trkpt>
      <trkpt lat="47.50119" lon="6.76017">
        <ele>378</ele>
        <time>2014-12-28T08:26:26Z</time>
      </trkpt>
      <trkpt lat="47.50116" lon="6.76012">
        <ele>378</ele>
        <time>2014-12-28T08:26:27Z</time>
      </trkpt>
      <trkpt lat="47.50112" lon="6.76007">
        <ele>379</ele>
        <time>2014-12-28T08:26:28Z</time>
      </trkpt>
      <trkpt lat="47.5011" lon="6.76002">
        <ele>379</ele>
        <time>2014-12-28T08:26:29Z</time>
      </trkpt>
      <trkpt lat="47.50108" lon="6.75998">
        <ele>377</ele>
        <time>2014-12-28T08:26:30Z</time>
      </trkpt>
      <trkpt lat="47.50106" lon="6.75993">
        <ele>377</ele>
        <time>2014-12-28T08:26:31Z</time>
      </trkpt>
      <trkpt lat="47.50104" lon="6.75989">
        <ele>377</ele>
        <time>2014-12-28T08:26:32Z</time>
      </trkpt>
      <trkpt lat="47.50102" lon="6.75985">
        <ele>377</ele>
        <time>2014-12-28T08:26:33Z</time>
      </trkpt>
      <trkpt lat="47.501" lon="6.7598">
        <ele>377</ele>
        <time>2014-12-28T08:26:34Z</time>
      </trkpt>
      <trkpt lat="47.50097" lon="6.75975">
        <ele>377</ele>
        <time>2014-12-28T08:26:35Z</time>
      </trkpt>
      <trkpt lat="47.50088" lon="6.75961">
        <ele>376</ele>
        <time>2014-12-28T08:26:38Z</time>
      </trkpt>
      <trkpt lat="47.50079" lon="6.75955">
        <ele>376</ele>
        <time>2014-12-28T08:26:39Z</time>
      </trkpt>
      <trkpt lat="47.50077" lon="6.7595">
        <ele>376</ele>
        <time>2014-12-28T08:26:40Z</time>
      </trkpt>
      <trkpt lat="47.50075" lon="6.75946">
        <ele>375</ele>
        <time>2014-12-28T08:26:41Z</time>
      </trkpt>
      <trkpt lat="47.50074" lon="6.75942">
        <ele>375</ele>
        <time>2014-12-28T08:26:42Z</time>
      </trkpt>
      <trkpt lat="47.5007" lon="6.75937">
        <ele>375</ele>
        <time>2014-12-28T08:26:43Z</time>
      </trkpt>
      <trkpt lat="47.50067" lon="6.75931">
        <ele>375</ele>
        <time>2014-12-28T08:26:44Z</time>
      </trkpt>
      <trkpt lat="47.50064" lon="6.75927">
        <ele>375</ele>
        <time>2014-12-28T08:26:45Z</time>
      </trkpt>
      <trkpt lat="47.50061" lon="6.75924">
        <ele>375</ele>
        <time>2014-12-28T08:26:46Z</time>
      </trkpt>
      <trkpt lat="47.50059" lon="6.7592">
        <ele>375</ele>
        <time>2014-12-28T08:26:47Z</time>
      </trkpt>
      <trkpt lat="47.50057" lon="6.75917">
        <ele>375</ele>
        <time>2014-12-28T08:26:48Z</time>
      </trkpt>
      <trkpt lat="47.50055" lon="6.75913">
        <ele>374</ele>
        <time>2014-12-28T08:26:49Z</time>
      </trkpt>
      <trkpt lat="47.50053" lon="6.75909">
        <ele>375</ele>
        <time>2014-12-28T08:26:50Z</time>
      </trkpt>
      <trkpt lat="47.50051" lon="6.75905">
        <ele>375</ele>
        <time>2014-12-28T08:26:51Z</time>
      </trkpt>
      <trkpt lat="47.50049" lon="6.759">
        <ele>375</ele>
        <time>2014-12-28T08:26:52Z</time>
      </trkpt>
      <trkpt lat="47.50047" lon="6.75894">
        <ele>375</ele>
        <time>2014-12-28T08:26:53Z</time>
      </trkpt>
      <trkpt lat="47.50046" lon="6.75888">
        <ele>375</ele>
        <time>2014-12-28T08:26:54Z</time>
      </trkpt>
      <trkpt lat="47.50044" lon="6.75882">
        <ele>375</ele>
        <time>2014-12-28T08:26:55Z</time>
      </trkpt>
      <trkpt lat="47.50042" lon="6.75876">
        <ele>375</ele>
        <time>2014-12-28T08:26:56Z</time>
      </trkpt>
      <trkpt lat="47.5004" lon="6.7587">
        <ele>376</ele>
        <time>2014-12-28T08:26:57Z</time>
      </trkpt>
      <trkpt lat="47.50038" lon="6.75864">
        <ele>376</ele>
        <time>2014-12-28T08:26:58Z</time>
      </trkpt>
      <trkpt lat="47.50037" lon="6.75859">
        <ele>376</ele>
        <time>2014-12-28T08:26:59Z</time>
      </trkpt>
      <trkpt lat="47.50035" lon="6.75854">
        <ele>376</ele>
        <time>2014-12-28T08:27:00Z</time>
      </trkpt>
      <trkpt lat="47.50032" lon="6.75849">
        <ele>377</ele>
        <time>2014-12-28T08:27:01Z</time>
      </trkpt>
      <trkpt lat="47.5003" lon="6.75845">
        <ele>377</ele>
        <time>2014-12-28T08:27:02Z</time>
      </trkpt>
      <trkpt lat="47.50027" lon="6.7584">
        <ele>377</ele>
        <time>2014-12-28T08:27:03Z</time>
      </trkpt>
      <trkpt lat="47.50024" lon="6.75835">
        <ele>377</ele>
        <time>2014-12-28T08:27:04Z</time>
      </trkpt>
      <trkpt lat="47.50021" lon="6.7583">
        <ele>377</ele>
        <time>2014-12-28T08:27:05Z</time>
      </trkpt>
      <trkpt lat="47.50018" lon="6.75824">
        <ele>377</ele>
        <time>2014-12-28T08:27:06Z</time>
      </trkpt>
      <trkpt lat="47.50015" lon="6.75818">
        <ele>377</ele>
        <time>2014-12-28T08:27:07Z</time>
      </trkpt>
      <trkpt lat="47.50012" lon="6.75811">
        <ele>377</ele>
        <time>2014-12-28T08:27:08Z</time>
      </trkpt>
      <trkpt lat="47.50009" lon="6.75805">
        <ele>377</ele>
        <time>2014-12-28T08:27:09Z</time>
      </trkpt>
      <trkpt lat="47.50005" lon="6.75799">
        <ele>377</ele>
        <time>2014-12-28T08:27:10Z</time>
      </trkpt>
      <trkpt lat="47.49995" lon="6.75791">
        <ele>377</ele>
        <time>2014-12-28T08:27:11Z</time>
      </trkpt>
      <trkpt lat="47.49992" lon="6.75785">
        <ele>376</ele>
        <time>2014-12-28T08:27:12Z</time>
      </trkpt>
      <trkpt lat="47.49989" lon="6.75781">
        <ele>376</ele>
        <time>2014-12-28T08:27:13Z</time>
      </trkpt>
      <trkpt lat="47.49984" lon="6.75775">
        <ele>376</ele>
        <time>2014-12-28T08:27:14Z</time>
      </trkpt>
      <trkpt lat="47.49979" lon="6.75771">
        <ele>376</ele>
        <time>2014-12-28T08:27:15Z</time>
      </trkpt>
      <trkpt lat="47.49976" lon="6.75768">
        <ele>375</ele>
        <time>2014-12-28T08:27:16Z</time>
      </trkpt>
      <trkpt lat="47.49973" lon="6.75764">
        <ele>375</ele>
        <time>2014-12-28T08:27:17Z</time>
      </trkpt>
      <trkpt lat="47.49972" lon="6.7576">
        <ele>375</ele>
        <time>2014-12-28T08:27:18Z</time>
      </trkpt>
      <trkpt lat="47.49968" lon="6.75756">
        <ele>374</ele>
        <time>2014-12-28T08:27:19Z</time>
      </trkpt>
      <trkpt lat="47.49965" lon="6.75751">
        <ele>374</ele>
        <time>2014-12-28T08:27:20Z</time>
      </trkpt>
      <trkpt lat="47.49963" lon="6.75749">
        <ele>372</ele>
        <time>2014-12-28T08:27:21Z</time>
      </trkpt>
      <trkpt lat="47.49961" lon="6.75744">
        <ele>371</ele>
        <time>2014-12-28T08:27:22Z</time>
      </trkpt>
      <trkpt lat="47.49958" lon="6.75741">
        <ele>371</ele>
        <time>2014-12-28T08:27:23Z</time>
      </trkpt>
      <trkpt lat="47.49955" lon="6.75739">
        <ele>370</ele>
        <time>2014-12-28T08:27:24Z</time>
      </trkpt>
      <trkpt lat="47.49948" lon="6.75737">
        <ele>370</ele>
        <time>2014-12-28T08:27:25Z</time>
      </trkpt>
      <trkpt lat="47.49942" lon="6.75736">
        <ele>369</ele>
        <time>2014-12-28T08:27:26Z</time>
      </trkpt>
      <trkpt lat="47.49937" lon="6.75736">
        <ele>369</ele>
        <time>2014-12-28T08:27:27Z</time>
      </trkpt>
      <trkpt lat="47.49933" lon="6.75739">
        <ele>369</ele>
        <time>2014-12-28T08:27:28Z</time>
      </trkpt>
      <trkpt lat="47.49927" lon="6.7574">
        <ele>369</ele>
        <time>2014-12-28T08:27:29Z</time>
      </trkpt>
      <trkpt lat="47.4992" lon="6.75741">
        <ele>369</ele>
        <time>2014-12-28T08:27:30Z</time>
      </trkpt>
      <trkpt lat="47.49915" lon="6.75742">
        <ele>368</ele>
        <time>2014-12-28T08:27:31Z</time>
      </trkpt>
      <trkpt lat="47.4991" lon="6.75741">
        <ele>368</ele>
        <time>2014-12-28T08:27:32Z</time>
      </trkpt>
      <trkpt lat="47.49903" lon="6.7574">
        <ele>368</ele>
        <time>2014-12-28T08:27:33Z</time>
      </trkpt>
      <trkpt lat="47.49897" lon="6.75738">
        <ele>367</ele>
        <time>2014-12-28T08:27:34Z</time>
      </trkpt>
      <trkpt lat="47.49891" lon="6.75737">
        <ele>366</ele>
        <time>2014-12-28T08:27:35Z</time>
      </trkpt>
      <trkpt lat="47.49879" lon="6.75738">
        <ele>363</ele>
        <time>2014-12-28T08:27:38Z</time>
      </trkpt>
      <trkpt lat="47.49875" lon="6.75745">
        <ele>363</ele>
        <time>2014-12-28T08:27:39Z</time>
      </trkpt>
      <trkpt lat="47.4987" lon="6.7575">
        <ele>362</ele>
        <time>2014-12-28T08:27:40Z</time>
      </trkpt>
      <trkpt lat="47.49867" lon="6.7575">
        <ele>361</ele>
        <time>2014-12-28T08:27:41Z</time>
      </trkpt>
      <trkpt lat="47.49863" lon="6.75751">
        <ele>363</ele>
        <time>2014-12-28T08:27:42Z</time>
      </trkpt>
      <trkpt lat="47.49859" lon="6.75752">
        <ele>362</ele>
        <time>2014-12-28T08:27:43Z</time>
      </trkpt>
      <trkpt lat="47.49856" lon="6.75754">
        <ele>361</ele>
        <time>2014-12-28T08:27:44Z</time>
      </trkpt>
      <trkpt lat="47.49853" lon="6.75755">
        <ele>361</ele>
        <time>2014-12-28T08:27:45Z</time>
      </trkpt>
      <trkpt lat="47.49851" lon="6.75756">
        <ele>360</ele>
        <time>2014-12-28T08:27:45Z</time>
      </trkpt>
      <trkpt lat="47.49848" lon="6.75758">
        <ele>360</ele>
        <time>2014-12-28T08:27:47Z</time>
      </trkpt>
      <trkpt lat="47.49844" lon="6.7576">
        <ele>359</ele>
        <time>2014-12-28T08:27:48Z</time>
      </trkpt>
      <trkpt lat="47.49842" lon="6.75761">
        <ele>359</ele>
        <time>2014-12-28T08:27:49Z</time>
      </trkpt>
      <trkpt lat="47.49833" lon="6.75762">
        <ele>359</ele>
        <time>2014-12-28T08:27:50Z</time>
      </trkpt>
      <trkpt lat="47.49827" lon="6.75762">
        <ele>359</ele>
        <time>2014-12-28T08:27:51Z</time>
      </trkpt>
      <trkpt lat="47.49822" lon="6.75761">
        <ele>359</ele>
        <time>2014-12-28T08:27:52Z</time>
      </trkpt>
      <trkpt lat="47.49816" lon="6.75762">
        <ele>359</ele>
        <time>2014-12-28T08:27:53Z</time>
      </trkpt>
      <trkpt lat="47.49809" lon="6.75765">
        <ele>359</ele>
        <time>2014-12-28T08:27:54Z</time>
      </trkpt>
      <trkpt lat="47.49804" lon="6.75768">
        <ele>360</ele>
        <time>2014-12-28T08:27:55Z</time>
      </trkpt>
      <trkpt lat="47.49799" lon="6.75768">
        <ele>359</ele>
        <time>2014-12-28T08:27:56Z</time>
      </trkpt>
      <trkpt lat="47.49792" lon="6.75769">
        <ele>359</ele>
        <time>2014-12-28T08:27:57Z</time>
      </trkpt>
      <trkpt lat="47.49786" lon="6.75768">
        <ele>358</ele>
        <time>2014-12-28T08:27:58Z</time>
      </trkpt>
      <trkpt lat="47.49782" lon="6.75769">
        <ele>357</ele>
        <time>2014-12-28T08:27:59Z</time>
      </trkpt>
      <trkpt lat="47.49777" lon="6.7577">
        <ele>356</ele>
        <time>2014-12-28T08:28:00Z</time>
      </trkpt>
      <trkpt lat="47.49773" lon="6.75771">
        <ele>356</ele>
        <time>2014-12-28T08:28:01Z</time>
      </trkpt>
      <trkpt lat="47.49768" lon="6.75772">
        <ele>355</ele>
        <time>2014-12-28T08:28:02Z</time>
      </trkpt>
      <trkpt lat="47.49764" lon="6.75774">
        <ele>354</ele>
        <time>2014-12-28T08:28:03Z</time>
      </trkpt>
      <trkpt lat="47.49758" lon="6.75778">
        <ele>355</ele>
        <time>2014-12-28T08:28:04Z</time>
      </trkpt>
      <trkpt lat="47.49754" lon="6.75779">
        <ele>355</ele>
        <time>2014-12-28T08:28:05Z</time>
      </trkpt>
      <trkpt lat="47.49749" lon="6.7578">
        <ele>354</ele>
        <time>2014-12-28T08:28:06Z</time>
      </trkpt>
      <trkpt lat="47.49743" lon="6.7578">
        <ele>354</ele>
        <time>2014-12-28T08:28:07Z</time>
      </trkpt>
      <trkpt lat="47.49738" lon="6.75781">
        <ele>354</ele>
        <time>2014-12-28T08:28:08Z</time>
      </trkpt>
      <trkpt lat="47.49733" lon="6.75781">
        <ele>354</ele>
        <time>2014-12-28T08:28:09Z</time>
      </trkpt>
      <trkpt lat="47.49729" lon="6.75782">
        <ele>355</ele>
        <time>2014-12-28T08:28:10Z</time>
      </trkpt>
      <trkpt lat="47.49724" lon="6.75783">
        <ele>355</ele>
        <time>2014-12-28T08:28:11Z</time>
      </trkpt>
      <trkpt lat="47.49719" lon="6.75784">
        <ele>355</ele>
        <time>2014-12-28T08:28:12Z</time>
      </trkpt>
      <trkpt lat="47.49713" lon="6.75785">
        <ele>354</ele>
        <time>2014-12-28T08:28:13Z</time>
      </trkpt>
      <trkpt lat="47.49707" lon="6.75785">
        <ele>353</ele>
        <time>2014-12-28T08:28:14Z</time>
      </trkpt>
      <trkpt lat="47.49702" lon="6.75784">
        <ele>353</ele>
        <time>2014-12-28T08:28:15Z</time>
      </trkpt>
      <trkpt lat="47.49695" lon="6.75782">
        <ele>351</ele>
        <time>2014-12-28T08:28:16Z</time>
      </trkpt>
      <trkpt lat="47.49688" lon="6.75781">
        <ele>350</ele>
        <time>2014-12-28T08:28:17Z</time>
      </trkpt>
      <trkpt lat="47.49684" lon="6.75781">
        <ele>350</ele>
        <time>2014-12-28T08:28:18Z</time>
      </trkpt>
      <trkpt lat="47.49679" lon="6.75783">
        <ele>349</ele>
        <time>2014-12-28T08:28:19Z</time>
      </trkpt>
      <trkpt lat="47.49676" lon="6.75781">
        <ele>348</ele>
        <time>2014-12-28T08:28:20Z</time>
      </trkpt>
      <trkpt lat="47.49671" lon="6.7578">
        <ele>348</ele>
        <time>2014-12-28T08:28:21Z</time>
      </trkpt>
      <trkpt lat="47.49666" lon="6.75779">
        <ele>346</ele>
        <time>2014-12-28T08:28:22Z</time>
      </trkpt>
      <trkpt lat="47.49661" lon="6.75777">
        <ele>346</ele>
        <time>2014-12-28T08:28:23Z</time>
      </trkpt>
      <trkpt lat="47.49655" lon="6.75776">
        <ele>346</ele>
        <time>2014-12-28T08:28:24Z</time>
      </trkpt>
      <trkpt lat="47.4965" lon="6.75774">
        <ele>346</ele>
        <time>2014-12-28T08:28:25Z</time>
      </trkpt>
      <trkpt lat="47.49645" lon="6.75774">
        <ele>346</ele>
        <time>2014-12-28T08:28:26Z</time>
      </trkpt>
      <trkpt lat="47.49642" lon="6.75774">
        <ele>346</ele>
        <time>2014-12-28T08:28:27Z</time>
      </trkpt>
      <trkpt lat="47.49638" lon="6.75773">
        <ele>345</ele>
        <time>2014-12-28T08:28:28Z</time>
      </trkpt>
      <trkpt lat="47.49633" lon="6.75773">
        <ele>345</ele>
        <time>2014-12-28T08:28:29Z</time>
      </trkpt>
      <trkpt lat="47.49629" lon="6.75772">
        <ele>344</ele>
        <time>2014-12-28T08:28:30Z</time>
      </trkpt>
      <trkpt lat="47.49625" lon="6.75773">
        <ele>344</ele>
        <time>2014-12-28T08:28:31Z</time>
      </trkpt>
      <trkpt lat="47.49622" lon="6.75772">
        <ele>343</ele>
        <time>2014-12-28T08:28:32Z</time>
      </trkpt>
      <trkpt lat="47.49618" lon="6.75772">
        <ele>342</ele>
        <time>2014-12-28T08:28:33Z</time>
      </trkpt>
      <trkpt lat="47.49613" lon="6.75774">
        <ele>341</ele>
        <time>2014-12-28T08:28:34Z</time>
      </trkpt>
      <trkpt lat="47.4961" lon="6.75774">
        <ele>341</ele>
        <time>2014-12-28T08:28:35Z</time>
      </trkpt>
      <trkpt lat="47.49603" lon="6.75774">
        <ele>339</ele>
        <time>2014-12-28T08:28:38Z</time>
      </trkpt>
      <trkpt lat="47.496" lon="6.75773">
        <ele>338</ele>
        <time>2014-12-28T08:28:39Z</time>
      </trkpt>
      <trkpt lat="47.49596" lon="6.75772">
        <ele>337</ele>
        <time>2014-12-28T08:28:40Z</time>
      </trkpt>
      <trkpt lat="47.49593" lon="6.7577">
        <ele>336</ele>
        <time>2014-12-28T08:28:41Z</time>
      </trkpt>
      <trkpt lat="47.49588" lon="6.75768">
        <ele>335</ele>
        <time>2014-12-28T08:28:42Z</time>
      </trkpt>
      <trkpt lat="47.49585" lon="6.75764">
        <ele>334</ele>
        <time>2014-12-28T08:28:43Z</time>
      </trkpt>
      <trkpt lat="47.49583" lon="6.7576">
        <ele>334</ele>
        <time>2014-12-28T08:28:44Z</time>
      </trkpt>
      <trkpt lat="47.49581" lon="6.75756">
        <ele>334</ele>
        <time>2014-12-28T08:28:45Z</time>
      </trkpt>
      <trkpt lat="47.4958" lon="6.75753">
        <ele>334</ele>
        <time>2014-12-28T08:28:46Z</time>
      </trkpt>
      <trkpt lat="47.49583" lon="6.7575">
        <ele>334</ele>
        <time>2014-12-28T08:28:49Z</time>
      </trkpt>
      <trkpt lat="47.49585" lon="6.7575">
        <ele>333</ele>
        <time>2014-12-28T08:28:50Z</time>
      </trkpt>
      <trkpt lat="47.49587" lon="6.75749">
        <ele>333</ele>
        <time>2014-12-28T08:28:51Z</time>
      </trkpt>
      <trkpt lat="47.4959" lon="6.75748">
        <ele>333</ele>
        <time>2014-12-28T08:28:52Z</time>
      </trkpt>
      <trkpt lat="47.49592" lon="6.75747">
        <ele>333</ele>
        <time>2014-12-28T08:28:53Z</time>
      </trkpt>
      <trkpt lat="47.49594" lon="6.75745">
        <ele>333</ele>
        <time>2014-12-28T08:28:54Z</time>
      </trkpt>
      <trkpt lat="47.49596" lon="6.75743">
        <ele>333</ele>
        <time>2014-12-28T08:28:55Z</time>
      </trkpt>
      <trkpt lat="47.49598" lon="6.75741">
        <ele>333</ele>
        <time>2014-12-28T08:28:56Z</time>
      </trkpt>
      <trkpt lat="47.496" lon="6.75739">
        <ele>333</ele>
        <time>2014-12-28T08:28:57Z</time>
      </trkpt>
      <trkpt lat="47.49602" lon="6.75735">
        <ele>332</ele>
        <time>2014-12-28T08:28:58Z</time>
      </trkpt>
      <trkpt lat="47.49604" lon="6.75731">
        <ele>332</ele>
        <time>2014-12-28T08:28:59Z</time>
      </trkpt>
      <trkpt lat="47.49606" lon="6.75727">
        <ele>331</ele>
        <time>2014-12-28T08:29:00Z</time>
      </trkpt>
      <trkpt lat="47.49608" lon="6.75722">
        <ele>331</ele>
        <time>2014-12-28T08:29:01Z</time>
      </trkpt>
      <trkpt lat="47.49609" lon="6.75717">
        <ele>330</ele>
        <time>2014-12-28T08:29:02Z</time>
      </trkpt>
      <trkpt lat="47.4961" lon="6.75713">
        <ele>330</ele>
        <time>2014-12-28T08:29:03Z</time>
      </trkpt>
      <trkpt lat="47.4961" lon="6.75708">
        <ele>329</ele>
        <time>2014-12-28T08:29:04Z</time>
      </trkpt>
      <trkpt lat="47.49608" lon="6.75703">
        <ele>328</ele>
        <time>2014-12-28T08:29:05Z</time>
      </trkpt>
      <trkpt lat="47.49606" lon="6.75698">
        <ele>327</ele>
        <time>2014-12-28T08:29:06Z</time>
      </trkpt>
      <trkpt lat="47.49603" lon="6.75694">
        <ele>326</ele>
        <time>2014-12-28T08:29:07Z</time>
      </trkpt>
      <trkpt lat="47.49599" lon="6.75689">
        <ele>324</ele>
        <time>2014-12-28T08:29:08Z</time>
      </trkpt>
      <trkpt lat="47.49595" lon="6.75685">
        <ele>323</ele>
        <time>2014-12-28T08:29:09Z</time>
      </trkpt>
      <trkpt lat="47.49591" lon="6.75682">
        <ele>322</ele>
        <time>2014-12-28T08:29:10Z</time>
      </trkpt>
      <trkpt lat="47.49587" lon="6.75681">
        <ele>321</ele>
        <time>2014-12-28T08:29:11Z</time>
      </trkpt>
      <trkpt lat="47.49582" lon="6.75681">
        <ele>321</ele>
        <time>2014-12-28T08:29:12Z</time>
      </trkpt>
      <trkpt lat="47.49578" lon="6.75684">
        <ele>321</ele>
        <time>2014-12-28T08:29:13Z</time>
      </trkpt>
      <trkpt lat="47.49574" lon="6.75688">
        <ele>322</ele>
        <time>2014-12-28T08:29:14Z</time>
      </trkpt>
      <trkpt lat="47.49571" lon="6.75693">
        <ele>323</ele>
        <time>2014-12-28T08:29:15Z</time>
      </trkpt>
      <trkpt lat="47.49568" lon="6.75698">
        <ele>324</ele>
        <time>2014-12-28T08:29:16Z</time>
      </trkpt>
      <trkpt lat="47.49564" lon="6.75711">
        <ele>326</ele>
        <time>2014-12-28T08:29:17Z</time>
      </trkpt>
      <trkpt lat="47.4956" lon="6.75715">
        <ele>327</ele>
        <time>2014-12-28T08:29:18Z</time>
      </trkpt>
      <trkpt lat="47.49557" lon="6.75719">
        <ele>327</ele>
        <time>2014-12-28T08:29:19Z</time>
      </trkpt>
      <trkpt lat="47.49553" lon="6.75722">
        <ele>327</ele>
        <time>2014-12-28T08:29:20Z</time>
      </trkpt>
      <trkpt lat="47.49549" lon="6.75727">
        <ele>327</ele>
        <time>2014-12-28T08:29:21Z</time>
      </trkpt>
      <trkpt lat="47.49545" lon="6.75731">
        <ele>326</ele>
        <time>2014-12-28T08:29:22Z</time>
      </trkpt>
      <trkpt lat="47.49541" lon="6.75735">
        <ele>326</ele>
        <time>2014-12-28T08:29:23Z</time>
      </trkpt>
      <trkpt lat="47.49537" lon="6.75739">
        <ele>325</ele>
        <time>2014-12-28T08:29:23Z</time>
      </trkpt>
      <trkpt lat="47.49533" lon="6.75742">
        <ele>325</ele>
        <time>2014-12-28T08:29:25Z</time>
      </trkpt>
      <trkpt lat="47.49529" lon="6.75745">
        <ele>324</ele>
        <time>2014-12-28T08:29:26Z</time>
      </trkpt>
      <trkpt lat="47.49524" lon="6.75747">
        <ele>324</ele>
        <time>2014-12-28T08:29:27Z</time>
      </trkpt>
      <trkpt lat="47.49519" lon="6.75749">
        <ele>324</ele>
        <time>2014-12-28T08:29:28Z</time>
      </trkpt>
      <trkpt lat="47.49515" lon="6.7575">
        <ele>325</ele>
        <time>2014-12-28T08:29:29Z</time>
      </trkpt>
      <trkpt lat="47.49511" lon="6.75751">
        <ele>324</ele>
        <time>2014-12-28T08:29:30Z</time>
      </trkpt>
      <trkpt lat="47.49507" lon="6.75752">
        <ele>324</ele>
        <time>2014-12-28T08:29:31Z</time>
      </trkpt>
      <trkpt lat="47.49503" lon="6.75754">
        <ele>324</ele>
        <time>2014-12-28T08:29:32Z</time>
      </trkpt>
      <trkpt lat="47.495" lon="6.75755">
        <ele>324</ele>
        <time>2014-12-28T08:29:32Z</time>
      </trkpt>
      <trkpt lat="47.49496" lon="6.75752">
        <ele>324</ele>
        <time>2014-12-28T08:29:34Z</time>
      </trkpt>
      <trkpt lat="47.49492" lon="6.75749">
        <ele>323</ele>
        <time>2014-12-28T08:29:35Z</time>
      </trkpt>
      <trkpt lat="47.49487" lon="6.75738">
        <ele>323</ele>
        <time>2014-12-28T08:29:38Z</time>
      </trkpt>
      <trkpt lat="47.49485" lon="6.7573">
        <ele>323</ele>
        <time>2014-12-28T08:29:39Z</time>
      </trkpt>
      <trkpt lat="47.49484" lon="6.75723">
        <ele>322</ele>
        <time>2014-12-28T08:29:40Z</time>
      </trkpt>
      <trkpt lat="47.49482" lon="6.75718">
        <ele>322</ele>
        <time>2014-12-28T08:29:41Z</time>
      </trkpt>
      <trkpt lat="47.4948" lon="6.75714">
        <ele>322</ele>
        <time>2014-12-28T08:29:42Z</time>
      </trkpt>
      <trkpt lat="47.49477" lon="6.7571">
        <ele>321</ele>
        <time>2014-12-28T08:29:43Z</time>
      </trkpt>
      <trkpt lat="47.49474" lon="6.75707">
        <ele>321</ele>
        <time>2014-12-28T08:29:44Z</time>
      </trkpt>
      <trkpt lat="47.49471" lon="6.75706">
        <ele>321</ele>
        <time>2014-12-28T08:29:45Z</time>
      </trkpt>
      <trkpt lat="47.49468" lon="6.75706">
        <ele>321</ele>
        <time>2014-12-28T08:29:46Z</time>
      </trkpt>
      <trkpt lat="47.49465" lon="6.75705">
        <ele>321</ele>
        <time>2014-12-28T08:29:46Z</time>
      </trkpt>
      <trkpt lat="47.49462" lon="6.75709">
        <ele>321</ele>
        <time>2014-12-28T08:29:48Z</time>
      </trkpt>
      <trkpt lat="47.49459" lon="6.75711">
        <ele>321</ele>
        <time>2014-12-28T08:29:48Z</time>
      </trkpt>
      <trkpt lat="47.49456" lon="6.75712">
        <ele>320</ele>
        <time>2014-12-28T08:29:50Z</time>
      </trkpt>
      <trkpt lat="47.49454" lon="6.75711">
        <ele>320</ele>
        <time>2014-12-28T08:29:51Z</time>
      </trkpt>
      <trkpt lat="47.49451" lon="6.75707">
        <ele>320</ele>
        <time>2014-12-28T08:29:52Z</time>
      </trkpt>
      <trkpt lat="47.49449" lon="6.75703">
        <ele>320</ele>
        <time>2014-12-28T08:29:53Z</time>
      </trkpt>
      <trkpt lat="47.49447" lon="6.75698">
        <ele>320</ele>
        <time>2014-12-28T08:29:54Z</time>
      </trkpt>
      <trkpt lat="47.49445" lon="6.75693">
        <ele>320</ele>
        <time>2014-12-28T08:29:54Z</time>
      </trkpt>
      <trkpt lat="47.49444" lon="6.75687">
        <ele>319</ele>
        <time>2014-12-28T08:29:56Z</time>
      </trkpt>
      <trkpt lat="47.49442" lon="6.75683">
        <ele>319</ele>
        <time>2014-12-28T08:29:57Z</time>
      </trkpt>
      <trkpt lat="47.4944" lon="6.75679">
        <ele>319</ele>
        <time>2014-12-28T08:29:58Z</time>
      </trkpt>
      <trkpt lat="47.49438" lon="6.75676">
        <ele>319</ele>
        <time>2014-12-28T08:29:59Z</time>
      </trkpt>
      <trkpt lat="47.49435" lon="6.75675">
        <ele>319</ele>
        <time>2014-12-28T08:30:00Z</time>
      </trkpt>
      <trkpt lat="47.49432" lon="6.75673">
        <ele>319</ele>
        <time>2014-12-28T08:30:01Z</time>
      </trkpt>
      <trkpt lat="47.49428" lon="6.75675">
        <ele>319</ele>
        <time>2014-12-28T08:30:02Z</time>
      </trkpt>
      <trkpt lat="47.49421" lon="6.75689">
        <ele>319</ele>
        <time>2014-12-28T08:30:03Z</time>
      </trkpt>
      <trkpt lat="47.49418" lon="6.75692">
        <ele>319</ele>
        <time>2014-12-28T08:30:04Z</time>
      </trkpt>
      <trkpt lat="47.49416" lon="6.75695">
        <ele>319</ele>
        <time>2014-12-28T08:30:05Z</time>
      </trkpt>
      <trkpt lat="47.49411" lon="6.75699">
        <ele>319</ele>
        <time>2014-12-28T08:30:06Z</time>
      </trkpt>
      <trkpt lat="47.49408" lon="6.75702">
        <ele>319</ele>
        <time>2014-12-28T08:30:07Z</time>
      </trkpt>
      <trkpt lat="47.49403" lon="6.75703">
        <ele>319</ele>
        <time>2014-12-28T08:30:08Z</time>
      </trkpt>
      <trkpt lat="47.494" lon="6.75705">
        <ele>319</ele>
        <time>2014-12-28T08:30:09Z</time>
      </trkpt>
      <trkpt lat="47.49395" lon="6.75705">
        <ele>319</ele>
        <time>2014-12-28T08:30:10Z</time>
      </trkpt>
      <trkpt lat="47.49391" lon="6.75707">
        <ele>319</ele>
        <time>2014-12-28T08:30:11Z</time>
      </trkpt>
      <trkpt lat="47.49388" lon="6.7571">
        <ele>319</ele>
        <time>2014-12-28T08:30:12Z</time>
      </trkpt>
      <trkpt lat="47.49386" lon="6.7571">
        <ele>319</ele>
        <time>2014-12-28T08:30:13Z</time>
      </trkpt>
      <trkpt lat="47.49383" lon="6.75714">
        <ele>318</ele>
        <time>2014-12-28T08:30:14Z</time>
      </trkpt>
      <trkpt lat="47.4938" lon="6.75717">
        <ele>318</ele>
        <time>2014-12-28T08:30:15Z</time>
      </trkpt>
      <trkpt lat="47.49377" lon="6.7572">
        <ele>318</ele>
        <time>2014-12-28T08:30:16Z</time>
      </trkpt>
      <trkpt lat="47.49376" lon="6.75721">
        <ele>318</ele>
        <time>2014-12-28T08:30:17Z</time>
      </trkpt>
      <trkpt lat="47.49371" lon="6.75723">
        <ele>318</ele>
        <time>2014-12-28T08:30:23Z</time>
      </trkpt>
      <trkpt lat="47.49369" lon="6.75724">
        <ele>318</ele>
        <time>2014-12-28T08:30:24Z</time>
      </trkpt>
      <trkpt lat="47.49367" lon="6.75726">
        <ele>318</ele>
        <time>2014-12-28T08:30:25Z</time>
      </trkpt>
      <trkpt lat="47.49364" lon="6.75728">
        <ele>318</ele>
        <time>2014-12-28T08:30:26Z</time>
      </trkpt>
      <trkpt lat="47.4936" lon="6.7573">
        <ele>318</ele>
        <time>2014-12-28T08:30:27Z</time>
      </trkpt>
      <trkpt lat="47.49356" lon="6.75733">
        <ele>318</ele>
        <time>2014-12-28T08:30:28Z</time>
      </trkpt>
      <trkpt lat="47.49348" lon="6.75739">
        <ele>318</ele>
        <time>2014-12-28T08:30:29Z</time>
      </trkpt>
      <trkpt lat="47.49343" lon="6.75742">
        <ele>318</ele>
        <time>2014-12-28T08:30:30Z</time>
      </trkpt>
      <trkpt lat="47.49339" lon="6.75744">
        <ele>318</ele>
        <time>2014-12-28T08:30:31Z</time>
      </trkpt>
      <trkpt lat="47.49335" lon="6.75746">
        <ele>318</ele>
        <time>2014-12-28T08:30:32Z</time>
      </trkpt>
      <trkpt lat="47.4933" lon="6.75749">
        <ele>318</ele>
        <time>2014-12-28T08:30:33Z</time>
      </trkpt>
      <trkpt lat="47.49325" lon="6.75753">
        <ele>318</ele>
        <time>2014-12-28T08:30:34Z</time>
      </trkpt>
      <trkpt lat="47.49322" lon="6.75759">
        <ele>318</ele>
        <time>2014-12-28T08:30:35Z</time>
      </trkpt>
      <trkpt lat="47.49312" lon="6.75768">
        <ele>318</ele>
        <time>2014-12-28T08:30:38Z</time>
      </trkpt>
      <trkpt lat="47.49309" lon="6.75774">
        <ele>318</ele>
        <time>2014-12-28T08:30:39Z</time>
      </trkpt>
      <trkpt lat="47.49305" lon="6.7578">
        <ele>318</ele>
        <time>2014-12-28T08:30:40Z</time>
      </trkpt>
      <trkpt lat="47.49301" lon="6.75786">
        <ele>318</ele>
        <time>2014-12-28T08:30:41Z</time>
      </trkpt>
      <trkpt lat="47.49297" lon="6.75791">
        <ele>318</ele>
        <time>2014-12-28T08:30:42Z</time>
      </trkpt>
      <trkpt lat="47.49293" lon="6.758">
        <ele>318</ele>
        <time>2014-12-28T08:30:43Z</time>
      </trkpt>
      <trkpt lat="47.49289" lon="6.75806">
        <ele>317</ele>
        <time>2014-12-28T08:30:44Z</time>
      </trkpt>
      <trkpt lat="47.49286" lon="6.75811">
        <ele>317</ele>
        <time>2014-12-28T08:30:45Z</time>
      </trkpt>
      <trkpt lat="47.49282" lon="6.75817">
        <ele>316</ele>
        <time>2014-12-28T08:30:46Z</time>
      </trkpt>
      <trkpt lat="47.49278" lon="6.75824">
        <ele>315</ele>
        <time>2014-12-28T08:30:47Z</time>
      </trkpt>
      <trkpt lat="47.49274" lon="6.7583">
        <ele>315</ele>
        <time>2014-12-28T08:30:48Z</time>
      </trkpt>
      <trkpt lat="47.4927" lon="6.75835">
        <ele>314</ele>
        <time>2014-12-28T08:30:49Z</time>
      </trkpt>
      <trkpt lat="47.49267" lon="6.75842">
        <ele>314</ele>
        <time>2014-12-28T08:30:50Z</time>
      </trkpt>
      <trkpt lat="47.49264" lon="6.75847">
        <ele>314</ele>
        <time>2014-12-28T08:30:51Z</time>
      </trkpt>
      <trkpt lat="47.49261" lon="6.75853">
        <ele>314</ele>
        <time>2014-12-28T08:30:52Z</time>
      </trkpt>
      <trkpt lat="47.49258" lon="6.75856">
        <ele>314</ele>
        <time>2014-12-28T08:30:53Z</time>
      </trkpt>
      <trkpt lat="47.49254" lon="6.75861">
        <ele>314</ele>
        <time>2014-12-28T08:30:54Z</time>
      </trkpt>
      <trkpt lat="47.49251" lon="6.75868">
        <ele>315</ele>
        <time>2014-12-28T08:30:55Z</time>
      </trkpt>
      <trkpt lat="47.49248" lon="6.75874">
        <ele>315</ele>
        <time>2014-12-28T08:30:56Z</time>
      </trkpt>
      <trkpt lat="47.49246" lon="6.75878">
        <ele>315</ele>
        <time>2014-12-28T08:30:57Z</time>
      </trkpt>
      <trkpt lat="47.49243" lon="6.75883">
        <ele>316</ele>
        <time>2014-12-28T08:30:58Z</time>
      </trkpt>
      <trkpt lat="47.49241" lon="6.75887">
        <ele>316</ele>
        <time>2014-12-28T08:30:59Z</time>
      </trkpt>
      <trkpt lat="47.49238" lon="6.75893">
        <ele>316</ele>
        <time>2014-12-28T08:31:00Z</time>
      </trkpt>
      <trkpt lat="47.49235" lon="6.75898">
        <ele>316</ele>
        <time>2014-12-28T08:31:01Z</time>
      </trkpt>
      <trkpt lat="47.49232" lon="6.75903">
        <ele>316</ele>
        <time>2014-12-28T08:31:02Z</time>
      </trkpt>
      <trkpt lat="47.4923" lon="6.75908">
        <ele>316</ele>
        <time>2014-12-28T08:31:03Z</time>
      </trkpt>
      <trkpt lat="47.49227" lon="6.75914">
        <ele>316</ele>
        <time>2014-12-28T08:31:04Z</time>
      </trkpt>
      <trkpt lat="47.49224" lon="6.75918">
        <ele>317</ele>
        <time>2014-12-28T08:31:05Z</time>
      </trkpt>
      <trkpt lat="47.49222" lon="6.75924">
        <ele>318</ele>
        <time>2014-12-28T08:31:06Z</time>
      </trkpt>
      <trkpt lat="47.49219" lon="6.75929">
        <ele>318</ele>
        <time>2014-12-28T08:31:07Z</time>
      </trkpt>
      <trkpt lat="47.49216" lon="6.75934">
        <ele>319</ele>
        <time>2014-12-28T08:31:08Z</time>
      </trkpt>
      <trkpt lat="47.49214" lon="6.75939">
        <ele>319</ele>
        <time>2014-12-28T08:31:09Z</time>
      </trkpt>
      <trkpt lat="47.49211" lon="6.75944">
        <ele>319</ele>
        <time>2014-12-28T08:31:10Z</time>
      </trkpt>
      <trkpt lat="47.49208" lon="6.75949">
        <ele>320</ele>
        <time>2014-12-28T08:31:11Z</time>
      </trkpt>
      <trkpt lat="47.49205" lon="6.75954">
        <ele>320</ele>
        <time>2014-12-28T08:31:12Z</time>
      </trkpt>
      <trkpt lat="47.49202" lon="6.75959">
        <ele>320</ele>
        <time>2014-12-28T08:31:13Z</time>
      </trkpt>
      <trkpt lat="47.49197" lon="6.7597">
        <ele>320</ele>
        <time>2014-12-28T08:31:14Z</time>
      </trkpt>
      <trkpt lat="47.49194" lon="6.75976">
        <ele>320</ele>
        <time>2014-12-28T08:31:15Z</time>
      </trkpt>
      <trkpt lat="47.49191" lon="6.75983">
        <ele>319</ele>
        <time>2014-12-28T08:31:16Z</time>
      </trkpt>
      <trkpt lat="47.49188" lon="6.7599">
        <ele>319</ele>
        <time>2014-12-28T08:31:17Z</time>
      </trkpt>
      <trkpt lat="47.49185" lon="6.75997">
        <ele>319</ele>
        <time>2014-12-28T08:31:18Z</time>
      </trkpt>
      <trkpt lat="47.49182" lon="6.76005">
        <ele>319</ele>
        <time>2014-12-28T08:31:19Z</time>
      </trkpt>
      <trkpt lat="47.49179" lon="6.76013">
        <ele>319</ele>
        <time>2014-12-28T08:31:20Z</time>
      </trkpt>
      <trkpt lat="47.49176" lon="6.76019">
        <ele>319</ele>
        <time>2014-12-28T08:31:21Z</time>
      </trkpt>
      <trkpt lat="47.49173" lon="6.76025">
        <ele>319</ele>
        <time>2014-12-28T08:31:22Z</time>
      </trkpt>
      <trkpt lat="47.4917" lon="6.76031">
        <ele>319</ele>
        <time>2014-12-28T08:31:23Z</time>
      </trkpt>
      <trkpt lat="47.49167" lon="6.76037">
        <ele>319</ele>
        <time>2014-12-28T08:31:24Z</time>
      </trkpt>
      <trkpt lat="47.49162" lon="6.76044">
        <ele>319</ele>
        <time>2014-12-28T08:31:25Z</time>
      </trkpt>
      <trkpt lat="47.49159" lon="6.76052">
        <ele>319</ele>
        <time>2014-12-28T08:31:26Z</time>
      </trkpt>
      <trkpt lat="47.49156" lon="6.7606">
        <ele>319</ele>
        <time>2014-12-28T08:31:27Z</time>
      </trkpt>
      <trkpt lat="47.49153" lon="6.76068">
        <ele>319</ele>
        <time>2014-12-28T08:31:28Z</time>
      </trkpt>
      <trkpt lat="47.49151" lon="6.76076">
        <ele>318</ele>
        <time>2014-12-28T08:31:29Z</time>
      </trkpt>
      <trkpt lat="47.49149" lon="6.76082">
        <ele>319</ele>
        <time>2014-12-28T08:31:30Z</time>
      </trkpt>
      <trkpt lat="47.49147" lon="6.76088">
        <ele>319</ele>
        <time>2014-12-28T08:31:31Z</time>
      </trkpt>
      <trkpt lat="47.49144" lon="6.76095">
        <ele>319</ele>
        <time>2014-12-28T08:31:32Z</time>
      </trkpt>
      <trkpt lat="47.49142" lon="6.76102">
        <ele>320</ele>
        <time>2014-12-28T08:31:33Z</time>
      </trkpt>
      <trkpt lat="47.49142" lon="6.76111">
        <ele>320</ele>
        <time>2014-12-28T08:31:34Z</time>
      </trkpt>
      <trkpt lat="47.4914" lon="6.76118">
        <ele>320</ele>
        <time>2014-12-28T08:31:35Z</time>
      </trkpt>
      <trkpt lat="47.49134" lon="6.76134">
        <ele>321</ele>
        <time>2014-12-28T08:31:38Z</time>
      </trkpt>
      <trkpt lat="47.49133" lon="6.7614">
        <ele>321</ele>
        <time>2014-12-28T08:31:39Z</time>
      </trkpt>
      <trkpt lat="47.49132" lon="6.76146">
        <ele>321</ele>
        <time>2014-12-28T08:31:40Z</time>
      </trkpt>
      <trkpt lat="47.49129" lon="6.76153">
        <ele>321</ele>
        <time>2014-12-28T08:31:41Z</time>
      </trkpt>
      <trkpt lat="47.49128" lon="6.7616">
        <ele>321</ele>
        <time>2014-12-28T08:31:42Z</time>
      </trkpt>
      <trkpt lat="47.49126" lon="6.76167">
        <ele>321</ele>
        <time>2014-12-28T08:31:43Z</time>
      </trkpt>
      <trkpt lat="47.49126" lon="6.76178">
        <ele>321</ele>
        <time>2014-12-28T08:31:44Z</time>
      </trkpt>
      <trkpt lat="47.49126" lon="6.76186">
        <ele>321</ele>
        <time>2014-12-28T08:31:45Z</time>
      </trkpt>
      <trkpt lat="47.49126" lon="6.76194">
        <ele>320</ele>
        <time>2014-12-28T08:31:46Z</time>
      </trkpt>
      <trkpt lat="47.49126" lon="6.76202">
        <ele>320</ele>
        <time>2014-12-28T08:31:47Z</time>
      </trkpt>
      <trkpt lat="47.49127" lon="6.7621">
        <ele>320</ele>
        <time>2014-12-28T08:31:48Z</time>
      </trkpt>
      <trkpt lat="47.49127" lon="6.76217">
        <ele>320</ele>
        <time>2014-12-28T08:31:49Z</time>
      </trkpt>
      <trkpt lat="47.49125" lon="6.76222">
        <ele>320</ele>
        <time>2014-12-28T08:31:50Z</time>
      </trkpt>
      <trkpt lat="47.49125" lon="6.76231">
        <ele>320</ele>
        <time>2014-12-28T08:31:51Z</time>
      </trkpt>
      <trkpt lat="47.49125" lon="6.7624">
        <ele>320</ele>
        <time>2014-12-28T08:31:52Z</time>
      </trkpt>
      <trkpt lat="47.49124" lon="6.76249">
        <ele>320</ele>
        <time>2014-12-28T08:31:53Z</time>
      </trkpt>
      <trkpt lat="47.49123" lon="6.76255">
        <ele>320</ele>
        <time>2014-12-28T08:31:54Z</time>
      </trkpt>
      <trkpt lat="47.49123" lon="6.76262">
        <ele>320</ele>
        <time>2014-12-28T08:31:55Z</time>
      </trkpt>
      <trkpt lat="47.49122" lon="6.76268">
        <ele>320</ele>
        <time>2014-12-28T08:31:56Z</time>
      </trkpt>
      <trkpt lat="47.49122" lon="6.76274">
        <ele>320</ele>
        <time>2014-12-28T08:31:57Z</time>
      </trkpt>
      <trkpt lat="47.49121" lon="6.7628">
        <ele>320</ele>
        <time>2014-12-28T08:31:58Z</time>
      </trkpt>
      <trkpt lat="47.4912" lon="6.76286">
        <ele>320</ele>
        <time>2014-12-28T08:31:59Z</time>
      </trkpt>
      <trkpt lat="47.49119" lon="6.76292">
        <ele>320</ele>
        <time>2014-12-28T08:32:00Z</time>
      </trkpt>
      <trkpt lat="47.49118" lon="6.76299">
        <ele>320</ele>
        <time>2014-12-28T08:32:01Z</time>
      </trkpt>
      <trkpt lat="47.49118" lon="6.76305">
        <ele>320</ele>
        <time>2014-12-28T08:32:02Z</time>
      </trkpt>
      <trkpt lat="47.49117" lon="6.76312">
        <ele>320</ele>
        <time>2014-12-28T08:32:03Z</time>
      </trkpt>
      <trkpt lat="47.49117" lon="6.76318">
        <ele>320</ele>
        <time>2014-12-28T08:32:04Z</time>
      </trkpt>
      <trkpt lat="47.49117" lon="6.76325">
        <ele>320</ele>
        <time>2014-12-28T08:32:05Z</time>
      </trkpt>
      <trkpt lat="47.49117" lon="6.76333">
        <ele>320</ele>
        <time>2014-12-28T08:32:06Z</time>
      </trkpt>
      <trkpt lat="47.49117" lon="6.7634">
        <ele>319</ele>
        <time>2014-12-28T08:32:07Z</time>
      </trkpt>
      <trkpt lat="47.49117" lon="6.76347">
        <ele>319</ele>
        <time>2014-12-28T08:32:08Z</time>
      </trkpt>
      <trkpt lat="47.49117" lon="6.76354">
        <ele>319</ele>
        <time>2014-12-28T08:32:09Z</time>
      </trkpt>
      <trkpt lat="47.49117" lon="6.76361">
        <ele>319</ele>
        <time>2014-12-28T08:32:10Z</time>
      </trkpt>
      <trkpt lat="47.49119" lon="6.76375">
        <ele>318</ele>
        <time>2014-12-28T08:32:11Z</time>
      </trkpt>
      <trkpt lat="47.49119" lon="6.76382">
        <ele>318</ele>
        <time>2014-12-28T08:32:12Z</time>
      </trkpt>
      <trkpt lat="47.4912" lon="6.76388">
        <ele>318</ele>
        <time>2014-12-28T08:32:13Z</time>
      </trkpt>
      <trkpt lat="47.49121" lon="6.76396">
        <ele>318</ele>
        <time>2014-12-28T08:32:14Z</time>
      </trkpt>
      <trkpt lat="47.4912" lon="6.76403">
        <ele>318</ele>
        <time>2014-12-28T08:32:15Z</time>
      </trkpt>
      <trkpt lat="47.49118" lon="6.76412">
        <ele>318</ele>
        <time>2014-12-28T08:32:16Z</time>
      </trkpt>
      <trkpt lat="47.49119" lon="6.76419">
        <ele>317</ele>
        <time>2014-12-28T08:32:17Z</time>
      </trkpt>
      <trkpt lat="47.49119" lon="6.76427">
        <ele>317</ele>
        <time>2014-12-28T08:32:18Z</time>
      </trkpt>
      <trkpt lat="47.4912" lon="6.76435">
        <ele>317</ele>
        <time>2014-12-28T08:32:19Z</time>
      </trkpt>
      <trkpt lat="47.4912" lon="6.76442">
        <ele>317</ele>
        <time>2014-12-28T08:32:20Z</time>
      </trkpt>
      <trkpt lat="47.49119" lon="6.76448">
        <ele>317</ele>
        <time>2014-12-28T08:32:21Z</time>
      </trkpt>
      <trkpt lat="47.49118" lon="6.76455">
        <ele>317</ele>
        <time>2014-12-28T08:32:22Z</time>
      </trkpt>
      <trkpt lat="47.49118" lon="6.76462">
        <ele>317</ele>
        <time>2014-12-28T08:32:23Z</time>
      </trkpt>
      <trkpt lat="47.49117" lon="6.76468">
        <ele>318</ele>
        <time>2014-12-28T08:32:24Z</time>
      </trkpt>
      <trkpt lat="47.49118" lon="6.76474">
        <ele>318</ele>
        <time>2014-12-28T08:32:25Z</time>
      </trkpt>
      <trkpt lat="47.49118" lon="6.76481">
        <ele>318</ele>
        <time>2014-12-28T08:32:26Z</time>
      </trkpt>
      <trkpt lat="47.49117" lon="6.76488">
        <ele>318</ele>
        <time>2014-12-28T08:32:27Z</time>
      </trkpt>
      <trkpt lat="47.49117" lon="6.76495">
        <ele>318</ele>
        <time>2014-12-28T08:32:28Z</time>
      </trkpt>
      <trkpt lat="47.49116" lon="6.76501">
        <ele>317</ele>
        <time>2014-12-28T08:32:29Z</time>
      </trkpt>
      <trkpt lat="47.49116" lon="6.76507">
        <ele>317</ele>
        <time>2014-12-28T08:32:30Z</time>
      </trkpt>
      <trkpt lat="47.49121" lon="6.76514">
        <ele>316</ele>
        <time>2014-12-28T08:32:31Z</time>
      </trkpt>
      <trkpt lat="47.49124" lon="6.7652">
        <ele>316</ele>
        <time>2014-12-28T08:32:32Z</time>
      </trkpt>
      <trkpt lat="47.4913" lon="6.76522">
        <ele>315</ele>
        <time>2014-12-28T08:32:33Z</time>
      </trkpt>
      <trkpt lat="47.49134" lon="6.76525">
        <ele>314</ele>
        <time>2014-12-28T08:32:34Z</time>
      </trkpt>
      <trkpt lat="47.49139" lon="6.76525">
        <ele>314</ele>
        <time>2014-12-28T08:32:35Z</time>
      </trkpt>
      <trkpt lat="47.49144" lon="6.76525">
        <ele>313</ele>
        <time>2014-12-28T08:32:36Z</time>
      </trkpt>
      <trkpt lat="47.49149" lon="6.76524">
        <ele>313</ele>
        <time>2014-12-28T08:32:37Z</time>
      </trkpt>
      <trkpt lat="47.49175" lon="6.76507">
        <ele>313</ele>
        <time>2014-12-28T08:32:45Z</time>
      </trkpt>
      <trkpt lat="47.49178" lon="6.76502">
        <ele>313</ele>
        <time>2014-12-28T08:32:47Z</time>
      </trkpt>
      <trkpt lat="47.49178" lon="6.765">
        <ele>313</ele>
        <time>2014-12-28T08:32:48Z</time>
      </trkpt>
      <trkpt lat="47.49177" lon="6.76495">
        <ele>313</ele>
        <time>2014-12-28T08:32:51Z</time>
      </trkpt>
      <trkpt lat="47.49177" lon="6.76494">
        <ele>313</ele>
        <time>2014-12-28T08:32:52Z</time>
      </trkpt>
      <trkpt lat="47.49181" lon="6.76492">
        <ele>313</ele>
        <time>2014-12-28T08:35:03Z</time>
      </trkpt>
      <trkpt lat="47.49182" lon="6.76492">
        <ele>313</ele>
        <time>2014-12-28T08:35:04Z</time>
      </trkpt>
      <trkpt lat="47.49183" lon="6.76498">
        <ele>313</ele>
        <time>2014-12-28T08:35:06Z</time>
      </trkpt>
      <trkpt lat="47.49182" lon="6.76502">
        <ele>313</ele>
        <time>2014-12-28T08:35:07Z</time>
      </trkpt>
      <trkpt lat="47.49181" lon="6.76505">
        <ele>313</ele>
        <time>2014-12-28T08:35:08Z</time>
      </trkpt>
      <trkpt lat="47.49178" lon="6.76509">
        <ele>313</ele>
        <time>2014-12-28T08:35:09Z</time>
      </trkpt>
      <trkpt lat="47.49176" lon="6.76511">
        <ele>313</ele>
        <time>2014-12-28T08:35:10Z</time>
      </trkpt>
      <trkpt lat="47.49173" lon="6.76514">
        <ele>313</ele>
        <time>2014-12-28T08:35:11Z</time>
      </trkpt>
      <trkpt lat="47.4917" lon="6.76516">
        <ele>313</ele>
        <time>2014-12-28T08:35:12Z</time>
      </trkpt>
      <trkpt lat="47.49164" lon="6.7652">
        <ele>313</ele>
        <time>2014-12-28T08:35:13Z</time>
      </trkpt>
      <trkpt lat="47.49159" lon="6.76524">
        <ele>313</ele>
        <time>2014-12-28T08:35:14Z</time>
      </trkpt>
      <trkpt lat="47.49154" lon="6.76528">
        <ele>313</ele>
        <time>2014-12-28T08:35:15Z</time>
      </trkpt>
      <trkpt lat="47.49149" lon="6.7653">
        <ele>313</ele>
        <time>2014-12-28T08:35:16Z</time>
      </trkpt>
      <trkpt lat="47.49144" lon="6.76531">
        <ele>314</ele>
        <time>2014-12-28T08:35:17Z</time>
      </trkpt>
      <trkpt lat="47.49139" lon="6.76531">
        <ele>314</ele>
        <time>2014-12-28T08:35:18Z</time>
      </trkpt>
      <trkpt lat="47.49135" lon="6.76532">
        <ele>314</ele>
        <time>2014-12-28T08:35:19Z</time>
      </trkpt>
      <trkpt lat="47.49131" lon="6.76532">
        <ele>315</ele>
        <time>2014-12-28T08:35:20Z</time>
      </trkpt>
      <trkpt lat="47.49127" lon="6.76534">
        <ele>315</ele>
        <time>2014-12-28T08:35:21Z</time>
      </trkpt>
      <trkpt lat="47.49125" lon="6.76541">
        <ele>315</ele>
        <time>2014-12-28T08:35:22Z</time>
      </trkpt>
      <trkpt lat="47.49123" lon="6.76548">
        <ele>315</ele>
        <time>2014-12-28T08:35:23Z</time>
      </trkpt>
      <trkpt lat="47.49124" lon="6.76556">
        <ele>315</ele>
        <time>2014-12-28T08:35:24Z</time>
      </trkpt>
      <trkpt lat="47.49124" lon="6.76563">
        <ele>315</ele>
        <time>2014-12-28T08:35:25Z</time>
      </trkpt>
      <trkpt lat="47.49124" lon="6.7657">
        <ele>315</ele>
        <time>2014-12-28T08:35:26Z</time>
      </trkpt>
      <trkpt lat="47.49124" lon="6.76576">
        <ele>315</ele>
        <time>2014-12-28T08:35:27Z</time>
      </trkpt>
      <trkpt lat="47.49125" lon="6.76582">
        <ele>315</ele>
        <time>2014-12-28T08:35:28Z</time>
      </trkpt>
      <trkpt lat="47.49126" lon="6.76586">
        <ele>314</ele>
        <time>2014-12-28T08:35:29Z</time>
      </trkpt>
      <trkpt lat="47.49127" lon="6.76591">
        <ele>314</ele>
        <time>2014-12-28T08:35:30Z</time>
      </trkpt>
      <trkpt lat="47.49127" lon="6.76596">
        <ele>314</ele>
        <time>2014-12-28T08:35:31Z</time>
      </trkpt>
      <trkpt lat="47.49129" lon="6.76601">
        <ele>314</ele>
        <time>2014-12-28T08:35:32Z</time>
      </trkpt>
      <trkpt lat="47.49129" lon="6.76606">
        <ele>314</ele>
        <time>2014-12-28T08:35:33Z</time>
      </trkpt>
      <trkpt lat="47.4913" lon="6.76611">
        <ele>314</ele>
        <time>2014-12-28T08:35:34Z</time>
      </trkpt>
      <trkpt lat="47.4913" lon="6.76616">
        <ele>314</ele>
        <time>2014-12-28T08:35:35Z</time>
      </trkpt>
      <trkpt lat="47.49132" lon="6.76631">
        <ele>313</ele>
        <time>2014-12-28T08:35:38Z</time>
      </trkpt>
      <trkpt lat="47.49132" lon="6.76636">
        <ele>313</ele>
        <time>2014-12-28T08:35:39Z</time>
      </trkpt>
      <trkpt lat="47.49133" lon="6.7664">
        <ele>313</ele>
        <time>2014-12-28T08:35:40Z</time>
      </trkpt>
      <trkpt lat="47.49134" lon="6.76645">
        <ele>313</ele>
        <time>2014-12-28T08:35:41Z</time>
      </trkpt>
      <trkpt lat="47.49135" lon="6.7665">
        <ele>313</ele>
        <time>2014-12-28T08:35:42Z</time>
      </trkpt>
      <trkpt lat="47.49136" lon="6.76655">
        <ele>313</ele>
        <time>2014-12-28T08:35:43Z</time>
      </trkpt>
      <trkpt lat="47.49137" lon="6.76661">
        <ele>313</ele>
        <time>2014-12-28T08:35:44Z</time>
      </trkpt>
      <trkpt lat="47.49137" lon="6.76666">
        <ele>313</ele>
        <time>2014-12-28T08:35:45Z</time>
      </trkpt>
      <trkpt lat="47.49138" lon="6.76672">
        <ele>313</ele>
        <time>2014-12-28T08:35:46Z</time>
      </trkpt>
      <trkpt lat="47.49139" lon="6.76677">
        <ele>313</ele>
        <time>2014-12-28T08:35:47Z</time>
      </trkpt>
      <trkpt lat="47.4914" lon="6.76682">
        <ele>313</ele>
        <time>2014-12-28T08:35:48Z</time>
      </trkpt>
      <trkpt lat="47.4914" lon="6.76686">
        <ele>313</ele>
        <time>2014-12-28T08:35:49Z</time>
      </trkpt>
      <trkpt lat="47.49141" lon="6.76691">
        <ele>313</ele>
        <time>2014-12-28T08:35:50Z</time>
      </trkpt>
      <trkpt lat="47.49142" lon="6.76695">
        <ele>313</ele>
        <time>2014-12-28T08:35:51Z</time>
      </trkpt>
      <trkpt lat="47.49143" lon="6.767">
        <ele>313</ele>
        <time>2014-12-28T08:35:52Z</time>
      </trkpt>
      <trkpt lat="47.49143" lon="6.76705">
        <ele>313</ele>
        <time>2014-12-28T08:35:53Z</time>
      </trkpt>
      <trkpt lat="47.49144" lon="6.7671">
        <ele>313</ele>
        <time>2014-12-28T08:35:54Z</time>
      </trkpt>
      <trkpt lat="47.49144" lon="6.76717">
        <ele>313</ele>
        <time>2014-12-28T08:35:54Z</time>
      </trkpt>
      <trkpt lat="47.49145" lon="6.76722">
        <ele>313</ele>
        <time>2014-12-28T08:35:56Z</time>
      </trkpt>
      <trkpt lat="47.49146" lon="6.76727">
        <ele>313</ele>
        <time>2014-12-28T08:35:57Z</time>
      </trkpt>
      <trkpt lat="47.49146" lon="6.76732">
        <ele>313</ele>
        <time>2014-12-28T08:35:58Z</time>
      </trkpt>
      <trkpt lat="47.49147" lon="6.76737">
        <ele>313</ele>
        <time>2014-12-28T08:35:59Z</time>
      </trkpt>
      <trkpt lat="47.49148" lon="6.76741">
        <ele>313</ele>
        <time>2014-12-28T08:36:00Z</time>
      </trkpt>
      <trkpt lat="47.49149" lon="6.76747">
        <ele>313</ele>
        <time>2014-12-28T08:36:01Z</time>
      </trkpt>
      <trkpt lat="47.49149" lon="6.76752">
        <ele>312</ele>
        <time>2014-12-28T08:36:02Z</time>
      </trkpt>
      <trkpt lat="47.4915" lon="6.76757">
        <ele>312</ele>
        <time>2014-12-28T08:36:03Z</time>
      </trkpt>
      <trkpt lat="47.4915" lon="6.76761">
        <ele>312</ele>
        <time>2014-12-28T08:36:04Z</time>
      </trkpt>
      <trkpt lat="47.49151" lon="6.76766">
        <ele>312</ele>
        <time>2014-12-28T08:36:05Z</time>
      </trkpt>
      <trkpt lat="47.49151" lon="6.7677">
        <ele>312</ele>
        <time>2014-12-28T08:36:06Z</time>
      </trkpt>
      <trkpt lat="47.4915" lon="6.76776">
        <ele>312</ele>
        <time>2014-12-28T08:36:08Z</time>
      </trkpt>
      <trkpt lat="47.4915" lon="6.7678">
        <ele>312</ele>
        <time>2014-12-28T08:36:09Z</time>
      </trkpt>
      <trkpt lat="47.4915" lon="6.76783">
        <ele>312</ele>
        <time>2014-12-28T08:36:09Z</time>
      </trkpt>
      <trkpt lat="47.49151" lon="6.76788">
        <ele>312</ele>
        <time>2014-12-28T08:36:11Z</time>
      </trkpt>
      <trkpt lat="47.49153" lon="6.76793">
        <ele>312</ele>
        <time>2014-12-28T08:36:12Z</time>
      </trkpt>
      <trkpt lat="47.49153" lon="6.76798">
        <ele>312</ele>
        <time>2014-12-28T08:36:13Z</time>
      </trkpt>
      <trkpt lat="47.49153" lon="6.76803">
        <ele>312</ele>
        <time>2014-12-28T08:36:14Z</time>
      </trkpt>
      <trkpt lat="47.49153" lon="6.76807">
        <ele>312</ele>
        <time>2014-12-28T08:36:14Z</time>
      </trkpt>
      <trkpt lat="47.49153" lon="6.76814">
        <ele>312</ele>
        <time>2014-12-28T08:36:16Z</time>
      </trkpt>
      <trkpt lat="47.49152" lon="6.76819">
        <ele>312</ele>
        <time>2014-12-28T08:36:17Z</time>
      </trkpt>
      <trkpt lat="47.49152" lon="6.76824">
        <ele>312</ele>
        <time>2014-12-28T08:36:18Z</time>
      </trkpt>
      <trkpt lat="47.49152" lon="6.7683">
        <ele>312</ele>
        <time>2014-12-28T08:36:19Z</time>
      </trkpt>
      <trkpt lat="47.49152" lon="6.76835">
        <ele>312</ele>
        <time>2014-12-28T08:36:20Z</time>
      </trkpt>
      <trkpt lat="47.49152" lon="6.7684">
        <ele>312</ele>
        <time>2014-12-28T08:36:21Z</time>
      </trkpt>
      <trkpt lat="47.49152" lon="6.76845">
        <ele>312</ele>
        <time>2014-12-28T08:36:22Z</time>
      </trkpt>
      <trkpt lat="47.49152" lon="6.7685">
        <ele>312</ele>
        <time>2014-12-28T08:36:23Z</time>
      </trkpt>
      <trkpt lat="47.49152" lon="6.76855">
        <ele>312</ele>
        <time>2014-12-28T08:36:24Z</time>
      </trkpt>
      <trkpt lat="47.49151" lon="6.76861">
        <ele>312</ele>
        <time>2014-12-28T08:36:25Z</time>
      </trkpt>
      <trkpt lat="47.49151" lon="6.76866">
        <ele>312</ele>
        <time>2014-12-28T08:36:26Z</time>
      </trkpt>
      <trkpt lat="47.49151" lon="6.76872">
        <ele>312</ele>
        <time>2014-12-28T08:36:27Z</time>
      </trkpt>
      <trkpt lat="47.49151" lon="6.76877">
        <ele>312</ele>
        <time>2014-12-28T08:36:28Z</time>
      </trkpt>
      <trkpt lat="47.49151" lon="6.76883">
        <ele>312</ele>
        <time>2014-12-28T08:36:29Z</time>
      </trkpt>
      <trkpt lat="47.49151" lon="6.76889">
        <ele>312</ele>
        <time>2014-12-28T08:36:30Z</time>
      </trkpt>
      <trkpt lat="47.49151" lon="6.76894">
        <ele>312</ele>
        <time>2014-12-28T08:36:31Z</time>
      </trkpt>
      <trkpt lat="47.49151" lon="6.76899">
        <ele>312</ele>
        <time>2014-12-28T08:36:32Z</time>
      </trkpt>
      <trkpt lat="47.49151" lon="6.76905">
        <ele>312</ele>
        <time>2014-12-28T08:36:33Z</time>
      </trkpt>
      <trkpt lat="47.49151" lon="6.7691">
        <ele>312</ele>
        <time>2014-12-28T08:36:34Z</time>
      </trkpt>
      <trkpt lat="47.49151" lon="6.76916">
        <ele>312</ele>
        <time>2014-12-28T08:36:35Z</time>
      </trkpt>
      <trkpt lat="47.49151" lon="6.76922">
        <ele>312</ele>
        <time>2014-12-28T08:36:36Z</time>
      </trkpt>
      <trkpt lat="47.49151" lon="6.76937">
        <ele>312</ele>
        <time>2014-12-28T08:36:39Z</time>
      </trkpt>
      <trkpt lat="47.49151" lon="6.76942">
        <ele>312</ele>
        <time>2014-12-28T08:36:40Z</time>
      </trkpt>
      <trkpt lat="47.49151" lon="6.76948">
        <ele>312</ele>
        <time>2014-12-28T08:36:41Z</time>
      </trkpt>
      <trkpt lat="47.4915" lon="6.76954">
        <ele>312</ele>
        <time>2014-12-28T08:36:42Z</time>
      </trkpt>
      <trkpt lat="47.4915" lon="6.76959">
        <ele>312</ele>
        <time>2014-12-28T08:36:43Z</time>
      </trkpt>
      <trkpt lat="47.4915" lon="6.76964">
        <ele>312</ele>
        <time>2014-12-28T08:36:43Z</time>
      </trkpt>
      <trkpt lat="47.4915" lon="6.76969">
        <ele>312</ele>
        <time>2014-12-28T08:36:45Z</time>
      </trkpt>
      <trkpt lat="47.4915" lon="6.76973">
        <ele>312</ele>
        <time>2014-12-28T08:36:46Z</time>
      </trkpt>
      <trkpt lat="47.4915" lon="6.76977">
        <ele>312</ele>
        <time>2014-12-28T08:36:47Z</time>
      </trkpt>
      <trkpt lat="47.49149" lon="6.76982">
        <ele>312</ele>
        <time>2014-12-28T08:36:48Z</time>
      </trkpt>
      <trkpt lat="47.49149" lon="6.76987">
        <ele>312</ele>
        <time>2014-12-28T08:36:49Z</time>
      </trkpt>
      <trkpt lat="47.49148" lon="6.76992">
        <ele>311</ele>
        <time>2014-12-28T08:36:50Z</time>
      </trkpt>
      <trkpt lat="47.49149" lon="6.76998">
        <ele>311</ele>
        <time>2014-12-28T08:36:51Z</time>
      </trkpt>
      <trkpt lat="47.4915" lon="6.77004">
        <ele>311</ele>
        <time>2014-12-28T08:36:52Z</time>
      </trkpt>
      <trkpt lat="47.49152" lon="6.77009">
        <ele>311</ele>
        <time>2014-12-28T08:36:53Z</time>
      </trkpt>
      <trkpt lat="47.49155" lon="6.77013">
        <ele>311</ele>
        <time>2014-12-28T08:36:54Z</time>
      </trkpt>
      <trkpt lat="47.49158" lon="6.77017">
        <ele>311</ele>
        <time>2014-12-28T08:36:55Z</time>
      </trkpt>
      <trkpt lat="47.49161" lon="6.77022">
        <ele>311</ele>
        <time>2014-12-28T08:36:56Z</time>
      </trkpt>
      <trkpt lat="47.49163" lon="6.77027">
        <ele>311</ele>
        <time>2014-12-28T08:36:57Z</time>
      </trkpt>
      <trkpt lat="47.49165" lon="6.77033">
        <ele>311</ele>
        <time>2014-12-28T08:36:58Z</time>
      </trkpt>
      <trkpt lat="47.49166" lon="6.77039">
        <ele>311</ele>
        <time>2014-12-28T08:36:59Z</time>
      </trkpt>
      <trkpt lat="47.49167" lon="6.77044">
        <ele>312</ele>
        <time>2014-12-28T08:37:00Z</time>
      </trkpt>
      <trkpt lat="47.49168" lon="6.7705">
        <ele>312</ele>
        <time>2014-12-28T08:37:01Z</time>
      </trkpt>
      <trkpt lat="47.49169" lon="6.77059">
        <ele>312</ele>
        <time>2014-12-28T08:37:02Z</time>
      </trkpt>
      <trkpt lat="47.49171" lon="6.77065">
        <ele>312</ele>
        <time>2014-12-28T08:37:03Z</time>
      </trkpt>
      <trkpt lat="47.49172" lon="6.77072">
        <ele>312</ele>
        <time>2014-12-28T08:37:04Z</time>
      </trkpt>
      <trkpt lat="47.49171" lon="6.77077">
        <ele>312</ele>
        <time>2014-12-28T08:37:05Z</time>
      </trkpt>
      <trkpt lat="47.49172" lon="6.77082">
        <ele>312</ele>
        <time>2014-12-28T08:37:06Z</time>
      </trkpt>
      <trkpt lat="47.49172" lon="6.77087">
        <ele>312</ele>
        <time>2014-12-28T08:37:07Z</time>
      </trkpt>
      <trkpt lat="47.49173" lon="6.77092">
        <ele>312</ele>
        <time>2014-12-28T08:37:08Z</time>
      </trkpt>
      <trkpt lat="47.49174" lon="6.77098">
        <ele>312</ele>
        <time>2014-12-28T08:37:09Z</time>
      </trkpt>
      <trkpt lat="47.49177" lon="6.77104">
        <ele>312</ele>
        <time>2014-12-28T08:37:10Z</time>
      </trkpt>
      <trkpt lat="47.49179" lon="6.77109">
        <ele>312</ele>
        <time>2014-12-28T08:37:10Z</time>
      </trkpt>
      <trkpt lat="47.4918" lon="6.77114">
        <ele>312</ele>
        <time>2014-12-28T08:37:12Z</time>
      </trkpt>
      <trkpt lat="47.49181" lon="6.77119">
        <ele>312</ele>
        <time>2014-12-28T08:37:13Z</time>
      </trkpt>
      <trkpt lat="47.49183" lon="6.77124">
        <ele>312</ele>
        <time>2014-12-28T08:37:14Z</time>
      </trkpt>
      <trkpt lat="47.49184" lon="6.77128">
        <ele>312</ele>
        <time>2014-12-28T08:37:15Z</time>
      </trkpt>
      <trkpt lat="47.49184" lon="6.77132">
        <ele>312</ele>
        <time>2014-12-28T08:37:16Z</time>
      </trkpt>
      <trkpt lat="47.49185" lon="6.77135">
        <ele>312</ele>
        <time>2014-12-28T08:37:17Z</time>
      </trkpt>
      <trkpt lat="47.49185" lon="6.77138">
        <ele>312</ele>
        <time>2014-12-28T08:37:18Z</time>
      </trkpt>
      <trkpt lat="47.49185" lon="6.77144">
        <ele>312</ele>
        <time>2014-12-28T08:37:20Z</time>
      </trkpt>
      <trkpt lat="47.49185" lon="6.77147">
        <ele>312</ele>
        <time>2014-12-28T08:37:21Z</time>
      </trkpt>
      <trkpt lat="47.49186" lon="6.7715">
        <ele>312</ele>
        <time>2014-12-28T08:37:22Z</time>
      </trkpt>
      <trkpt lat="47.49186" lon="6.77154">
        <ele>312</ele>
        <time>2014-12-28T08:37:23Z</time>
      </trkpt>
      <trkpt lat="47.49187" lon="6.77158">
        <ele>312</ele>
        <time>2014-12-28T08:37:23Z</time>
      </trkpt>
      <trkpt lat="47.49187" lon="6.77162">
        <ele>312</ele>
        <time>2014-12-28T08:37:25Z</time>
      </trkpt>
      <trkpt lat="47.49187" lon="6.77167">
        <ele>312</ele>
        <time>2014-12-28T08:37:26Z</time>
      </trkpt>
      <trkpt lat="47.49187" lon="6.77172">
        <ele>312</ele>
        <time>2014-12-28T08:37:27Z</time>
      </trkpt>
      <trkpt lat="47.49187" lon="6.77176">
        <ele>312</ele>
        <time>2014-12-28T08:37:28Z</time>
      </trkpt>
      <trkpt lat="47.49187" lon="6.77181">
        <ele>312</ele>
        <time>2014-12-28T08:37:29Z</time>
      </trkpt>
      <trkpt lat="47.49188" lon="6.77185">
        <ele>312</ele>
        <time>2014-12-28T08:37:30Z</time>
      </trkpt>
      <trkpt lat="47.49188" lon="6.77189">
        <ele>312</ele>
        <time>2014-12-28T08:37:31Z</time>
      </trkpt>
      <trkpt lat="47.49187" lon="6.77193">
        <ele>312</ele>
        <time>2014-12-28T08:37:32Z</time>
      </trkpt>
      <trkpt lat="47.49187" lon="6.77197">
        <ele>312</ele>
        <time>2014-12-28T08:37:33Z</time>
      </trkpt>
      <trkpt lat="47.49187" lon="6.77201">
        <ele>312</ele>
        <time>2014-12-28T08:37:34Z</time>
      </trkpt>
      <trkpt lat="47.49187" lon="6.77206">
        <ele>312</ele>
        <time>2014-12-28T08:37:35Z</time>
      </trkpt>
      <trkpt lat="47.49187" lon="6.77211">
        <ele>312</ele>
        <time>2014-12-28T08:37:36Z</time>
      </trkpt>
      <trkpt lat="47.49187" lon="6.77226">
        <ele>312</ele>
        <time>2014-12-28T08:37:39Z</time>
      </trkpt>
      <trkpt lat="47.49187" lon="6.77231">
        <ele>312</ele>
        <time>2014-12-28T08:37:40Z</time>
      </trkpt>
      <trkpt lat="47.49187" lon="6.77236">
        <ele>312</ele>
        <time>2014-12-28T08:37:41Z</time>
      </trkpt>
      <trkpt lat="47.49187" lon="6.77241">
        <ele>312</ele>
        <time>2014-12-28T08:37:42Z</time>
      </trkpt>
      <trkpt lat="47.49187" lon="6.77247">
        <ele>312</ele>
        <time>2014-12-28T08:37:43Z</time>
      </trkpt>
      <trkpt lat="47.49187" lon="6.77253">
        <ele>311</ele>
        <time>2014-12-28T08:37:44Z</time>
      </trkpt>
      <trkpt lat="47.49188" lon="6.77259">
        <ele>311</ele>
        <time>2014-12-28T08:37:45Z</time>
      </trkpt>
      <trkpt lat="47.49188" lon="6.77265">
        <ele>311</ele>
        <time>2014-12-28T08:37:46Z</time>
      </trkpt>
      <trkpt lat="47.49189" lon="6.77271">
        <ele>311</ele>
        <time>2014-12-28T08:37:47Z</time>
      </trkpt>
      <trkpt lat="47.49189" lon="6.77276">
        <ele>311</ele>
        <time>2014-12-28T08:37:48Z</time>
      </trkpt>
      <trkpt lat="47.49189" lon="6.77282">
        <ele>311</ele>
        <time>2014-12-28T08:37:49Z</time>
      </trkpt>
      <trkpt lat="47.49188" lon="6.77288">
        <ele>310</ele>
        <time>2014-12-28T08:37:50Z</time>
      </trkpt>
      <trkpt lat="47.49188" lon="6.77294">
        <ele>310</ele>
        <time>2014-12-28T08:37:51Z</time>
      </trkpt>
      <trkpt lat="47.49187" lon="6.773">
        <ele>310</ele>
        <time>2014-12-28T08:37:52Z</time>
      </trkpt>
      <trkpt lat="47.49187" lon="6.77307">
        <ele>310</ele>
        <time>2014-12-28T08:37:53Z</time>
      </trkpt>
      <trkpt lat="47.49187" lon="6.77313">
        <ele>310</ele>
        <time>2014-12-28T08:37:54Z</time>
      </trkpt>
      <trkpt lat="47.49186" lon="6.77319">
        <ele>310</ele>
        <time>2014-12-28T08:37:55Z</time>
      </trkpt>
      <trkpt lat="47.49186" lon="6.77326">
        <ele>310</ele>
        <time>2014-12-28T08:37:56Z</time>
      </trkpt>
      <trkpt lat="47.49185" lon="6.77332">
        <ele>310</ele>
        <time>2014-12-28T08:37:57Z</time>
      </trkpt>
      <trkpt lat="47.49182" lon="6.77339">
        <ele>309</ele>
        <time>2014-12-28T08:37:58Z</time>
      </trkpt>
      <trkpt lat="47.4918" lon="6.77343">
        <ele>309</ele>
        <time>2014-12-28T08:37:59Z</time>
      </trkpt>
      <trkpt lat="47.49179" lon="6.77345">
        <ele>309</ele>
        <time>2014-12-28T08:38:00Z</time>
      </trkpt>
      <trkpt lat="47.49176" lon="6.77345">
        <ele>309</ele>
        <time>2014-12-28T08:38:01Z</time>
      </trkpt>
      <trkpt lat="47.49173" lon="6.77345">
        <ele>309</ele>
        <time>2014-12-28T08:38:02Z</time>
      </trkpt>
      <trkpt lat="47.4917" lon="6.77344">
        <ele>309</ele>
        <time>2014-12-28T08:38:03Z</time>
      </trkpt>
      <trkpt lat="47.49166" lon="6.77345">
        <ele>309</ele>
        <time>2014-12-28T08:38:04Z</time>
      </trkpt>
      <trkpt lat="47.49163" lon="6.77344">
        <ele>309</ele>
        <time>2014-12-28T08:38:05Z</time>
      </trkpt>
      <trkpt lat="47.49159" lon="6.77344">
        <ele>309</ele>
        <time>2014-12-28T08:38:06Z</time>
      </trkpt>
      <trkpt lat="47.49155" lon="6.77343">
        <ele>309</ele>
        <time>2014-12-28T08:38:07Z</time>
      </trkpt>
      <trkpt lat="47.49152" lon="6.77343">
        <ele>309</ele>
        <time>2014-12-28T08:38:08Z</time>
      </trkpt>
      <trkpt lat="47.4915" lon="6.77343">
        <ele>309</ele>
        <time>2014-12-28T08:38:09Z</time>
      </trkpt>
      <trkpt lat="47.49147" lon="6.77342">
        <ele>309</ele>
        <time>2014-12-28T08:38:10Z</time>
      </trkpt>
      <trkpt lat="47.49144" lon="6.77342">
        <ele>309</ele>
        <time>2014-12-28T08:38:11Z</time>
      </trkpt>
      <trkpt lat="47.4914" lon="6.77342">
        <ele>309</ele>
        <time>2014-12-28T08:38:12Z</time>
      </trkpt>
      <trkpt lat="47.49137" lon="6.77342">
        <ele>309</ele>
        <time>2014-12-28T08:38:13Z</time>
      </trkpt>
      <trkpt lat="47.49134" lon="6.77342">
        <ele>309</ele>
        <time>2014-12-28T08:38:14Z</time>
      </trkpt>
      <trkpt lat="47.4913" lon="6.77342">
        <ele>309</ele>
        <time>2014-12-28T08:38:15Z</time>
      </trkpt>
      <trkpt lat="47.49127" lon="6.77342">
        <ele>310</ele>
        <time>2014-12-28T08:38:16Z</time>
      </trkpt>
      <trkpt lat="47.49123" lon="6.77342">
        <ele>310</ele>
        <time>2014-12-28T08:38:17Z</time>
      </trkpt>
      <trkpt lat="47.49119" lon="6.77342">
        <ele>310</ele>
        <time>2014-12-28T08:38:18Z</time>
      </trkpt>
      <trkpt lat="47.49116" lon="6.77345">
        <ele>310</ele>
        <time>2014-12-28T08:38:19Z</time>
      </trkpt>
      <trkpt lat="47.49112" lon="6.77346">
        <ele>310</ele>
        <time>2014-12-28T08:38:20Z</time>
      </trkpt>
      <trkpt lat="47.49107" lon="6.77345">
        <ele>310</ele>
        <time>2014-12-28T08:38:21Z</time>
      </trkpt>
      <trkpt lat="47.49103" lon="6.77346">
        <ele>310</ele>
        <time>2014-12-28T08:38:21Z</time>
      </trkpt>
      <trkpt lat="47.49099" lon="6.77346">
        <ele>310</ele>
        <time>2014-12-28T08:38:23Z</time>
      </trkpt>
      <trkpt lat="47.49095" lon="6.77346">
        <ele>310</ele>
        <time>2014-12-28T08:38:24Z</time>
      </trkpt>
      <trkpt lat="47.4909" lon="6.77346">
        <ele>310</ele>
        <time>2014-12-28T08:38:25Z</time>
      </trkpt>
      <trkpt lat="47.49087" lon="6.77346">
        <ele>310</ele>
        <time>2014-12-28T08:38:26Z</time>
      </trkpt>
      <trkpt lat="47.49082" lon="6.77346">
        <ele>310</ele>
        <time>2014-12-28T08:38:27Z</time>
      </trkpt>
      <trkpt lat="47.49077" lon="6.77346">
        <ele>310</ele>
        <time>2014-12-28T08:38:28Z</time>
      </trkpt>
      <trkpt lat="47.49073" lon="6.77346">
        <ele>310</ele>
        <time>2014-12-28T08:38:29Z</time>
      </trkpt>
      <trkpt lat="47.49068" lon="6.77345">
        <ele>310</ele>
        <time>2014-12-28T08:38:30Z</time>
      </trkpt>
      <trkpt lat="47.49062" lon="6.77346">
        <ele>310</ele>
        <time>2014-12-28T08:38:31Z</time>
      </trkpt>
      <trkpt lat="47.49057" lon="6.77344">
        <ele>310</ele>
        <time>2014-12-28T08:38:32Z</time>
      </trkpt>
      <trkpt lat="47.49053" lon="6.77343">
        <ele>310</ele>
        <time>2014-12-28T08:38:33Z</time>
      </trkpt>
      <trkpt lat="47.49048" lon="6.77343">
        <ele>310</ele>
        <time>2014-12-28T08:38:34Z</time>
      </trkpt>
      <trkpt lat="47.49043" lon="6.77343">
        <ele>310</ele>
        <time>2014-12-28T08:38:35Z</time>
      </trkpt>
      <trkpt lat="47.49033" lon="6.77342">
        <ele>310</ele>
        <time>2014-12-28T08:38:38Z</time>
      </trkpt>
      <trkpt lat="47.49027" lon="6.77342">
        <ele>310</ele>
        <time>2014-12-28T08:38:39Z</time>
      </trkpt>
      <trkpt lat="47.49023" lon="6.77343">
        <ele>310</ele>
        <time>2014-12-28T08:38:40Z</time>
      </trkpt>
      <trkpt lat="47.49017" lon="6.77343">
        <ele>310</ele>
        <time>2014-12-28T08:38:41Z</time>
      </trkpt>
      <trkpt lat="47.49013" lon="6.77343">
        <ele>310</ele>
        <time>2014-12-28T08:38:42Z</time>
      </trkpt>
      <trkpt lat="47.49009" lon="6.77342">
        <ele>310</ele>
        <time>2014-12-28T08:38:43Z</time>
      </trkpt>
      <trkpt lat="47.49004" lon="6.77342">
        <ele>310</ele>
        <time>2014-12-28T08:38:44Z</time>
      </trkpt>
      <trkpt lat="47.48999" lon="6.77342">
        <ele>310</ele>
        <time>2014-12-28T08:38:45Z</time>
      </trkpt>
      <trkpt lat="47.48994" lon="6.77342">
        <ele>310</ele>
        <time>2014-12-28T08:38:46Z</time>
      </trkpt>
      <trkpt lat="47.48989" lon="6.77341">
        <ele>310</ele>
        <time>2014-12-28T08:38:47Z</time>
      </trkpt>
      <trkpt lat="47.48985" lon="6.7734">
        <ele>310</ele>
        <time>2014-12-28T08:38:48Z</time>
      </trkpt>
      <trkpt lat="47.4898" lon="6.7734">
        <ele>310</ele>
        <time>2014-12-28T08:38:49Z</time>
      </trkpt>
      <trkpt lat="47.48975" lon="6.77339">
        <ele>310</ele>
        <time>2014-12-28T08:38:50Z</time>
      </trkpt>
      <trkpt lat="47.4897" lon="6.77338">
        <ele>310</ele>
        <time>2014-12-28T08:38:51Z</time>
      </trkpt>
      <trkpt lat="47.48966" lon="6.77337">
        <ele>310</ele>
        <time>2014-12-28T08:38:52Z</time>
      </trkpt>
      <trkpt lat="47.48962" lon="6.77334">
        <ele>310</ele>
        <time>2014-12-28T08:38:53Z</time>
      </trkpt>
      <trkpt lat="47.48957" lon="6.77332">
        <ele>310</ele>
        <time>2014-12-28T08:38:54Z</time>
      </trkpt>
      <trkpt lat="47.48953" lon="6.7733">
        <ele>310</ele>
        <time>2014-12-28T08:38:55Z</time>
      </trkpt>
      <trkpt lat="47.48949" lon="6.77328">
        <ele>310</ele>
        <time>2014-12-28T08:38:56Z</time>
      </trkpt>
      <trkpt lat="47.48945" lon="6.77325">
        <ele>310</ele>
        <time>2014-12-28T08:38:57Z</time>
      </trkpt>
      <trkpt lat="47.4894" lon="6.77323">
        <ele>310</ele>
        <time>2014-12-28T08:38:58Z</time>
      </trkpt>
      <trkpt lat="47.48936" lon="6.77321">
        <ele>310</ele>
        <time>2014-12-28T08:38:59Z</time>
      </trkpt>
      <trkpt lat="47.48931" lon="6.77319">
        <ele>310</ele>
        <time>2014-12-28T08:39:00Z</time>
      </trkpt>
      <trkpt lat="47.48927" lon="6.77317">
        <ele>310</ele>
        <time>2014-12-28T08:39:01Z</time>
      </trkpt>
      <trkpt lat="47.48923" lon="6.77315">
        <ele>310</ele>
        <time>2014-12-28T08:39:02Z</time>
      </trkpt>
      <trkpt lat="47.48918" lon="6.77314">
        <ele>310</ele>
        <time>2014-12-28T08:39:03Z</time>
      </trkpt>
      <trkpt lat="47.48914" lon="6.77312">
        <ele>310</ele>
        <time>2014-12-28T08:39:04Z</time>
      </trkpt>
      <trkpt lat="47.48909" lon="6.7731">
        <ele>310</ele>
        <time>2014-12-28T08:39:05Z</time>
      </trkpt>
      <trkpt lat="47.48905" lon="6.77309">
        <ele>310</ele>
        <time>2014-12-28T08:39:06Z</time>
      </trkpt>
      <trkpt lat="47.48901" lon="6.77308">
        <ele>310</ele>
        <time>2014-12-28T08:39:07Z</time>
      </trkpt>
      <trkpt lat="47.48896" lon="6.77306">
        <ele>310</ele>
        <time>2014-12-28T08:39:08Z</time>
      </trkpt>
      <trkpt lat="47.48892" lon="6.77305">
        <ele>310</ele>
        <time>2014-12-28T08:39:09Z</time>
      </trkpt>
      <trkpt lat="47.48888" lon="6.77303">
        <ele>310</ele>
        <time>2014-12-28T08:39:10Z</time>
      </trkpt>
      <trkpt lat="47.48883" lon="6.77302">
        <ele>309</ele>
        <time>2014-12-28T08:39:11Z</time>
      </trkpt>
      <trkpt lat="47.48878" lon="6.77299">
        <ele>309</ele>
        <time>2014-12-28T08:39:12Z</time>
      </trkpt>
      <trkpt lat="47.48874" lon="6.77297">
        <ele>309</ele>
        <time>2014-12-28T08:39:13Z</time>
      </trkpt>
      <trkpt lat="47.4887" lon="6.77295">
        <ele>309</ele>
        <time>2014-12-28T08:39:14Z</time>
      </trkpt>
      <trkpt lat="47.48866" lon="6.77293">
        <ele>309</ele>
        <time>2014-12-28T08:39:15Z</time>
      </trkpt>
      <trkpt lat="47.48862" lon="6.7729">
        <ele>309</ele>
        <time>2014-12-28T08:39:16Z</time>
      </trkpt>
      <trkpt lat="47.48858" lon="6.77288">
        <ele>309</ele>
        <time>2014-12-28T08:39:17Z</time>
      </trkpt>
      <trkpt lat="47.48854" lon="6.77286">
        <ele>309</ele>
        <time>2014-12-28T08:39:18Z</time>
      </trkpt>
      <trkpt lat="47.4885" lon="6.77283">
        <ele>310</ele>
        <time>2014-12-28T08:39:19Z</time>
      </trkpt>
      <trkpt lat="47.48847" lon="6.7728">
        <ele>310</ele>
        <time>2014-12-28T08:39:20Z</time>
      </trkpt>
      <trkpt lat="47.48843" lon="6.77276">
        <ele>310</ele>
        <time>2014-12-28T08:39:21Z</time>
      </trkpt>
      <trkpt lat="47.48839" lon="6.77273">
        <ele>310</ele>
        <time>2014-12-28T08:39:22Z</time>
      </trkpt>
      <trkpt lat="47.48836" lon="6.7727">
        <ele>310</ele>
        <time>2014-12-28T08:39:23Z</time>
      </trkpt>
      <trkpt lat="47.48832" lon="6.77267">
        <ele>310</ele>
        <time>2014-12-28T08:39:24Z</time>
      </trkpt>
      <trkpt lat="47.48828" lon="6.77264">
        <ele>310</ele>
        <time>2014-12-28T08:39:25Z</time>
      </trkpt>
      <trkpt lat="47.48824" lon="6.77261">
        <ele>310</ele>
        <time>2014-12-28T08:39:26Z</time>
      </trkpt>
      <trkpt lat="47.4882" lon="6.77259">
        <ele>310</ele>
        <time>2014-12-28T08:39:27Z</time>
      </trkpt>
      <trkpt lat="47.48816" lon="6.77256">
        <ele>310</ele>
        <time>2014-12-28T08:39:28Z</time>
      </trkpt>
      <trkpt lat="47.48812" lon="6.77253">
        <ele>310</ele>
        <time>2014-12-28T08:39:29Z</time>
      </trkpt>
      <trkpt lat="47.48808" lon="6.7725">
        <ele>310</ele>
        <time>2014-12-28T08:39:30Z</time>
      </trkpt>
      <trkpt lat="47.48804" lon="6.77247">
        <ele>310</ele>
        <time>2014-12-28T08:39:31Z</time>
      </trkpt>
      <trkpt lat="47.48797" lon="6.77245">
        <ele>310</ele>
        <time>2014-12-28T08:39:32Z</time>
      </trkpt>
      <trkpt lat="47.48793" lon="6.77242">
        <ele>310</ele>
        <time>2014-12-28T08:39:33Z</time>
      </trkpt>
      <trkpt lat="47.4879" lon="6.77239">
        <ele>310</ele>
        <time>2014-12-28T08:39:34Z</time>
      </trkpt>
      <trkpt lat="47.48786" lon="6.77236">
        <ele>310</ele>
        <time>2014-12-28T08:39:35Z</time>
      </trkpt>
      <trkpt lat="47.48783" lon="6.77234">
        <ele>310</ele>
        <time>2014-12-28T08:39:36Z</time>
      </trkpt>
      <trkpt lat="47.48752" lon="6.77212">
        <ele>309</ele>
        <time>2014-12-28T08:39:44Z</time>
      </trkpt>
      <trkpt lat="47.4875" lon="6.77208">
        <ele>310</ele>
        <time>2014-12-28T08:39:45Z</time>
      </trkpt>
      <trkpt lat="47.48745" lon="6.77205">
        <ele>310</ele>
        <time>2014-12-28T08:39:46Z</time>
      </trkpt>
      <trkpt lat="47.48741" lon="6.77201">
        <ele>310</ele>
        <time>2014-12-28T08:39:47Z</time>
      </trkpt>
      <trkpt lat="47.48738" lon="6.77199">
        <ele>310</ele>
        <time>2014-12-28T08:39:48Z</time>
      </trkpt>
      <trkpt lat="47.48733" lon="6.77195">
        <ele>310</ele>
        <time>2014-12-28T08:39:49Z</time>
      </trkpt>
      <trkpt lat="47.48728" lon="6.77193">
        <ele>310</ele>
        <time>2014-12-28T08:39:50Z</time>
      </trkpt>
      <trkpt lat="47.48725" lon="6.77188">
        <ele>310</ele>
        <time>2014-12-28T08:39:51Z</time>
      </trkpt>
      <trkpt lat="47.4872" lon="6.77185">
        <ele>310</ele>
        <time>2014-12-28T08:39:52Z</time>
      </trkpt>
      <trkpt lat="47.48716" lon="6.77177">
        <ele>310</ele>
        <time>2014-12-28T08:39:53Z</time>
      </trkpt>
      <trkpt lat="47.48711" lon="6.77174">
        <ele>310</ele>
        <time>2014-12-28T08:39:54Z</time>
      </trkpt>
      <trkpt lat="47.48707" lon="6.77169">
        <ele>310</ele>
        <time>2014-12-28T08:39:55Z</time>
      </trkpt>
      <trkpt lat="47.48699" lon="6.77167">
        <ele>310</ele>
        <time>2014-12-28T08:39:56Z</time>
      </trkpt>
      <trkpt lat="47.48696" lon="6.77164">
        <ele>311</ele>
        <time>2014-12-28T08:39:57Z</time>
      </trkpt>
      <trkpt lat="47.48693" lon="6.77159">
        <ele>311</ele>
        <time>2014-12-28T08:39:58Z</time>
      </trkpt>
      <trkpt lat="47.48689" lon="6.77156">
        <ele>311</ele>
        <time>2014-12-28T08:39:59Z</time>
      </trkpt>
      <trkpt lat="47.48685" lon="6.77152">
        <ele>311</ele>
        <time>2014-12-28T08:40:00Z</time>
      </trkpt>
      <trkpt lat="47.48682" lon="6.77148">
        <ele>311</ele>
        <time>2014-12-28T08:40:01Z</time>
      </trkpt>
      <trkpt lat="47.48679" lon="6.77143">
        <ele>311</ele>
        <time>2014-12-28T08:40:02Z</time>
      </trkpt>
      <trkpt lat="47.48675" lon="6.77139">
        <ele>311</ele>
        <time>2014-12-28T08:40:03Z</time>
      </trkpt>
      <trkpt lat="47.48671" lon="6.77135">
        <ele>311</ele>
        <time>2014-12-28T08:40:04Z</time>
      </trkpt>
      <trkpt lat="47.48668" lon="6.77131">
        <ele>311</ele>
        <time>2014-12-28T08:40:05Z</time>
      </trkpt>
      <trkpt lat="47.48663" lon="6.77126">
        <ele>311</ele>
        <time>2014-12-28T08:40:06Z</time>
      </trkpt>
      <trkpt lat="47.48657" lon="6.77122">
        <ele>312</ele>
        <time>2014-12-28T08:40:07Z</time>
      </trkpt>
      <trkpt lat="47.48653" lon="6.77118">
        <ele>312</ele>
        <time>2014-12-28T08:40:08Z</time>
      </trkpt>
      <trkpt lat="47.48651" lon="6.77113">
        <ele>312</ele>
        <time>2014-12-28T08:40:09Z</time>
      </trkpt>
      <trkpt lat="47.48647" lon="6.77109">
        <ele>312</ele>
        <time>2014-12-28T08:40:10Z</time>
      </trkpt>
      <trkpt lat="47.48644" lon="6.77106">
        <ele>312</ele>
        <time>2014-12-28T08:40:11Z</time>
      </trkpt>
      <trkpt lat="47.48643" lon="6.77103">
        <ele>312</ele>
        <time>2014-12-28T08:40:12Z</time>
      </trkpt>
      <trkpt lat="47.4864" lon="6.77101">
        <ele>312</ele>
        <time>2014-12-28T08:40:13Z</time>
      </trkpt>
      <trkpt lat="47.48638" lon="6.771">
        <ele>312</ele>
        <time>2014-12-28T08:40:14Z</time>
      </trkpt>
      <trkpt lat="47.48633" lon="6.77097">
        <ele>312</ele>
        <time>2014-12-28T08:40:15Z</time>
      </trkpt>
      <trkpt lat="47.48627" lon="6.77096">
        <ele>312</ele>
        <time>2014-12-28T08:40:16Z</time>
      </trkpt>
      <trkpt lat="47.48625" lon="6.77093">
        <ele>312</ele>
        <time>2014-12-28T08:40:17Z</time>
      </trkpt>
      <trkpt lat="47.48622" lon="6.77089">
        <ele>312</ele>
        <time>2014-12-28T08:40:18Z</time>
      </trkpt>
      <trkpt lat="47.48617" lon="6.77087">
        <ele>312</ele>
        <time>2014-12-28T08:40:19Z</time>
      </trkpt>
      <trkpt lat="47.48614" lon="6.77084">
        <ele>312</ele>
        <time>2014-12-28T08:40:20Z</time>
      </trkpt>
      <trkpt lat="47.48609" lon="6.77082">
        <ele>313</ele>
        <time>2014-12-28T08:40:21Z</time>
      </trkpt>
      <trkpt lat="47.48604" lon="6.7708">
        <ele>313</ele>
        <time>2014-12-28T08:40:22Z</time>
      </trkpt>
      <trkpt lat="47.486" lon="6.77077">
        <ele>313</ele>
        <time>2014-12-28T08:40:23Z</time>
      </trkpt>
      <trkpt lat="47.48596" lon="6.77074">
        <ele>313</ele>
        <time>2014-12-28T08:40:24Z</time>
      </trkpt>
      <trkpt lat="47.48593" lon="6.77073">
        <ele>313</ele>
        <time>2014-12-28T08:40:25Z</time>
      </trkpt>
      <trkpt lat="47.48589" lon="6.77071">
        <ele>313</ele>
        <time>2014-12-28T08:40:26Z</time>
      </trkpt>
      <trkpt lat="47.48585" lon="6.77069">
        <ele>313</ele>
        <time>2014-12-28T08:40:27Z</time>
      </trkpt>
      <trkpt lat="47.48582" lon="6.77066">
        <ele>313</ele>
        <time>2014-12-28T08:40:28Z</time>
      </trkpt>
      <trkpt lat="47.48578" lon="6.77065">
        <ele>313</ele>
        <time>2014-12-28T08:40:29Z</time>
      </trkpt>
      <trkpt lat="47.48574" lon="6.77063">
        <ele>313</ele>
        <time>2014-12-28T08:40:30Z</time>
      </trkpt>
      <trkpt lat="47.48568" lon="6.77059">
        <ele>313</ele>
        <time>2014-12-28T08:40:31Z</time>
      </trkpt>
      <trkpt lat="47.48563" lon="6.77056">
        <ele>313</ele>
        <time>2014-12-28T08:40:32Z</time>
      </trkpt>
      <trkpt lat="47.48558" lon="6.77053">
        <ele>313</ele>
        <time>2014-12-28T08:40:33Z</time>
      </trkpt>
      <trkpt lat="47.48552" lon="6.77049">
        <ele>313</ele>
        <time>2014-12-28T08:40:34Z</time>
      </trkpt>
      <trkpt lat="47.48548" lon="6.77045">
        <ele>314</ele>
        <time>2014-12-28T08:40:35Z</time>
      </trkpt>
      <trkpt lat="47.48537" lon="6.77036">
        <ele>314</ele>
        <time>2014-12-28T08:40:38Z</time>
      </trkpt>
      <trkpt lat="47.48533" lon="6.77032">
        <ele>314</ele>
        <time>2014-12-28T08:40:39Z</time>
      </trkpt>
      <trkpt lat="47.48529" lon="6.7703">
        <ele>314</ele>
        <time>2014-12-28T08:40:40Z</time>
      </trkpt>
      <trkpt lat="47.48523" lon="6.77027">
        <ele>314</ele>
        <time>2014-12-28T08:40:41Z</time>
      </trkpt>
      <trkpt lat="47.48519" lon="6.77023">
        <ele>314</ele>
        <time>2014-12-28T08:40:42Z</time>
      </trkpt>
      <trkpt lat="47.48514" lon="6.77021">
        <ele>315</ele>
        <time>2014-12-28T08:40:43Z</time>
      </trkpt>
      <trkpt lat="47.48508" lon="6.7702">
        <ele>315</ele>
        <time>2014-12-28T08:40:44Z</time>
      </trkpt>
      <trkpt lat="47.48504" lon="6.77017">
        <ele>315</ele>
        <time>2014-12-28T08:40:45Z</time>
      </trkpt>
      <trkpt lat="47.48499" lon="6.77013">
        <ele>315</ele>
        <time>2014-12-28T08:40:46Z</time>
      </trkpt>
      <trkpt lat="47.48493" lon="6.77011">
        <ele>315</ele>
        <time>2014-12-28T08:40:47Z</time>
      </trkpt>
      <trkpt lat="47.48489" lon="6.77008">
        <ele>315</ele>
        <time>2014-12-28T08:40:48Z</time>
      </trkpt>
      <trkpt lat="47.48484" lon="6.77006">
        <ele>315</ele>
        <time>2014-12-28T08:40:49Z</time>
      </trkpt>
      <trkpt lat="47.48478" lon="6.77003">
        <ele>315</ele>
        <time>2014-12-28T08:40:50Z</time>
      </trkpt>
      <trkpt lat="47.48474" lon="6.76999">
        <ele>315</ele>
        <time>2014-12-28T08:40:51Z</time>
      </trkpt>
      <trkpt lat="47.4847" lon="6.76997">
        <ele>315</ele>
        <time>2014-12-28T08:40:52Z</time>
      </trkpt>
      <trkpt lat="47.48466" lon="6.76994">
        <ele>315</ele>
        <time>2014-12-28T08:40:53Z</time>
      </trkpt>
      <trkpt lat="47.48461" lon="6.76991">
        <ele>314</ele>
        <time>2014-12-28T08:40:54Z</time>
      </trkpt>
      <trkpt lat="47.48457" lon="6.76988">
        <ele>314</ele>
        <time>2014-12-28T08:40:55Z</time>
      </trkpt>
      <trkpt lat="47.48454" lon="6.76985">
        <ele>314</ele>
        <time>2014-12-28T08:40:56Z</time>
      </trkpt>
      <trkpt lat="47.48449" lon="6.76983">
        <ele>314</ele>
        <time>2014-12-28T08:40:57Z</time>
      </trkpt>
      <trkpt lat="47.48443" lon="6.76981">
        <ele>313</ele>
        <time>2014-12-28T08:40:58Z</time>
      </trkpt>
      <trkpt lat="47.48439" lon="6.7698">
        <ele>313</ele>
        <time>2014-12-28T08:40:59Z</time>
      </trkpt>
      <trkpt lat="47.48434" lon="6.76977">
        <ele>313</ele>
        <time>2014-12-28T08:41:00Z</time>
      </trkpt>
      <trkpt lat="47.48429" lon="6.76975">
        <ele>313</ele>
        <time>2014-12-28T08:41:01Z</time>
      </trkpt>
      <trkpt lat="47.48425" lon="6.76972">
        <ele>313</ele>
        <time>2014-12-28T08:41:02Z</time>
      </trkpt>
      <trkpt lat="47.4842" lon="6.7697">
        <ele>313</ele>
        <time>2014-12-28T08:41:03Z</time>
      </trkpt>
      <trkpt lat="47.48415" lon="6.76966">
        <ele>312</ele>
        <time>2014-12-28T08:41:04Z</time>
      </trkpt>
      <trkpt lat="47.48411" lon="6.76964">
        <ele>312</ele>
        <time>2014-12-28T08:41:05Z</time>
      </trkpt>
      <trkpt lat="47.48406" lon="6.76961">
        <ele>312</ele>
        <time>2014-12-28T08:41:06Z</time>
      </trkpt>
      <trkpt lat="47.48403" lon="6.76957">
        <ele>312</ele>
        <time>2014-12-28T08:41:07Z</time>
      </trkpt>
      <trkpt lat="47.48398" lon="6.76955">
        <ele>312</ele>
        <time>2014-12-28T08:41:08Z</time>
      </trkpt>
      <trkpt lat="47.48392" lon="6.76952">
        <ele>312</ele>
        <time>2014-12-28T08:41:09Z</time>
      </trkpt>
      <trkpt lat="47.48388" lon="6.76949">
        <ele>312</ele>
        <time>2014-12-28T08:41:10Z</time>
      </trkpt>
      <trkpt lat="47.48383" lon="6.76946">
        <ele>312</ele>
        <time>2014-12-28T08:41:11Z</time>
      </trkpt>
      <trkpt lat="47.48379" lon="6.76943">
        <ele>311</ele>
        <time>2014-12-28T08:41:12Z</time>
      </trkpt>
      <trkpt lat="47.48374" lon="6.76939">
        <ele>311</ele>
        <time>2014-12-28T08:41:13Z</time>
      </trkpt>
      <trkpt lat="47.48369" lon="6.76937">
        <ele>311</ele>
        <time>2014-12-28T08:41:14Z</time>
      </trkpt>
      <trkpt lat="47.48365" lon="6.76933">
        <ele>311</ele>
        <time>2014-12-28T08:41:15Z</time>
      </trkpt>
      <trkpt lat="47.4836" lon="6.7693">
        <ele>310</ele>
        <time>2014-12-28T08:41:16Z</time>
      </trkpt>
      <trkpt lat="47.48355" lon="6.76927">
        <ele>310</ele>
        <time>2014-12-28T08:41:17Z</time>
      </trkpt>
      <trkpt lat="47.48351" lon="6.76924">
        <ele>309</ele>
        <time>2014-12-28T08:41:18Z</time>
      </trkpt>
      <trkpt lat="47.48347" lon="6.76921">
        <ele>309</ele>
        <time>2014-12-28T08:41:19Z</time>
      </trkpt>
      <trkpt lat="47.48343" lon="6.76918">
        <ele>309</ele>
        <time>2014-12-28T08:41:20Z</time>
      </trkpt>
      <trkpt lat="47.48339" lon="6.76914">
        <ele>309</ele>
        <time>2014-12-28T08:41:21Z</time>
      </trkpt>
      <trkpt lat="47.48334" lon="6.76911">
        <ele>309</ele>
        <time>2014-12-28T08:41:22Z</time>
      </trkpt>
      <trkpt lat="47.48331" lon="6.76907">
        <ele>309</ele>
        <time>2014-12-28T08:41:23Z</time>
      </trkpt>
      <trkpt lat="47.48327" lon="6.76903">
        <ele>309</ele>
        <time>2014-12-28T08:41:24Z</time>
      </trkpt>
      <trkpt lat="47.48323" lon="6.76899">
        <ele>309</ele>
        <time>2014-12-28T08:41:25Z</time>
      </trkpt>
      <trkpt lat="47.48319" lon="6.76895">
        <ele>309</ele>
        <time>2014-12-28T08:41:26Z</time>
      </trkpt>
      <trkpt lat="47.48315" lon="6.76892">
        <ele>309</ele>
        <time>2014-12-28T08:41:27Z</time>
      </trkpt>
      <trkpt lat="47.48311" lon="6.76887">
        <ele>309</ele>
        <time>2014-12-28T08:41:28Z</time>
      </trkpt>
      <trkpt lat="47.48306" lon="6.76883">
        <ele>309</ele>
        <time>2014-12-28T08:41:29Z</time>
      </trkpt>
      <trkpt lat="47.48303" lon="6.76881">
        <ele>310</ele>
        <time>2014-12-28T08:41:30Z</time>
      </trkpt>
      <trkpt lat="47.483" lon="6.76877">
        <ele>310</ele>
        <time>2014-12-28T08:41:31Z</time>
      </trkpt>
      <trkpt lat="47.48296" lon="6.76874">
        <ele>310</ele>
        <time>2014-12-28T08:41:31Z</time>
      </trkpt>
      <trkpt lat="47.48293" lon="6.76868">
        <ele>310</ele>
        <time>2014-12-28T08:41:33Z</time>
      </trkpt>
      <trkpt lat="47.4829" lon="6.76863">
        <ele>310</ele>
        <time>2014-12-28T08:41:34Z</time>
      </trkpt>
      <trkpt lat="47.48287" lon="6.76857">
        <ele>310</ele>
        <time>2014-12-28T08:41:35Z</time>
      </trkpt>
      <trkpt lat="47.48282" lon="6.76846">
        <ele>310</ele>
        <time>2014-12-28T08:41:38Z</time>
      </trkpt>
      <trkpt lat="47.48279" lon="6.76841">
        <ele>310</ele>
        <time>2014-12-28T08:41:39Z</time>
      </trkpt>
      <trkpt lat="47.48275" lon="6.76836">
        <ele>310</ele>
        <time>2014-12-28T08:41:40Z</time>
      </trkpt>
      <trkpt lat="47.48272" lon="6.76832">
        <ele>311</ele>
        <time>2014-12-28T08:41:41Z</time>
      </trkpt>
      <trkpt lat="47.48269" lon="6.76827">
        <ele>311</ele>
        <time>2014-12-28T08:41:42Z</time>
      </trkpt>
      <trkpt lat="47.48264" lon="6.76824">
        <ele>311</ele>
        <time>2014-12-28T08:41:43Z</time>
      </trkpt>
      <trkpt lat="47.48261" lon="6.76822">
        <ele>311</ele>
        <time>2014-12-28T08:41:44Z</time>
      </trkpt>
      <trkpt lat="47.48257" lon="6.76819">
        <ele>311</ele>
        <time>2014-12-28T08:41:45Z</time>
      </trkpt>
      <trkpt lat="47.48254" lon="6.76816">
        <ele>311</ele>
        <time>2014-12-28T08:41:46Z</time>
      </trkpt>
      <trkpt lat="47.48251" lon="6.76814">
        <ele>311</ele>
        <time>2014-12-28T08:41:47Z</time>
      </trkpt>
      <trkpt lat="47.48247" lon="6.76812">
        <ele>311</ele>
        <time>2014-12-28T08:41:48Z</time>
      </trkpt>
      <trkpt lat="47.48243" lon="6.7681">
        <ele>311</ele>
        <time>2014-12-28T08:41:48Z</time>
      </trkpt>
      <trkpt lat="47.48238" lon="6.76808">
        <ele>311</ele>
        <time>2014-12-28T08:41:50Z</time>
      </trkpt>
      <trkpt lat="47.48234" lon="6.76807">
        <ele>311</ele>
        <time>2014-12-28T08:41:50Z</time>
      </trkpt>
      <trkpt lat="47.48229" lon="6.76806">
        <ele>311</ele>
        <time>2014-12-28T08:41:52Z</time>
      </trkpt>
      <trkpt lat="47.48224" lon="6.76804">
        <ele>311</ele>
        <time>2014-12-28T08:41:53Z</time>
      </trkpt>
      <trkpt lat="47.48218" lon="6.76804">
        <ele>311</ele>
        <time>2014-12-28T08:41:54Z</time>
      </trkpt>
      <trkpt lat="47.48213" lon="6.76803">
        <ele>311</ele>
        <time>2014-12-28T08:41:55Z</time>
      </trkpt>
      <trkpt lat="47.48209" lon="6.768">
        <ele>311</ele>
        <time>2014-12-28T08:41:56Z</time>
      </trkpt>
      <trkpt lat="47.48206" lon="6.76795">
        <ele>312</ele>
        <time>2014-12-28T08:41:57Z</time>
      </trkpt>
      <trkpt lat="47.48201" lon="6.76792">
        <ele>312</ele>
        <time>2014-12-28T08:41:58Z</time>
      </trkpt>
      <trkpt lat="47.48197" lon="6.76788">
        <ele>312</ele>
        <time>2014-12-28T08:41:59Z</time>
      </trkpt>
      <trkpt lat="47.48193" lon="6.76783">
        <ele>312</ele>
        <time>2014-12-28T08:42:00Z</time>
      </trkpt>
      <trkpt lat="47.48189" lon="6.76779">
        <ele>312</ele>
        <time>2014-12-28T08:42:01Z</time>
      </trkpt>
      <trkpt lat="47.48186" lon="6.76773">
        <ele>312</ele>
        <time>2014-12-28T08:42:02Z</time>
      </trkpt>
      <trkpt lat="47.48181" lon="6.76768">
        <ele>312</ele>
        <time>2014-12-28T08:42:03Z</time>
      </trkpt>
      <trkpt lat="47.48178" lon="6.76763">
        <ele>312</ele>
        <time>2014-12-28T08:42:04Z</time>
      </trkpt>
      <trkpt lat="47.48174" lon="6.76756">
        <ele>312</ele>
        <time>2014-12-28T08:42:05Z</time>
      </trkpt>
      <trkpt lat="47.48169" lon="6.7675">
        <ele>312</ele>
        <time>2014-12-28T08:42:06Z</time>
      </trkpt>
      <trkpt lat="47.48166" lon="6.76744">
        <ele>312</ele>
        <time>2014-12-28T08:42:07Z</time>
      </trkpt>
      <trkpt lat="47.48162" lon="6.76738">
        <ele>312</ele>
        <time>2014-12-28T08:42:08Z</time>
      </trkpt>
      <trkpt lat="47.4816" lon="6.76732">
        <ele>312</ele>
        <time>2014-12-28T08:42:09Z</time>
      </trkpt>
      <trkpt lat="47.48157" lon="6.76726">
        <ele>312</ele>
        <time>2014-12-28T08:42:10Z</time>
      </trkpt>
      <trkpt lat="47.48155" lon="6.7672">
        <ele>312</ele>
        <time>2014-12-28T08:42:11Z</time>
      </trkpt>
      <trkpt lat="47.48152" lon="6.76715">
        <ele>312</ele>
        <time>2014-12-28T08:42:12Z</time>
      </trkpt>
      <trkpt lat="47.48148" lon="6.7671">
        <ele>312</ele>
        <time>2014-12-28T08:42:13Z</time>
      </trkpt>
      <trkpt lat="47.48145" lon="6.76705">
        <ele>312</ele>
        <time>2014-12-28T08:42:14Z</time>
      </trkpt>
      <trkpt lat="47.48143" lon="6.76701">
        <ele>312</ele>
        <time>2014-12-28T08:42:15Z</time>
      </trkpt>
      <trkpt lat="47.4814" lon="6.76697">
        <ele>312</ele>
        <time>2014-12-28T08:42:16Z</time>
      </trkpt>
      <trkpt lat="47.48138" lon="6.76692">
        <ele>312</ele>
        <time>2014-12-28T08:42:17Z</time>
      </trkpt>
      <trkpt lat="47.48136" lon="6.76687">
        <ele>311</ele>
        <time>2014-12-28T08:42:18Z</time>
      </trkpt>
      <trkpt lat="47.48134" lon="6.76681">
        <ele>311</ele>
        <time>2014-12-28T08:42:19Z</time>
      </trkpt>
      <trkpt lat="47.48131" lon="6.76677">
        <ele>311</ele>
        <time>2014-12-28T08:42:20Z</time>
      </trkpt>
      <trkpt lat="47.48129" lon="6.76673">
        <ele>311</ele>
        <time>2014-12-28T08:42:21Z</time>
      </trkpt>
      <trkpt lat="47.48126" lon="6.76669">
        <ele>311</ele>
        <time>2014-12-28T08:42:22Z</time>
      </trkpt>
      <trkpt lat="47.48123" lon="6.76665">
        <ele>312</ele>
        <time>2014-12-28T08:42:23Z</time>
      </trkpt>
      <trkpt lat="47.4812" lon="6.76661">
        <ele>312</ele>
        <time>2014-12-28T08:42:24Z</time>
      </trkpt>
      <trkpt lat="47.48118" lon="6.76656">
        <ele>312</ele>
        <time>2014-12-28T08:42:25Z</time>
      </trkpt>
      <trkpt lat="47.48116" lon="6.76652">
        <ele>312</ele>
        <time>2014-12-28T08:42:26Z</time>
      </trkpt>
      <trkpt lat="47.48114" lon="6.76647">
        <ele>312</ele>
        <time>2014-12-28T08:42:27Z</time>
      </trkpt>
      <trkpt lat="47.48112" lon="6.76643">
        <ele>312</ele>
        <time>2014-12-28T08:42:28Z</time>
      </trkpt>
      <trkpt lat="47.48109" lon="6.76638">
        <ele>312</ele>
        <time>2014-12-28T08:42:29Z</time>
      </trkpt>
      <trkpt lat="47.48108" lon="6.76632">
        <ele>312</ele>
        <time>2014-12-28T08:42:30Z</time>
      </trkpt>
      <trkpt lat="47.48106" lon="6.76626">
        <ele>312</ele>
        <time>2014-12-28T08:42:31Z</time>
      </trkpt>
      <trkpt lat="47.48106" lon="6.7662">
        <ele>312</ele>
        <time>2014-12-28T08:42:32Z</time>
      </trkpt>
      <trkpt lat="47.48107" lon="6.76613">
        <ele>312</ele>
        <time>2014-12-28T08:42:33Z</time>
      </trkpt>
      <trkpt lat="47.48108" lon="6.76607">
        <ele>312</ele>
        <time>2014-12-28T08:42:34Z</time>
      </trkpt>
      <trkpt lat="47.4811" lon="6.76602">
        <ele>312</ele>
        <time>2014-12-28T08:42:35Z</time>
      </trkpt>
      <trkpt lat="47.48112" lon="6.76597">
        <ele>312</ele>
        <time>2014-12-28T08:42:36Z</time>
      </trkpt>
      <trkpt lat="47.48117" lon="6.76584">
        <ele>313</ele>
        <time>2014-12-28T08:42:39Z</time>
      </trkpt>
      <trkpt lat="47.48119" lon="6.76581">
        <ele>316</ele>
        <time>2014-12-28T08:42:40Z</time>
      </trkpt>
      <trkpt lat="47.48121" lon="6.76578">
        <ele>317</ele>
        <time>2014-12-28T08:42:41Z</time>
      </trkpt>
      <trkpt lat="47.48124" lon="6.76575">
        <ele>317</ele>
        <time>2014-12-28T08:42:42Z</time>
      </trkpt>
      <trkpt lat="47.48126" lon="6.76571">
        <ele>318</ele>
        <time>2014-12-28T08:42:43Z</time>
      </trkpt>
      <trkpt lat="47.48127" lon="6.76567">
        <ele>318</ele>
        <time>2014-12-28T08:42:43Z</time>
      </trkpt>
      <trkpt lat="47.48128" lon="6.76561">
        <ele>319</ele>
        <time>2014-12-28T08:42:45Z</time>
      </trkpt>
      <trkpt lat="47.48128" lon="6.76556">
        <ele>319</ele>
        <time>2014-12-28T08:42:46Z</time>
      </trkpt>
      <trkpt lat="47.48128" lon="6.76551">
        <ele>319</ele>
        <time>2014-12-28T08:42:47Z</time>
      </trkpt>
      <trkpt lat="47.48127" lon="6.76547">
        <ele>320</ele>
        <time>2014-12-28T08:42:48Z</time>
      </trkpt>
      <trkpt lat="47.48126" lon="6.76542">
        <ele>320</ele>
        <time>2014-12-28T08:42:49Z</time>
      </trkpt>
      <trkpt lat="47.48125" lon="6.76537">
        <ele>320</ele>
        <time>2014-12-28T08:42:50Z</time>
      </trkpt>
      <trkpt lat="47.48123" lon="6.76533">
        <ele>320</ele>
        <time>2014-12-28T08:42:51Z</time>
      </trkpt>
      <trkpt lat="47.48122" lon="6.76527">
        <ele>319</ele>
        <time>2014-12-28T08:42:53Z</time>
      </trkpt>
      <trkpt lat="47.48119" lon="6.76526">
        <ele>319</ele>
        <time>2014-12-28T08:42:54Z</time>
      </trkpt>
      <trkpt lat="47.48117" lon="6.76527">
        <ele>318</ele>
        <time>2014-12-28T08:42:55Z</time>
      </trkpt>
      <trkpt lat="47.48114" lon="6.76528">
        <ele>317</ele>
        <time>2014-12-28T08:42:56Z</time>
      </trkpt>
      <trkpt lat="47.48111" lon="6.7653">
        <ele>317</ele>
        <time>2014-12-28T08:42:57Z</time>
      </trkpt>
      <trkpt lat="47.48108" lon="6.76533">
        <ele>316</ele>
        <time>2014-12-28T08:42:58Z</time>
      </trkpt>
      <trkpt lat="47.48105" lon="6.76536">
        <ele>315</ele>
        <time>2014-12-28T08:42:59Z</time>
      </trkpt>
      <trkpt lat="47.48101" lon="6.76539">
        <ele>315</ele>
        <time>2014-12-28T08:43:00Z</time>
      </trkpt>
      <trkpt lat="47.48098" lon="6.76542">
        <ele>314</ele>
        <time>2014-12-28T08:43:01Z</time>
      </trkpt>
      <trkpt lat="47.48095" lon="6.76545">
        <ele>314</ele>
        <time>2014-12-28T08:43:02Z</time>
      </trkpt>
      <trkpt lat="47.48091" lon="6.76547">
        <ele>313</ele>
        <time>2014-12-28T08:43:03Z</time>
      </trkpt>
      <trkpt lat="47.48088" lon="6.7655">
        <ele>313</ele>
        <time>2014-12-28T08:43:04Z</time>
      </trkpt>
      <trkpt lat="47.48085" lon="6.76553">
        <ele>313</ele>
        <time>2014-12-28T08:43:05Z</time>
      </trkpt>
      <trkpt lat="47.48081" lon="6.76556">
        <ele>312</ele>
        <time>2014-12-28T08:43:06Z</time>
      </trkpt>
      <trkpt lat="47.48078" lon="6.76559">
        <ele>312</ele>
        <time>2014-12-28T08:43:07Z</time>
      </trkpt>
      <trkpt lat="47.48075" lon="6.76562">
        <ele>312</ele>
        <time>2014-12-28T08:43:08Z</time>
      </trkpt>
      <trkpt lat="47.48071" lon="6.76564">
        <ele>312</ele>
        <time>2014-12-28T08:43:09Z</time>
      </trkpt>
      <trkpt lat="47.48068" lon="6.76567">
        <ele>312</ele>
        <time>2014-12-28T08:43:10Z</time>
      </trkpt>
      <trkpt lat="47.48065" lon="6.7657">
        <ele>312</ele>
        <time>2014-12-28T08:43:11Z</time>
      </trkpt>
      <trkpt lat="47.48061" lon="6.76573">
        <ele>312</ele>
        <time>2014-12-28T08:43:12Z</time>
      </trkpt>
      <trkpt lat="47.48058" lon="6.76575">
        <ele>312</ele>
        <time>2014-12-28T08:43:13Z</time>
      </trkpt>
      <trkpt lat="47.48055" lon="6.76579">
        <ele>312</ele>
        <time>2014-12-28T08:43:14Z</time>
      </trkpt>
      <trkpt lat="47.48052" lon="6.76582">
        <ele>312</ele>
        <time>2014-12-28T08:43:15Z</time>
      </trkpt>
      <trkpt lat="47.48049" lon="6.76585">
        <ele>311</ele>
        <time>2014-12-28T08:43:16Z</time>
      </trkpt>
      <trkpt lat="47.48046" lon="6.76589">
        <ele>311</ele>
        <time>2014-12-28T08:43:17Z</time>
      </trkpt>
      <trkpt lat="47.48043" lon="6.76592">
        <ele>311</ele>
        <time>2014-12-28T08:43:18Z</time>
      </trkpt>
      <trkpt lat="47.48039" lon="6.76594">
        <ele>311</ele>
        <time>2014-12-28T08:43:19Z</time>
      </trkpt>
      <trkpt lat="47.48036" lon="6.76596">
        <ele>311</ele>
        <time>2014-12-28T08:43:20Z</time>
      </trkpt>
      <trkpt lat="47.48032" lon="6.76597">
        <ele>311</ele>
        <time>2014-12-28T08:43:21Z</time>
      </trkpt>
      <trkpt lat="47.48029" lon="6.76599">
        <ele>311</ele>
        <time>2014-12-28T08:43:22Z</time>
      </trkpt>
      <trkpt lat="47.48026" lon="6.76601">
        <ele>311</ele>
        <time>2014-12-28T08:43:23Z</time>
      </trkpt>
      <trkpt lat="47.48023" lon="6.76603">
        <ele>311</ele>
        <time>2014-12-28T08:43:24Z</time>
      </trkpt>
      <trkpt lat="47.4802" lon="6.76604">
        <ele>311</ele>
        <time>2014-12-28T08:43:25Z</time>
      </trkpt>
      <trkpt lat="47.48016" lon="6.76606">
        <ele>311</ele>
        <time>2014-12-28T08:43:26Z</time>
      </trkpt>
      <trkpt lat="47.48013" lon="6.76608">
        <ele>311</ele>
        <time>2014-12-28T08:43:27Z</time>
      </trkpt>
      <trkpt lat="47.4801" lon="6.7661">
        <ele>311</ele>
        <time>2014-12-28T08:43:28Z</time>
      </trkpt>
      <trkpt lat="47.48006" lon="6.76612">
        <ele>311</ele>
        <time>2014-12-28T08:43:29Z</time>
      </trkpt>
      <trkpt lat="47.48003" lon="6.76614">
        <ele>311</ele>
        <time>2014-12-28T08:43:30Z</time>
      </trkpt>
      <trkpt lat="47.48" lon="6.76615">
        <ele>311</ele>
        <time>2014-12-28T08:43:31Z</time>
      </trkpt>
      <trkpt lat="47.47997" lon="6.76617">
        <ele>311</ele>
        <time>2014-12-28T08:43:32Z</time>
      </trkpt>
      <trkpt lat="47.47994" lon="6.76618">
        <ele>311</ele>
        <time>2014-12-28T08:43:33Z</time>
      </trkpt>
      <trkpt lat="47.47991" lon="6.7662">
        <ele>311</ele>
        <time>2014-12-28T08:43:34Z</time>
      </trkpt>
      <trkpt lat="47.47988" lon="6.76621">
        <ele>311</ele>
        <time>2014-12-28T08:43:35Z</time>
      </trkpt>
      <trkpt lat="47.47968" lon="6.7663">
        <ele>311</ele>
        <time>2014-12-28T08:43:42Z</time>
      </trkpt>
      <trkpt lat="47.47964" lon="6.76631">
        <ele>311</ele>
        <time>2014-12-28T08:43:46Z</time>
      </trkpt>
      <trkpt lat="47.47963" lon="6.76632">
        <ele>311</ele>
        <time>2014-12-28T08:43:47Z</time>
      </trkpt>
      <trkpt lat="47.47961" lon="6.76627">
        <ele>311</ele>
        <time>2014-12-28T08:43:49Z</time>
      </trkpt>
      <trkpt lat="47.4796" lon="6.76625">
        <ele>311</ele>
        <time>2014-12-28T08:43:50Z</time>
      </trkpt>
      <trkpt lat="47.47958" lon="6.76621">
        <ele>311</ele>
        <time>2014-12-28T08:43:52Z</time>
      </trkpt>
      <trkpt lat="47.47957" lon="6.76618">
        <ele>311</ele>
        <time>2014-12-28T08:43:53Z</time>
      </trkpt>
      <trkpt lat="47.47955" lon="6.76612">
        <ele>311</ele>
        <time>2014-12-28T08:43:55Z</time>
      </trkpt>
      <trkpt lat="47.47955" lon="6.76609">
        <ele>311</ele>
        <time>2014-12-28T08:43:56Z</time>
      </trkpt>
      <trkpt lat="47.47954" lon="6.76605">
        <ele>311</ele>
        <time>2014-12-28T08:43:57Z</time>
      </trkpt>
      <trkpt lat="47.47954" lon="6.76602">
        <ele>311</ele>
        <time>2014-12-28T08:43:58Z</time>
      </trkpt>
      <trkpt lat="47.47954" lon="6.76596">
        <ele>310</ele>
        <time>2014-12-28T08:44:00Z</time>
      </trkpt>
      <trkpt lat="47.47953" lon="6.76593">
        <ele>310</ele>
        <time>2014-12-28T08:44:01Z</time>
      </trkpt>
      <trkpt lat="47.47953" lon="6.76589">
        <ele>310</ele>
        <time>2014-12-28T08:44:03Z</time>
      </trkpt>
      <trkpt lat="47.47953" lon="6.76586">
        <ele>310</ele>
        <time>2014-12-28T08:44:03Z</time>
      </trkpt>
      <trkpt lat="47.47951" lon="6.76582">
        <ele>310</ele>
        <time>2014-12-28T08:44:06Z</time>
      </trkpt>
      <trkpt lat="47.4795" lon="6.76579">
        <ele>310</ele>
        <time>2014-12-28T08:44:07Z</time>
      </trkpt>
      <trkpt lat="47.47949" lon="6.76577">
        <ele>310</ele>
        <time>2014-12-28T08:44:08Z</time>
      </trkpt>
      <trkpt lat="47.47949" lon="6.76573">
        <ele>310</ele>
        <time>2014-12-28T08:44:09Z</time>
      </trkpt>
      <trkpt lat="47.47948" lon="6.7657">
        <ele>310</ele>
        <time>2014-12-28T08:44:10Z</time>
      </trkpt>
      <trkpt lat="47.47947" lon="6.76566">
        <ele>310</ele>
        <time>2014-12-28T08:44:11Z</time>
      </trkpt>
      <trkpt lat="47.47946" lon="6.76561">
        <ele>310</ele>
        <time>2014-12-28T08:44:13Z</time>
      </trkpt>
      <trkpt lat="47.47946" lon="6.76559">
        <ele>310</ele>
        <time>2014-12-28T08:44:14Z</time>
      </trkpt>
      <trkpt lat="47.47946" lon="6.76553">
        <ele>310</ele>
        <time>2014-12-28T08:44:18Z</time>
      </trkpt>
      <trkpt lat="47.47946" lon="6.76551">
        <ele>310</ele>
        <time>2014-12-28T08:44:19Z</time>
      </trkpt>
      <trkpt lat="47.47946" lon="6.76546">
        <ele>310</ele>
        <time>2014-12-28T08:44:22Z</time>
      </trkpt>
      <trkpt lat="47.47946" lon="6.76544">
        <ele>310</ele>
        <time>2014-12-28T08:44:23Z</time>
      </trkpt>
      <trkpt lat="47.47941" lon="6.76543">
        <ele>310</ele>
        <time>2014-12-28T08:44:33Z</time>
      </trkpt>
      <trkpt lat="47.47941" lon="6.76543">
        <ele>310</ele>
        <time>2014-12-28T08:44:34Z</time>
      </trkpt>
      <trkpt lat="47.4794" lon="6.76537">
        <ele>310</ele>
        <time>2014-12-28T08:45:18Z</time>
      </trkpt>
      <trkpt lat="47.47939" lon="6.76536">
        <ele>310</ele>
        <time>2014-12-28T08:45:19Z</time>
      </trkpt>
      <trkpt lat="47.47939" lon="6.7653">
        <ele>310</ele>
        <time>2014-12-28T08:45:54Z</time>
      </trkpt>
      <trkpt lat="47.47938" lon="6.76528">
        <ele>310</ele>
        <time>2014-12-28T08:45:55Z</time>
      </trkpt>
      <trkpt lat="47.47936" lon="6.76522">
        <ele>310</ele>
        <time>2014-12-28T08:45:57Z</time>
      </trkpt>
      <trkpt lat="47.47936" lon="6.7652">
        <ele>310</ele>
        <time>2014-12-28T08:45:58Z</time>
      </trkpt>
      <trkpt lat="47.47936" lon="6.76514">
        <ele>310</ele>
        <time>2014-12-28T08:46:22Z</time>
      </trkpt>
      <trkpt lat="47.47935" lon="6.76513">
        <ele>310</ele>
        <time>2014-12-28T08:46:23Z</time>
      </trkpt>
      <trkpt lat="47.47933" lon="6.76507">
        <ele>310</ele>
        <time>2014-12-28T08:46:26Z</time>
      </trkpt>
      <trkpt lat="47.47933" lon="6.76506">
        <ele>310</ele>
        <time>2014-12-28T08:46:27Z</time>
      </trkpt>
      <trkpt lat="47.47931" lon="6.76501">
        <ele>310</ele>
        <time>2014-12-28T08:47:56Z</time>
      </trkpt>
      <trkpt lat="47.47931" lon="6.76499">
        <ele>310</ele>
        <time>2014-12-28T08:47:57Z</time>
      </trkpt>
      <trkpt lat="47.4793" lon="6.76493">
        <ele>310</ele>
        <time>2014-12-28T08:48:00Z</time>
      </trkpt>
      <trkpt lat="47.4793" lon="6.76491">
        <ele>310</ele>
        <time>2014-12-28T08:48:01Z</time>
      </trkpt>
      <trkpt lat="47.4793" lon="6.76486">
        <ele>310</ele>
        <time>2014-12-28T08:48:03Z</time>
      </trkpt>
      <trkpt lat="47.4793" lon="6.76484">
        <ele>310</ele>
        <time>2014-12-28T08:48:04Z</time>
      </trkpt>
      <trkpt lat="47.47929" lon="6.76479">
        <ele>310</ele>
        <time>2014-12-28T08:48:38Z</time>
      </trkpt>
      <trkpt lat="47.47928" lon="6.76478">
        <ele>310</ele>
        <time>2014-12-28T08:48:39Z</time>
      </trkpt>
      <trkpt lat="47.47927" lon="6.76473">
        <ele>310</ele>
        <time>2014-12-28T08:49:17Z</time>
      </trkpt>
      <trkpt lat="47.47927" lon="6.76471">
        <ele>310</ele>
        <time>2014-12-28T08:49:18Z</time>
      </trkpt>
      <trkpt lat="47.47926" lon="6.76465">
        <ele>310</ele>
        <time>2014-12-28T08:49:23Z</time>
      </trkpt>
      <trkpt lat="47.47926" lon="6.76464">
        <ele>310</ele>
        <time>2014-12-28T08:49:24Z</time>
      </trkpt>
      <trkpt lat="47.47927" lon="6.76469">
        <ele>310</ele>
        <time>2014-12-28T08:49:30Z</time>
      </trkpt>
      <trkpt lat="47.47927" lon="6.7647">
        <ele>310</ele>
        <time>2014-12-28T08:49:31Z</time>
      </trkpt>
      <trkpt lat="47.47929" lon="6.76475">
        <ele>310</ele>
        <time>2014-12-28T08:49:35Z</time>
      </trkpt>
      <trkpt lat="47.47929" lon="6.76476">
        <ele>310</ele>
        <time>2014-12-28T08:49:42Z</time>
      </trkpt>
      <trkpt lat="47.47925" lon="6.76475">
        <ele>310</ele>
        <time>2014-12-28T08:52:55Z</time>
      </trkpt>
      <trkpt lat="47.47924" lon="6.76472">
        <ele>310</ele>
        <time>2014-12-28T08:52:56Z</time>
      </trkpt>
      <trkpt lat="47.47924" lon="6.76468">
        <ele>310</ele>
        <time>2014-12-28T08:52:57Z</time>
      </trkpt>
      <trkpt lat="47.47923" lon="6.76465">
        <ele>310</ele>
        <time>2014-12-28T08:52:58Z</time>
      </trkpt>
      <trkpt lat="47.47921" lon="6.7646">
        <ele>310</ele>
        <time>2014-12-28T08:53:00Z</time>
      </trkpt>
      <trkpt lat="47.4792" lon="6.76458">
        <ele>311</ele>
        <time>2014-12-28T08:53:01Z</time>
      </trkpt>
      <trkpt lat="47.47921" lon="6.76462">
        <ele>310</ele>
        <time>2014-12-28T08:53:35Z</time>
      </trkpt>
      <trkpt lat="47.47923" lon="6.76473">
        <ele>310</ele>
        <time>2014-12-28T08:53:42Z</time>
      </trkpt>
      <trkpt lat="47.47924" lon="6.76477">
        <ele>310</ele>
        <time>2014-12-28T08:53:45Z</time>
      </trkpt>
      <trkpt lat="47.47924" lon="6.7648">
        <ele>310</ele>
        <time>2014-12-28T08:53:46Z</time>
      </trkpt>
      <trkpt lat="47.47926" lon="6.76486">
        <ele>310</ele>
        <time>2014-12-28T08:53:49Z</time>
      </trkpt>
      <trkpt lat="47.47926" lon="6.76487">
        <ele>310</ele>
        <time>2014-12-28T08:53:50Z</time>
      </trkpt>
      <trkpt lat="47.47926" lon="6.76493">
        <ele>310</ele>
        <time>2014-12-28T08:53:56Z</time>
      </trkpt>
      <trkpt lat="47.47927" lon="6.76495">
        <ele>310</ele>
        <time>2014-12-28T08:53:57Z</time>
      </trkpt>
      <trkpt lat="47.47927" lon="6.76499">
        <ele>310</ele>
        <time>2014-12-28T08:54:01Z</time>
      </trkpt>
      <trkpt lat="47.47928" lon="6.76501">
        <ele>310</ele>
        <time>2014-12-28T08:54:02Z</time>
      </trkpt>
      <trkpt lat="47.47929" lon="6.76506">
        <ele>310</ele>
        <time>2014-12-28T08:54:07Z</time>
      </trkpt>
      <trkpt lat="47.47929" lon="6.76508">
        <ele>310</ele>
        <time>2014-12-28T08:54:09Z</time>
      </trkpt>
      <trkpt lat="47.47931" lon="6.76513">
        <ele>310</ele>
        <time>2014-12-28T08:54:12Z</time>
      </trkpt>
      <trkpt lat="47.47931" lon="6.76515">
        <ele>310</ele>
        <time>2014-12-28T08:54:12Z</time>
      </trkpt>
      <trkpt lat="47.47933" lon="6.7652">
        <ele>310</ele>
        <time>2014-12-28T08:54:17Z</time>
      </trkpt>
      <trkpt lat="47.47933" lon="6.76522">
        <ele>310</ele>
        <time>2014-12-28T08:54:18Z</time>
      </trkpt>
      <trkpt lat="47.47934" lon="6.76528">
        <ele>310</ele>
        <time>2014-12-28T08:54:21Z</time>
      </trkpt>
      <trkpt lat="47.47935" lon="6.76529">
        <ele>310</ele>
        <time>2014-12-28T08:54:22Z</time>
      </trkpt>
      <trkpt lat="47.47936" lon="6.76535">
        <ele>310</ele>
        <time>2014-12-28T08:54:25Z</time>
      </trkpt>
      <trkpt lat="47.47936" lon="6.76537">
        <ele>310</ele>
        <time>2014-12-28T08:54:26Z</time>
      </trkpt>
      <trkpt lat="47.47938" lon="6.76542">
        <ele>310</ele>
        <time>2014-12-28T08:54:30Z</time>
      </trkpt>
      <trkpt lat="47.47938" lon="6.76544">
        <ele>310</ele>
        <time>2014-12-28T08:54:31Z</time>
      </trkpt>
      <trkpt lat="47.4794" lon="6.76549">
        <ele>310</ele>
        <time>2014-12-28T08:54:34Z</time>
      </trkpt>
      <trkpt lat="47.4794" lon="6.76551">
        <ele>310</ele>
        <time>2014-12-28T08:54:35Z</time>
      </trkpt>
      <trkpt lat="47.47942" lon="6.76565">
        <ele>310</ele>
        <time>2014-12-28T08:54:42Z</time>
      </trkpt>
      <trkpt lat="47.47943" lon="6.76571">
        <ele>310</ele>
        <time>2014-12-28T08:54:46Z</time>
      </trkpt>
      <trkpt lat="47.47943" lon="6.76572">
        <ele>310</ele>
        <time>2014-12-28T08:54:47Z</time>
      </trkpt>
      <trkpt lat="47.47945" lon="6.76577">
        <ele>310</ele>
        <time>2014-12-28T08:54:50Z</time>
      </trkpt>
      <trkpt lat="47.47945" lon="6.76579">
        <ele>310</ele>
        <time>2014-12-28T08:54:51Z</time>
      </trkpt>
      <trkpt lat="47.47946" lon="6.76585">
        <ele>310</ele>
        <time>2014-12-28T08:54:54Z</time>
      </trkpt>
      <trkpt lat="47.47946" lon="6.76586">
        <ele>310</ele>
        <time>2014-12-28T08:54:55Z</time>
      </trkpt>
      <trkpt lat="47.47948" lon="6.76592">
        <ele>310</ele>
        <time>2014-12-28T08:54:58Z</time>
      </trkpt>
      <trkpt lat="47.47948" lon="6.76594">
        <ele>310</ele>
        <time>2014-12-28T08:54:59Z</time>
      </trkpt>
      <trkpt lat="47.47949" lon="6.766">
        <ele>310</ele>
        <time>2014-12-28T08:55:02Z</time>
      </trkpt>
      <trkpt lat="47.4795" lon="6.76602">
        <ele>310</ele>
        <time>2014-12-28T08:55:03Z</time>
      </trkpt>
      <trkpt lat="47.4795" lon="6.76608">
        <ele>310</ele>
        <time>2014-12-28T08:55:05Z</time>
      </trkpt>
      <trkpt lat="47.47949" lon="6.76611">
        <ele>310</ele>
        <time>2014-12-28T08:55:07Z</time>
      </trkpt>
      <trkpt lat="47.4795" lon="6.76617">
        <ele>310</ele>
        <time>2014-12-28T08:55:10Z</time>
      </trkpt>
      <trkpt lat="47.47951" lon="6.76619">
        <ele>311</ele>
        <time>2014-12-28T08:55:11Z</time>
      </trkpt>
      <trkpt lat="47.47954" lon="6.76622">
        <ele>311</ele>
        <time>2014-12-28T08:55:17Z</time>
      </trkpt>
      <trkpt lat="47.47954" lon="6.76624">
        <ele>311</ele>
        <time>2014-12-28T08:55:18Z</time>
      </trkpt>
      <trkpt lat="47.47955" lon="6.76629">
        <ele>311</ele>
        <time>2014-12-28T08:55:27Z</time>
      </trkpt>
      <trkpt lat="47.47956" lon="6.76631">
        <ele>311</ele>
        <time>2014-12-28T08:55:28Z</time>
      </trkpt>
      <trkpt lat="47.4796" lon="6.76633">
        <ele>311</ele>
        <time>2014-12-28T08:55:30Z</time>
      </trkpt>
      <trkpt lat="47.47962" lon="6.76634">
        <ele>311</ele>
        <time>2014-12-28T08:55:30Z</time>
      </trkpt>
      <trkpt lat="47.47965" lon="6.76633">
        <ele>311</ele>
        <time>2014-12-28T08:55:33Z</time>
      </trkpt>
      <trkpt lat="47.47966" lon="6.76633">
        <ele>311</ele>
        <time>2014-12-28T08:55:34Z</time>
      </trkpt>
      <trkpt lat="47.4797" lon="6.76629">
        <ele>311</ele>
        <time>2014-12-28T08:55:46Z</time>
      </trkpt>
      <trkpt lat="47.47971" lon="6.76629">
        <ele>311</ele>
        <time>2014-12-28T08:55:47Z</time>
      </trkpt>
      <trkpt lat="47.47974" lon="6.76627">
        <ele>311</ele>
        <time>2014-12-28T08:55:50Z</time>
      </trkpt>
      <trkpt lat="47.47975" lon="6.76626">
        <ele>311</ele>
        <time>2014-12-28T08:55:51Z</time>
      </trkpt>
      <trkpt lat="47.47978" lon="6.76623">
        <ele>311</ele>
        <time>2014-12-28T08:55:53Z</time>
      </trkpt>
      <trkpt lat="47.4798" lon="6.76622">
        <ele>311</ele>
        <time>2014-12-28T08:55:54Z</time>
      </trkpt>
      <trkpt lat="47.47983" lon="6.7662">
        <ele>311</ele>
        <time>2014-12-28T08:55:56Z</time>
      </trkpt>
      <trkpt lat="47.47984" lon="6.7662">
        <ele>311</ele>
        <time>2014-12-28T08:55:57Z</time>
      </trkpt>
      <trkpt lat="47.47988" lon="6.76618">
        <ele>311</ele>
        <time>2014-12-28T08:55:59Z</time>
      </trkpt>
      <trkpt lat="47.4799" lon="6.76617">
        <ele>311</ele>
        <time>2014-12-28T08:56:00Z</time>
      </trkpt>
      <trkpt lat="47.47993" lon="6.76615">
        <ele>311</ele>
        <time>2014-12-28T08:56:01Z</time>
      </trkpt>
      <trkpt lat="47.47995" lon="6.76613">
        <ele>311</ele>
        <time>2014-12-28T08:56:02Z</time>
      </trkpt>
      <trkpt lat="47.47998" lon="6.76612">
        <ele>311</ele>
        <time>2014-12-28T08:56:03Z</time>
      </trkpt>
      <trkpt lat="47.48" lon="6.7661">
        <ele>311</ele>
        <time>2014-12-28T08:56:04Z</time>
      </trkpt>
      <trkpt lat="47.48002" lon="6.76608">
        <ele>311</ele>
        <time>2014-12-28T08:56:05Z</time>
      </trkpt>
      <trkpt lat="47.48004" lon="6.76607">
        <ele>311</ele>
        <time>2014-12-28T08:56:06Z</time>
      </trkpt>
      <trkpt lat="47.48006" lon="6.76606">
        <ele>311</ele>
        <time>2014-12-28T08:56:07Z</time>
      </trkpt>
      <trkpt lat="47.48008" lon="6.76604">
        <ele>311</ele>
        <time>2014-12-28T08:56:08Z</time>
      </trkpt>
      <trkpt lat="47.48011" lon="6.76603">
        <ele>311</ele>
        <time>2014-12-28T08:56:09Z</time>
      </trkpt>
      <trkpt lat="47.48013" lon="6.76601">
        <ele>311</ele>
        <time>2014-12-28T08:56:10Z</time>
      </trkpt>
      <trkpt lat="47.48015" lon="6.766">
        <ele>311</ele>
        <time>2014-12-28T08:56:11Z</time>
      </trkpt>
      <trkpt lat="47.48017" lon="6.76598">
        <ele>311</ele>
        <time>2014-12-28T08:56:12Z</time>
      </trkpt>
      <trkpt lat="47.4802" lon="6.76596">
        <ele>311</ele>
        <time>2014-12-28T08:56:13Z</time>
      </trkpt>
      <trkpt lat="47.48022" lon="6.76595">
        <ele>311</ele>
        <time>2014-12-28T08:56:14Z</time>
      </trkpt>
      <trkpt lat="47.48024" lon="6.76593">
        <ele>311</ele>
        <time>2014-12-28T08:56:15Z</time>
      </trkpt>
      <trkpt lat="47.48026" lon="6.76591">
        <ele>311</ele>
        <time>2014-12-28T08:56:16Z</time>
      </trkpt>
      <trkpt lat="47.48028" lon="6.76589">
        <ele>311</ele>
        <time>2014-12-28T08:56:17Z</time>
      </trkpt>
      <trkpt lat="47.4803" lon="6.76588">
        <ele>311</ele>
        <time>2014-12-28T08:56:18Z</time>
      </trkpt>
      <trkpt lat="47.48032" lon="6.76586">
        <ele>311</ele>
        <time>2014-12-28T08:56:19Z</time>
      </trkpt>
      <trkpt lat="47.48034" lon="6.76584">
        <ele>311</ele>
        <time>2014-12-28T08:56:20Z</time>
      </trkpt>
      <trkpt lat="47.48036" lon="6.76582">
        <ele>312</ele>
        <time>2014-12-28T08:56:21Z</time>
      </trkpt>
      <trkpt lat="47.48038" lon="6.7658">
        <ele>312</ele>
        <time>2014-12-28T08:56:22Z</time>
      </trkpt>
      <trkpt lat="47.48041" lon="6.76578">
        <ele>312</ele>
        <time>2014-12-28T08:56:23Z</time>
      </trkpt>
      <trkpt lat="47.48043" lon="6.76577">
        <ele>312</ele>
        <time>2014-12-28T08:56:24Z</time>
      </trkpt>
      <trkpt lat="47.48046" lon="6.76574">
        <ele>312</ele>
        <time>2014-12-28T08:56:26Z</time>
      </trkpt>
      <trkpt lat="47.48048" lon="6.76573">
        <ele>312</ele>
        <time>2014-12-28T08:56:27Z</time>
      </trkpt>
      <trkpt lat="47.4805" lon="6.7657">
        <ele>312</ele>
        <time>2014-12-28T08:56:29Z</time>
      </trkpt>
      <trkpt lat="47.48052" lon="6.76568">
        <ele>312</ele>
        <time>2014-12-28T08:56:30Z</time>
      </trkpt>
      <trkpt lat="47.48055" lon="6.76565">
        <ele>312</ele>
        <time>2014-12-28T08:56:32Z</time>
      </trkpt>
      <trkpt lat="47.48057" lon="6.76564">
        <ele>312</ele>
        <time>2014-12-28T08:56:33Z</time>
      </trkpt>
      <trkpt lat="47.4806" lon="6.76561">
        <ele>312</ele>
        <time>2014-12-28T08:56:35Z</time>
      </trkpt>
      <trkpt lat="47.48075" lon="6.76547">
        <ele>312</ele>
        <time>2014-12-28T08:56:42Z</time>
      </trkpt>
      <trkpt lat="47.48077" lon="6.76545">
        <ele>312</ele>
        <time>2014-12-28T08:56:44Z</time>
      </trkpt>
      <trkpt lat="47.48079" lon="6.76543">
        <ele>312</ele>
        <time>2014-12-28T08:56:45Z</time>
      </trkpt>
      <trkpt lat="47.48081" lon="6.76541">
        <ele>312</ele>
        <time>2014-12-28T08:56:46Z</time>
      </trkpt>
      <trkpt lat="47.48083" lon="6.76539">
        <ele>312</ele>
        <time>2014-12-28T08:56:47Z</time>
      </trkpt>
      <trkpt lat="47.48085" lon="6.76537">
        <ele>313</ele>
        <time>2014-12-28T08:56:48Z</time>
      </trkpt>
      <trkpt lat="47.48087" lon="6.76535">
        <ele>314</ele>
        <time>2014-12-28T08:56:49Z</time>
      </trkpt>
      <trkpt lat="47.48091" lon="6.76532">
        <ele>314</ele>
        <time>2014-12-28T08:56:51Z</time>
      </trkpt>
      <trkpt lat="47.48092" lon="6.76531">
        <ele>314</ele>
        <time>2014-12-28T08:56:52Z</time>
      </trkpt>
      <trkpt lat="47.48096" lon="6.76528">
        <ele>314</ele>
        <time>2014-12-28T08:56:54Z</time>
      </trkpt>
      <trkpt lat="47.48098" lon="6.76526">
        <ele>314</ele>
        <time>2014-12-28T08:56:55Z</time>
      </trkpt>
      <trkpt lat="47.48101" lon="6.76524">
        <ele>315</ele>
        <time>2014-12-28T08:56:57Z</time>
      </trkpt>
      <trkpt lat="47.48103" lon="6.76523">
        <ele>315</ele>
        <time>2014-12-28T08:56:58Z</time>
      </trkpt>
      <trkpt lat="47.48106" lon="6.76523">
        <ele>316</ele>
        <time>2014-12-28T08:57:00Z</time>
      </trkpt>
      <trkpt lat="47.48108" lon="6.76524">
        <ele>316</ele>
        <time>2014-12-28T08:57:01Z</time>
      </trkpt>
      <trkpt lat="47.4811" lon="6.76529">
        <ele>316</ele>
        <time>2014-12-28T08:57:03Z</time>
      </trkpt>
      <trkpt lat="47.48112" lon="6.76531">
        <ele>317</ele>
        <time>2014-12-28T08:57:04Z</time>
      </trkpt>
      <trkpt lat="47.48113" lon="6.76534">
        <ele>317</ele>
        <time>2014-12-28T08:57:05Z</time>
      </trkpt>
      <trkpt lat="47.48115" lon="6.76537">
        <ele>317</ele>
        <time>2014-12-28T08:57:06Z</time>
      </trkpt>
      <trkpt lat="47.48117" lon="6.7654">
        <ele>318</ele>
        <time>2014-12-28T08:57:07Z</time>
      </trkpt>
      <trkpt lat="47.48119" lon="6.76543">
        <ele>318</ele>
        <time>2014-12-28T08:57:08Z</time>
      </trkpt>
      <trkpt lat="47.4812" lon="6.76546">
        <ele>318</ele>
        <time>2014-12-28T08:57:09Z</time>
      </trkpt>
      <trkpt lat="47.48122" lon="6.76549">
        <ele>318</ele>
        <time>2014-12-28T08:57:10Z</time>
      </trkpt>
      <trkpt lat="47.48123" lon="6.76552">
        <ele>318</ele>
        <time>2014-12-28T08:57:11Z</time>
      </trkpt>
      <trkpt lat="47.48123" lon="6.76556">
        <ele>318</ele>
        <time>2014-12-28T08:57:12Z</time>
      </trkpt>
      <trkpt lat="47.48123" lon="6.7656">
        <ele>318</ele>
        <time>2014-12-28T08:57:13Z</time>
      </trkpt>
      <trkpt lat="47.48122" lon="6.76563">
        <ele>317</ele>
        <time>2014-12-28T08:57:14Z</time>
      </trkpt>
      <trkpt lat="47.4812" lon="6.76567">
        <ele>317</ele>
        <time>2014-12-28T08:57:15Z</time>
      </trkpt>
      <trkpt lat="47.48117" lon="6.76571">
        <ele>316</ele>
        <time>2014-12-28T08:57:16Z</time>
      </trkpt>
      <trkpt lat="47.48114" lon="6.76575">
        <ele>315</ele>
        <time>2014-12-28T08:57:17Z</time>
      </trkpt>
      <trkpt lat="47.48111" lon="6.76579">
        <ele>315</ele>
        <time>2014-12-28T08:57:18Z</time>
      </trkpt>
      <trkpt lat="47.48108" lon="6.76583">
        <ele>314</ele>
        <time>2014-12-28T08:57:19Z</time>
      </trkpt>
      <trkpt lat="47.48105" lon="6.76586">
        <ele>312</ele>
        <time>2014-12-28T08:57:20Z</time>
      </trkpt>
      <trkpt lat="47.48102" lon="6.76591">
        <ele>312</ele>
        <time>2014-12-28T08:57:21Z</time>
      </trkpt>
      <trkpt lat="47.481" lon="6.76595">
        <ele>312</ele>
        <time>2014-12-28T08:57:22Z</time>
      </trkpt>
      <trkpt lat="47.48097" lon="6.76601">
        <ele>312</ele>
        <time>2014-12-28T08:57:23Z</time>
      </trkpt>
      <trkpt lat="47.48096" lon="6.76607">
        <ele>312</ele>
        <time>2014-12-28T08:57:24Z</time>
      </trkpt>
      <trkpt lat="47.48095" lon="6.76613">
        <ele>312</ele>
        <time>2014-12-28T08:57:25Z</time>
      </trkpt>
      <trkpt lat="47.48094" lon="6.7662">
        <ele>312</ele>
        <time>2014-12-28T08:57:26Z</time>
      </trkpt>
      <trkpt lat="47.48094" lon="6.76626">
        <ele>311</ele>
        <time>2014-12-28T08:57:27Z</time>
      </trkpt>
      <trkpt lat="47.48095" lon="6.76632">
        <ele>311</ele>
        <time>2014-12-28T08:57:28Z</time>
      </trkpt>
      <trkpt lat="47.48096" lon="6.76638">
        <ele>311</ele>
        <time>2014-12-28T08:57:29Z</time>
      </trkpt>
      <trkpt lat="47.48098" lon="6.76644">
        <ele>311</ele>
        <time>2014-12-28T08:57:30Z</time>
      </trkpt>
      <trkpt lat="47.481" lon="6.76649">
        <ele>311</ele>
        <time>2014-12-28T08:57:31Z</time>
      </trkpt>
      <trkpt lat="47.48103" lon="6.76654">
        <ele>311</ele>
        <time>2014-12-28T08:57:32Z</time>
      </trkpt>
      <trkpt lat="47.48105" lon="6.76659">
        <ele>311</ele>
        <time>2014-12-28T08:57:33Z</time>
      </trkpt>
      <trkpt lat="47.48113" lon="6.76667">
        <ele>311</ele>
        <time>2014-12-28T08:57:34Z</time>
      </trkpt>
      <trkpt lat="47.48116" lon="6.76672">
        <ele>311</ele>
        <time>2014-12-28T08:57:35Z</time>
      </trkpt>
      <trkpt lat="47.4812" lon="6.76677">
        <ele>311</ele>
        <time>2014-12-28T08:57:36Z</time>
      </trkpt>
      <trkpt lat="47.48144" lon="6.76718">
        <ele>312</ele>
        <time>2014-12-28T08:57:44Z</time>
      </trkpt>
      <trkpt lat="47.48147" lon="6.76726">
        <ele>312</ele>
        <time>2014-12-28T08:57:45Z</time>
      </trkpt>
      <trkpt lat="47.4815" lon="6.76736">
        <ele>312</ele>
        <time>2014-12-28T08:57:46Z</time>
      </trkpt>
      <trkpt lat="47.48153" lon="6.76744">
        <ele>312</ele>
        <time>2014-12-28T08:57:47Z</time>
      </trkpt>
      <trkpt lat="47.48156" lon="6.76751">
        <ele>312</ele>
        <time>2014-12-28T08:57:48Z</time>
      </trkpt>
      <trkpt lat="47.48162" lon="6.76757">
        <ele>312</ele>
        <time>2014-12-28T08:57:49Z</time>
      </trkpt>
      <trkpt lat="47.48167" lon="6.76764">
        <ele>312</ele>
        <time>2014-12-28T08:57:50Z</time>
      </trkpt>
      <trkpt lat="47.48171" lon="6.76771">
        <ele>312</ele>
        <time>2014-12-28T08:57:51Z</time>
      </trkpt>
      <trkpt lat="47.48176" lon="6.76777">
        <ele>312</ele>
        <time>2014-12-28T08:57:52Z</time>
      </trkpt>
      <trkpt lat="47.48179" lon="6.76782">
        <ele>312</ele>
        <time>2014-12-28T08:57:53Z</time>
      </trkpt>
      <trkpt lat="47.48183" lon="6.76786">
        <ele>312</ele>
        <time>2014-12-28T08:57:54Z</time>
      </trkpt>
      <trkpt lat="47.48187" lon="6.7679">
        <ele>312</ele>
        <time>2014-12-28T08:57:55Z</time>
      </trkpt>
      <trkpt lat="47.48193" lon="6.76793">
        <ele>312</ele>
        <time>2014-12-28T08:57:56Z</time>
      </trkpt>
      <trkpt lat="47.48197" lon="6.76796">
        <ele>312</ele>
        <time>2014-12-28T08:57:57Z</time>
      </trkpt>
      <trkpt lat="47.48201" lon="6.768">
        <ele>312</ele>
        <time>2014-12-28T08:57:58Z</time>
      </trkpt>
      <trkpt lat="47.48207" lon="6.76802">
        <ele>311</ele>
        <time>2014-12-28T08:57:59Z</time>
      </trkpt>
      <trkpt lat="47.48211" lon="6.76803">
        <ele>311</ele>
        <time>2014-12-28T08:58:00Z</time>
      </trkpt>
      <trkpt lat="47.48216" lon="6.76805">
        <ele>311</ele>
        <time>2014-12-28T08:58:01Z</time>
      </trkpt>
      <trkpt lat="47.48221" lon="6.76806">
        <ele>311</ele>
        <time>2014-12-28T08:58:02Z</time>
      </trkpt>
      <trkpt lat="47.48226" lon="6.7681">
        <ele>311</ele>
        <time>2014-12-28T08:58:03Z</time>
      </trkpt>
      <trkpt lat="47.4823" lon="6.76812">
        <ele>311</ele>
        <time>2014-12-28T08:58:04Z</time>
      </trkpt>
      <trkpt lat="47.48236" lon="6.76816">
        <ele>311</ele>
        <time>2014-12-28T08:58:05Z</time>
      </trkpt>
      <trkpt lat="47.48241" lon="6.76819">
        <ele>311</ele>
        <time>2014-12-28T08:58:06Z</time>
      </trkpt>
      <trkpt lat="47.48246" lon="6.76825">
        <ele>311</ele>
        <time>2014-12-28T08:58:07Z</time>
      </trkpt>
      <trkpt lat="47.48251" lon="6.76829">
        <ele>311</ele>
        <time>2014-12-28T08:58:07Z</time>
      </trkpt>
      <trkpt lat="47.48254" lon="6.76833">
        <ele>311</ele>
        <time>2014-12-28T08:58:09Z</time>
      </trkpt>
      <trkpt lat="47.48258" lon="6.76837">
        <ele>310</ele>
        <time>2014-12-28T08:58:10Z</time>
      </trkpt>
      <trkpt lat="47.48261" lon="6.76842">
        <ele>310</ele>
        <time>2014-12-28T08:58:11Z</time>
      </trkpt>
      <trkpt lat="47.48265" lon="6.76846">
        <ele>310</ele>
        <time>2014-12-28T08:58:12Z</time>
      </trkpt>
      <trkpt lat="47.48268" lon="6.76852">
        <ele>310</ele>
        <time>2014-12-28T08:58:13Z</time>
      </trkpt>
      <trkpt lat="47.48272" lon="6.76857">
        <ele>310</ele>
        <time>2014-12-28T08:58:14Z</time>
      </trkpt>
      <trkpt lat="47.48275" lon="6.76863">
        <ele>310</ele>
        <time>2014-12-28T08:58:15Z</time>
      </trkpt>
      <trkpt lat="47.48279" lon="6.76868">
        <ele>310</ele>
        <time>2014-12-28T08:58:16Z</time>
      </trkpt>
      <trkpt lat="47.48283" lon="6.76873">
        <ele>310</ele>
        <time>2014-12-28T08:58:17Z</time>
      </trkpt>
      <trkpt lat="47.48287" lon="6.76878">
        <ele>310</ele>
        <time>2014-12-28T08:58:18Z</time>
      </trkpt>
      <trkpt lat="47.48291" lon="6.76883">
        <ele>310</ele>
        <time>2014-12-28T08:58:19Z</time>
      </trkpt>
      <trkpt lat="47.48295" lon="6.76887">
        <ele>310</ele>
        <time>2014-12-28T08:58:20Z</time>
      </trkpt>
      <trkpt lat="47.483" lon="6.76891">
        <ele>309</ele>
        <time>2014-12-28T08:58:21Z</time>
      </trkpt>
      <trkpt lat="47.48304" lon="6.76895">
        <ele>309</ele>
        <time>2014-12-28T08:58:22Z</time>
      </trkpt>
      <trkpt lat="47.48308" lon="6.76898">
        <ele>309</ele>
        <time>2014-12-28T08:58:23Z</time>
      </trkpt>
      <trkpt lat="47.48313" lon="6.76901">
        <ele>309</ele>
        <time>2014-12-28T08:58:24Z</time>
      </trkpt>
      <trkpt lat="47.48317" lon="6.76905">
        <ele>309</ele>
        <time>2014-12-28T08:58:25Z</time>
      </trkpt>
      <trkpt lat="47.48322" lon="6.76908">
        <ele>309</ele>
        <time>2014-12-28T08:58:26Z</time>
      </trkpt>
      <trkpt lat="47.48326" lon="6.76912">
        <ele>309</ele>
        <time>2014-12-28T08:58:27Z</time>
      </trkpt>
      <trkpt lat="47.4833" lon="6.76916">
        <ele>309</ele>
        <time>2014-12-28T08:58:28Z</time>
      </trkpt>
      <trkpt lat="47.48336" lon="6.76918">
        <ele>309</ele>
        <time>2014-12-28T08:58:29Z</time>
      </trkpt>
      <trkpt lat="47.48341" lon="6.7692">
        <ele>309</ele>
        <time>2014-12-28T08:58:30Z</time>
      </trkpt>
      <trkpt lat="47.48347" lon="6.76924">
        <ele>309</ele>
        <time>2014-12-28T08:58:31Z</time>
      </trkpt>
      <trkpt lat="47.48352" lon="6.76925">
        <ele>309</ele>
        <time>2014-12-28T08:58:32Z</time>
      </trkpt>
      <trkpt lat="47.48356" lon="6.76929">
        <ele>310</ele>
        <time>2014-12-28T08:58:33Z</time>
      </trkpt>
      <trkpt lat="47.48361" lon="6.76932">
        <ele>310</ele>
        <time>2014-12-28T08:58:34Z</time>
      </trkpt>
      <trkpt lat="47.48366" lon="6.76936">
        <ele>311</ele>
        <time>2014-12-28T08:58:34Z</time>
      </trkpt>
      <trkpt lat="47.48406" lon="6.76959">
        <ele>312</ele>
        <time>2014-12-28T08:58:44Z</time>
      </trkpt>
      <trkpt lat="47.4841" lon="6.76964">
        <ele>312</ele>
        <time>2014-12-28T08:58:45Z</time>
      </trkpt>
      <trkpt lat="47.48414" lon="6.76965">
        <ele>312</ele>
        <time>2014-12-28T08:58:46Z</time>
      </trkpt>
      <trkpt lat="47.48418" lon="6.76968">
        <ele>313</ele>
        <time>2014-12-28T08:58:47Z</time>
      </trkpt>
      <trkpt lat="47.48423" lon="6.7697">
        <ele>313</ele>
        <time>2014-12-28T08:58:48Z</time>
      </trkpt>
      <trkpt lat="47.48429" lon="6.76971">
        <ele>313</ele>
        <time>2014-12-28T08:58:49Z</time>
      </trkpt>
      <trkpt lat="47.48434" lon="6.76973">
        <ele>313</ele>
        <time>2014-12-28T08:58:50Z</time>
      </trkpt>
      <trkpt lat="47.48439" lon="6.76974">
        <ele>313</ele>
        <time>2014-12-28T08:58:51Z</time>
      </trkpt>
      <trkpt lat="47.48443" lon="6.76977">
        <ele>313</ele>
        <time>2014-12-28T08:58:52Z</time>
      </trkpt>
      <trkpt lat="47.48448" lon="6.7698">
        <ele>314</ele>
        <time>2014-12-28T08:58:53Z</time>
      </trkpt>
      <trkpt lat="47.48452" lon="6.76983">
        <ele>314</ele>
        <time>2014-12-28T08:58:54Z</time>
      </trkpt>
      <trkpt lat="47.48457" lon="6.76985">
        <ele>314</ele>
        <time>2014-12-28T08:58:55Z</time>
      </trkpt>
      <trkpt lat="47.4846" lon="6.76988">
        <ele>314</ele>
        <time>2014-12-28T08:58:56Z</time>
      </trkpt>
      <trkpt lat="47.48464" lon="6.76992">
        <ele>315</ele>
        <time>2014-12-28T08:58:57Z</time>
      </trkpt>
      <trkpt lat="47.48468" lon="6.76995">
        <ele>315</ele>
        <time>2014-12-28T08:58:58Z</time>
      </trkpt>
      <trkpt lat="47.48473" lon="6.77">
        <ele>315</ele>
        <time>2014-12-28T08:58:59Z</time>
      </trkpt>
      <trkpt lat="47.48478" lon="6.77004">
        <ele>315</ele>
        <time>2014-12-28T08:59:00Z</time>
      </trkpt>
      <trkpt lat="47.48484" lon="6.77003">
        <ele>315</ele>
        <time>2014-12-28T08:59:01Z</time>
      </trkpt>
      <trkpt lat="47.48489" lon="6.77006">
        <ele>315</ele>
        <time>2014-12-28T08:59:02Z</time>
      </trkpt>
      <trkpt lat="47.48494" lon="6.77009">
        <ele>315</ele>
        <time>2014-12-28T08:59:03Z</time>
      </trkpt>
      <trkpt lat="47.48499" lon="6.77012">
        <ele>315</ele>
        <time>2014-12-28T08:59:04Z</time>
      </trkpt>
      <trkpt lat="47.48503" lon="6.77016">
        <ele>315</ele>
        <time>2014-12-28T08:59:05Z</time>
      </trkpt>
      <trkpt lat="47.48508" lon="6.77019">
        <ele>315</ele>
        <time>2014-12-28T08:59:05Z</time>
      </trkpt>
      <trkpt lat="47.48511" lon="6.77024">
        <ele>315</ele>
        <time>2014-12-28T08:59:07Z</time>
      </trkpt>
      <trkpt lat="47.48514" lon="6.77027">
        <ele>314</ele>
        <time>2014-12-28T08:59:08Z</time>
      </trkpt>
      <trkpt lat="47.48519" lon="6.77031">
        <ele>314</ele>
        <time>2014-12-28T08:59:09Z</time>
      </trkpt>
      <trkpt lat="47.48523" lon="6.77035">
        <ele>314</ele>
        <time>2014-12-28T08:59:10Z</time>
      </trkpt>
      <trkpt lat="47.48527" lon="6.77039">
        <ele>313</ele>
        <time>2014-12-28T08:59:11Z</time>
      </trkpt>
      <trkpt lat="47.48531" lon="6.77044">
        <ele>313</ele>
        <time>2014-12-28T08:59:12Z</time>
      </trkpt>
      <trkpt lat="47.48536" lon="6.77047">
        <ele>313</ele>
        <time>2014-12-28T08:59:13Z</time>
      </trkpt>
      <trkpt lat="47.4854" lon="6.77051">
        <ele>313</ele>
        <time>2014-12-28T08:59:14Z</time>
      </trkpt>
      <trkpt lat="47.48545" lon="6.77053">
        <ele>313</ele>
        <time>2014-12-28T08:59:15Z</time>
      </trkpt>
      <trkpt lat="47.4855" lon="6.77057">
        <ele>313</ele>
        <time>2014-12-28T08:59:16Z</time>
      </trkpt>
      <trkpt lat="47.48556" lon="6.77061">
        <ele>313</ele>
        <time>2014-12-28T08:59:16Z</time>
      </trkpt>
      <trkpt lat="47.4856" lon="6.77058">
        <ele>313</ele>
        <time>2014-12-28T08:59:18Z</time>
      </trkpt>
      <trkpt lat="47.48563" lon="6.7706">
        <ele>313</ele>
        <time>2014-12-28T08:59:19Z</time>
      </trkpt>
      <trkpt lat="47.48567" lon="6.77062">
        <ele>313</ele>
        <time>2014-12-28T08:59:20Z</time>
      </trkpt>
      <trkpt lat="47.4857" lon="6.77063">
        <ele>313</ele>
        <time>2014-12-28T08:59:21Z</time>
      </trkpt>
      <trkpt lat="47.48574" lon="6.77066">
        <ele>313</ele>
        <time>2014-12-28T08:59:22Z</time>
      </trkpt>
      <trkpt lat="47.48578" lon="6.77067">
        <ele>313</ele>
        <time>2014-12-28T08:59:23Z</time>
      </trkpt>
      <trkpt lat="47.48581" lon="6.77068">
        <ele>313</ele>
        <time>2014-12-28T08:59:24Z</time>
      </trkpt>
      <trkpt lat="47.48585" lon="6.77071">
        <ele>313</ele>
        <time>2014-12-28T08:59:25Z</time>
      </trkpt>
      <trkpt lat="47.4859" lon="6.77073">
        <ele>313</ele>
        <time>2014-12-28T08:59:26Z</time>
      </trkpt>
      <trkpt lat="47.48595" lon="6.77075">
        <ele>313</ele>
        <time>2014-12-28T08:59:26Z</time>
      </trkpt>
      <trkpt lat="47.486" lon="6.77078">
        <ele>313</ele>
        <time>2014-12-28T08:59:28Z</time>
      </trkpt>
      <trkpt lat="47.48604" lon="6.77083">
        <ele>313</ele>
        <time>2014-12-28T08:59:29Z</time>
      </trkpt>
      <trkpt lat="47.48609" lon="6.77087">
        <ele>312</ele>
        <time>2014-12-28T08:59:30Z</time>
      </trkpt>
      <trkpt lat="47.48613" lon="6.7709">
        <ele>312</ele>
        <time>2014-12-28T08:59:31Z</time>
      </trkpt>
      <trkpt lat="47.48617" lon="6.77093">
        <ele>312</ele>
        <time>2014-12-28T08:59:32Z</time>
      </trkpt>
      <trkpt lat="47.48621" lon="6.77096">
        <ele>312</ele>
        <time>2014-12-28T08:59:32Z</time>
      </trkpt>
      <trkpt lat="47.48625" lon="6.77099">
        <ele>312</ele>
        <time>2014-12-28T08:59:34Z</time>
      </trkpt>
      <trkpt lat="47.48629" lon="6.77102">
        <ele>312</ele>
        <time>2014-12-28T08:59:35Z</time>
      </trkpt>
      <trkpt lat="47.48634" lon="6.77106">
        <ele>312</ele>
        <time>2014-12-28T08:59:36Z</time>
      </trkpt>
      <trkpt lat="47.48637" lon="6.7711">
        <ele>312</ele>
        <time>2014-12-28T08:59:36Z</time>
      </trkpt>
      <trkpt lat="47.48643" lon="6.77115">
        <ele>312</ele>
        <time>2014-12-28T08:59:38Z</time>
      </trkpt>
      <trkpt lat="47.48648" lon="6.7712">
        <ele>312</ele>
        <time>2014-12-28T08:59:39Z</time>
      </trkpt>
      <trkpt lat="47.48653" lon="6.77127">
        <ele>311</ele>
        <time>2014-12-28T08:59:40Z</time>
      </trkpt>
      <trkpt lat="47.48659" lon="6.77132">
        <ele>311</ele>
        <time>2014-12-28T08:59:41Z</time>
      </trkpt>
      <trkpt lat="47.48664" lon="6.77137">
        <ele>311</ele>
        <time>2014-12-28T08:59:41Z</time>
      </trkpt>
      <trkpt lat="47.48669" lon="6.77141">
        <ele>311</ele>
        <time>2014-12-28T08:59:43Z</time>
      </trkpt>
      <trkpt lat="47.48673" lon="6.77145">
        <ele>311</ele>
        <time>2014-12-28T08:59:44Z</time>
      </trkpt>
      <trkpt lat="47.48677" lon="6.77149">
        <ele>311</ele>
        <time>2014-12-28T08:59:45Z</time>
      </trkpt>
      <trkpt lat="47.48681" lon="6.77156">
        <ele>311</ele>
        <time>2014-12-28T08:59:46Z</time>
      </trkpt>
      <trkpt lat="47.48685" lon="6.77161">
        <ele>311</ele>
        <time>2014-12-28T08:59:46Z</time>
      </trkpt>
      <trkpt lat="47.4869" lon="6.77165">
        <ele>311</ele>
        <time>2014-12-28T08:59:48Z</time>
      </trkpt>
      <trkpt lat="47.48694" lon="6.77169">
        <ele>310</ele>
        <time>2014-12-28T08:59:49Z</time>
      </trkpt>
      <trkpt lat="47.48698" lon="6.77173">
        <ele>310</ele>
        <time>2014-12-28T08:59:49Z</time>
      </trkpt>
      <trkpt lat="47.48702" lon="6.77177">
        <ele>310</ele>
        <time>2014-12-28T08:59:51Z</time>
      </trkpt>
      <trkpt lat="47.48706" lon="6.77181">
        <ele>310</ele>
        <time>2014-12-28T08:59:52Z</time>
      </trkpt>
      <trkpt lat="47.4871" lon="6.77184">
        <ele>310</ele>
        <time>2014-12-28T08:59:52Z</time>
      </trkpt>
      <trkpt lat="47.48714" lon="6.77188">
        <ele>310</ele>
        <time>2014-12-28T08:59:54Z</time>
      </trkpt>
      <trkpt lat="47.48719" lon="6.77188">
        <ele>310</ele>
        <time>2014-12-28T08:59:55Z</time>
      </trkpt>
      <trkpt lat="47.48723" lon="6.77192">
        <ele>310</ele>
        <time>2014-12-28T08:59:56Z</time>
      </trkpt>
      <trkpt lat="47.48728" lon="6.77195">
        <ele>310</ele>
        <time>2014-12-28T08:59:57Z</time>
      </trkpt>
      <trkpt lat="47.48732" lon="6.77199">
        <ele>310</ele>
        <time>2014-12-28T08:59:58Z</time>
      </trkpt>
      <trkpt lat="47.48736" lon="6.77202">
        <ele>310</ele>
        <time>2014-12-28T08:59:59Z</time>
      </trkpt>
      <trkpt lat="47.48741" lon="6.77207">
        <ele>310</ele>
        <time>2014-12-28T09:00:00Z</time>
      </trkpt>
      <trkpt lat="47.48745" lon="6.7721">
        <ele>309</ele>
        <time>2014-12-28T09:00:01Z</time>
      </trkpt>
      <trkpt lat="47.4875" lon="6.77213">
        <ele>309</ele>
        <time>2014-12-28T09:00:02Z</time>
      </trkpt>
      <trkpt lat="47.48754" lon="6.77217">
        <ele>309</ele>
        <time>2014-12-28T09:00:03Z</time>
      </trkpt>
      <trkpt lat="47.48758" lon="6.7722">
        <ele>309</ele>
        <time>2014-12-28T09:00:04Z</time>
      </trkpt>
      <trkpt lat="47.48763" lon="6.77223">
        <ele>309</ele>
        <time>2014-12-28T09:00:05Z</time>
      </trkpt>
      <trkpt lat="47.48767" lon="6.77224">
        <ele>309</ele>
        <time>2014-12-28T09:00:06Z</time>
      </trkpt>
      <trkpt lat="47.48771" lon="6.77229">
        <ele>309</ele>
        <time>2014-12-28T09:00:07Z</time>
      </trkpt>
      <trkpt lat="47.48775" lon="6.77233">
        <ele>309</ele>
        <time>2014-12-28T09:00:08Z</time>
      </trkpt>
      <trkpt lat="47.48779" lon="6.77237">
        <ele>309</ele>
        <time>2014-12-28T09:00:09Z</time>
      </trkpt>
      <trkpt lat="47.48784" lon="6.7724">
        <ele>310</ele>
        <time>2014-12-28T09:00:10Z</time>
      </trkpt>
      <trkpt lat="47.48787" lon="6.77242">
        <ele>310</ele>
        <time>2014-12-28T09:00:11Z</time>
      </trkpt>
      <trkpt lat="47.48791" lon="6.77246">
        <ele>310</ele>
        <time>2014-12-28T09:00:12Z</time>
      </trkpt>
      <trkpt lat="47.48795" lon="6.7725">
        <ele>310</ele>
        <time>2014-12-28T09:00:13Z</time>
      </trkpt>
      <trkpt lat="47.48799" lon="6.77254">
        <ele>310</ele>
        <time>2014-12-28T09:00:14Z</time>
      </trkpt>
      <trkpt lat="47.48804" lon="6.77258">
        <ele>310</ele>
        <time>2014-12-28T09:00:15Z</time>
      </trkpt>
      <trkpt lat="47.48808" lon="6.77259">
        <ele>310</ele>
        <time>2014-12-28T09:00:16Z</time>
      </trkpt>
      <trkpt lat="47.48812" lon="6.77263">
        <ele>310</ele>
        <time>2014-12-28T09:00:17Z</time>
      </trkpt>
      <trkpt lat="47.48815" lon="6.77267">
        <ele>310</ele>
        <time>2014-12-28T09:00:18Z</time>
      </trkpt>
      <trkpt lat="47.4882" lon="6.7727">
        <ele>310</ele>
        <time>2014-12-28T09:00:19Z</time>
      </trkpt>
      <trkpt lat="47.48824" lon="6.77274">
        <ele>310</ele>
        <time>2014-12-28T09:00:19Z</time>
      </trkpt>
      <trkpt lat="47.48829" lon="6.77276">
        <ele>310</ele>
        <time>2014-12-28T09:00:21Z</time>
      </trkpt>
      <trkpt lat="47.48833" lon="6.77278">
        <ele>310</ele>
        <time>2014-12-28T09:00:22Z</time>
      </trkpt>
      <trkpt lat="47.48837" lon="6.77281">
        <ele>310</ele>
        <time>2014-12-28T09:00:23Z</time>
      </trkpt>
      <trkpt lat="47.48842" lon="6.77283">
        <ele>310</ele>
        <time>2014-12-28T09:00:24Z</time>
      </trkpt>
      <trkpt lat="47.48846" lon="6.77286">
        <ele>309</ele>
        <time>2014-12-28T09:00:25Z</time>
      </trkpt>
      <trkpt lat="47.4885" lon="6.77287">
        <ele>309</ele>
        <time>2014-12-28T09:00:26Z</time>
      </trkpt>
      <trkpt lat="47.48854" lon="6.7729">
        <ele>309</ele>
        <time>2014-12-28T09:00:27Z</time>
      </trkpt>
      <trkpt lat="47.48858" lon="6.77292">
        <ele>309</ele>
        <time>2014-12-28T09:00:28Z</time>
      </trkpt>
      <trkpt lat="47.48863" lon="6.77294">
        <ele>309</ele>
        <time>2014-12-28T09:00:29Z</time>
      </trkpt>
      <trkpt lat="47.48867" lon="6.77296">
        <ele>309</ele>
        <time>2014-12-28T09:00:30Z</time>
      </trkpt>
      <trkpt lat="47.48872" lon="6.77299">
        <ele>309</ele>
        <time>2014-12-28T09:00:31Z</time>
      </trkpt>
      <trkpt lat="47.48876" lon="6.773">
        <ele>309</ele>
        <time>2014-12-28T09:00:32Z</time>
      </trkpt>
      <trkpt lat="47.4888" lon="6.77301">
        <ele>309</ele>
        <time>2014-12-28T09:00:33Z</time>
      </trkpt>
      <trkpt lat="47.48884" lon="6.77303">
        <ele>310</ele>
        <time>2014-12-28T09:00:34Z</time>
      </trkpt>
      <trkpt lat="47.48889" lon="6.77304">
        <ele>310</ele>
        <time>2014-12-28T09:00:35Z</time>
      </trkpt>
      <trkpt lat="47.48894" lon="6.77306">
        <ele>310</ele>
        <time>2014-12-28T09:00:36Z</time>
      </trkpt>
      <trkpt lat="47.4893" lon="6.77318">
        <ele>310</ele>
        <time>2014-12-28T09:00:44Z</time>
      </trkpt>
      <trkpt lat="47.48935" lon="6.77321">
        <ele>310</ele>
        <time>2014-12-28T09:00:45Z</time>
      </trkpt>
      <trkpt lat="47.4894" lon="6.7732">
        <ele>310</ele>
        <time>2014-12-28T09:00:46Z</time>
      </trkpt>
      <trkpt lat="47.48945" lon="6.77323">
        <ele>310</ele>
        <time>2014-12-28T09:00:47Z</time>
      </trkpt>
      <trkpt lat="47.4895" lon="6.77326">
        <ele>310</ele>
        <time>2014-12-28T09:00:48Z</time>
      </trkpt>
      <trkpt lat="47.48955" lon="6.77329">
        <ele>310</ele>
        <time>2014-12-28T09:00:49Z</time>
      </trkpt>
      <trkpt lat="47.48958" lon="6.7733">
        <ele>310</ele>
        <time>2014-12-28T09:00:50Z</time>
      </trkpt>
      <trkpt lat="47.48963" lon="6.77332">
        <ele>310</ele>
        <time>2014-12-28T09:00:51Z</time>
      </trkpt>
      <trkpt lat="47.48967" lon="6.77334">
        <ele>310</ele>
        <time>2014-12-28T09:00:51Z</time>
      </trkpt>
      <trkpt lat="47.48973" lon="6.77333">
        <ele>310</ele>
        <time>2014-12-28T09:00:53Z</time>
      </trkpt>
      <trkpt lat="47.48979" lon="6.77333">
        <ele>310</ele>
        <time>2014-12-28T09:00:54Z</time>
      </trkpt>
      <trkpt lat="47.48985" lon="6.77333">
        <ele>310</ele>
        <time>2014-12-28T09:00:55Z</time>
      </trkpt>
      <trkpt lat="47.4899" lon="6.77333">
        <ele>310</ele>
        <time>2014-12-28T09:00:56Z</time>
      </trkpt>
      <trkpt lat="47.48994" lon="6.77332">
        <ele>310</ele>
        <time>2014-12-28T09:00:57Z</time>
      </trkpt>
      <trkpt lat="47.48999" lon="6.77334">
        <ele>310</ele>
        <time>2014-12-28T09:00:58Z</time>
      </trkpt>
      <trkpt lat="47.49004" lon="6.77334">
        <ele>310</ele>
        <time>2014-12-28T09:00:59Z</time>
      </trkpt>
      <trkpt lat="47.49009" lon="6.77334">
        <ele>310</ele>
        <time>2014-12-28T09:01:00Z</time>
      </trkpt>
      <trkpt lat="47.49014" lon="6.77333">
        <ele>311</ele>
        <time>2014-12-28T09:01:01Z</time>
      </trkpt>
      <trkpt lat="47.49019" lon="6.77333">
        <ele>311</ele>
        <time>2014-12-28T09:01:02Z</time>
      </trkpt>
      <trkpt lat="47.49023" lon="6.77333">
        <ele>310</ele>
        <time>2014-12-28T09:01:02Z</time>
      </trkpt>
      <trkpt lat="47.49029" lon="6.77332">
        <ele>311</ele>
        <time>2014-12-28T09:01:04Z</time>
      </trkpt>
      <trkpt lat="47.49034" lon="6.77333">
        <ele>311</ele>
        <time>2014-12-28T09:01:04Z</time>
      </trkpt>
      <trkpt lat="47.49037" lon="6.77333">
        <ele>311</ele>
        <time>2014-12-28T09:01:06Z</time>
      </trkpt>
      <trkpt lat="47.49042" lon="6.77334">
        <ele>310</ele>
        <time>2014-12-28T09:01:07Z</time>
      </trkpt>
      <trkpt lat="47.49047" lon="6.77336">
        <ele>310</ele>
        <time>2014-12-28T09:01:08Z</time>
      </trkpt>
      <trkpt lat="47.49053" lon="6.77336">
        <ele>310</ele>
        <time>2014-12-28T09:01:09Z</time>
      </trkpt>
      <trkpt lat="47.49058" lon="6.77337">
        <ele>310</ele>
        <time>2014-12-28T09:01:10Z</time>
      </trkpt>
      <trkpt lat="47.49064" lon="6.77337">
        <ele>310</ele>
        <time>2014-12-28T09:01:11Z</time>
      </trkpt>
      <trkpt lat="47.49068" lon="6.77336">
        <ele>310</ele>
        <time>2014-12-28T09:01:12Z</time>
      </trkpt>
      <trkpt lat="47.49074" lon="6.77336">
        <ele>310</ele>
        <time>2014-12-28T09:01:13Z</time>
      </trkpt>
      <trkpt lat="47.49077" lon="6.77338">
        <ele>310</ele>
        <time>2014-12-28T09:01:14Z</time>
      </trkpt>
      <trkpt lat="47.49082" lon="6.77338">
        <ele>310</ele>
        <time>2014-12-28T09:01:15Z</time>
      </trkpt>
      <trkpt lat="47.49088" lon="6.77339">
        <ele>310</ele>
        <time>2014-12-28T09:01:16Z</time>
      </trkpt>
      <trkpt lat="47.49092" lon="6.7734">
        <ele>310</ele>
        <time>2014-12-28T09:01:17Z</time>
      </trkpt>
      <trkpt lat="47.49096" lon="6.7734">
        <ele>310</ele>
        <time>2014-12-28T09:01:17Z</time>
      </trkpt>
      <trkpt lat="47.491" lon="6.7734">
        <ele>310</ele>
        <time>2014-12-28T09:01:19Z</time>
      </trkpt>
      <trkpt lat="47.49105" lon="6.7734">
        <ele>310</ele>
        <time>2014-12-28T09:01:20Z</time>
      </trkpt>
      <trkpt lat="47.4911" lon="6.77341">
        <ele>310</ele>
        <time>2014-12-28T09:01:21Z</time>
      </trkpt>
      <trkpt lat="47.49115" lon="6.77341">
        <ele>310</ele>
        <time>2014-12-28T09:01:22Z</time>
      </trkpt>
      <trkpt lat="47.49119" lon="6.77341">
        <ele>310</ele>
        <time>2014-12-28T09:01:23Z</time>
      </trkpt>
      <trkpt lat="47.49123" lon="6.77341">
        <ele>310</ele>
        <time>2014-12-28T09:01:24Z</time>
      </trkpt>
      <trkpt lat="47.49127" lon="6.77341">
        <ele>310</ele>
        <time>2014-12-28T09:01:25Z</time>
      </trkpt>
      <trkpt lat="47.49132" lon="6.77341">
        <ele>309</ele>
        <time>2014-12-28T09:01:26Z</time>
      </trkpt>
      <trkpt lat="47.49136" lon="6.77342">
        <ele>309</ele>
        <time>2014-12-28T09:01:27Z</time>
      </trkpt>
      <trkpt lat="47.4914" lon="6.77342">
        <ele>309</ele>
        <time>2014-12-28T09:01:28Z</time>
      </trkpt>
      <trkpt lat="47.49144" lon="6.77342">
        <ele>309</ele>
        <time>2014-12-28T09:01:29Z</time>
      </trkpt>
      <trkpt lat="47.49148" lon="6.77342">
        <ele>309</ele>
        <time>2014-12-28T09:01:30Z</time>
      </trkpt>
      <trkpt lat="47.49151" lon="6.77342">
        <ele>309</ele>
        <time>2014-12-28T09:01:31Z</time>
      </trkpt>
      <trkpt lat="47.49154" lon="6.77342">
        <ele>309</ele>
        <time>2014-12-28T09:01:32Z</time>
      </trkpt>
      <trkpt lat="47.49157" lon="6.77342">
        <ele>309</ele>
        <time>2014-12-28T09:01:33Z</time>
      </trkpt>
      <trkpt lat="47.49159" lon="6.77341">
        <ele>309</ele>
        <time>2014-12-28T09:01:34Z</time>
      </trkpt>
      <trkpt lat="47.49162" lon="6.77341">
        <ele>309</ele>
        <time>2014-12-28T09:01:35Z</time>
      </trkpt>
      <trkpt lat="47.49165" lon="6.77341">
        <ele>309</ele>
        <time>2014-12-28T09:01:36Z</time>
      </trkpt>
      <trkpt lat="47.49181" lon="6.77343">
        <ele>309</ele>
        <time>2014-12-28T09:01:44Z</time>
      </trkpt>
      <trkpt lat="47.49184" lon="6.7734">
        <ele>309</ele>
        <time>2014-12-28T09:01:47Z</time>
      </trkpt>
      <trkpt lat="47.49185" lon="6.77337">
        <ele>309</ele>
        <time>2014-12-28T09:01:48Z</time>
      </trkpt>
      <trkpt lat="47.49186" lon="6.77332">
        <ele>310</ele>
        <time>2014-12-28T09:01:49Z</time>
      </trkpt>
      <trkpt lat="47.49187" lon="6.77326">
        <ele>310</ele>
        <time>2014-12-28T09:01:50Z</time>
      </trkpt>
      <trkpt lat="47.49188" lon="6.77319">
        <ele>310</ele>
        <time>2014-12-28T09:01:51Z</time>
      </trkpt>
      <trkpt lat="47.49188" lon="6.77313">
        <ele>310</ele>
        <time>2014-12-28T09:01:52Z</time>
      </trkpt>
      <trkpt lat="47.49188" lon="6.77307">
        <ele>310</ele>
        <time>2014-12-28T09:01:53Z</time>
      </trkpt>
      <trkpt lat="47.49188" lon="6.77301">
        <ele>310</ele>
        <time>2014-12-28T09:01:54Z</time>
      </trkpt>
      <trkpt lat="47.49188" lon="6.77295">
        <ele>310</ele>
        <time>2014-12-28T09:01:55Z</time>
      </trkpt>
      <trkpt lat="47.49189" lon="6.7729">
        <ele>310</ele>
        <time>2014-12-28T09:01:56Z</time>
      </trkpt>
      <trkpt lat="47.49189" lon="6.77285">
        <ele>311</ele>
        <time>2014-12-28T09:01:57Z</time>
      </trkpt>
      <trkpt lat="47.49189" lon="6.77278">
        <ele>311</ele>
        <time>2014-12-28T09:01:59Z</time>
      </trkpt>
      <trkpt lat="47.49189" lon="6.77277">
        <ele>311</ele>
        <time>2014-12-28T09:02:00Z</time>
      </trkpt>
      <trkpt lat="47.4919" lon="6.77271">
        <ele>311</ele>
        <time>2014-12-28T09:02:05Z</time>
      </trkpt>
      <trkpt lat="47.4919" lon="6.7727">
        <ele>311</ele>
        <time>2014-12-28T09:02:05Z</time>
      </trkpt>
      <trkpt lat="47.49191" lon="6.77265">
        <ele>311</ele>
        <time>2014-12-28T09:02:09Z</time>
      </trkpt>
      <trkpt lat="47.49191" lon="6.77263">
        <ele>311</ele>
        <time>2014-12-28T09:02:10Z</time>
      </trkpt>
      <trkpt lat="47.49192" lon="6.77257">
        <ele>311</ele>
        <time>2014-12-28T09:02:13Z</time>
      </trkpt>
      <trkpt lat="47.49192" lon="6.77255">
        <ele>311</ele>
        <time>2014-12-28T09:02:14Z</time>
      </trkpt>
      <trkpt lat="47.49192" lon="6.7725">
        <ele>311</ele>
        <time>2014-12-28T09:02:16Z</time>
      </trkpt>
      <trkpt lat="47.49192" lon="6.77248">
        <ele>312</ele>
        <time>2014-12-28T09:02:17Z</time>
      </trkpt>
      <trkpt lat="47.4919" lon="6.77242">
        <ele>312</ele>
        <time>2014-12-28T09:02:21Z</time>
      </trkpt>
      <trkpt lat="47.4919" lon="6.7724">
        <ele>312</ele>
        <time>2014-12-28T09:02:22Z</time>
      </trkpt>
      <trkpt lat="47.4919" lon="6.77235">
        <ele>312</ele>
        <time>2014-12-28T09:02:24Z</time>
      </trkpt>
      <trkpt lat="47.4919" lon="6.77231">
        <ele>312</ele>
        <time>2014-12-28T09:02:25Z</time>
      </trkpt>
      <trkpt lat="47.4919" lon="6.77227">
        <ele>312</ele>
        <time>2014-12-28T09:02:26Z</time>
      </trkpt>
      <trkpt lat="47.49191" lon="6.77223">
        <ele>312</ele>
        <time>2014-12-28T09:02:27Z</time>
      </trkpt>
      <trkpt lat="47.49191" lon="6.77219">
        <ele>312</ele>
        <time>2014-12-28T09:02:28Z</time>
      </trkpt>
      <trkpt lat="47.49191" lon="6.77215">
        <ele>312</ele>
        <time>2014-12-28T09:02:29Z</time>
      </trkpt>
      <trkpt lat="47.49191" lon="6.77211">
        <ele>312</ele>
        <time>2014-12-28T09:02:30Z</time>
      </trkpt>
      <trkpt lat="47.49192" lon="6.77207">
        <ele>312</ele>
        <time>2014-12-28T09:02:31Z</time>
      </trkpt>
      <trkpt lat="47.49193" lon="6.77204">
        <ele>312</ele>
        <time>2014-12-28T09:02:31Z</time>
      </trkpt>
      <trkpt lat="47.49194" lon="6.772">
        <ele>312</ele>
        <time>2014-12-28T09:02:33Z</time>
      </trkpt>
      <trkpt lat="47.49196" lon="6.77195">
        <ele>312</ele>
        <time>2014-12-28T09:02:35Z</time>
      </trkpt>
      <trkpt lat="47.49201" lon="6.77183">
        <ele>312</ele>
        <time>2014-12-28T09:02:44Z</time>
      </trkpt>
      <trkpt lat="47.49204" lon="6.77184">
        <ele>312</ele>
        <time>2014-12-28T09:02:45Z</time>
      </trkpt>
      <trkpt lat="47.49207" lon="6.77184">
        <ele>312</ele>
        <time>2014-12-28T09:02:46Z</time>
      </trkpt>
      <trkpt lat="47.49212" lon="6.77184">
        <ele>312</ele>
        <time>2014-12-28T09:02:47Z</time>
      </trkpt>
      <trkpt lat="47.49217" lon="6.77183">
        <ele>312</ele>
        <time>2014-12-28T09:02:48Z</time>
      </trkpt>
      <trkpt lat="47.49221" lon="6.77181">
        <ele>312</ele>
        <time>2014-12-28T09:02:49Z</time>
      </trkpt>
      <trkpt lat="47.49225" lon="6.7718">
        <ele>312</ele>
        <time>2014-12-28T09:02:50Z</time>
      </trkpt>
      <trkpt lat="47.49228" lon="6.77178">
        <ele>312</ele>
        <time>2014-12-28T09:02:51Z</time>
      </trkpt>
      <trkpt lat="47.49231" lon="6.77176">
        <ele>312</ele>
        <time>2014-12-28T09:02:52Z</time>
      </trkpt>
      <trkpt lat="47.49236" lon="6.77174">
        <ele>312</ele>
        <time>2014-12-28T09:02:53Z</time>
      </trkpt>
      <trkpt lat="47.4924" lon="6.77172">
        <ele>312</ele>
        <time>2014-12-28T09:02:54Z</time>
      </trkpt>
      <trkpt lat="47.49244" lon="6.7717">
        <ele>312</ele>
        <time>2014-12-28T09:02:55Z</time>
      </trkpt>
      <trkpt lat="47.49247" lon="6.77168">
        <ele>312</ele>
        <time>2014-12-28T09:02:56Z</time>
      </trkpt>
      <trkpt lat="47.49251" lon="6.77167">
        <ele>312</ele>
        <time>2014-12-28T09:02:57Z</time>
      </trkpt>
      <trkpt lat="47.49254" lon="6.77166">
        <ele>313</ele>
        <time>2014-12-28T09:02:58Z</time>
      </trkpt>
      <trkpt lat="47.49257" lon="6.77165">
        <ele>313</ele>
        <time>2014-12-28T09:02:58Z</time>
      </trkpt>
      <trkpt lat="47.4926" lon="6.77165">
        <ele>313</ele>
        <time>2014-12-28T09:03:00Z</time>
      </trkpt>
      <trkpt lat="47.49263" lon="6.77164">
        <ele>313</ele>
        <time>2014-12-28T09:03:01Z</time>
      </trkpt>
      <trkpt lat="47.49266" lon="6.77162">
        <ele>313</ele>
        <time>2014-12-28T09:03:01Z</time>
      </trkpt>
      <trkpt lat="47.49269" lon="6.77161">
        <ele>313</ele>
        <time>2014-12-28T09:03:03Z</time>
      </trkpt>
      <trkpt lat="47.49272" lon="6.77159">
        <ele>313</ele>
        <time>2014-12-28T09:03:04Z</time>
      </trkpt>
      <trkpt lat="47.49275" lon="6.77157">
        <ele>313</ele>
        <time>2014-12-28T09:03:05Z</time>
      </trkpt>
      <trkpt lat="47.49277" lon="6.77154">
        <ele>313</ele>
        <time>2014-12-28T09:03:06Z</time>
      </trkpt>
      <trkpt lat="47.49279" lon="6.77151">
        <ele>313</ele>
        <time>2014-12-28T09:03:07Z</time>
      </trkpt>
      <trkpt lat="47.4928" lon="6.77146">
        <ele>313</ele>
        <time>2014-12-28T09:03:08Z</time>
      </trkpt>
      <trkpt lat="47.4928" lon="6.77141">
        <ele>313</ele>
        <time>2014-12-28T09:03:09Z</time>
      </trkpt>
      <trkpt lat="47.49279" lon="6.77136">
        <ele>313</ele>
        <time>2014-12-28T09:03:10Z</time>
      </trkpt>
      <trkpt lat="47.49278" lon="6.77131">
        <ele>313</ele>
        <time>2014-12-28T09:03:11Z</time>
      </trkpt>
      <trkpt lat="47.49276" lon="6.77126">
        <ele>313</ele>
        <time>2014-12-28T09:03:12Z</time>
      </trkpt>
      <trkpt lat="47.49275" lon="6.77122">
        <ele>313</ele>
        <time>2014-12-28T09:03:13Z</time>
      </trkpt>
      <trkpt lat="47.49273" lon="6.77118">
        <ele>313</ele>
        <time>2014-12-28T09:03:14Z</time>
      </trkpt>
      <trkpt lat="47.4927" lon="6.77114">
        <ele>313</ele>
        <time>2014-12-28T09:03:15Z</time>
      </trkpt>
      <trkpt lat="47.49268" lon="6.77111">
        <ele>313</ele>
        <time>2014-12-28T09:03:16Z</time>
      </trkpt>
      <trkpt lat="47.49266" lon="6.77108">
        <ele>313</ele>
        <time>2014-12-28T09:03:17Z</time>
      </trkpt>
      <trkpt lat="47.49264" lon="6.77105">
        <ele>313</ele>
        <time>2014-12-28T09:03:18Z</time>
      </trkpt>
      <trkpt lat="47.49262" lon="6.77101">
        <ele>313</ele>
        <time>2014-12-28T09:03:19Z</time>
      </trkpt>
      <trkpt lat="47.49262" lon="6.77097">
        <ele>313</ele>
        <time>2014-12-28T09:03:20Z</time>
      </trkpt>
      <trkpt lat="47.49261" lon="6.77093">
        <ele>313</ele>
        <time>2014-12-28T09:03:21Z</time>
      </trkpt>
      <trkpt lat="47.49261" lon="6.77089">
        <ele>313</ele>
        <time>2014-12-28T09:03:22Z</time>
      </trkpt>
      <trkpt lat="47.49261" lon="6.77085">
        <ele>313</ele>
        <time>2014-12-28T09:03:23Z</time>
      </trkpt>
      <trkpt lat="47.49262" lon="6.77081">
        <ele>313</ele>
        <time>2014-12-28T09:03:24Z</time>
      </trkpt>
      <trkpt lat="47.49263" lon="6.77078">
        <ele>313</ele>
        <time>2014-12-28T09:03:25Z</time>
      </trkpt>
      <trkpt lat="47.49264" lon="6.77075">
        <ele>313</ele>
        <time>2014-12-28T09:03:26Z</time>
      </trkpt>
      <trkpt lat="47.49266" lon="6.77073">
        <ele>313</ele>
        <time>2014-12-28T09:03:27Z</time>
      </trkpt>
      <trkpt lat="47.49268" lon="6.7707">
        <ele>313</ele>
        <time>2014-12-28T09:03:28Z</time>
      </trkpt>
      <trkpt lat="47.4927" lon="6.77068">
        <ele>313</ele>
        <time>2014-12-28T09:03:29Z</time>
      </trkpt>
      <trkpt lat="47.49272" lon="6.77066">
        <ele>313</ele>
        <time>2014-12-28T09:03:30Z</time>
      </trkpt>
      <trkpt lat="47.49274" lon="6.77064">
        <ele>314</ele>
        <time>2014-12-28T09:03:31Z</time>
      </trkpt>
      <trkpt lat="47.49276" lon="6.77062">
        <ele>314</ele>
        <time>2014-12-28T09:03:32Z</time>
      </trkpt>
      <trkpt lat="47.49278" lon="6.7706">
        <ele>314</ele>
        <time>2014-12-28T09:03:33Z</time>
      </trkpt>
      <trkpt lat="47.4928" lon="6.77057">
        <ele>314</ele>
        <time>2014-12-28T09:03:34Z</time>
      </trkpt>
      <trkpt lat="47.49282" lon="6.77055">
        <ele>314</ele>
        <time>2014-12-28T09:03:35Z</time>
      </trkpt>
      <trkpt lat="47.49284" lon="6.77053">
        <ele>314</ele>
        <time>2014-12-28T09:03:36Z</time>
      </trkpt>
      <trkpt lat="47.49302" lon="6.77039">
        <ele>315</ele>
        <time>2014-12-28T09:03:44Z</time>
      </trkpt>
      <trkpt lat="47.49304" lon="6.77036">
        <ele>315</ele>
        <time>2014-12-28T09:03:45Z</time>
      </trkpt>
      <trkpt lat="47.49306" lon="6.77033">
        <ele>315</ele>
        <time>2014-12-28T09:03:46Z</time>
      </trkpt>
      <trkpt lat="47.49308" lon="6.77028">
        <ele>315</ele>
        <time>2014-12-28T09:03:47Z</time>
      </trkpt>
      <trkpt lat="47.49309" lon="6.77023">
        <ele>316</ele>
        <time>2014-12-28T09:03:48Z</time>
      </trkpt>
      <trkpt lat="47.49311" lon="6.77019">
        <ele>316</ele>
        <time>2014-12-28T09:03:49Z</time>
      </trkpt>
      <trkpt lat="47.49313" lon="6.77014">
        <ele>316</ele>
        <time>2014-12-28T09:03:50Z</time>
      </trkpt>
      <trkpt lat="47.49315" lon="6.7701">
        <ele>316</ele>
        <time>2014-12-28T09:03:51Z</time>
      </trkpt>
      <trkpt lat="47.49317" lon="6.77008">
        <ele>316</ele>
        <time>2014-12-28T09:03:52Z</time>
      </trkpt>
      <trkpt lat="47.49321" lon="6.77006">
        <ele>316</ele>
        <time>2014-12-28T09:03:56Z</time>
      </trkpt>
      <trkpt lat="47.49321" lon="6.77007">
        <ele>316</ele>
        <time>2014-12-28T09:03:57Z</time>
      </trkpt>
      <trkpt lat="47.49325" lon="6.77004">
        <ele>316</ele>
        <time>2014-12-28T09:04:01Z</time>
      </trkpt>
      <trkpt lat="47.49326" lon="6.77002">
        <ele>316</ele>
        <time>2014-12-28T09:04:02Z</time>
      </trkpt>
      <trkpt lat="47.49329" lon="6.76999">
        <ele>317</ele>
        <time>2014-12-28T09:04:05Z</time>
      </trkpt>
      <trkpt lat="47.4933" lon="6.76998">
        <ele>317</ele>
        <time>2014-12-28T09:04:06Z</time>
      </trkpt>
      <trkpt lat="47.49334" lon="6.76998">
        <ele>317</ele>
        <time>2014-12-28T09:04:10Z</time>
      </trkpt>
      <trkpt lat="47.49335" lon="6.76998">
        <ele>317</ele>
        <time>2014-12-28T09:04:11Z</time>
      </trkpt>
      <trkpt lat="47.49338" lon="6.76999">
        <ele>317</ele>
        <time>2014-12-28T09:04:16Z</time>
      </trkpt>
      <trkpt lat="47.49339" lon="6.77">
        <ele>317</ele>
        <time>2014-12-28T09:04:17Z</time>
      </trkpt>
      <trkpt lat="47.49343" lon="6.77">
        <ele>317</ele>
        <time>2014-12-28T09:04:21Z</time>
      </trkpt>
      <trkpt lat="47.49344" lon="6.77">
        <ele>317</ele>
        <time>2014-12-28T09:04:22Z</time>
      </trkpt>
      <trkpt lat="47.49348" lon="6.76999">
        <ele>317</ele>
        <time>2014-12-28T09:04:25Z</time>
      </trkpt>
      <trkpt lat="47.49349" lon="6.77">
        <ele>317</ele>
        <time>2014-12-28T09:04:26Z</time>
      </trkpt>
      <trkpt lat="47.49352" lon="6.77004">
        <ele>317</ele>
        <time>2014-12-28T09:04:29Z</time>
      </trkpt>
      <trkpt lat="47.49353" lon="6.77004">
        <ele>317</ele>
        <time>2014-12-28T09:04:30Z</time>
      </trkpt>
      <trkpt lat="47.49356" lon="6.77004">
        <ele>317</ele>
        <time>2014-12-28T09:04:32Z</time>
      </trkpt>
      <trkpt lat="47.49358" lon="6.77004">
        <ele>317</ele>
        <time>2014-12-28T09:04:33Z</time>
      </trkpt>
      <trkpt lat="47.49362" lon="6.77005">
        <ele>317</ele>
        <time>2014-12-28T09:04:35Z</time>
      </trkpt>
      <trkpt lat="47.49371" lon="6.77008">
        <ele>318</ele>
        <time>2014-12-28T09:04:42Z</time>
      </trkpt>
      <trkpt lat="47.49375" lon="6.7701">
        <ele>318</ele>
        <time>2014-12-28T09:04:46Z</time>
      </trkpt>
      <trkpt lat="47.49376" lon="6.7701">
        <ele>318</ele>
        <time>2014-12-28T09:04:47Z</time>
      </trkpt>
      <trkpt lat="47.4938" lon="6.77012">
        <ele>318</ele>
        <time>2014-12-28T09:04:50Z</time>
      </trkpt>
      <trkpt lat="47.49381" lon="6.77012">
        <ele>318</ele>
        <time>2014-12-28T09:04:51Z</time>
      </trkpt>
      <trkpt lat="47.49384" lon="6.77012">
        <ele>319</ele>
        <time>2014-12-28T09:04:54Z</time>
      </trkpt>
      <trkpt lat="47.49386" lon="6.77013">
        <ele>319</ele>
        <time>2014-12-28T09:04:55Z</time>
      </trkpt>
      <trkpt lat="47.49389" lon="6.77013">
        <ele>319</ele>
        <time>2014-12-28T09:04:57Z</time>
      </trkpt>
      <trkpt lat="47.4939" lon="6.77013">
        <ele>319</ele>
        <time>2014-12-28T09:04:58Z</time>
      </trkpt>
      <trkpt lat="47.49393" lon="6.77013">
        <ele>320</ele>
        <time>2014-12-28T09:05:00Z</time>
      </trkpt>
      <trkpt lat="47.49395" lon="6.77014">
        <ele>320</ele>
        <time>2014-12-28T09:05:01Z</time>
      </trkpt>
      <trkpt lat="47.49399" lon="6.77014">
        <ele>320</ele>
        <time>2014-12-28T09:05:04Z</time>
      </trkpt>
      <trkpt lat="47.49401" lon="6.77014">
        <ele>320</ele>
        <time>2014-12-28T09:05:05Z</time>
      </trkpt>
      <trkpt lat="47.49404" lon="6.77015">
        <ele>320</ele>
        <time>2014-12-28T09:05:07Z</time>
      </trkpt>
      <trkpt lat="47.49406" lon="6.77015">
        <ele>320</ele>
        <time>2014-12-28T09:05:08Z</time>
      </trkpt>
      <trkpt lat="47.49409" lon="6.77015">
        <ele>320</ele>
        <time>2014-12-28T09:05:10Z</time>
      </trkpt>
      <trkpt lat="47.49411" lon="6.77015">
        <ele>320</ele>
        <time>2014-12-28T09:05:11Z</time>
      </trkpt>
      <trkpt lat="47.49414" lon="6.77013">
        <ele>320</ele>
        <time>2014-12-28T09:05:13Z</time>
      </trkpt>
      <trkpt lat="47.49416" lon="6.77013">
        <ele>320</ele>
        <time>2014-12-28T09:05:14Z</time>
      </trkpt>
      <trkpt lat="47.49412" lon="6.77011">
        <ele>320</ele>
        <time>2014-12-28T09:05:21Z</time>
      </trkpt>
      <trkpt lat="47.49409" lon="6.77012">
        <ele>320</ele>
        <time>2014-12-28T09:05:22Z</time>
      </trkpt>
      <trkpt lat="47.49405" lon="6.77012">
        <ele>320</ele>
        <time>2014-12-28T09:05:23Z</time>
      </trkpt>
      <trkpt lat="47.49402" lon="6.77012">
        <ele>320</ele>
        <time>2014-12-28T09:05:24Z</time>
      </trkpt>
      <trkpt lat="47.49398" lon="6.77011">
        <ele>320</ele>
        <time>2014-12-28T09:05:25Z</time>
      </trkpt>
      <trkpt lat="47.49393" lon="6.7701">
        <ele>320</ele>
        <time>2014-12-28T09:05:26Z</time>
      </trkpt>
      <trkpt lat="47.49389" lon="6.77009">
        <ele>319</ele>
        <time>2014-12-28T09:05:27Z</time>
      </trkpt>
      <trkpt lat="47.49385" lon="6.77009">
        <ele>319</ele>
        <time>2014-12-28T09:05:28Z</time>
      </trkpt>
      <trkpt lat="47.4938" lon="6.77008">
        <ele>318</ele>
        <time>2014-12-28T09:05:29Z</time>
      </trkpt>
      <trkpt lat="47.49375" lon="6.77007">
        <ele>318</ele>
        <time>2014-12-28T09:05:30Z</time>
      </trkpt>
      <trkpt lat="47.49371" lon="6.77006">
        <ele>318</ele>
        <time>2014-12-28T09:05:31Z</time>
      </trkpt>
      <trkpt lat="47.49366" lon="6.77004">
        <ele>317</ele>
        <time>2014-12-28T09:05:32Z</time>
      </trkpt>
      <trkpt lat="47.49362" lon="6.77003">
        <ele>317</ele>
        <time>2014-12-28T09:05:33Z</time>
      </trkpt>
      <trkpt lat="47.49358" lon="6.77002">
        <ele>317</ele>
        <time>2014-12-28T09:05:34Z</time>
      </trkpt>
      <trkpt lat="47.49353" lon="6.77001">
        <ele>317</ele>
        <time>2014-12-28T09:05:35Z</time>
      </trkpt>
      <trkpt lat="47.49348" lon="6.77">
        <ele>317</ele>
        <time>2014-12-28T09:05:36Z</time>
      </trkpt>
      <trkpt lat="47.49322" lon="6.77002">
        <ele>316</ele>
        <time>2014-12-28T09:05:44Z</time>
      </trkpt>
      <trkpt lat="47.4932" lon="6.77004">
        <ele>316</ele>
        <time>2014-12-28T09:05:45Z</time>
      </trkpt>
      <trkpt lat="47.49321" lon="6.77014">
        <ele>316</ele>
        <time>2014-12-28T09:05:46Z</time>
      </trkpt>
      <trkpt lat="47.49321" lon="6.77021">
        <ele>316</ele>
        <time>2014-12-28T09:05:47Z</time>
      </trkpt>
      <trkpt lat="47.4932" lon="6.77026">
        <ele>316</ele>
        <time>2014-12-28T09:05:48Z</time>
      </trkpt>
      <trkpt lat="47.4932" lon="6.77031">
        <ele>316</ele>
        <time>2014-12-28T09:05:49Z</time>
      </trkpt>
      <trkpt lat="47.49319" lon="6.77036">
        <ele>315</ele>
        <time>2014-12-28T09:05:50Z</time>
      </trkpt>
      <trkpt lat="47.49319" lon="6.77041">
        <ele>315</ele>
        <time>2014-12-28T09:05:51Z</time>
      </trkpt>
      <trkpt lat="47.4932" lon="6.77045">
        <ele>315</ele>
        <time>2014-12-28T09:05:52Z</time>
      </trkpt>
      <trkpt lat="47.4932" lon="6.77049">
        <ele>315</ele>
        <time>2014-12-28T09:05:53Z</time>
      </trkpt>
      <trkpt lat="47.49321" lon="6.77055">
        <ele>315</ele>
        <time>2014-12-28T09:05:55Z</time>
      </trkpt>
      <trkpt lat="47.49323" lon="6.77058">
        <ele>315</ele>
        <time>2014-12-28T09:05:56Z</time>
      </trkpt>
      <trkpt lat="47.49324" lon="6.77061">
        <ele>315</ele>
        <time>2014-12-28T09:05:57Z</time>
      </trkpt>
      <trkpt lat="47.49326" lon="6.77064">
        <ele>315</ele>
        <time>2014-12-28T09:05:58Z</time>
      </trkpt>
      <trkpt lat="47.49327" lon="6.77067">
        <ele>315</ele>
        <time>2014-12-28T09:05:59Z</time>
      </trkpt>
      <trkpt lat="47.49329" lon="6.7707">
        <ele>315</ele>
        <time>2014-12-28T09:06:00Z</time>
      </trkpt>
      <trkpt lat="47.49331" lon="6.77074">
        <ele>315</ele>
        <time>2014-12-28T09:06:01Z</time>
      </trkpt>
      <trkpt lat="47.49332" lon="6.77076">
        <ele>315</ele>
        <time>2014-12-28T09:06:02Z</time>
      </trkpt>
      <trkpt lat="47.49334" lon="6.77079">
        <ele>315</ele>
        <time>2014-12-28T09:06:03Z</time>
      </trkpt>
      <trkpt lat="47.49337" lon="6.77081">
        <ele>315</ele>
        <time>2014-12-28T09:06:04Z</time>
      </trkpt>
      <trkpt lat="47.4934" lon="6.77083">
        <ele>315</ele>
        <time>2014-12-28T09:06:05Z</time>
      </trkpt>
      <trkpt lat="47.49343" lon="6.77085">
        <ele>315</ele>
        <time>2014-12-28T09:06:06Z</time>
      </trkpt>
      <trkpt lat="47.49346" lon="6.77086">
        <ele>315</ele>
        <time>2014-12-28T09:06:07Z</time>
      </trkpt>
      <trkpt lat="47.49349" lon="6.77089">
        <ele>315</ele>
        <time>2014-12-28T09:06:08Z</time>
      </trkpt>
      <trkpt lat="47.49352" lon="6.77092">
        <ele>315</ele>
        <time>2014-12-28T09:06:09Z</time>
      </trkpt>
      <trkpt lat="47.49354" lon="6.77094">
        <ele>315</ele>
        <time>2014-12-28T09:06:10Z</time>
      </trkpt>
      <trkpt lat="47.49357" lon="6.77097">
        <ele>315</ele>
        <time>2014-12-28T09:06:11Z</time>
      </trkpt>
      <trkpt lat="47.4936" lon="6.77099">
        <ele>315</ele>
        <time>2014-12-28T09:06:12Z</time>
      </trkpt>
      <trkpt lat="47.49363" lon="6.77102">
        <ele>316</ele>
        <time>2014-12-28T09:06:13Z</time>
      </trkpt>
      <trkpt lat="47.49366" lon="6.77105">
        <ele>316</ele>
        <time>2014-12-28T09:06:14Z</time>
      </trkpt>
      <trkpt lat="47.49369" lon="6.77108">
        <ele>316</ele>
        <time>2014-12-28T09:06:15Z</time>
      </trkpt>
      <trkpt lat="47.49372" lon="6.7711">
        <ele>316</ele>
        <time>2014-12-28T09:06:16Z</time>
      </trkpt>
      <trkpt lat="47.49375" lon="6.77112">
        <ele>316</ele>
        <time>2014-12-28T09:06:17Z</time>
      </trkpt>
      <trkpt lat="47.49378" lon="6.77114">
        <ele>317</ele>
        <time>2014-12-28T09:06:18Z</time>
      </trkpt>
      <trkpt lat="47.49381" lon="6.77116">
        <ele>317</ele>
        <time>2014-12-28T09:06:19Z</time>
      </trkpt>
      <trkpt lat="47.49384" lon="6.77118">
        <ele>317</ele>
        <time>2014-12-28T09:06:20Z</time>
      </trkpt>
      <trkpt lat="47.49388" lon="6.7712">
        <ele>317</ele>
        <time>2014-12-28T09:06:21Z</time>
      </trkpt>
      <trkpt lat="47.49391" lon="6.77123">
        <ele>317</ele>
        <time>2014-12-28T09:06:22Z</time>
      </trkpt>
      <trkpt lat="47.49394" lon="6.77125">
        <ele>317</ele>
        <time>2014-12-28T09:06:23Z</time>
      </trkpt>
      <trkpt lat="47.49396" lon="6.77128">
        <ele>318</ele>
        <time>2014-12-28T09:06:24Z</time>
      </trkpt>
      <trkpt lat="47.49399" lon="6.77131">
        <ele>318</ele>
        <time>2014-12-28T09:06:25Z</time>
      </trkpt>
      <trkpt lat="47.49401" lon="6.77135">
        <ele>318</ele>
        <time>2014-12-28T09:06:26Z</time>
      </trkpt>
      <trkpt lat="47.49404" lon="6.77139">
        <ele>318</ele>
        <time>2014-12-28T09:06:27Z</time>
      </trkpt>
      <trkpt lat="47.49406" lon="6.77144">
        <ele>317</ele>
        <time>2014-12-28T09:06:28Z</time>
      </trkpt>
      <trkpt lat="47.49409" lon="6.77148">
        <ele>317</ele>
        <time>2014-12-28T09:06:29Z</time>
      </trkpt>
      <trkpt lat="47.49412" lon="6.77151">
        <ele>317</ele>
        <time>2014-12-28T09:06:30Z</time>
      </trkpt>
      <trkpt lat="47.49418" lon="6.77155">
        <ele>318</ele>
        <time>2014-12-28T09:06:31Z</time>
      </trkpt>
      <trkpt lat="47.49422" lon="6.77157">
        <ele>318</ele>
        <time>2014-12-28T09:06:32Z</time>
      </trkpt>
      <trkpt lat="47.49427" lon="6.7716">
        <ele>318</ele>
        <time>2014-12-28T09:06:33Z</time>
      </trkpt>
      <trkpt lat="47.49432" lon="6.77164">
        <ele>318</ele>
        <time>2014-12-28T09:06:34Z</time>
      </trkpt>
      <trkpt lat="47.49436" lon="6.77168">
        <ele>317</ele>
        <time>2014-12-28T09:06:35Z</time>
      </trkpt>
      <trkpt lat="47.49471" lon="6.77197">
        <ele>316</ele>
        <time>2014-12-28T09:06:44Z</time>
      </trkpt>
      <trkpt lat="47.49475" lon="6.772">
        <ele>317</ele>
        <time>2014-12-28T09:06:45Z</time>
      </trkpt>
      <trkpt lat="47.49481" lon="6.772">
        <ele>317</ele>
        <time>2014-12-28T09:06:46Z</time>
      </trkpt>
      <trkpt lat="47.49485" lon="6.77202">
        <ele>317</ele>
        <time>2014-12-28T09:06:47Z</time>
      </trkpt>
      <trkpt lat="47.49492" lon="6.77206">
        <ele>317</ele>
        <time>2014-12-28T09:06:48Z</time>
      </trkpt>
      <trkpt lat="47.49497" lon="6.77208">
        <ele>316</ele>
        <time>2014-12-28T09:06:49Z</time>
      </trkpt>
      <trkpt lat="47.49503" lon="6.7721">
        <ele>317</ele>
        <time>2014-12-28T09:06:50Z</time>
      </trkpt>
      <trkpt lat="47.49511" lon="6.77207">
        <ele>317</ele>
        <time>2014-12-28T09:06:51Z</time>
      </trkpt>
      <trkpt lat="47.49516" lon="6.77207">
        <ele>317</ele>
        <time>2014-12-28T09:06:52Z</time>
      </trkpt>
      <trkpt lat="47.49521" lon="6.77209">
        <ele>317</ele>
        <time>2014-12-28T09:06:53Z</time>
      </trkpt>
      <trkpt lat="47.49526" lon="6.77211">
        <ele>317</ele>
        <time>2014-12-28T09:06:54Z</time>
      </trkpt>
      <trkpt lat="47.49532" lon="6.7721">
        <ele>317</ele>
        <time>2014-12-28T09:06:55Z</time>
      </trkpt>
      <trkpt lat="47.49537" lon="6.77212">
        <ele>317</ele>
        <time>2014-12-28T09:06:56Z</time>
      </trkpt>
      <trkpt lat="47.49542" lon="6.77213">
        <ele>317</ele>
        <time>2014-12-28T09:06:57Z</time>
      </trkpt>
      <trkpt lat="47.49548" lon="6.77215">
        <ele>317</ele>
        <time>2014-12-28T09:06:58Z</time>
      </trkpt>
      <trkpt lat="47.49553" lon="6.77215">
        <ele>317</ele>
        <time>2014-12-28T09:06:59Z</time>
      </trkpt>
      <trkpt lat="47.49559" lon="6.77216">
        <ele>317</ele>
        <time>2014-12-28T09:07:00Z</time>
      </trkpt>
      <trkpt lat="47.49564" lon="6.77218">
        <ele>317</ele>
        <time>2014-12-28T09:07:01Z</time>
      </trkpt>
      <trkpt lat="47.4957" lon="6.7722">
        <ele>317</ele>
        <time>2014-12-28T09:07:02Z</time>
      </trkpt>
      <trkpt lat="47.49576" lon="6.77221">
        <ele>316</ele>
        <time>2014-12-28T09:07:03Z</time>
      </trkpt>
      <trkpt lat="47.49582" lon="6.77223">
        <ele>316</ele>
        <time>2014-12-28T09:07:04Z</time>
      </trkpt>
      <trkpt lat="47.49588" lon="6.77225">
        <ele>316</ele>
        <time>2014-12-28T09:07:05Z</time>
      </trkpt>
      <trkpt lat="47.49594" lon="6.77226">
        <ele>316</ele>
        <time>2014-12-28T09:07:06Z</time>
      </trkpt>
      <trkpt lat="47.496" lon="6.77228">
        <ele>316</ele>
        <time>2014-12-28T09:07:07Z</time>
      </trkpt>
      <trkpt lat="47.49605" lon="6.77232">
        <ele>316</ele>
        <time>2014-12-28T09:07:08Z</time>
      </trkpt>
      <trkpt lat="47.49612" lon="6.77233">
        <ele>317</ele>
        <time>2014-12-28T09:07:09Z</time>
      </trkpt>
      <trkpt lat="47.49618" lon="6.77236">
        <ele>317</ele>
        <time>2014-12-28T09:07:10Z</time>
      </trkpt>
      <trkpt lat="47.49624" lon="6.77238">
        <ele>317</ele>
        <time>2014-12-28T09:07:11Z</time>
      </trkpt>
      <trkpt lat="47.4963" lon="6.77241">
        <ele>317</ele>
        <time>2014-12-28T09:07:12Z</time>
      </trkpt>
      <trkpt lat="47.49636" lon="6.77244">
        <ele>317</ele>
        <time>2014-12-28T09:07:13Z</time>
      </trkpt>
      <trkpt lat="47.49642" lon="6.77247">
        <ele>317</ele>
        <time>2014-12-28T09:07:14Z</time>
      </trkpt>
      <trkpt lat="47.49648" lon="6.7725">
        <ele>315</ele>
        <time>2014-12-28T09:07:15Z</time>
      </trkpt>
      <trkpt lat="47.49654" lon="6.77252">
        <ele>315</ele>
        <time>2014-12-28T09:07:16Z</time>
      </trkpt>
      <trkpt lat="47.4966" lon="6.77256">
        <ele>315</ele>
        <time>2014-12-28T09:07:17Z</time>
      </trkpt>
      <trkpt lat="47.49665" lon="6.7726">
        <ele>315</ele>
        <time>2014-12-28T09:07:18Z</time>
      </trkpt>
      <trkpt lat="47.49671" lon="6.77263">
        <ele>315</ele>
        <time>2014-12-28T09:07:19Z</time>
      </trkpt>
      <trkpt lat="47.49677" lon="6.77267">
        <ele>315</ele>
        <time>2014-12-28T09:07:20Z</time>
      </trkpt>
      <trkpt lat="47.49682" lon="6.7727">
        <ele>315</ele>
        <time>2014-12-28T09:07:21Z</time>
      </trkpt>
      <trkpt lat="47.49688" lon="6.77273">
        <ele>315</ele>
        <time>2014-12-28T09:07:22Z</time>
      </trkpt>
      <trkpt lat="47.49694" lon="6.77277">
        <ele>315</ele>
        <time>2014-12-28T09:07:23Z</time>
      </trkpt>
      <trkpt lat="47.49699" lon="6.77281">
        <ele>315</ele>
        <time>2014-12-28T09:07:24Z</time>
      </trkpt>
      <trkpt lat="47.49705" lon="6.77284">
        <ele>315</ele>
        <time>2014-12-28T09:07:25Z</time>
      </trkpt>
      <trkpt lat="47.4971" lon="6.77288">
        <ele>315</ele>
        <time>2014-12-28T09:07:26Z</time>
      </trkpt>
      <trkpt lat="47.49716" lon="6.77291">
        <ele>315</ele>
        <time>2014-12-28T09:07:27Z</time>
      </trkpt>
      <trkpt lat="47.49722" lon="6.77292">
        <ele>315</ele>
        <time>2014-12-28T09:07:28Z</time>
      </trkpt>
      <trkpt lat="47.49728" lon="6.77294">
        <ele>315</ele>
        <time>2014-12-28T09:07:29Z</time>
      </trkpt>
      <trkpt lat="47.49734" lon="6.77297">
        <ele>315</ele>
        <time>2014-12-28T09:07:30Z</time>
      </trkpt>
      <trkpt lat="47.4974" lon="6.77299">
        <ele>314</ele>
        <time>2014-12-28T09:07:31Z</time>
      </trkpt>
      <trkpt lat="47.49745" lon="6.77302">
        <ele>314</ele>
        <time>2014-12-28T09:07:32Z</time>
      </trkpt>
      <trkpt lat="47.49749" lon="6.77304">
        <ele>314</ele>
        <time>2014-12-28T09:07:33Z</time>
      </trkpt>
      <trkpt lat="47.49752" lon="6.77306">
        <ele>314</ele>
        <time>2014-12-28T09:07:34Z</time>
      </trkpt>
      <trkpt lat="47.49754" lon="6.77307">
        <ele>314</ele>
        <time>2014-12-28T09:07:35Z</time>
      </trkpt>
      <trkpt lat="47.49756" lon="6.77309">
        <ele>314</ele>
        <time>2014-12-28T09:07:35Z</time>
      </trkpt>
      <trkpt lat="47.49786" lon="6.77316">
        <ele>315</ele>
        <time>2014-12-28T09:07:44Z</time>
      </trkpt>
      <trkpt lat="47.49791" lon="6.77316">
        <ele>316</ele>
        <time>2014-12-28T09:07:45Z</time>
      </trkpt>
      <trkpt lat="47.49796" lon="6.77315">
        <ele>316</ele>
        <time>2014-12-28T09:07:46Z</time>
      </trkpt>
      <trkpt lat="47.49802" lon="6.77313">
        <ele>316</ele>
        <time>2014-12-28T09:07:47Z</time>
      </trkpt>
      <trkpt lat="47.49808" lon="6.77312">
        <ele>316</ele>
        <time>2014-12-28T09:07:48Z</time>
      </trkpt>
      <trkpt lat="47.49813" lon="6.77313">
        <ele>315</ele>
        <time>2014-12-28T09:07:49Z</time>
      </trkpt>
      <trkpt lat="47.49819" lon="6.7731">
        <ele>315</ele>
        <time>2014-12-28T09:07:50Z</time>
      </trkpt>
      <trkpt lat="47.49824" lon="6.77306">
        <ele>316</ele>
        <time>2014-12-28T09:07:51Z</time>
      </trkpt>
      <trkpt lat="47.49829" lon="6.77305">
        <ele>315</ele>
        <time>2014-12-28T09:07:52Z</time>
      </trkpt>
      <trkpt lat="47.49835" lon="6.77305">
        <ele>316</ele>
        <time>2014-12-28T09:07:53Z</time>
      </trkpt>
      <trkpt lat="47.4984" lon="6.77304">
        <ele>316</ele>
        <time>2014-12-28T09:07:54Z</time>
      </trkpt>
      <trkpt lat="47.49844" lon="6.77305">
        <ele>316</ele>
        <time>2014-12-28T09:07:55Z</time>
      </trkpt>
      <trkpt lat="47.4985" lon="6.77304">
        <ele>316</ele>
        <time>2014-12-28T09:07:56Z</time>
      </trkpt>
      <trkpt lat="47.49856" lon="6.77305">
        <ele>317</ele>
        <time>2014-12-28T09:07:57Z</time>
      </trkpt>
      <trkpt lat="47.49861" lon="6.77305">
        <ele>317</ele>
        <time>2014-12-28T09:07:58Z</time>
      </trkpt>
      <trkpt lat="47.49866" lon="6.77305">
        <ele>317</ele>
        <time>2014-12-28T09:07:59Z</time>
      </trkpt>
      <trkpt lat="47.49872" lon="6.77304">
        <ele>317</ele>
        <time>2014-12-28T09:08:00Z</time>
      </trkpt>
      <trkpt lat="47.49876" lon="6.77302">
        <ele>317</ele>
        <time>2014-12-28T09:08:01Z</time>
      </trkpt>
      <trkpt lat="47.49881" lon="6.77301">
        <ele>317</ele>
        <time>2014-12-28T09:08:02Z</time>
      </trkpt>
      <trkpt lat="47.49886" lon="6.77301">
        <ele>317</ele>
        <time>2014-12-28T09:08:03Z</time>
      </trkpt>
      <trkpt lat="47.49891" lon="6.77301">
        <ele>317</ele>
        <time>2014-12-28T09:08:04Z</time>
      </trkpt>
      <trkpt lat="47.49896" lon="6.77298">
        <ele>317</ele>
        <time>2014-12-28T09:08:05Z</time>
      </trkpt>
      <trkpt lat="47.49901" lon="6.77296">
        <ele>317</ele>
        <time>2014-12-28T09:08:06Z</time>
      </trkpt>
      <trkpt lat="47.49905" lon="6.77295">
        <ele>317</ele>
        <time>2014-12-28T09:08:07Z</time>
      </trkpt>
      <trkpt lat="47.4991" lon="6.77292">
        <ele>318</ele>
        <time>2014-12-28T09:08:08Z</time>
      </trkpt>
      <trkpt lat="47.49915" lon="6.7729">
        <ele>318</ele>
        <time>2014-12-28T09:08:09Z</time>
      </trkpt>
      <trkpt lat="47.49919" lon="6.77289">
        <ele>318</ele>
        <time>2014-12-28T09:08:10Z</time>
      </trkpt>
      <trkpt lat="47.49924" lon="6.77285">
        <ele>319</ele>
        <time>2014-12-28T09:08:11Z</time>
      </trkpt>
      <trkpt lat="47.49929" lon="6.77282">
        <ele>319</ele>
        <time>2014-12-28T09:08:12Z</time>
      </trkpt>
      <trkpt lat="47.49934" lon="6.7728">
        <ele>319</ele>
        <time>2014-12-28T09:08:13Z</time>
      </trkpt>
      <trkpt lat="47.49939" lon="6.77277">
        <ele>319</ele>
        <time>2014-12-28T09:08:14Z</time>
      </trkpt>
      <trkpt lat="47.49944" lon="6.77274">
        <ele>318</ele>
        <time>2014-12-28T09:08:15Z</time>
      </trkpt>
      <trkpt lat="47.4995" lon="6.77272">
        <ele>318</ele>
        <time>2014-12-28T09:08:16Z</time>
      </trkpt>
      <trkpt lat="47.49955" lon="6.7727">
        <ele>317</ele>
        <time>2014-12-28T09:08:17Z</time>
      </trkpt>
      <trkpt lat="47.49959" lon="6.77268">
        <ele>317</ele>
        <time>2014-12-28T09:08:18Z</time>
      </trkpt>
      <trkpt lat="47.49964" lon="6.77265">
        <ele>316</ele>
        <time>2014-12-28T09:08:19Z</time>
      </trkpt>
      <trkpt lat="47.49969" lon="6.77263">
        <ele>316</ele>
        <time>2014-12-28T09:08:20Z</time>
      </trkpt>
      <trkpt lat="47.49974" lon="6.77259">
        <ele>316</ele>
        <time>2014-12-28T09:08:21Z</time>
      </trkpt>
      <trkpt lat="47.49978" lon="6.77257">
        <ele>316</ele>
        <time>2014-12-28T09:08:22Z</time>
      </trkpt>
      <trkpt lat="47.49983" lon="6.77254">
        <ele>315</ele>
        <time>2014-12-28T09:08:23Z</time>
      </trkpt>
      <trkpt lat="47.49988" lon="6.77252">
        <ele>315</ele>
        <time>2014-12-28T09:08:24Z</time>
      </trkpt>
      <trkpt lat="47.49993" lon="6.77249">
        <ele>316</ele>
        <time>2014-12-28T09:08:25Z</time>
      </trkpt>
      <trkpt lat="47.49997" lon="6.77247">
        <ele>316</ele>
        <time>2014-12-28T09:08:26Z</time>
      </trkpt>
      <trkpt lat="47.50001" lon="6.77245">
        <ele>316</ele>
        <time>2014-12-28T09:08:27Z</time>
      </trkpt>
      <trkpt lat="47.50005" lon="6.77243">
        <ele>316</ele>
        <time>2014-12-28T09:08:28Z</time>
      </trkpt>
      <trkpt lat="47.50008" lon="6.77241">
        <ele>317</ele>
        <time>2014-12-28T09:08:29Z</time>
      </trkpt>
      <trkpt lat="47.50011" lon="6.7724">
        <ele>318</ele>
        <time>2014-12-28T09:08:30Z</time>
      </trkpt>
      <trkpt lat="47.50014" lon="6.7724">
        <ele>319</ele>
        <time>2014-12-28T09:08:31Z</time>
      </trkpt>
      <trkpt lat="47.50017" lon="6.77238">
        <ele>320</ele>
        <time>2014-12-28T09:08:32Z</time>
      </trkpt>
      <trkpt lat="47.5002" lon="6.77236">
        <ele>321</ele>
        <time>2014-12-28T09:08:33Z</time>
      </trkpt>
      <trkpt lat="47.50023" lon="6.77233">
        <ele>323</ele>
        <time>2014-12-28T09:08:34Z</time>
      </trkpt>
      <trkpt lat="47.50026" lon="6.77231">
        <ele>324</ele>
        <time>2014-12-28T09:08:35Z</time>
      </trkpt>
      <trkpt lat="47.50064" lon="6.77223">
        <ele>322</ele>
        <time>2014-12-28T09:08:44Z</time>
      </trkpt>
      <trkpt lat="47.50069" lon="6.77224">
        <ele>321</ele>
        <time>2014-12-28T09:08:45Z</time>
      </trkpt>
      <trkpt lat="47.50077" lon="6.77217">
        <ele>322</ele>
        <time>2014-12-28T09:08:46Z</time>
      </trkpt>
      <trkpt lat="47.50082" lon="6.77215">
        <ele>323</ele>
        <time>2014-12-28T09:08:47Z</time>
      </trkpt>
      <trkpt lat="47.50086" lon="6.77214">
        <ele>323</ele>
        <time>2014-12-28T09:08:48Z</time>
      </trkpt>
      <trkpt lat="47.5009" lon="6.77211">
        <ele>324</ele>
        <time>2014-12-28T09:08:49Z</time>
      </trkpt>
      <trkpt lat="47.50094" lon="6.77209">
        <ele>325</ele>
        <time>2014-12-28T09:08:50Z</time>
      </trkpt>
      <trkpt lat="47.50099" lon="6.77207">
        <ele>326</ele>
        <time>2014-12-28T09:08:51Z</time>
      </trkpt>
      <trkpt lat="47.50104" lon="6.77206">
        <ele>326</ele>
        <time>2014-12-28T09:08:52Z</time>
      </trkpt>
      <trkpt lat="47.50109" lon="6.77205">
        <ele>325</ele>
        <time>2014-12-28T09:08:53Z</time>
      </trkpt>
      <trkpt lat="47.50115" lon="6.77205">
        <ele>324</ele>
        <time>2014-12-28T09:08:54Z</time>
      </trkpt>
      <trkpt lat="47.5012" lon="6.77205">
        <ele>323</ele>
        <time>2014-12-28T09:08:55Z</time>
      </trkpt>
      <trkpt lat="47.50126" lon="6.77206">
        <ele>322</ele>
        <time>2014-12-28T09:08:56Z</time>
      </trkpt>
      <trkpt lat="47.50132" lon="6.77206">
        <ele>322</ele>
        <time>2014-12-28T09:08:57Z</time>
      </trkpt>
      <trkpt lat="47.50138" lon="6.77207">
        <ele>321</ele>
        <time>2014-12-28T09:08:58Z</time>
      </trkpt>
      <trkpt lat="47.50145" lon="6.77209">
        <ele>320</ele>
        <time>2014-12-28T09:08:59Z</time>
      </trkpt>
      <trkpt lat="47.5015" lon="6.77212">
        <ele>319</ele>
        <time>2014-12-28T09:09:00Z</time>
      </trkpt>
      <trkpt lat="47.50155" lon="6.77216">
        <ele>317</ele>
        <time>2014-12-28T09:09:01Z</time>
      </trkpt>
      <trkpt lat="47.50159" lon="6.77221">
        <ele>316</ele>
        <time>2014-12-28T09:09:02Z</time>
      </trkpt>
      <trkpt lat="47.50164" lon="6.77225">
        <ele>315</ele>
        <time>2014-12-28T09:09:03Z</time>
      </trkpt>
      <trkpt lat="47.5017" lon="6.77229">
        <ele>314</ele>
        <time>2014-12-28T09:09:04Z</time>
      </trkpt>
      <trkpt lat="47.50174" lon="6.77235">
        <ele>313</ele>
        <time>2014-12-28T09:09:05Z</time>
      </trkpt>
      <trkpt lat="47.50179" lon="6.77239">
        <ele>313</ele>
        <time>2014-12-28T09:09:06Z</time>
      </trkpt>
      <trkpt lat="47.50184" lon="6.77243">
        <ele>314</ele>
        <time>2014-12-28T09:09:07Z</time>
      </trkpt>
      <trkpt lat="47.50188" lon="6.77247">
        <ele>314</ele>
        <time>2014-12-28T09:09:08Z</time>
      </trkpt>
      <trkpt lat="47.50193" lon="6.77252">
        <ele>312</ele>
        <time>2014-12-28T09:09:09Z</time>
      </trkpt>
      <trkpt lat="47.50198" lon="6.77255">
        <ele>312</ele>
        <time>2014-12-28T09:09:10Z</time>
      </trkpt>
      <trkpt lat="47.50202" lon="6.77259">
        <ele>312</ele>
        <time>2014-12-28T09:09:11Z</time>
      </trkpt>
      <trkpt lat="47.50206" lon="6.77263">
        <ele>313</ele>
        <time>2014-12-28T09:09:12Z</time>
      </trkpt>
      <trkpt lat="47.50211" lon="6.77266">
        <ele>313</ele>
        <time>2014-12-28T09:09:13Z</time>
      </trkpt>
      <trkpt lat="47.50216" lon="6.7727">
        <ele>313</ele>
        <time>2014-12-28T09:09:14Z</time>
      </trkpt>
      <trkpt lat="47.50221" lon="6.77273">
        <ele>313</ele>
        <time>2014-12-28T09:09:15Z</time>
      </trkpt>
      <trkpt lat="47.50226" lon="6.77277">
        <ele>313</ele>
        <time>2014-12-28T09:09:16Z</time>
      </trkpt>
      <trkpt lat="47.50231" lon="6.77281">
        <ele>313</ele>
        <time>2014-12-28T09:09:17Z</time>
      </trkpt>
      <trkpt lat="47.50235" lon="6.77284">
        <ele>313</ele>
        <time>2014-12-28T09:09:18Z</time>
      </trkpt>
      <trkpt lat="47.5024" lon="6.77287">
        <ele>313</ele>
        <time>2014-12-28T09:09:19Z</time>
      </trkpt>
      <trkpt lat="47.50245" lon="6.77291">
        <ele>313</ele>
        <time>2014-12-28T09:09:20Z</time>
      </trkpt>
      <trkpt lat="47.5025" lon="6.77294">
        <ele>313</ele>
        <time>2014-12-28T09:09:21Z</time>
      </trkpt>
      <trkpt lat="47.50254" lon="6.77298">
        <ele>312</ele>
        <time>2014-12-28T09:09:22Z</time>
      </trkpt>
      <trkpt lat="47.50258" lon="6.77302">
        <ele>312</ele>
        <time>2014-12-28T09:09:23Z</time>
      </trkpt>
      <trkpt lat="47.50264" lon="6.77306">
        <ele>312</ele>
        <time>2014-12-28T09:09:24Z</time>
      </trkpt>
      <trkpt lat="47.50268" lon="6.7731">
        <ele>312</ele>
        <time>2014-12-28T09:09:25Z</time>
      </trkpt>
      <trkpt lat="47.50273" lon="6.77313">
        <ele>312</ele>
        <time>2014-12-28T09:09:26Z</time>
      </trkpt>
      <trkpt lat="47.50278" lon="6.77317">
        <ele>312</ele>
        <time>2014-12-28T09:09:27Z</time>
      </trkpt>
      <trkpt lat="47.50283" lon="6.77321">
        <ele>312</ele>
        <time>2014-12-28T09:09:28Z</time>
      </trkpt>
      <trkpt lat="47.50287" lon="6.77324">
        <ele>312</ele>
        <time>2014-12-28T09:09:29Z</time>
      </trkpt>
      <trkpt lat="47.50292" lon="6.77328">
        <ele>312</ele>
        <time>2014-12-28T09:09:30Z</time>
      </trkpt>
      <trkpt lat="47.50297" lon="6.77331">
        <ele>312</ele>
        <time>2014-12-28T09:09:31Z</time>
      </trkpt>
      <trkpt lat="47.50301" lon="6.77335">
        <ele>311</ele>
        <time>2014-12-28T09:09:32Z</time>
      </trkpt>
      <trkpt lat="47.50306" lon="6.7734">
        <ele>311</ele>
        <time>2014-12-28T09:09:33Z</time>
      </trkpt>
      <trkpt lat="47.5031" lon="6.77344">
        <ele>311</ele>
        <time>2014-12-28T09:09:34Z</time>
      </trkpt>
      <trkpt lat="47.50314" lon="6.77348">
        <ele>311</ele>
        <time>2014-12-28T09:09:35Z</time>
      </trkpt>
      <trkpt lat="47.50356" lon="6.77382">
        <ele>311</ele>
        <time>2014-12-28T09:09:44Z</time>
      </trkpt>
      <trkpt lat="47.5036" lon="6.77386">
        <ele>311</ele>
        <time>2014-12-28T09:09:45Z</time>
      </trkpt>
      <trkpt lat="47.50365" lon="6.7739">
        <ele>311</ele>
        <time>2014-12-28T09:09:46Z</time>
      </trkpt>
      <trkpt lat="47.50371" lon="6.77394">
        <ele>311</ele>
        <time>2014-12-28T09:09:47Z</time>
      </trkpt>
      <trkpt lat="47.50373" lon="6.77399">
        <ele>311</ele>
        <time>2014-12-28T09:09:48Z</time>
      </trkpt>
      <trkpt lat="47.50376" lon="6.77404">
        <ele>311</ele>
        <time>2014-12-28T09:09:48Z</time>
      </trkpt>
      <trkpt lat="47.50382" lon="6.77407">
        <ele>311</ele>
        <time>2014-12-28T09:09:50Z</time>
      </trkpt>
      <trkpt lat="47.50387" lon="6.7741">
        <ele>311</ele>
        <time>2014-12-28T09:09:51Z</time>
      </trkpt>
      <trkpt lat="47.50391" lon="6.77415">
        <ele>311</ele>
        <time>2014-12-28T09:09:52Z</time>
      </trkpt>
      <trkpt lat="47.50395" lon="6.77419">
        <ele>311</ele>
        <time>2014-12-28T09:09:53Z</time>
      </trkpt>
      <trkpt lat="47.50398" lon="6.77423">
        <ele>311</ele>
        <time>2014-12-28T09:09:54Z</time>
      </trkpt>
      <trkpt lat="47.50401" lon="6.77427">
        <ele>311</ele>
        <time>2014-12-28T09:09:55Z</time>
      </trkpt>
      <trkpt lat="47.50404" lon="6.7743">
        <ele>311</ele>
        <time>2014-12-28T09:09:56Z</time>
      </trkpt>
      <trkpt lat="47.50407" lon="6.77433">
        <ele>311</ele>
        <time>2014-12-28T09:09:57Z</time>
      </trkpt>
      <trkpt lat="47.5041" lon="6.77436">
        <ele>311</ele>
        <time>2014-12-28T09:09:58Z</time>
      </trkpt>
      <trkpt lat="47.50414" lon="6.77437">
        <ele>311</ele>
        <time>2014-12-28T09:09:59Z</time>
      </trkpt>
      <trkpt lat="47.50418" lon="6.7744">
        <ele>311</ele>
        <time>2014-12-28T09:10:00Z</time>
      </trkpt>
      <trkpt lat="47.50421" lon="6.77442">
        <ele>311</ele>
        <time>2014-12-28T09:10:01Z</time>
      </trkpt>
      <trkpt lat="47.50424" lon="6.77445">
        <ele>311</ele>
        <time>2014-12-28T09:10:02Z</time>
      </trkpt>
      <trkpt lat="47.50427" lon="6.77447">
        <ele>311</ele>
        <time>2014-12-28T09:10:03Z</time>
      </trkpt>
      <trkpt lat="47.5043" lon="6.7745">
        <ele>311</ele>
        <time>2014-12-28T09:10:04Z</time>
      </trkpt>
      <trkpt lat="47.50433" lon="6.77453">
        <ele>311</ele>
        <time>2014-12-28T09:10:05Z</time>
      </trkpt>
      <trkpt lat="47.50436" lon="6.77456">
        <ele>311</ele>
        <time>2014-12-28T09:10:06Z</time>
      </trkpt>
      <trkpt lat="47.50438" lon="6.77458">
        <ele>311</ele>
        <time>2014-12-28T09:10:07Z</time>
      </trkpt>
      <trkpt lat="47.50441" lon="6.77461">
        <ele>311</ele>
        <time>2014-12-28T09:10:08Z</time>
      </trkpt>
      <trkpt lat="47.50443" lon="6.77464">
        <ele>311</ele>
        <time>2014-12-28T09:10:09Z</time>
      </trkpt>
      <trkpt lat="47.50446" lon="6.77466">
        <ele>311</ele>
        <time>2014-12-28T09:10:10Z</time>
      </trkpt>
      <trkpt lat="47.50449" lon="6.77469">
        <ele>312</ele>
        <time>2014-12-28T09:10:11Z</time>
      </trkpt>
      <trkpt lat="47.50452" lon="6.77472">
        <ele>312</ele>
        <time>2014-12-28T09:10:12Z</time>
      </trkpt>
      <trkpt lat="47.50455" lon="6.77475">
        <ele>312</ele>
        <time>2014-12-28T09:10:13Z</time>
      </trkpt>
      <trkpt lat="47.50459" lon="6.77477">
        <ele>312</ele>
        <time>2014-12-28T09:10:14Z</time>
      </trkpt>
      <trkpt lat="47.50463" lon="6.7748">
        <ele>312</ele>
        <time>2014-12-28T09:10:15Z</time>
      </trkpt>
      <trkpt lat="47.50467" lon="6.77483">
        <ele>312</ele>
        <time>2014-12-28T09:10:16Z</time>
      </trkpt>
      <trkpt lat="47.5047" lon="6.77487">
        <ele>313</ele>
        <time>2014-12-28T09:10:17Z</time>
      </trkpt>
      <trkpt lat="47.50474" lon="6.7749">
        <ele>313</ele>
        <time>2014-12-28T09:10:18Z</time>
      </trkpt>
      <trkpt lat="47.50476" lon="6.77493">
        <ele>313</ele>
        <time>2014-12-28T09:10:19Z</time>
      </trkpt>
      <trkpt lat="47.5048" lon="6.77496">
        <ele>313</ele>
        <time>2014-12-28T09:10:20Z</time>
      </trkpt>
      <trkpt lat="47.50484" lon="6.775">
        <ele>313</ele>
        <time>2014-12-28T09:10:21Z</time>
      </trkpt>
      <trkpt lat="47.50491" lon="6.77505">
        <ele>313</ele>
        <time>2014-12-28T09:10:22Z</time>
      </trkpt>
      <trkpt lat="47.50497" lon="6.77508">
        <ele>313</ele>
        <time>2014-12-28T09:10:23Z</time>
      </trkpt>
      <trkpt lat="47.50501" lon="6.77511">
        <ele>313</ele>
        <time>2014-12-28T09:10:24Z</time>
      </trkpt>
      <trkpt lat="47.50505" lon="6.77515">
        <ele>313</ele>
        <time>2014-12-28T09:10:25Z</time>
      </trkpt>
      <trkpt lat="47.5051" lon="6.77519">
        <ele>313</ele>
        <time>2014-12-28T09:10:26Z</time>
      </trkpt>
      <trkpt lat="47.50515" lon="6.77522">
        <ele>313</ele>
        <time>2014-12-28T09:10:27Z</time>
      </trkpt>
      <trkpt lat="47.5052" lon="6.77524">
        <ele>313</ele>
        <time>2014-12-28T09:10:28Z</time>
      </trkpt>
      <trkpt lat="47.50525" lon="6.77527">
        <ele>313</ele>
        <time>2014-12-28T09:10:29Z</time>
      </trkpt>
      <trkpt lat="47.5053" lon="6.77531">
        <ele>313</ele>
        <time>2014-12-28T09:10:30Z</time>
      </trkpt>
      <trkpt lat="47.50535" lon="6.77534">
        <ele>313</ele>
        <time>2014-12-28T09:10:31Z</time>
      </trkpt>
      <trkpt lat="47.50539" lon="6.77539">
        <ele>313</ele>
        <time>2014-12-28T09:10:32Z</time>
      </trkpt>
      <trkpt lat="47.50543" lon="6.77543">
        <ele>313</ele>
        <time>2014-12-28T09:10:33Z</time>
      </trkpt>
      <trkpt lat="47.50547" lon="6.77547">
        <ele>313</ele>
        <time>2014-12-28T09:10:34Z</time>
      </trkpt>
      <trkpt lat="47.5055" lon="6.77551">
        <ele>313</ele>
        <time>2014-12-28T09:10:35Z</time>
      </trkpt>
      <trkpt lat="47.50551" lon="6.77553">
        <ele>313</ele>
        <time>2014-12-28T09:10:36Z</time>
      </trkpt>
      <trkpt lat="47.50557" lon="6.77562">
        <ele>313</ele>
        <time>2014-12-28T09:10:39Z</time>
      </trkpt>
      <trkpt lat="47.50561" lon="6.77562">
        <ele>313</ele>
        <time>2014-12-28T09:10:40Z</time>
      </trkpt>
      <trkpt lat="47.50565" lon="6.77563">
        <ele>313</ele>
        <time>2014-12-28T09:10:41Z</time>
      </trkpt>
      <trkpt lat="47.50568" lon="6.77562">
        <ele>313</ele>
        <time>2014-12-28T09:10:42Z</time>
      </trkpt>
      <trkpt lat="47.50571" lon="6.77563">
        <ele>313</ele>
        <time>2014-12-28T09:10:43Z</time>
      </trkpt>
      <trkpt lat="47.50574" lon="6.77562">
        <ele>313</ele>
        <time>2014-12-28T09:10:44Z</time>
      </trkpt>
      <trkpt lat="47.50577" lon="6.77562">
        <ele>313</ele>
        <time>2014-12-28T09:10:44Z</time>
      </trkpt>
      <trkpt lat="47.50579" lon="6.77559">
        <ele>313</ele>
        <time>2014-12-28T09:10:46Z</time>
      </trkpt>
      <trkpt lat="47.50582" lon="6.77557">
        <ele>313</ele>
        <time>2014-12-28T09:10:46Z</time>
      </trkpt>
      <trkpt lat="47.50583" lon="6.77554">
        <ele>313</ele>
        <time>2014-12-28T09:10:48Z</time>
      </trkpt>
      <trkpt lat="47.50586" lon="6.7755">
        <ele>313</ele>
        <time>2014-12-28T09:10:49Z</time>
      </trkpt>
      <trkpt lat="47.50589" lon="6.77548">
        <ele>313</ele>
        <time>2014-12-28T09:10:50Z</time>
      </trkpt>
      <trkpt lat="47.50592" lon="6.77548">
        <ele>313</ele>
        <time>2014-12-28T09:10:51Z</time>
      </trkpt>
      <trkpt lat="47.50595" lon="6.77547">
        <ele>313</ele>
        <time>2014-12-28T09:10:52Z</time>
      </trkpt>
      <trkpt lat="47.50599" lon="6.77547">
        <ele>313</ele>
        <time>2014-12-28T09:10:53Z</time>
      </trkpt>
      <trkpt lat="47.50602" lon="6.77547">
        <ele>313</ele>
        <time>2014-12-28T09:10:54Z</time>
      </trkpt>
      <trkpt lat="47.50606" lon="6.77546">
        <ele>313</ele>
        <time>2014-12-28T09:10:55Z</time>
      </trkpt>
      <trkpt lat="47.5061" lon="6.77545">
        <ele>313</ele>
        <time>2014-12-28T09:10:56Z</time>
      </trkpt>
      <trkpt lat="47.50613" lon="6.77545">
        <ele>313</ele>
        <time>2014-12-28T09:10:57Z</time>
      </trkpt>
      <trkpt lat="47.50616" lon="6.77545">
        <ele>313</ele>
        <time>2014-12-28T09:10:58Z</time>
      </trkpt>
      <trkpt lat="47.5062" lon="6.77544">
        <ele>313</ele>
        <time>2014-12-28T09:10:59Z</time>
      </trkpt>
      <trkpt lat="47.50623" lon="6.77544">
        <ele>313</ele>
        <time>2014-12-28T09:11:00Z</time>
      </trkpt>
      <trkpt lat="47.50626" lon="6.77544">
        <ele>312</ele>
        <time>2014-12-28T09:11:01Z</time>
      </trkpt>
      <trkpt lat="47.50629" lon="6.77544">
        <ele>312</ele>
        <time>2014-12-28T09:11:02Z</time>
      </trkpt>
      <trkpt lat="47.50632" lon="6.77545">
        <ele>312</ele>
        <time>2014-12-28T09:11:03Z</time>
      </trkpt>
      <trkpt lat="47.50636" lon="6.77547">
        <ele>312</ele>
        <time>2014-12-28T09:11:04Z</time>
      </trkpt>
      <trkpt lat="47.5064" lon="6.77548">
        <ele>312</ele>
        <time>2014-12-28T09:11:05Z</time>
      </trkpt>
      <trkpt lat="47.50644" lon="6.77549">
        <ele>312</ele>
        <time>2014-12-28T09:11:06Z</time>
      </trkpt>
      <trkpt lat="47.50652" lon="6.77548">
        <ele>312</ele>
        <time>2014-12-28T09:11:07Z</time>
      </trkpt>
      <trkpt lat="47.50656" lon="6.77548">
        <ele>312</ele>
        <time>2014-12-28T09:11:08Z</time>
      </trkpt>
      <trkpt lat="47.50661" lon="6.77548">
        <ele>312</ele>
        <time>2014-12-28T09:11:09Z</time>
      </trkpt>
      <trkpt lat="47.50665" lon="6.77547">
        <ele>312</ele>
        <time>2014-12-28T09:11:10Z</time>
      </trkpt>
      <trkpt lat="47.5067" lon="6.77547">
        <ele>312</ele>
        <time>2014-12-28T09:11:11Z</time>
      </trkpt>
      <trkpt lat="47.50675" lon="6.77545">
        <ele>312</ele>
        <time>2014-12-28T09:11:12Z</time>
      </trkpt>
      <trkpt lat="47.50679" lon="6.77545">
        <ele>312</ele>
        <time>2014-12-28T09:11:13Z</time>
      </trkpt>
      <trkpt lat="47.50682" lon="6.77546">
        <ele>312</ele>
        <time>2014-12-28T09:11:14Z</time>
      </trkpt>
      <trkpt lat="47.50688" lon="6.77546">
        <ele>312</ele>
        <time>2014-12-28T09:11:15Z</time>
      </trkpt>
      <trkpt lat="47.50694" lon="6.77546">
        <ele>312</ele>
        <time>2014-12-28T09:11:16Z</time>
      </trkpt>
      <trkpt lat="47.50699" lon="6.77547">
        <ele>312</ele>
        <time>2014-12-28T09:11:17Z</time>
      </trkpt>
      <trkpt lat="47.50703" lon="6.77548">
        <ele>312</ele>
        <time>2014-12-28T09:11:18Z</time>
      </trkpt>
      <trkpt lat="47.50707" lon="6.7755">
        <ele>312</ele>
        <time>2014-12-28T09:11:19Z</time>
      </trkpt>
      <trkpt lat="47.50713" lon="6.77552">
        <ele>312</ele>
        <time>2014-12-28T09:11:20Z</time>
      </trkpt>
      <trkpt lat="47.50717" lon="6.77554">
        <ele>312</ele>
        <time>2014-12-28T09:11:21Z</time>
      </trkpt>
      <trkpt lat="47.50722" lon="6.77556">
        <ele>313</ele>
        <time>2014-12-28T09:11:22Z</time>
      </trkpt>
      <trkpt lat="47.50726" lon="6.77558">
        <ele>313</ele>
        <time>2014-12-28T09:11:23Z</time>
      </trkpt>
      <trkpt lat="47.5073" lon="6.77562">
        <ele>313</ele>
        <time>2014-12-28T09:11:24Z</time>
      </trkpt>
      <trkpt lat="47.50735" lon="6.77563">
        <ele>313</ele>
        <time>2014-12-28T09:11:25Z</time>
      </trkpt>
      <trkpt lat="47.50738" lon="6.77566">
        <ele>313</ele>
        <time>2014-12-28T09:11:26Z</time>
      </trkpt>
      <trkpt lat="47.50743" lon="6.77569">
        <ele>313</ele>
        <time>2014-12-28T09:11:27Z</time>
      </trkpt>
      <trkpt lat="47.50748" lon="6.77571">
        <ele>313</ele>
        <time>2014-12-28T09:11:28Z</time>
      </trkpt>
      <trkpt lat="47.50751" lon="6.77575">
        <ele>313</ele>
        <time>2014-12-28T09:11:29Z</time>
      </trkpt>
      <trkpt lat="47.50755" lon="6.77578">
        <ele>313</ele>
        <time>2014-12-28T09:11:30Z</time>
      </trkpt>
      <trkpt lat="47.50758" lon="6.77579">
        <ele>313</ele>
        <time>2014-12-28T09:11:31Z</time>
      </trkpt>
      <trkpt lat="47.50761" lon="6.77581">
        <ele>313</ele>
        <time>2014-12-28T09:11:32Z</time>
      </trkpt>
      <trkpt lat="47.50765" lon="6.77584">
        <ele>313</ele>
        <time>2014-12-28T09:11:33Z</time>
      </trkpt>
      <trkpt lat="47.50769" lon="6.77587">
        <ele>313</ele>
        <time>2014-12-28T09:11:34Z</time>
      </trkpt>
      <trkpt lat="47.50773" lon="6.77589">
        <ele>313</ele>
        <time>2014-12-28T09:11:35Z</time>
      </trkpt>
      <trkpt lat="47.50805" lon="6.77612">
        <ele>315</ele>
        <time>2014-12-28T09:11:42Z</time>
      </trkpt>
      <trkpt lat="47.50814" lon="6.77621">
        <ele>316</ele>
        <time>2014-12-28T09:11:45Z</time>
      </trkpt>
      <trkpt lat="47.50818" lon="6.77625">
        <ele>316</ele>
        <time>2014-12-28T09:11:46Z</time>
      </trkpt>
      <trkpt lat="47.50823" lon="6.77631">
        <ele>316</ele>
        <time>2014-12-28T09:11:47Z</time>
      </trkpt>
      <trkpt lat="47.50827" lon="6.77635">
        <ele>316</ele>
        <time>2014-12-28T09:11:48Z</time>
      </trkpt>
      <trkpt lat="47.50831" lon="6.77639">
        <ele>316</ele>
        <time>2014-12-28T09:11:49Z</time>
      </trkpt>
      <trkpt lat="47.50836" lon="6.77644">
        <ele>316</ele>
        <time>2014-12-28T09:11:50Z</time>
      </trkpt>
      <trkpt lat="47.50839" lon="6.77649">
        <ele>316</ele>
        <time>2014-12-28T09:11:51Z</time>
      </trkpt>
      <trkpt lat="47.50845" lon="6.77655">
        <ele>316</ele>
        <time>2014-12-28T09:11:52Z</time>
      </trkpt>
      <trkpt lat="47.50848" lon="6.77661">
        <ele>316</ele>
        <time>2014-12-28T09:11:53Z</time>
      </trkpt>
      <trkpt lat="47.50852" lon="6.77666">
        <ele>316</ele>
        <time>2014-12-28T09:11:54Z</time>
      </trkpt>
      <trkpt lat="47.50855" lon="6.77671">
        <ele>316</ele>
        <time>2014-12-28T09:11:55Z</time>
      </trkpt>
      <trkpt lat="47.50859" lon="6.77676">
        <ele>316</ele>
        <time>2014-12-28T09:11:56Z</time>
      </trkpt>
      <trkpt lat="47.50863" lon="6.77681">
        <ele>316</ele>
        <time>2014-12-28T09:11:57Z</time>
      </trkpt>
      <trkpt lat="47.50865" lon="6.77686">
        <ele>316</ele>
        <time>2014-12-28T09:11:58Z</time>
      </trkpt>
      <trkpt lat="47.50869" lon="6.77691">
        <ele>316</ele>
        <time>2014-12-28T09:11:59Z</time>
      </trkpt>
      <trkpt lat="47.50872" lon="6.77695">
        <ele>315</ele>
        <time>2014-12-28T09:12:00Z</time>
      </trkpt>
      <trkpt lat="47.50874" lon="6.777">
        <ele>315</ele>
        <time>2014-12-28T09:12:01Z</time>
      </trkpt>
      <trkpt lat="47.50878" lon="6.77704">
        <ele>315</ele>
        <time>2014-12-28T09:12:02Z</time>
      </trkpt>
      <trkpt lat="47.5088" lon="6.77708">
        <ele>315</ele>
        <time>2014-12-28T09:12:03Z</time>
      </trkpt>
      <trkpt lat="47.50882" lon="6.77712">
        <ele>315</ele>
        <time>2014-12-28T09:12:04Z</time>
      </trkpt>
      <trkpt lat="47.50884" lon="6.77714">
        <ele>315</ele>
        <time>2014-12-28T09:12:05Z</time>
      </trkpt>
      <trkpt lat="47.50887" lon="6.77716">
        <ele>315</ele>
        <time>2014-12-28T09:12:06Z</time>
      </trkpt>
      <trkpt lat="47.50889" lon="6.77716">
        <ele>315</ele>
        <time>2014-12-28T09:12:07Z</time>
      </trkpt>
      <trkpt lat="47.50893" lon="6.77716">
        <ele>315</ele>
        <time>2014-12-28T09:12:08Z</time>
      </trkpt>
      <trkpt lat="47.50896" lon="6.77715">
        <ele>315</ele>
        <time>2014-12-28T09:12:09Z</time>
      </trkpt>
      <trkpt lat="47.509" lon="6.77715">
        <ele>315</ele>
        <time>2014-12-28T09:12:10Z</time>
      </trkpt>
      <trkpt lat="47.50904" lon="6.77713">
        <ele>315</ele>
        <time>2014-12-28T09:12:11Z</time>
      </trkpt>
      <trkpt lat="47.50908" lon="6.77712">
        <ele>315</ele>
        <time>2014-12-28T09:12:12Z</time>
      </trkpt>
      <trkpt lat="47.50912" lon="6.77711">
        <ele>315</ele>
        <time>2014-12-28T09:12:13Z</time>
      </trkpt>
      <trkpt lat="47.50916" lon="6.7771">
        <ele>315</ele>
        <time>2014-12-28T09:12:14Z</time>
      </trkpt>
      <trkpt lat="47.50919" lon="6.7771">
        <ele>315</ele>
        <time>2014-12-28T09:12:15Z</time>
      </trkpt>
      <trkpt lat="47.50923" lon="6.7771">
        <ele>315</ele>
        <time>2014-12-28T09:12:16Z</time>
      </trkpt>
      <trkpt lat="47.50926" lon="6.7771">
        <ele>315</ele>
        <time>2014-12-28T09:12:17Z</time>
      </trkpt>
      <trkpt lat="47.50929" lon="6.77711">
        <ele>315</ele>
        <time>2014-12-28T09:12:18Z</time>
      </trkpt>
      <trkpt lat="47.50931" lon="6.7771">
        <ele>315</ele>
        <time>2014-12-28T09:12:19Z</time>
      </trkpt>
      <trkpt lat="47.50936" lon="6.77709">
        <ele>315</ele>
        <time>2014-12-28T09:12:21Z</time>
      </trkpt>
      <trkpt lat="47.50937" lon="6.77709">
        <ele>315</ele>
        <time>2014-12-28T09:12:22Z</time>
      </trkpt>
      <trkpt lat="47.50941" lon="6.77708">
        <ele>315</ele>
        <time>2014-12-28T09:12:25Z</time>
      </trkpt>
      <trkpt lat="47.50943" lon="6.77709">
        <ele>315</ele>
        <time>2014-12-28T09:12:26Z</time>
      </trkpt>
      <trkpt lat="47.50947" lon="6.77707">
        <ele>315</ele>
        <time>2014-12-28T09:12:28Z</time>
      </trkpt>
      <trkpt lat="47.50949" lon="6.77706">
        <ele>315</ele>
        <time>2014-12-28T09:12:29Z</time>
      </trkpt>
      <trkpt lat="47.50951" lon="6.77703">
        <ele>315</ele>
        <time>2014-12-28T09:12:30Z</time>
      </trkpt>
      <trkpt lat="47.50953" lon="6.777">
        <ele>315</ele>
        <time>2014-12-28T09:12:31Z</time>
      </trkpt>
      <trkpt lat="47.50955" lon="6.77697">
        <ele>315</ele>
        <time>2014-12-28T09:12:32Z</time>
      </trkpt>
      <trkpt lat="47.50957" lon="6.77695">
        <ele>315</ele>
        <time>2014-12-28T09:12:33Z</time>
      </trkpt>
      <trkpt lat="47.50961" lon="6.77694">
        <ele>315</ele>
        <time>2014-12-28T09:12:35Z</time>
      </trkpt>
      <trkpt lat="47.50974" lon="6.77709">
        <ele>315</ele>
        <time>2014-12-28T09:12:44Z</time>
      </trkpt>
      <trkpt lat="47.50976" lon="6.7771">
        <ele>315</ele>
        <time>2014-12-28T09:12:45Z</time>
      </trkpt>
      <trkpt lat="47.50979" lon="6.77712">
        <ele>315</ele>
        <time>2014-12-28T09:12:46Z</time>
      </trkpt>
      <trkpt lat="47.50982" lon="6.77715">
        <ele>315</ele>
        <time>2014-12-28T09:12:47Z</time>
      </trkpt>
      <trkpt lat="47.50985" lon="6.77717">
        <ele>315</ele>
        <time>2014-12-28T09:12:48Z</time>
      </trkpt>
      <trkpt lat="47.50989" lon="6.7772">
        <ele>315</ele>
        <time>2014-12-28T09:12:49Z</time>
      </trkpt>
      <trkpt lat="47.50992" lon="6.77723">
        <ele>315</ele>
        <time>2014-12-28T09:12:50Z</time>
      </trkpt>
      <trkpt lat="47.50995" lon="6.77725">
        <ele>315</ele>
        <time>2014-12-28T09:12:51Z</time>
      </trkpt>
      <trkpt lat="47.50999" lon="6.77727">
        <ele>315</ele>
        <time>2014-12-28T09:12:52Z</time>
      </trkpt>
      <trkpt lat="47.51002" lon="6.7773">
        <ele>315</ele>
        <time>2014-12-28T09:12:53Z</time>
      </trkpt>
      <trkpt lat="47.51005" lon="6.77732">
        <ele>315</ele>
        <time>2014-12-28T09:12:54Z</time>
      </trkpt>
      <trkpt lat="47.51008" lon="6.77735">
        <ele>316</ele>
        <time>2014-12-28T09:12:55Z</time>
      </trkpt>
      <trkpt lat="47.51011" lon="6.77737">
        <ele>316</ele>
        <time>2014-12-28T09:12:56Z</time>
      </trkpt>
      <trkpt lat="47.51014" lon="6.7774">
        <ele>316</ele>
        <time>2014-12-28T09:12:57Z</time>
      </trkpt>
      <trkpt lat="47.51017" lon="6.77743">
        <ele>316</ele>
        <time>2014-12-28T09:12:58Z</time>
      </trkpt>
      <trkpt lat="47.5102" lon="6.77745">
        <ele>316</ele>
        <time>2014-12-28T09:12:59Z</time>
      </trkpt>
      <trkpt lat="47.51023" lon="6.77748">
        <ele>316</ele>
        <time>2014-12-28T09:13:00Z</time>
      </trkpt>
      <trkpt lat="47.51026" lon="6.7775">
        <ele>316</ele>
        <time>2014-12-28T09:13:01Z</time>
      </trkpt>
      <trkpt lat="47.51028" lon="6.77751">
        <ele>316</ele>
        <time>2014-12-28T09:13:02Z</time>
      </trkpt>
      <trkpt lat="47.5103" lon="6.77753">
        <ele>316</ele>
        <time>2014-12-28T09:13:03Z</time>
      </trkpt>
      <trkpt lat="47.51032" lon="6.77755">
        <ele>317</ele>
        <time>2014-12-28T09:13:04Z</time>
      </trkpt>
      <trkpt lat="47.51035" lon="6.77758">
        <ele>317</ele>
        <time>2014-12-28T09:13:06Z</time>
      </trkpt>
      <trkpt lat="47.51037" lon="6.77759">
        <ele>317</ele>
        <time>2014-12-28T09:13:07Z</time>
      </trkpt>
      <trkpt lat="47.51039" lon="6.77761">
        <ele>317</ele>
        <time>2014-12-28T09:13:08Z</time>
      </trkpt>
      <trkpt lat="47.51041" lon="6.77762">
        <ele>317</ele>
        <time>2014-12-28T09:13:09Z</time>
      </trkpt>
      <trkpt lat="47.51045" lon="6.77765">
        <ele>318</ele>
        <time>2014-12-28T09:13:11Z</time>
      </trkpt>
      <trkpt lat="47.51046" lon="6.77766">
        <ele>318</ele>
        <time>2014-12-28T09:13:12Z</time>
      </trkpt>
      <trkpt lat="47.51049" lon="6.7777">
        <ele>318</ele>
        <time>2014-12-28T09:13:15Z</time>
      </trkpt>
      <trkpt lat="47.51051" lon="6.77772">
        <ele>318</ele>
        <time>2014-12-28T09:13:16Z</time>
      </trkpt>
      <trkpt lat="47.51053" lon="6.77775">
        <ele>318</ele>
        <time>2014-12-28T09:13:17Z</time>
      </trkpt>
      <trkpt lat="47.51056" lon="6.77777">
        <ele>318</ele>
        <time>2014-12-28T09:13:18Z</time>
      </trkpt>
      <trkpt lat="47.51059" lon="6.77778">
        <ele>318</ele>
        <time>2014-12-28T09:13:19Z</time>
      </trkpt>
      <trkpt lat="47.51062" lon="6.77779">
        <ele>319</ele>
        <time>2014-12-28T09:13:20Z</time>
      </trkpt>
      <trkpt lat="47.51066" lon="6.7778">
        <ele>319</ele>
        <time>2014-12-28T09:13:21Z</time>
      </trkpt>
      <trkpt lat="47.51069" lon="6.77781">
        <ele>319</ele>
        <time>2014-12-28T09:13:22Z</time>
      </trkpt>
      <trkpt lat="47.51072" lon="6.77782">
        <ele>319</ele>
        <time>2014-12-28T09:13:23Z</time>
      </trkpt>
      <trkpt lat="47.51075" lon="6.77783">
        <ele>319</ele>
        <time>2014-12-28T09:13:24Z</time>
      </trkpt>
      <trkpt lat="47.51077" lon="6.77784">
        <ele>319</ele>
        <time>2014-12-28T09:13:25Z</time>
      </trkpt>
      <trkpt lat="47.5108" lon="6.77785">
        <ele>319</ele>
        <time>2014-12-28T09:13:26Z</time>
      </trkpt>
      <trkpt lat="47.51082" lon="6.77787">
        <ele>319</ele>
        <time>2014-12-28T09:13:27Z</time>
      </trkpt>
      <trkpt lat="47.51085" lon="6.77788">
        <ele>320</ele>
        <time>2014-12-28T09:13:28Z</time>
      </trkpt>
      <trkpt lat="47.51088" lon="6.77788">
        <ele>320</ele>
        <time>2014-12-28T09:13:29Z</time>
      </trkpt>
      <trkpt lat="47.51092" lon="6.77789">
        <ele>320</ele>
        <time>2014-12-28T09:13:30Z</time>
      </trkpt>
      <trkpt lat="47.51095" lon="6.7779">
        <ele>320</ele>
        <time>2014-12-28T09:13:31Z</time>
      </trkpt>
      <trkpt lat="47.51099" lon="6.77791">
        <ele>320</ele>
        <time>2014-12-28T09:13:32Z</time>
      </trkpt>
      <trkpt lat="47.51102" lon="6.77792">
        <ele>320</ele>
        <time>2014-12-28T09:13:33Z</time>
      </trkpt>
      <trkpt lat="47.51106" lon="6.77794">
        <ele>320</ele>
        <time>2014-12-28T09:13:34Z</time>
      </trkpt>
      <trkpt lat="47.51109" lon="6.77794">
        <ele>321</ele>
        <time>2014-12-28T09:13:35Z</time>
      </trkpt>
      <trkpt lat="47.51138" lon="6.77796">
        <ele>323</ele>
        <time>2014-12-28T09:13:44Z</time>
      </trkpt>
      <trkpt lat="47.51141" lon="6.77796">
        <ele>323</ele>
        <time>2014-12-28T09:13:45Z</time>
      </trkpt>
      <trkpt lat="47.51144" lon="6.77796">
        <ele>323</ele>
        <time>2014-12-28T09:13:46Z</time>
      </trkpt>
      <trkpt lat="47.51147" lon="6.77796">
        <ele>323</ele>
        <time>2014-12-28T09:13:47Z</time>
      </trkpt>
      <trkpt lat="47.5115" lon="6.77796">
        <ele>323</ele>
        <time>2014-12-28T09:13:48Z</time>
      </trkpt>
      <trkpt lat="47.51154" lon="6.77796">
        <ele>323</ele>
        <time>2014-12-28T09:13:49Z</time>
      </trkpt>
      <trkpt lat="47.51157" lon="6.77797">
        <ele>324</ele>
        <time>2014-12-28T09:13:50Z</time>
      </trkpt>
      <trkpt lat="47.51161" lon="6.77798">
        <ele>324</ele>
        <time>2014-12-28T09:13:51Z</time>
      </trkpt>
      <trkpt lat="47.51164" lon="6.77798">
        <ele>324</ele>
        <time>2014-12-28T09:13:52Z</time>
      </trkpt>
      <trkpt lat="47.51167" lon="6.77799">
        <ele>325</ele>
        <time>2014-12-28T09:13:53Z</time>
      </trkpt>
      <trkpt lat="47.5117" lon="6.778">
        <ele>325</ele>
        <time>2014-12-28T09:13:54Z</time>
      </trkpt>
      <trkpt lat="47.51173" lon="6.778">
        <ele>325</ele>
        <time>2014-12-28T09:13:55Z</time>
      </trkpt>
      <trkpt lat="47.51176" lon="6.778">
        <ele>325</ele>
        <time>2014-12-28T09:13:56Z</time>
      </trkpt>
      <trkpt lat="47.51179" lon="6.778">
        <ele>325</ele>
        <time>2014-12-28T09:13:57Z</time>
      </trkpt>
      <trkpt lat="47.51182" lon="6.77799">
        <ele>325</ele>
        <time>2014-12-28T09:13:58Z</time>
      </trkpt>
      <trkpt lat="47.51185" lon="6.77799">
        <ele>325</ele>
        <time>2014-12-28T09:13:59Z</time>
      </trkpt>
      <trkpt lat="47.51188" lon="6.77798">
        <ele>325</ele>
        <time>2014-12-28T09:14:00Z</time>
      </trkpt>
      <trkpt lat="47.51191" lon="6.77798">
        <ele>325</ele>
        <time>2014-12-28T09:14:01Z</time>
      </trkpt>
      <trkpt lat="47.51194" lon="6.77797">
        <ele>325</ele>
        <time>2014-12-28T09:14:02Z</time>
      </trkpt>
      <trkpt lat="47.51197" lon="6.77797">
        <ele>326</ele>
        <time>2014-12-28T09:14:03Z</time>
      </trkpt>
      <trkpt lat="47.512" lon="6.77797">
        <ele>326</ele>
        <time>2014-12-28T09:14:04Z</time>
      </trkpt>
      <trkpt lat="47.51203" lon="6.77797">
        <ele>326</ele>
        <time>2014-12-28T09:14:05Z</time>
      </trkpt>
      <trkpt lat="47.51205" lon="6.77797">
        <ele>326</ele>
        <time>2014-12-28T09:14:05Z</time>
      </trkpt>
      <trkpt lat="47.51208" lon="6.77797">
        <ele>327</ele>
        <time>2014-12-28T09:14:07Z</time>
      </trkpt>
      <trkpt lat="47.51211" lon="6.77797">
        <ele>327</ele>
        <time>2014-12-28T09:14:08Z</time>
      </trkpt>
      <trkpt lat="47.51214" lon="6.77796">
        <ele>327</ele>
        <time>2014-12-28T09:14:09Z</time>
      </trkpt>
      <trkpt lat="47.51217" lon="6.77795">
        <ele>327</ele>
        <time>2014-12-28T09:14:10Z</time>
      </trkpt>
      <trkpt lat="47.51219" lon="6.77794">
        <ele>327</ele>
        <time>2014-12-28T09:14:11Z</time>
      </trkpt>
      <trkpt lat="47.51222" lon="6.77792">
        <ele>328</ele>
        <time>2014-12-28T09:14:12Z</time>
      </trkpt>
      <trkpt lat="47.51225" lon="6.77791">
        <ele>328</ele>
        <time>2014-12-28T09:14:13Z</time>
      </trkpt>
      <trkpt lat="47.51227" lon="6.7779">
        <ele>328</ele>
        <time>2014-12-28T09:14:14Z</time>
      </trkpt>
      <trkpt lat="47.51229" lon="6.7779">
        <ele>328</ele>
        <time>2014-12-28T09:14:15Z</time>
      </trkpt>
      <trkpt lat="47.51232" lon="6.7779">
        <ele>328</ele>
        <time>2014-12-28T09:14:16Z</time>
      </trkpt>
      <trkpt lat="47.51235" lon="6.77792">
        <ele>328</ele>
        <time>2014-12-28T09:14:18Z</time>
      </trkpt>
      <trkpt lat="47.51237" lon="6.77793">
        <ele>328</ele>
        <time>2014-12-28T09:14:19Z</time>
      </trkpt>
      <trkpt lat="47.51241" lon="6.77796">
        <ele>329</ele>
        <time>2014-12-28T09:14:21Z</time>
      </trkpt>
      <trkpt lat="47.51243" lon="6.77797">
        <ele>329</ele>
        <time>2014-12-28T09:14:22Z</time>
      </trkpt>
      <trkpt lat="47.51245" lon="6.77798">
        <ele>329</ele>
        <time>2014-12-28T09:14:23Z</time>
      </trkpt>
      <trkpt lat="47.51248" lon="6.77798">
        <ele>329</ele>
        <time>2014-12-28T09:14:24Z</time>
      </trkpt>
      <trkpt lat="47.51252" lon="6.77797">
        <ele>330</ele>
        <time>2014-12-28T09:14:26Z</time>
      </trkpt>
      <trkpt lat="47.51254" lon="6.77797">
        <ele>330</ele>
        <time>2014-12-28T09:14:27Z</time>
      </trkpt>
      <trkpt lat="47.51256" lon="6.77796">
        <ele>330</ele>
        <time>2014-12-28T09:14:28Z</time>
      </trkpt>
      <trkpt lat="47.51259" lon="6.77796">
        <ele>331</ele>
        <time>2014-12-28T09:14:29Z</time>
      </trkpt>
      <trkpt lat="47.51262" lon="6.77795">
        <ele>331</ele>
        <time>2014-12-28T09:14:30Z</time>
      </trkpt>
      <trkpt lat="47.51264" lon="6.77795">
        <ele>331</ele>
        <time>2014-12-28T09:14:31Z</time>
      </trkpt>
      <trkpt lat="47.51267" lon="6.77795">
        <ele>331</ele>
        <time>2014-12-28T09:14:32Z</time>
      </trkpt>
      <trkpt lat="47.5127" lon="6.77795">
        <ele>332</ele>
        <time>2014-12-28T09:14:33Z</time>
      </trkpt>
      <trkpt lat="47.51272" lon="6.77794">
        <ele>332</ele>
        <time>2014-12-28T09:14:34Z</time>
      </trkpt>
      <trkpt lat="47.51274" lon="6.77794">
        <ele>332</ele>
        <time>2014-12-28T09:14:35Z</time>
      </trkpt>
      <trkpt lat="47.51277" lon="6.77793">
        <ele>333</ele>
        <time>2014-12-28T09:14:36Z</time>
      </trkpt>
      <trkpt lat="47.51294" lon="6.77789">
        <ele>336</ele>
        <time>2014-12-28T09:14:44Z</time>
      </trkpt>
      <trkpt lat="47.51297" lon="6.77789">
        <ele>337</ele>
        <time>2014-12-28T09:14:46Z</time>
      </trkpt>
      <trkpt lat="47.513" lon="6.77788">
        <ele>337</ele>
        <time>2014-12-28T09:14:47Z</time>
      </trkpt>
      <trkpt lat="47.51302" lon="6.77788">
        <ele>338</ele>
        <time>2014-12-28T09:14:48Z</time>
      </trkpt>
      <trkpt lat="47.51304" lon="6.77787">
        <ele>338</ele>
        <time>2014-12-28T09:14:49Z</time>
      </trkpt>
      <trkpt lat="47.51307" lon="6.77786">
        <ele>339</ele>
        <time>2014-12-28T09:14:50Z</time>
      </trkpt>
      <trkpt lat="47.51309" lon="6.77786">
        <ele>339</ele>
        <time>2014-12-28T09:14:51Z</time>
      </trkpt>
      <trkpt lat="47.51313" lon="6.77785">
        <ele>340</ele>
        <time>2014-12-28T09:14:52Z</time>
      </trkpt>
      <trkpt lat="47.51314" lon="6.77786">
        <ele>340</ele>
        <time>2014-12-28T09:14:54Z</time>
      </trkpt>
      <trkpt lat="47.51318" lon="6.77785">
        <ele>340</ele>
        <time>2014-12-28T09:14:56Z</time>
      </trkpt>
      <trkpt lat="47.5132" lon="6.77785">
        <ele>341</ele>
        <time>2014-12-28T09:14:57Z</time>
      </trkpt>
      <trkpt lat="47.51324" lon="6.77784">
        <ele>341</ele>
        <time>2014-12-28T09:14:59Z</time>
      </trkpt>
      <trkpt lat="47.51327" lon="6.77784">
        <ele>341</ele>
        <time>2014-12-28T09:15:00Z</time>
      </trkpt>
      <trkpt lat="47.5133" lon="6.77785">
        <ele>341</ele>
        <time>2014-12-28T09:15:02Z</time>
      </trkpt>
      <trkpt lat="47.51332" lon="6.77785">
        <ele>341</ele>
        <time>2014-12-28T09:15:03Z</time>
      </trkpt>
      <trkpt lat="47.51336" lon="6.77787">
        <ele>344</ele>
        <time>2014-12-28T09:15:05Z</time>
      </trkpt>
      <trkpt lat="47.51338" lon="6.77787">
        <ele>344</ele>
        <time>2014-12-28T09:15:06Z</time>
      </trkpt>
      <trkpt lat="47.51342" lon="6.77786">
        <ele>344</ele>
        <time>2014-12-28T09:15:08Z</time>
      </trkpt>
      <trkpt lat="47.51344" lon="6.77785">
        <ele>344</ele>
        <time>2014-12-28T09:15:09Z</time>
      </trkpt>
      <trkpt lat="47.51348" lon="6.77782">
        <ele>345</ele>
        <time>2014-12-28T09:15:11Z</time>
      </trkpt>
      <trkpt lat="47.5135" lon="6.77781">
        <ele>345</ele>
        <time>2014-12-28T09:15:12Z</time>
      </trkpt>
      <trkpt lat="47.51353" lon="6.77778">
        <ele>345</ele>
        <time>2014-12-28T09:15:14Z</time>
      </trkpt>
      <trkpt lat="47.51355" lon="6.77776">
        <ele>346</ele>
        <time>2014-12-28T09:15:15Z</time>
      </trkpt>
      <trkpt lat="47.51359" lon="6.77773">
        <ele>346</ele>
        <time>2014-12-28T09:15:17Z</time>
      </trkpt>
      <trkpt lat="47.51361" lon="6.77771">
        <ele>347</ele>
        <time>2014-12-28T09:15:18Z</time>
      </trkpt>
      <trkpt lat="47.51364" lon="6.77769">
        <ele>347</ele>
        <time>2014-12-28T09:15:20Z</time>
      </trkpt>
      <trkpt lat="47.51365" lon="6.77768">
        <ele>348</ele>
        <time>2014-12-28T09:15:21Z</time>
      </trkpt>
      <trkpt lat="47.51369" lon="6.77766">
        <ele>349</ele>
        <time>2014-12-28T09:15:23Z</time>
      </trkpt>
      <trkpt lat="47.5137" lon="6.77765">
        <ele>349</ele>
        <time>2014-12-28T09:15:24Z</time>
      </trkpt>
      <trkpt lat="47.51374" lon="6.77762">
        <ele>350</ele>
        <time>2014-12-28T09:15:26Z</time>
      </trkpt>
      <trkpt lat="47.51376" lon="6.77761">
        <ele>351</ele>
        <time>2014-12-28T09:15:27Z</time>
      </trkpt>
      <trkpt lat="47.5138" lon="6.77759">
        <ele>352</ele>
        <time>2014-12-28T09:15:29Z</time>
      </trkpt>
      <trkpt lat="47.51382" lon="6.77758">
        <ele>352</ele>
        <time>2014-12-28T09:15:30Z</time>
      </trkpt>
      <trkpt lat="47.51386" lon="6.77755">
        <ele>353</ele>
        <time>2014-12-28T09:15:32Z</time>
      </trkpt>
      <trkpt lat="47.51387" lon="6.77753">
        <ele>353</ele>
        <time>2014-12-28T09:15:33Z</time>
      </trkpt>
      <trkpt lat="47.51391" lon="6.77751">
        <ele>354</ele>
        <time>2014-12-28T09:15:35Z</time>
      </trkpt>
      <trkpt lat="47.51392" lon="6.7775">
        <ele>354</ele>
        <time>2014-12-28T09:15:36Z</time>
      </trkpt>
      <trkpt lat="47.51403" lon="6.77748">
        <ele>356</ele>
        <time>2014-12-28T09:15:44Z</time>
      </trkpt>
      <trkpt lat="47.51406" lon="6.77747">
        <ele>356</ele>
        <time>2014-12-28T09:15:46Z</time>
      </trkpt>
      <trkpt lat="47.51409" lon="6.77745">
        <ele>356</ele>
        <time>2014-12-28T09:15:47Z</time>
      </trkpt>
      <trkpt lat="47.51413" lon="6.77744">
        <ele>356</ele>
        <time>2014-12-28T09:15:49Z</time>
      </trkpt>
      <trkpt lat="47.51415" lon="6.77744">
        <ele>356</ele>
        <time>2014-12-28T09:15:50Z</time>
      </trkpt>
      <trkpt lat="47.51419" lon="6.77744">
        <ele>356</ele>
        <time>2014-12-28T09:15:52Z</time>
      </trkpt>
      <trkpt lat="47.51421" lon="6.77743">
        <ele>356</ele>
        <time>2014-12-28T09:15:53Z</time>
      </trkpt>
      <trkpt lat="47.51425" lon="6.7774">
        <ele>356</ele>
        <time>2014-12-28T09:15:55Z</time>
      </trkpt>
      <trkpt lat="47.51426" lon="6.7774">
        <ele>357</ele>
        <time>2014-12-28T09:15:56Z</time>
      </trkpt>
      <trkpt lat="47.5143" lon="6.77738">
        <ele>358</ele>
        <time>2014-12-28T09:15:58Z</time>
      </trkpt>
      <trkpt lat="47.51432" lon="6.77738">
        <ele>358</ele>
        <time>2014-12-28T09:15:59Z</time>
      </trkpt>
      <trkpt lat="47.51436" lon="6.77736">
        <ele>359</ele>
        <time>2014-12-28T09:16:01Z</time>
      </trkpt>
      <trkpt lat="47.51438" lon="6.77736">
        <ele>360</ele>
        <time>2014-12-28T09:16:02Z</time>
      </trkpt>
      <trkpt lat="47.51441" lon="6.77737">
        <ele>360</ele>
        <time>2014-12-28T09:16:04Z</time>
      </trkpt>
      <trkpt lat="47.51443" lon="6.77737">
        <ele>361</ele>
        <time>2014-12-28T09:16:05Z</time>
      </trkpt>
      <trkpt lat="47.51446" lon="6.77737">
        <ele>362</ele>
        <time>2014-12-28T09:16:07Z</time>
      </trkpt>
      <trkpt lat="47.51448" lon="6.77736">
        <ele>362</ele>
        <time>2014-12-28T09:16:08Z</time>
      </trkpt>
      <trkpt lat="47.51452" lon="6.77734">
        <ele>363</ele>
        <time>2014-12-28T09:16:10Z</time>
      </trkpt>
      <trkpt lat="47.51454" lon="6.77733">
        <ele>363</ele>
        <time>2014-12-28T09:16:11Z</time>
      </trkpt>
      <trkpt lat="47.51458" lon="6.77733">
        <ele>364</ele>
        <time>2014-12-28T09:16:13Z</time>
      </trkpt>
      <trkpt lat="47.5146" lon="6.77733">
        <ele>364</ele>
        <time>2014-12-28T09:16:14Z</time>
      </trkpt>
      <trkpt lat="47.51464" lon="6.77733">
        <ele>365</ele>
        <time>2014-12-28T09:16:16Z</time>
      </trkpt>
      <trkpt lat="47.51466" lon="6.77733">
        <ele>365</ele>
        <time>2014-12-28T09:16:17Z</time>
      </trkpt>
      <trkpt lat="47.51468" lon="6.77732">
        <ele>365</ele>
        <time>2014-12-28T09:16:18Z</time>
      </trkpt>
      <trkpt lat="47.51471" lon="6.77731">
        <ele>365</ele>
        <time>2014-12-28T09:16:19Z</time>
      </trkpt>
      <trkpt lat="47.51473" lon="6.77729">
        <ele>366</ele>
        <time>2014-12-28T09:16:20Z</time>
      </trkpt>
      <trkpt lat="47.51475" lon="6.77727">
        <ele>366</ele>
        <time>2014-12-28T09:16:21Z</time>
      </trkpt>
      <trkpt lat="47.51478" lon="6.77726">
        <ele>366</ele>
        <time>2014-12-28T09:16:23Z</time>
      </trkpt>
      <trkpt lat="47.5148" lon="6.77727">
        <ele>366</ele>
        <time>2014-12-28T09:16:24Z</time>
      </trkpt>
      <trkpt lat="47.51483" lon="6.7773">
        <ele>365</ele>
        <time>2014-12-28T09:16:26Z</time>
      </trkpt>
      <trkpt lat="47.51484" lon="6.77731">
        <ele>365</ele>
        <time>2014-12-28T09:16:27Z</time>
      </trkpt>
      <trkpt lat="47.51487" lon="6.77733">
        <ele>365</ele>
        <time>2014-12-28T09:16:29Z</time>
      </trkpt>
      <trkpt lat="47.51489" lon="6.77734">
        <ele>365</ele>
        <time>2014-12-28T09:16:30Z</time>
      </trkpt>
      <trkpt lat="47.51492" lon="6.77735">
        <ele>365</ele>
        <time>2014-12-28T09:16:32Z</time>
      </trkpt>
      <trkpt lat="47.51493" lon="6.77735">
        <ele>365</ele>
        <time>2014-12-28T09:16:33Z</time>
      </trkpt>
      <trkpt lat="47.51497" lon="6.77737">
        <ele>365</ele>
        <time>2014-12-28T09:16:35Z</time>
      </trkpt>
      <trkpt lat="47.51498" lon="6.77737">
        <ele>365</ele>
        <time>2014-12-28T09:16:36Z</time>
      </trkpt>
      <trkpt lat="47.51504" lon="6.77739">
        <ele>365</ele>
        <time>2014-12-28T09:16:44Z</time>
      </trkpt>
      <trkpt lat="47.51507" lon="6.7774">
        <ele>365</ele>
        <time>2014-12-28T09:16:46Z</time>
      </trkpt>
      <trkpt lat="47.5151" lon="6.77739">
        <ele>365</ele>
        <time>2014-12-28T09:16:47Z</time>
      </trkpt>
      <trkpt lat="47.51512" lon="6.77739">
        <ele>366</ele>
        <time>2014-12-28T09:16:48Z</time>
      </trkpt>
      <trkpt lat="47.51515" lon="6.77739">
        <ele>366</ele>
        <time>2014-12-28T09:16:49Z</time>
      </trkpt>
      <trkpt lat="47.51519" lon="6.77738">
        <ele>367</ele>
        <time>2014-12-28T09:16:51Z</time>
      </trkpt>
      <trkpt lat="47.51521" lon="6.77738">
        <ele>367</ele>
        <time>2014-12-28T09:16:52Z</time>
      </trkpt>
      <trkpt lat="47.51524" lon="6.77741">
        <ele>368</ele>
        <time>2014-12-28T09:16:54Z</time>
      </trkpt>
      <trkpt lat="47.51525" lon="6.77742">
        <ele>368</ele>
        <time>2014-12-28T09:16:55Z</time>
      </trkpt>
      <trkpt lat="47.51529" lon="6.77745">
        <ele>369</ele>
        <time>2014-12-28T09:16:57Z</time>
      </trkpt>
      <trkpt lat="47.51531" lon="6.77745">
        <ele>369</ele>
        <time>2014-12-28T09:16:58Z</time>
      </trkpt>
      <trkpt lat="47.51535" lon="6.77746">
        <ele>370</ele>
        <time>2014-12-28T09:17:00Z</time>
      </trkpt>
      <trkpt lat="47.51537" lon="6.77746">
        <ele>371</ele>
        <time>2014-12-28T09:17:01Z</time>
      </trkpt>
      <trkpt lat="47.5154" lon="6.77746">
        <ele>371</ele>
        <time>2014-12-28T09:17:02Z</time>
      </trkpt>
      <trkpt lat="47.51542" lon="6.77748">
        <ele>372</ele>
        <time>2014-12-28T09:17:03Z</time>
      </trkpt>
      <trkpt lat="47.51545" lon="6.77749">
        <ele>372</ele>
        <time>2014-12-28T09:17:04Z</time>
      </trkpt>
      <trkpt lat="47.51547" lon="6.7775">
        <ele>374</ele>
        <time>2014-12-28T09:17:04Z</time>
      </trkpt>
      <trkpt lat="47.51551" lon="6.77751">
        <ele>375</ele>
        <time>2014-12-28T09:17:07Z</time>
      </trkpt>
      <trkpt lat="47.51553" lon="6.77752">
        <ele>375</ele>
        <time>2014-12-28T09:17:08Z</time>
      </trkpt>
      <trkpt lat="47.51556" lon="6.77752">
        <ele>375</ele>
        <time>2014-12-28T09:17:09Z</time>
      </trkpt>
      <trkpt lat="47.51558" lon="6.77752">
        <ele>375</ele>
        <time>2014-12-28T09:17:10Z</time>
      </trkpt>
      <trkpt lat="47.5156" lon="6.77752">
        <ele>376</ele>
        <time>2014-12-28T09:17:11Z</time>
      </trkpt>
      <trkpt lat="47.51562" lon="6.77753">
        <ele>376</ele>
        <time>2014-12-28T09:17:12Z</time>
      </trkpt>
      <trkpt lat="47.51566" lon="6.77753">
        <ele>376</ele>
        <time>2014-12-28T09:17:14Z</time>
      </trkpt>
      <trkpt lat="47.51568" lon="6.77753">
        <ele>376</ele>
        <time>2014-12-28T09:17:15Z</time>
      </trkpt>
      <trkpt lat="47.51572" lon="6.77753">
        <ele>376</ele>
        <time>2014-12-28T09:17:17Z</time>
      </trkpt>
      <trkpt lat="47.51575" lon="6.77754">
        <ele>376</ele>
        <time>2014-12-28T09:17:18Z</time>
      </trkpt>
      <trkpt lat="47.51579" lon="6.77754">
        <ele>376</ele>
        <time>2014-12-28T09:17:20Z</time>
      </trkpt>
      <trkpt lat="47.5158" lon="6.77754">
        <ele>376</ele>
        <time>2014-12-28T09:17:21Z</time>
      </trkpt>
      <trkpt lat="47.51584" lon="6.77754">
        <ele>376</ele>
        <time>2014-12-28T09:17:23Z</time>
      </trkpt>
      <trkpt lat="47.51585" lon="6.77754">
        <ele>376</ele>
        <time>2014-12-28T09:17:24Z</time>
      </trkpt>
      <trkpt lat="47.51589" lon="6.77755">
        <ele>376</ele>
        <time>2014-12-28T09:17:26Z</time>
      </trkpt>
      <trkpt lat="47.51591" lon="6.77756">
        <ele>376</ele>
        <time>2014-12-28T09:17:27Z</time>
      </trkpt>
      <trkpt lat="47.51595" lon="6.77759">
        <ele>376</ele>
        <time>2014-12-28T09:17:29Z</time>
      </trkpt>
      <trkpt lat="47.51597" lon="6.7776">
        <ele>377</ele>
        <time>2014-12-28T09:17:30Z</time>
      </trkpt>
      <trkpt lat="47.516" lon="6.77762">
        <ele>377</ele>
        <time>2014-12-28T09:17:32Z</time>
      </trkpt>
      <trkpt lat="47.51602" lon="6.77763">
        <ele>377</ele>
        <time>2014-12-28T09:17:33Z</time>
      </trkpt>
      <trkpt lat="47.51605" lon="6.77763">
        <ele>378</ele>
        <time>2014-12-28T09:17:36Z</time>
      </trkpt>
      <trkpt lat="47.51615" lon="6.77767">
        <ele>380</ele>
        <time>2014-12-28T09:17:44Z</time>
      </trkpt>
      <trkpt lat="47.51619" lon="6.77768">
        <ele>380</ele>
        <time>2014-12-28T09:17:47Z</time>
      </trkpt>
      <trkpt lat="47.51621" lon="6.77768">
        <ele>381</ele>
        <time>2014-12-28T09:17:48Z</time>
      </trkpt>
      <trkpt lat="47.51625" lon="6.7777">
        <ele>381</ele>
        <time>2014-12-28T09:17:50Z</time>
      </trkpt>
      <trkpt lat="47.51627" lon="6.77771">
        <ele>381</ele>
        <time>2014-12-28T09:17:51Z</time>
      </trkpt>
      <trkpt lat="47.51632" lon="6.77772">
        <ele>382</ele>
        <time>2014-12-28T09:17:53Z</time>
      </trkpt>
      <trkpt lat="47.51634" lon="6.77772">
        <ele>382</ele>
        <time>2014-12-28T09:17:54Z</time>
      </trkpt>
      <trkpt lat="47.51638" lon="6.77773">
        <ele>382</ele>
        <time>2014-12-28T09:17:56Z</time>
      </trkpt>
      <trkpt lat="47.5164" lon="6.77773">
        <ele>382</ele>
        <time>2014-12-28T09:17:57Z</time>
      </trkpt>
      <trkpt lat="47.51644" lon="6.77775">
        <ele>382</ele>
        <time>2014-12-28T09:17:59Z</time>
      </trkpt>
      <trkpt lat="47.51645" lon="6.77776">
        <ele>383</ele>
        <time>2014-12-28T09:18:00Z</time>
      </trkpt>
      <trkpt lat="47.51649" lon="6.77777">
        <ele>383</ele>
        <time>2014-12-28T09:18:02Z</time>
      </trkpt>
      <trkpt lat="47.51651" lon="6.77777">
        <ele>383</ele>
        <time>2014-12-28T09:18:03Z</time>
      </trkpt>
      <trkpt lat="47.51655" lon="6.77778">
        <ele>383</ele>
        <time>2014-12-28T09:18:05Z</time>
      </trkpt>
      <trkpt lat="47.51657" lon="6.77779">
        <ele>383</ele>
        <time>2014-12-28T09:18:06Z</time>
      </trkpt>
      <trkpt lat="47.51661" lon="6.77781">
        <ele>383</ele>
        <time>2014-12-28T09:18:08Z</time>
      </trkpt>
      <trkpt lat="47.51663" lon="6.77781">
        <ele>383</ele>
        <time>2014-12-28T09:18:09Z</time>
      </trkpt>
      <trkpt lat="47.51665" lon="6.77782">
        <ele>383</ele>
        <time>2014-12-28T09:18:10Z</time>
      </trkpt>
      <trkpt lat="47.51667" lon="6.77783">
        <ele>384</ele>
        <time>2014-12-28T09:18:11Z</time>
      </trkpt>
      <trkpt lat="47.5167" lon="6.77784">
        <ele>384</ele>
        <time>2014-12-28T09:18:12Z</time>
      </trkpt>
      <trkpt lat="47.51672" lon="6.77785">
        <ele>384</ele>
        <time>2014-12-28T09:18:13Z</time>
      </trkpt>
      <trkpt lat="47.51675" lon="6.77785">
        <ele>384</ele>
        <time>2014-12-28T09:18:14Z</time>
      </trkpt>
      <trkpt lat="47.51677" lon="6.77785">
        <ele>384</ele>
        <time>2014-12-28T09:18:15Z</time>
      </trkpt>
      <trkpt lat="47.5168" lon="6.77785">
        <ele>384</ele>
        <time>2014-12-28T09:18:16Z</time>
      </trkpt>
      <trkpt lat="47.51682" lon="6.77785">
        <ele>384</ele>
        <time>2014-12-28T09:18:17Z</time>
      </trkpt>
      <trkpt lat="47.51686" lon="6.77782">
        <ele>384</ele>
        <time>2014-12-28T09:18:19Z</time>
      </trkpt>
      <trkpt lat="47.51688" lon="6.77781">
        <ele>384</ele>
        <time>2014-12-28T09:18:20Z</time>
      </trkpt>
      <trkpt lat="47.51691" lon="6.77777">
        <ele>384</ele>
        <time>2014-12-28T09:18:22Z</time>
      </trkpt>
      <trkpt lat="47.51693" lon="6.77775">
        <ele>384</ele>
        <time>2014-12-28T09:18:23Z</time>
      </trkpt>
      <trkpt lat="47.51695" lon="6.7777">
        <ele>384</ele>
        <time>2014-12-28T09:18:25Z</time>
      </trkpt>
      <trkpt lat="47.51696" lon="6.77767">
        <ele>384</ele>
        <time>2014-12-28T09:18:26Z</time>
      </trkpt>
      <trkpt lat="47.51697" lon="6.77763">
        <ele>384</ele>
        <time>2014-12-28T09:18:27Z</time>
      </trkpt>
      <trkpt lat="47.51698" lon="6.7776">
        <ele>384</ele>
        <time>2014-12-28T09:18:28Z</time>
      </trkpt>
      <trkpt lat="47.51699" lon="6.77757">
        <ele>385</ele>
        <time>2014-12-28T09:18:29Z</time>
      </trkpt>
      <trkpt lat="47.517" lon="6.77753">
        <ele>385</ele>
        <time>2014-12-28T09:18:30Z</time>
      </trkpt>
      <trkpt lat="47.517" lon="6.77749">
        <ele>385</ele>
        <time>2014-12-28T09:18:31Z</time>
      </trkpt>
      <trkpt lat="47.517" lon="6.77745">
        <ele>385</ele>
        <time>2014-12-28T09:18:32Z</time>
      </trkpt>
      <trkpt lat="47.517" lon="6.77741">
        <ele>385</ele>
        <time>2014-12-28T09:18:33Z</time>
      </trkpt>
      <trkpt lat="47.51699" lon="6.77737">
        <ele>385</ele>
        <time>2014-12-28T09:18:34Z</time>
      </trkpt>
      <trkpt lat="47.51699" lon="6.77733">
        <ele>386</ele>
        <time>2014-12-28T09:18:35Z</time>
      </trkpt>
      <trkpt lat="47.517" lon="6.77729">
        <ele>386</ele>
        <time>2014-12-28T09:18:36Z</time>
      </trkpt>
      <trkpt lat="47.517" lon="6.77718">
        <ele>386</ele>
        <time>2014-12-28T09:18:39Z</time>
      </trkpt>
      <trkpt lat="47.51701" lon="6.77714">
        <ele>386</ele>
        <time>2014-12-28T09:18:40Z</time>
      </trkpt>
      <trkpt lat="47.51701" lon="6.7771">
        <ele>386</ele>
        <time>2014-12-28T09:18:41Z</time>
      </trkpt>
      <trkpt lat="47.51702" lon="6.77707">
        <ele>386</ele>
        <time>2014-12-28T09:18:42Z</time>
      </trkpt>
      <trkpt lat="47.51702" lon="6.77704">
        <ele>387</ele>
        <time>2014-12-28T09:18:43Z</time>
      </trkpt>
      <trkpt lat="47.51703" lon="6.77699">
        <ele>387</ele>
        <time>2014-12-28T09:18:44Z</time>
      </trkpt>
      <trkpt lat="47.51703" lon="6.77696">
        <ele>387</ele>
        <time>2014-12-28T09:18:45Z</time>
      </trkpt>
      <trkpt lat="47.51703" lon="6.77692">
        <ele>387</ele>
        <time>2014-12-28T09:18:46Z</time>
      </trkpt>
      <trkpt lat="47.51704" lon="6.77689">
        <ele>387</ele>
        <time>2014-12-28T09:18:47Z</time>
      </trkpt>
      <trkpt lat="47.51705" lon="6.77683">
        <ele>387</ele>
        <time>2014-12-28T09:18:49Z</time>
      </trkpt>
      <trkpt lat="47.51706" lon="6.7768">
        <ele>387</ele>
        <time>2014-12-28T09:18:50Z</time>
      </trkpt>
      <trkpt lat="47.51707" lon="6.77674">
        <ele>388</ele>
        <time>2014-12-28T09:18:52Z</time>
      </trkpt>
      <trkpt lat="47.51707" lon="6.77671">
        <ele>388</ele>
        <time>2014-12-28T09:18:53Z</time>
      </trkpt>
      <trkpt lat="47.51708" lon="6.77667">
        <ele>388</ele>
        <time>2014-12-28T09:18:54Z</time>
      </trkpt>
      <trkpt lat="47.51709" lon="6.77664">
        <ele>389</ele>
        <time>2014-12-28T09:18:55Z</time>
      </trkpt>
      <trkpt lat="47.5171" lon="6.77661">
        <ele>389</ele>
        <time>2014-12-28T09:18:56Z</time>
      </trkpt>
      <trkpt lat="47.51711" lon="6.77658">
        <ele>389</ele>
        <time>2014-12-28T09:18:57Z</time>
      </trkpt>
      <trkpt lat="47.51711" lon="6.77654">
        <ele>389</ele>
        <time>2014-12-28T09:18:58Z</time>
      </trkpt>
      <trkpt lat="47.51712" lon="6.7765">
        <ele>389</ele>
        <time>2014-12-28T09:18:59Z</time>
      </trkpt>
      <trkpt lat="47.51714" lon="6.77647">
        <ele>389</ele>
        <time>2014-12-28T09:19:00Z</time>
      </trkpt>
      <trkpt lat="47.51715" lon="6.77643">
        <ele>389</ele>
        <time>2014-12-28T09:19:01Z</time>
      </trkpt>
      <trkpt lat="47.51717" lon="6.7764">
        <ele>390</ele>
        <time>2014-12-28T09:19:02Z</time>
      </trkpt>
      <trkpt lat="47.51718" lon="6.77636">
        <ele>390</ele>
        <time>2014-12-28T09:19:03Z</time>
      </trkpt>
      <trkpt lat="47.51718" lon="6.77633">
        <ele>390</ele>
        <time>2014-12-28T09:19:04Z</time>
      </trkpt>
      <trkpt lat="47.51718" lon="6.77629">
        <ele>390</ele>
        <time>2014-12-28T09:19:05Z</time>
      </trkpt>
      <trkpt lat="47.51718" lon="6.77626">
        <ele>390</ele>
        <time>2014-12-28T09:19:06Z</time>
      </trkpt>
      <trkpt lat="47.51719" lon="6.77623">
        <ele>390</ele>
        <time>2014-12-28T09:19:07Z</time>
      </trkpt>
      <trkpt lat="47.51719" lon="6.77616">
        <ele>390</ele>
        <time>2014-12-28T09:19:09Z</time>
      </trkpt>
      <trkpt lat="47.51719" lon="6.77613">
        <ele>390</ele>
        <time>2014-12-28T09:19:10Z</time>
      </trkpt>
      <trkpt lat="47.5172" lon="6.77606">
        <ele>390</ele>
        <time>2014-12-28T09:19:12Z</time>
      </trkpt>
      <trkpt lat="47.5172" lon="6.77603">
        <ele>390</ele>
        <time>2014-12-28T09:19:13Z</time>
      </trkpt>
      <trkpt lat="47.51721" lon="6.77596">
        <ele>390</ele>
        <time>2014-12-28T09:19:15Z</time>
      </trkpt>
      <trkpt lat="47.51721" lon="6.77593">
        <ele>390</ele>
        <time>2014-12-28T09:19:16Z</time>
      </trkpt>
      <trkpt lat="47.51721" lon="6.77588">
        <ele>390</ele>
        <time>2014-12-28T09:19:18Z</time>
      </trkpt>
      <trkpt lat="47.51721" lon="6.77585">
        <ele>390</ele>
        <time>2014-12-28T09:19:19Z</time>
      </trkpt>
      <trkpt lat="47.51721" lon="6.77581">
        <ele>390</ele>
        <time>2014-12-28T09:19:20Z</time>
      </trkpt>
      <trkpt lat="47.51722" lon="6.77578">
        <ele>390</ele>
        <time>2014-12-28T09:19:21Z</time>
      </trkpt>
      <trkpt lat="47.51722" lon="6.77572">
        <ele>390</ele>
        <time>2014-12-28T09:19:23Z</time>
      </trkpt>
      <trkpt lat="47.51723" lon="6.77568">
        <ele>390</ele>
        <time>2014-12-28T09:19:24Z</time>
      </trkpt>
      <trkpt lat="47.51723" lon="6.77565">
        <ele>390</ele>
        <time>2014-12-28T09:19:25Z</time>
      </trkpt>
      <trkpt lat="47.51723" lon="6.77561">
        <ele>390</ele>
        <time>2014-12-28T09:19:26Z</time>
      </trkpt>
      <trkpt lat="47.51723" lon="6.77556">
        <ele>390</ele>
        <time>2014-12-28T09:19:26Z</time>
      </trkpt>
      <trkpt lat="47.51725" lon="6.77551">
        <ele>390</ele>
        <time>2014-12-28T09:19:28Z</time>
      </trkpt>
      <trkpt lat="47.51726" lon="6.77546">
        <ele>390</ele>
        <time>2014-12-28T09:19:29Z</time>
      </trkpt>
      <trkpt lat="47.51727" lon="6.77542">
        <ele>390</ele>
        <time>2014-12-28T09:19:30Z</time>
      </trkpt>
      <trkpt lat="47.51728" lon="6.77538">
        <ele>390</ele>
        <time>2014-12-28T09:19:31Z</time>
      </trkpt>
      <trkpt lat="47.51729" lon="6.77533">
        <ele>390</ele>
        <time>2014-12-28T09:19:32Z</time>
      </trkpt>
      <trkpt lat="47.5173" lon="6.77529">
        <ele>390</ele>
        <time>2014-12-28T09:19:33Z</time>
      </trkpt>
      <trkpt lat="47.5173" lon="6.77524">
        <ele>390</ele>
        <time>2014-12-28T09:19:34Z</time>
      </trkpt>
      <trkpt lat="47.51731" lon="6.7752">
        <ele>390</ele>
        <time>2014-12-28T09:19:35Z</time>
      </trkpt>
      <trkpt lat="47.51731" lon="6.77516">
        <ele>390</ele>
        <time>2014-12-28T09:19:36Z</time>
      </trkpt>
      <trkpt lat="47.51732" lon="6.77504">
        <ele>390</ele>
        <time>2014-12-28T09:19:39Z</time>
      </trkpt>
      <trkpt lat="47.51733" lon="6.77499">
        <ele>389</ele>
        <time>2014-12-28T09:19:40Z</time>
      </trkpt>
      <trkpt lat="47.51734" lon="6.77494">
        <ele>389</ele>
        <time>2014-12-28T09:19:41Z</time>
      </trkpt>
      <trkpt lat="47.51735" lon="6.7749">
        <ele>389</ele>
        <time>2014-12-28T09:19:42Z</time>
      </trkpt>
      <trkpt lat="47.51737" lon="6.77486">
        <ele>389</ele>
        <time>2014-12-28T09:19:42Z</time>
      </trkpt>
      <trkpt lat="47.5174" lon="6.77483">
        <ele>389</ele>
        <time>2014-12-28T09:19:45Z</time>
      </trkpt>
      <trkpt lat="47.51742" lon="6.77482">
        <ele>389</ele>
        <time>2014-12-28T09:19:46Z</time>
      </trkpt>
      <trkpt lat="47.51745" lon="6.77481">
        <ele>389</ele>
        <time>2014-12-28T09:19:47Z</time>
      </trkpt>
      <trkpt lat="47.51747" lon="6.77481">
        <ele>389</ele>
        <time>2014-12-28T09:19:48Z</time>
      </trkpt>
      <trkpt lat="47.5175" lon="6.77482">
        <ele>389</ele>
        <time>2014-12-28T09:19:49Z</time>
      </trkpt>
      <trkpt lat="47.51753" lon="6.77482">
        <ele>389</ele>
        <time>2014-12-28T09:19:50Z</time>
      </trkpt>
      <trkpt lat="47.51756" lon="6.77483">
        <ele>389</ele>
        <time>2014-12-28T09:19:51Z</time>
      </trkpt>
      <trkpt lat="47.5176" lon="6.77483">
        <ele>389</ele>
        <time>2014-12-28T09:19:52Z</time>
      </trkpt>
      <trkpt lat="47.51763" lon="6.77483">
        <ele>389</ele>
        <time>2014-12-28T09:19:53Z</time>
      </trkpt>
      <trkpt lat="47.51766" lon="6.77483">
        <ele>389</ele>
        <time>2014-12-28T09:19:54Z</time>
      </trkpt>
      <trkpt lat="47.51769" lon="6.77484">
        <ele>389</ele>
        <time>2014-12-28T09:19:55Z</time>
      </trkpt>
      <trkpt lat="47.51772" lon="6.77486">
        <ele>389</ele>
        <time>2014-12-28T09:19:56Z</time>
      </trkpt>
      <trkpt lat="47.51776" lon="6.77487">
        <ele>388</ele>
        <time>2014-12-28T09:19:57Z</time>
      </trkpt>
      <trkpt lat="47.51779" lon="6.77488">
        <ele>388</ele>
        <time>2014-12-28T09:19:58Z</time>
      </trkpt>
      <trkpt lat="47.51782" lon="6.77489">
        <ele>388</ele>
        <time>2014-12-28T09:19:59Z</time>
      </trkpt>
      <trkpt lat="47.51785" lon="6.7749">
        <ele>388</ele>
        <time>2014-12-28T09:20:00Z</time>
      </trkpt>
      <trkpt lat="47.51789" lon="6.77492">
        <ele>388</ele>
        <time>2014-12-28T09:20:01Z</time>
      </trkpt>
      <trkpt lat="47.51792" lon="6.77494">
        <ele>388</ele>
        <time>2014-12-28T09:20:02Z</time>
      </trkpt>
      <trkpt lat="47.51796" lon="6.77496">
        <ele>387</ele>
        <time>2014-12-28T09:20:03Z</time>
      </trkpt>
      <trkpt lat="47.51799" lon="6.77498">
        <ele>387</ele>
        <time>2014-12-28T09:20:04Z</time>
      </trkpt>
      <trkpt lat="47.51802" lon="6.77499">
        <ele>387</ele>
        <time>2014-12-28T09:20:05Z</time>
      </trkpt>
      <trkpt lat="47.51806" lon="6.77501">
        <ele>388</ele>
        <time>2014-12-28T09:20:06Z</time>
      </trkpt>
      <trkpt lat="47.51809" lon="6.77501">
        <ele>387</ele>
        <time>2014-12-28T09:20:07Z</time>
      </trkpt>
      <trkpt lat="47.51812" lon="6.77502">
        <ele>387</ele>
        <time>2014-12-28T09:20:08Z</time>
      </trkpt>
      <trkpt lat="47.5181" lon="6.77496">
        <ele>387</ele>
        <time>2014-12-28T09:20:18Z</time>
      </trkpt>
      <trkpt lat="47.51809" lon="6.77494">
        <ele>387</ele>
        <time>2014-12-28T09:20:19Z</time>
      </trkpt>
      <trkpt lat="47.51807" lon="6.7749">
        <ele>387</ele>
        <time>2014-12-28T09:20:21Z</time>
      </trkpt>
      <trkpt lat="47.51807" lon="6.77488">
        <ele>387</ele>
        <time>2014-12-28T09:20:22Z</time>
      </trkpt>
      <trkpt lat="47.51807" lon="6.77484">
        <ele>387</ele>
        <time>2014-12-28T09:20:36Z</time>
      </trkpt>
      <trkpt lat="47.51803" lon="6.77483">
        <ele>387</ele>
        <time>2014-12-28T09:20:44Z</time>
      </trkpt>
      <trkpt lat="47.51807" lon="6.77486">
        <ele>387</ele>
        <time>2014-12-28T09:35:32Z</time>
      </trkpt>
      <trkpt lat="47.51808" lon="6.77488">
        <ele>387</ele>
        <time>2014-12-28T09:35:33Z</time>
      </trkpt>
      <trkpt lat="47.51811" lon="6.77492">
        <ele>387</ele>
        <time>2014-12-28T09:35:35Z</time>
      </trkpt>
      <trkpt lat="47.51812" lon="6.77494">
        <ele>387</ele>
        <time>2014-12-28T09:35:36Z</time>
      </trkpt>
      <trkpt lat="47.51829" lon="6.77502">
        <ele>387</ele>
        <time>2014-12-28T09:35:44Z</time>
      </trkpt>
      <trkpt lat="47.51831" lon="6.77502">
        <ele>387</ele>
        <time>2014-12-28T09:35:45Z</time>
      </trkpt>
      <trkpt lat="47.51833" lon="6.77502">
        <ele>387</ele>
        <time>2014-12-28T09:35:46Z</time>
      </trkpt>
      <trkpt lat="47.51836" lon="6.77502">
        <ele>387</ele>
        <time>2014-12-28T09:35:47Z</time>
      </trkpt>
      <trkpt lat="47.51838" lon="6.77503">
        <ele>387</ele>
        <time>2014-12-28T09:35:48Z</time>
      </trkpt>
      <trkpt lat="47.5184" lon="6.77503">
        <ele>387</ele>
        <time>2014-12-28T09:35:49Z</time>
      </trkpt>
      <trkpt lat="47.51844" lon="6.77503">
        <ele>387</ele>
        <time>2014-12-28T09:35:49Z</time>
      </trkpt>
      <trkpt lat="47.51848" lon="6.77503">
        <ele>387</ele>
        <time>2014-12-28T09:35:51Z</time>
      </trkpt>
      <trkpt lat="47.51851" lon="6.77503">
        <ele>387</ele>
        <time>2014-12-28T09:35:52Z</time>
      </trkpt>
      <trkpt lat="47.51853" lon="6.77502">
        <ele>387</ele>
        <time>2014-12-28T09:35:53Z</time>
      </trkpt>
      <trkpt lat="47.51856" lon="6.77502">
        <ele>387</ele>
        <time>2014-12-28T09:35:54Z</time>
      </trkpt>
      <trkpt lat="47.51858" lon="6.77502">
        <ele>387</ele>
        <time>2014-12-28T09:35:55Z</time>
      </trkpt>
      <trkpt lat="47.51861" lon="6.77502">
        <ele>387</ele>
        <time>2014-12-28T09:35:56Z</time>
      </trkpt>
      <trkpt lat="47.51863" lon="6.77502">
        <ele>387</ele>
        <time>2014-12-28T09:35:57Z</time>
      </trkpt>
      <trkpt lat="47.51865" lon="6.77502">
        <ele>387</ele>
        <time>2014-12-28T09:35:58Z</time>
      </trkpt>
      <trkpt lat="47.51869" lon="6.77505">
        <ele>388</ele>
        <time>2014-12-28T09:36:00Z</time>
      </trkpt>
      <trkpt lat="47.51871" lon="6.77506">
        <ele>388</ele>
        <time>2014-12-28T09:36:01Z</time>
      </trkpt>
      <trkpt lat="47.51873" lon="6.77508">
        <ele>388</ele>
        <time>2014-12-28T09:36:02Z</time>
      </trkpt>
      <trkpt lat="47.51876" lon="6.77509">
        <ele>388</ele>
        <time>2014-12-28T09:36:03Z</time>
      </trkpt>
      <trkpt lat="47.51878" lon="6.77509">
        <ele>388</ele>
        <time>2014-12-28T09:36:04Z</time>
      </trkpt>
      <trkpt lat="47.51881" lon="6.7751">
        <ele>388</ele>
        <time>2014-12-28T09:36:05Z</time>
      </trkpt>
      <trkpt lat="47.51883" lon="6.7751">
        <ele>388</ele>
        <time>2014-12-28T09:36:06Z</time>
      </trkpt>
      <trkpt lat="47.51885" lon="6.77511">
        <ele>388</ele>
        <time>2014-12-28T09:36:07Z</time>
      </trkpt>
      <trkpt lat="47.51889" lon="6.77513">
        <ele>388</ele>
        <time>2014-12-28T09:36:09Z</time>
      </trkpt>
      <trkpt lat="47.51892" lon="6.77514">
        <ele>388</ele>
        <time>2014-12-28T09:36:10Z</time>
      </trkpt>
      <trkpt lat="47.51894" lon="6.77515">
        <ele>388</ele>
        <time>2014-12-28T09:36:11Z</time>
      </trkpt>
      <trkpt lat="47.51897" lon="6.77516">
        <ele>388</ele>
        <time>2014-12-28T09:36:12Z</time>
      </trkpt>
      <trkpt lat="47.51899" lon="6.77517">
        <ele>388</ele>
        <time>2014-12-28T09:36:13Z</time>
      </trkpt>
      <trkpt lat="47.51902" lon="6.77518">
        <ele>388</ele>
        <time>2014-12-28T09:36:14Z</time>
      </trkpt>
      <trkpt lat="47.51906" lon="6.77519">
        <ele>388</ele>
        <time>2014-12-28T09:36:15Z</time>
      </trkpt>
      <trkpt lat="47.51908" lon="6.77519">
        <ele>388</ele>
        <time>2014-12-28T09:36:16Z</time>
      </trkpt>
      <trkpt lat="47.51911" lon="6.7752">
        <ele>388</ele>
        <time>2014-12-28T09:36:17Z</time>
      </trkpt>
      <trkpt lat="47.51913" lon="6.7752">
        <ele>388</ele>
        <time>2014-12-28T09:36:18Z</time>
      </trkpt>
      <trkpt lat="47.51917" lon="6.77521">
        <ele>388</ele>
        <time>2014-12-28T09:36:20Z</time>
      </trkpt>
      <trkpt lat="47.5192" lon="6.77522">
        <ele>388</ele>
        <time>2014-12-28T09:36:21Z</time>
      </trkpt>
      <trkpt lat="47.51923" lon="6.77522">
        <ele>388</ele>
        <time>2014-12-28T09:36:22Z</time>
      </trkpt>
      <trkpt lat="47.51925" lon="6.77523">
        <ele>388</ele>
        <time>2014-12-28T09:36:23Z</time>
      </trkpt>
      <trkpt lat="47.51928" lon="6.77523">
        <ele>388</ele>
        <time>2014-12-28T09:36:24Z</time>
      </trkpt>
      <trkpt lat="47.51932" lon="6.77524">
        <ele>388</ele>
        <time>2014-12-28T09:36:25Z</time>
      </trkpt>
      <trkpt lat="47.51935" lon="6.77524">
        <ele>388</ele>
        <time>2014-12-28T09:36:26Z</time>
      </trkpt>
      <trkpt lat="47.51938" lon="6.77524">
        <ele>389</ele>
        <time>2014-12-28T09:36:27Z</time>
      </trkpt>
      <trkpt lat="47.51941" lon="6.77524">
        <ele>389</ele>
        <time>2014-12-28T09:36:28Z</time>
      </trkpt>
      <trkpt lat="47.51943" lon="6.77524">
        <ele>389</ele>
        <time>2014-12-28T09:36:29Z</time>
      </trkpt>
      <trkpt lat="47.51946" lon="6.77525">
        <ele>389</ele>
        <time>2014-12-28T09:36:30Z</time>
      </trkpt>
      <trkpt lat="47.51949" lon="6.77525">
        <ele>389</ele>
        <time>2014-12-28T09:36:31Z</time>
      </trkpt>
      <trkpt lat="47.51953" lon="6.77526">
        <ele>389</ele>
        <time>2014-12-28T09:36:32Z</time>
      </trkpt>
      <trkpt lat="47.51956" lon="6.77526">
        <ele>389</ele>
        <time>2014-12-28T09:36:33Z</time>
      </trkpt>
      <trkpt lat="47.51959" lon="6.77527">
        <ele>389</ele>
        <time>2014-12-28T09:36:34Z</time>
      </trkpt>
      <trkpt lat="47.51962" lon="6.77528">
        <ele>389</ele>
        <time>2014-12-28T09:36:35Z</time>
      </trkpt>
      <trkpt lat="47.51964" lon="6.77529">
        <ele>389</ele>
        <time>2014-12-28T09:36:36Z</time>
      </trkpt>
      <trkpt lat="47.51972" lon="6.7753">
        <ele>389</ele>
        <time>2014-12-28T09:36:39Z</time>
      </trkpt>
      <trkpt lat="47.51975" lon="6.77531">
        <ele>389</ele>
        <time>2014-12-28T09:36:40Z</time>
      </trkpt>
      <trkpt lat="47.51978" lon="6.77532">
        <ele>389</ele>
        <time>2014-12-28T09:36:41Z</time>
      </trkpt>
      <trkpt lat="47.5198" lon="6.77532">
        <ele>389</ele>
        <time>2014-12-28T09:36:42Z</time>
      </trkpt>
      <trkpt lat="47.51983" lon="6.77533">
        <ele>389</ele>
        <time>2014-12-28T09:36:43Z</time>
      </trkpt>
      <trkpt lat="47.51987" lon="6.77534">
        <ele>389</ele>
        <time>2014-12-28T09:36:45Z</time>
      </trkpt>
      <trkpt lat="47.51989" lon="6.77534">
        <ele>389</ele>
        <time>2014-12-28T09:36:46Z</time>
      </trkpt>
      <trkpt lat="47.51992" lon="6.77534">
        <ele>389</ele>
        <time>2014-12-28T09:36:47Z</time>
      </trkpt>
      <trkpt lat="47.51995" lon="6.77535">
        <ele>389</ele>
        <time>2014-12-28T09:36:48Z</time>
      </trkpt>
      <trkpt lat="47.51998" lon="6.77534">
        <ele>389</ele>
        <time>2014-12-28T09:36:49Z</time>
      </trkpt>
      <trkpt lat="47.52001" lon="6.77535">
        <ele>390</ele>
        <time>2014-12-28T09:36:50Z</time>
      </trkpt>
      <trkpt lat="47.52004" lon="6.77535">
        <ele>390</ele>
        <time>2014-12-28T09:36:51Z</time>
      </trkpt>
      <trkpt lat="47.52007" lon="6.77535">
        <ele>390</ele>
        <time>2014-12-28T09:36:52Z</time>
      </trkpt>
      <trkpt lat="47.52009" lon="6.77536">
        <ele>390</ele>
        <time>2014-12-28T09:36:53Z</time>
      </trkpt>
      <trkpt lat="47.52013" lon="6.77537">
        <ele>390</ele>
        <time>2014-12-28T09:36:54Z</time>
      </trkpt>
      <trkpt lat="47.52017" lon="6.77538">
        <ele>390</ele>
        <time>2014-12-28T09:36:55Z</time>
      </trkpt>
      <trkpt lat="47.52021" lon="6.77539">
        <ele>390</ele>
        <time>2014-12-28T09:36:56Z</time>
      </trkpt>
      <trkpt lat="47.52025" lon="6.7754">
        <ele>390</ele>
        <time>2014-12-28T09:36:57Z</time>
      </trkpt>
      <trkpt lat="47.52028" lon="6.7754">
        <ele>390</ele>
        <time>2014-12-28T09:36:58Z</time>
      </trkpt>
      <trkpt lat="47.52031" lon="6.77541">
        <ele>390</ele>
        <time>2014-12-28T09:36:59Z</time>
      </trkpt>
      <trkpt lat="47.52034" lon="6.77541">
        <ele>390</ele>
        <time>2014-12-28T09:37:00Z</time>
      </trkpt>
      <trkpt lat="47.52036" lon="6.77541">
        <ele>390</ele>
        <time>2014-12-28T09:37:01Z</time>
      </trkpt>
      <trkpt lat="47.52039" lon="6.77541">
        <ele>390</ele>
        <time>2014-12-28T09:37:02Z</time>
      </trkpt>
      <trkpt lat="47.52042" lon="6.77542">
        <ele>390</ele>
        <time>2014-12-28T09:37:04Z</time>
      </trkpt>
      <trkpt lat="47.52044" lon="6.77543">
        <ele>390</ele>
        <time>2014-12-28T09:37:05Z</time>
      </trkpt>
      <trkpt lat="47.52047" lon="6.77546">
        <ele>390</ele>
        <time>2014-12-28T09:37:07Z</time>
      </trkpt>
      <trkpt lat="47.5205" lon="6.77547">
        <ele>390</ele>
        <time>2014-12-28T09:37:08Z</time>
      </trkpt>
      <trkpt lat="47.52052" lon="6.77549">
        <ele>390</ele>
        <time>2014-12-28T09:37:09Z</time>
      </trkpt>
      <trkpt lat="47.52055" lon="6.7755">
        <ele>390</ele>
        <time>2014-12-28T09:37:10Z</time>
      </trkpt>
      <trkpt lat="47.52059" lon="6.7755">
        <ele>390</ele>
        <time>2014-12-28T09:37:11Z</time>
      </trkpt>
      <trkpt lat="47.52062" lon="6.77551">
        <ele>390</ele>
        <time>2014-12-28T09:37:12Z</time>
      </trkpt>
      <trkpt lat="47.52065" lon="6.77552">
        <ele>390</ele>
        <time>2014-12-28T09:37:13Z</time>
      </trkpt>
      <trkpt lat="47.52068" lon="6.77552">
        <ele>390</ele>
        <time>2014-12-28T09:37:14Z</time>
      </trkpt>
      <trkpt lat="47.52071" lon="6.77553">
        <ele>391</ele>
        <time>2014-12-28T09:37:15Z</time>
      </trkpt>
      <trkpt lat="47.52073" lon="6.77553">
        <ele>391</ele>
        <time>2014-12-28T09:37:16Z</time>
      </trkpt>
      <trkpt lat="47.52076" lon="6.77554">
        <ele>391</ele>
        <time>2014-12-28T09:37:17Z</time>
      </trkpt>
      <trkpt lat="47.52079" lon="6.77554">
        <ele>391</ele>
        <time>2014-12-28T09:37:18Z</time>
      </trkpt>
      <trkpt lat="47.52081" lon="6.77555">
        <ele>391</ele>
        <time>2014-12-28T09:37:19Z</time>
      </trkpt>
      <trkpt lat="47.52084" lon="6.77556">
        <ele>391</ele>
        <time>2014-12-28T09:37:20Z</time>
      </trkpt>
      <trkpt lat="47.52086" lon="6.77557">
        <ele>391</ele>
        <time>2014-12-28T09:37:21Z</time>
      </trkpt>
      <trkpt lat="47.52088" lon="6.77559">
        <ele>391</ele>
        <time>2014-12-28T09:37:22Z</time>
      </trkpt>
      <trkpt lat="47.5209" lon="6.77562">
        <ele>391</ele>
        <time>2014-12-28T09:37:23Z</time>
      </trkpt>
      <trkpt lat="47.52092" lon="6.77565">
        <ele>391</ele>
        <time>2014-12-28T09:37:24Z</time>
      </trkpt>
      <trkpt lat="47.52093" lon="6.7757">
        <ele>391</ele>
        <time>2014-12-28T09:37:25Z</time>
      </trkpt>
      <trkpt lat="47.52094" lon="6.77574">
        <ele>391</ele>
        <time>2014-12-28T09:37:26Z</time>
      </trkpt>
      <trkpt lat="47.52094" lon="6.77577">
        <ele>391</ele>
        <time>2014-12-28T09:37:27Z</time>
      </trkpt>
      <trkpt lat="47.52094" lon="6.77581">
        <ele>391</ele>
        <time>2014-12-28T09:37:28Z</time>
      </trkpt>
      <trkpt lat="47.52095" lon="6.77584">
        <ele>391</ele>
        <time>2014-12-28T09:37:29Z</time>
      </trkpt>
      <trkpt lat="47.52095" lon="6.77588">
        <ele>391</ele>
        <time>2014-12-28T09:37:30Z</time>
      </trkpt>
      <trkpt lat="47.52096" lon="6.77594">
        <ele>391</ele>
        <time>2014-12-28T09:37:32Z</time>
      </trkpt>
      <trkpt lat="47.52096" lon="6.77597">
        <ele>391</ele>
        <time>2014-12-28T09:37:33Z</time>
      </trkpt>
      <trkpt lat="47.52097" lon="6.77603">
        <ele>391</ele>
        <time>2014-12-28T09:37:35Z</time>
      </trkpt>
      <trkpt lat="47.52097" lon="6.77607">
        <ele>391</ele>
        <time>2014-12-28T09:37:36Z</time>
      </trkpt>
      <trkpt lat="47.52096" lon="6.77638">
        <ele>392</ele>
        <time>2014-12-28T09:37:44Z</time>
      </trkpt>
      <trkpt lat="47.52096" lon="6.77642">
        <ele>392</ele>
        <time>2014-12-28T09:37:45Z</time>
      </trkpt>
      <trkpt lat="47.52096" lon="6.77645">
        <ele>392</ele>
        <time>2014-12-28T09:37:46Z</time>
      </trkpt>
      <trkpt lat="47.52096" lon="6.77649">
        <ele>392</ele>
        <time>2014-12-28T09:37:47Z</time>
      </trkpt>
      <trkpt lat="47.52096" lon="6.77655">
        <ele>392</ele>
        <time>2014-12-28T09:37:48Z</time>
      </trkpt>
      <trkpt lat="47.52097" lon="6.77659">
        <ele>392</ele>
        <time>2014-12-28T09:37:49Z</time>
      </trkpt>
      <trkpt lat="47.52097" lon="6.77663">
        <ele>392</ele>
        <time>2014-12-28T09:37:50Z</time>
      </trkpt>
      <trkpt lat="47.52097" lon="6.77667">
        <ele>392</ele>
        <time>2014-12-28T09:37:51Z</time>
      </trkpt>
      <trkpt lat="47.52097" lon="6.77671">
        <ele>392</ele>
        <time>2014-12-28T09:37:52Z</time>
      </trkpt>
      <trkpt lat="47.52099" lon="6.77676">
        <ele>392</ele>
        <time>2014-12-28T09:37:55Z</time>
      </trkpt>
      <trkpt lat="47.52102" lon="6.77675">
        <ele>392</ele>
        <time>2014-12-28T09:37:56Z</time>
      </trkpt>
      <trkpt lat="47.52104" lon="6.77673">
        <ele>392</ele>
        <time>2014-12-28T09:37:57Z</time>
      </trkpt>
      <trkpt lat="47.52107" lon="6.77671">
        <ele>392</ele>
        <time>2014-12-28T09:37:58Z</time>
      </trkpt>
      <trkpt lat="47.5211" lon="6.77668">
        <ele>391</ele>
        <time>2014-12-28T09:37:59Z</time>
      </trkpt>
      <trkpt lat="47.52112" lon="6.77666">
        <ele>391</ele>
        <time>2014-12-28T09:38:00Z</time>
      </trkpt>
      <trkpt lat="47.52115" lon="6.77664">
        <ele>391</ele>
        <time>2014-12-28T09:38:01Z</time>
      </trkpt>
      <trkpt lat="47.52117" lon="6.77662">
        <ele>391</ele>
        <time>2014-12-28T09:38:02Z</time>
      </trkpt>
      <trkpt lat="47.52119" lon="6.7766">
        <ele>391</ele>
        <time>2014-12-28T09:38:03Z</time>
      </trkpt>
      <trkpt lat="47.52121" lon="6.77659">
        <ele>391</ele>
        <time>2014-12-28T09:38:04Z</time>
      </trkpt>
      <trkpt lat="47.52123" lon="6.77657">
        <ele>390</ele>
        <time>2014-12-28T09:38:05Z</time>
      </trkpt>
      <trkpt lat="47.52125" lon="6.77656">
        <ele>390</ele>
        <time>2014-12-28T09:38:06Z</time>
      </trkpt>
      <trkpt lat="47.52127" lon="6.77655">
        <ele>390</ele>
        <time>2014-12-28T09:38:07Z</time>
      </trkpt>
      <trkpt lat="47.5213" lon="6.77654">
        <ele>390</ele>
        <time>2014-12-28T09:38:08Z</time>
      </trkpt>
      <trkpt lat="47.52132" lon="6.77653">
        <ele>390</ele>
        <time>2014-12-28T09:38:09Z</time>
      </trkpt>
      <trkpt lat="47.52135" lon="6.77652">
        <ele>389</ele>
        <time>2014-12-28T09:38:10Z</time>
      </trkpt>
      <trkpt lat="47.52138" lon="6.7765">
        <ele>389</ele>
        <time>2014-12-28T09:38:11Z</time>
      </trkpt>
      <trkpt lat="47.52141" lon="6.77649">
        <ele>389</ele>
        <time>2014-12-28T09:38:12Z</time>
      </trkpt>
      <trkpt lat="47.52143" lon="6.77647">
        <ele>389</ele>
        <time>2014-12-28T09:38:13Z</time>
      </trkpt>
      <trkpt lat="47.52146" lon="6.77645">
        <ele>389</ele>
        <time>2014-12-28T09:38:14Z</time>
      </trkpt>
      <trkpt lat="47.52148" lon="6.77644">
        <ele>389</ele>
        <time>2014-12-28T09:38:15Z</time>
      </trkpt>
      <trkpt lat="47.5215" lon="6.77642">
        <ele>389</ele>
        <time>2014-12-28T09:38:16Z</time>
      </trkpt>
      <trkpt lat="47.52152" lon="6.7764">
        <ele>389</ele>
        <time>2014-12-28T09:38:17Z</time>
      </trkpt>
      <trkpt lat="47.52155" lon="6.77638">
        <ele>389</ele>
        <time>2014-12-28T09:38:18Z</time>
      </trkpt>
      <trkpt lat="47.52157" lon="6.77636">
        <ele>389</ele>
        <time>2014-12-28T09:38:19Z</time>
      </trkpt>
      <trkpt lat="47.5216" lon="6.77635">
        <ele>389</ele>
        <time>2014-12-28T09:38:20Z</time>
      </trkpt>
      <trkpt lat="47.52162" lon="6.77633">
        <ele>389</ele>
        <time>2014-12-28T09:38:21Z</time>
      </trkpt>
      <trkpt lat="47.52164" lon="6.77631">
        <ele>389</ele>
        <time>2014-12-28T09:38:22Z</time>
      </trkpt>
      <trkpt lat="47.52166" lon="6.7763">
        <ele>388</ele>
        <time>2014-12-28T09:38:23Z</time>
      </trkpt>
      <trkpt lat="47.52168" lon="6.77628">
        <ele>388</ele>
        <time>2014-12-28T09:38:24Z</time>
      </trkpt>
      <trkpt lat="47.5217" lon="6.77626">
        <ele>388</ele>
        <time>2014-12-28T09:38:25Z</time>
      </trkpt>
      <trkpt lat="47.52173" lon="6.77624">
        <ele>388</ele>
        <time>2014-12-28T09:38:26Z</time>
      </trkpt>
      <trkpt lat="47.52176" lon="6.77622">
        <ele>387</ele>
        <time>2014-12-28T09:38:27Z</time>
      </trkpt>
      <trkpt lat="47.52179" lon="6.7762">
        <ele>387</ele>
        <time>2014-12-28T09:38:28Z</time>
      </trkpt>
      <trkpt lat="47.52181" lon="6.77618">
        <ele>387</ele>
        <time>2014-12-28T09:38:29Z</time>
      </trkpt>
      <trkpt lat="47.52184" lon="6.77616">
        <ele>387</ele>
        <time>2014-12-28T09:38:30Z</time>
      </trkpt>
      <trkpt lat="47.52187" lon="6.77614">
        <ele>387</ele>
        <time>2014-12-28T09:38:31Z</time>
      </trkpt>
      <trkpt lat="47.5219" lon="6.77613">
        <ele>387</ele>
        <time>2014-12-28T09:38:32Z</time>
      </trkpt>
      <trkpt lat="47.52193" lon="6.77612">
        <ele>387</ele>
        <time>2014-12-28T09:38:33Z</time>
      </trkpt>
      <trkpt lat="47.52195" lon="6.7761">
        <ele>387</ele>
        <time>2014-12-28T09:38:34Z</time>
      </trkpt>
      <trkpt lat="47.52198" lon="6.77609">
        <ele>387</ele>
        <time>2014-12-28T09:38:35Z</time>
      </trkpt>
      <trkpt lat="47.522" lon="6.77607">
        <ele>387</ele>
        <time>2014-12-28T09:38:36Z</time>
      </trkpt>
      <trkpt lat="47.52206" lon="6.77602">
        <ele>386</ele>
        <time>2014-12-28T09:38:39Z</time>
      </trkpt>
      <trkpt lat="47.52208" lon="6.776">
        <ele>386</ele>
        <time>2014-12-28T09:38:40Z</time>
      </trkpt>
      <trkpt lat="47.52211" lon="6.77598">
        <ele>386</ele>
        <time>2014-12-28T09:38:41Z</time>
      </trkpt>
      <trkpt lat="47.52213" lon="6.77595">
        <ele>386</ele>
        <time>2014-12-28T09:38:42Z</time>
      </trkpt>
      <trkpt lat="47.52215" lon="6.77594">
        <ele>386</ele>
        <time>2014-12-28T09:38:43Z</time>
      </trkpt>
      <trkpt lat="47.52218" lon="6.77592">
        <ele>386</ele>
        <time>2014-12-28T09:38:44Z</time>
      </trkpt>
      <trkpt lat="47.52221" lon="6.7759">
        <ele>386</ele>
        <time>2014-12-28T09:38:45Z</time>
      </trkpt>
      <trkpt lat="47.52223" lon="6.77588">
        <ele>386</ele>
        <time>2014-12-28T09:38:46Z</time>
      </trkpt>
      <trkpt lat="47.52226" lon="6.77586">
        <ele>386</ele>
        <time>2014-12-28T09:38:47Z</time>
      </trkpt>
      <trkpt lat="47.52229" lon="6.77584">
        <ele>386</ele>
        <time>2014-12-28T09:38:48Z</time>
      </trkpt>
      <trkpt lat="47.52231" lon="6.77583">
        <ele>386</ele>
        <time>2014-12-28T09:38:49Z</time>
      </trkpt>
      <trkpt lat="47.52234" lon="6.77581">
        <ele>386</ele>
        <time>2014-12-28T09:38:50Z</time>
      </trkpt>
      <trkpt lat="47.52237" lon="6.77579">
        <ele>386</ele>
        <time>2014-12-28T09:38:51Z</time>
      </trkpt>
      <trkpt lat="47.52239" lon="6.77578">
        <ele>386</ele>
        <time>2014-12-28T09:38:52Z</time>
      </trkpt>
      <trkpt lat="47.52242" lon="6.77576">
        <ele>386</ele>
        <time>2014-12-28T09:38:52Z</time>
      </trkpt>
      <trkpt lat="47.52245" lon="6.77575">
        <ele>386</ele>
        <time>2014-12-28T09:38:54Z</time>
      </trkpt>
      <trkpt lat="47.52248" lon="6.77573">
        <ele>386</ele>
        <time>2014-12-28T09:38:55Z</time>
      </trkpt>
      <trkpt lat="47.5225" lon="6.77572">
        <ele>386</ele>
        <time>2014-12-28T09:38:56Z</time>
      </trkpt>
      <trkpt lat="47.52252" lon="6.7757">
        <ele>386</ele>
        <time>2014-12-28T09:38:57Z</time>
      </trkpt>
      <trkpt lat="47.52254" lon="6.77569">
        <ele>386</ele>
        <time>2014-12-28T09:38:58Z</time>
      </trkpt>
      <trkpt lat="47.52256" lon="6.77567">
        <ele>386</ele>
        <time>2014-12-28T09:38:59Z</time>
      </trkpt>
      <trkpt lat="47.5226" lon="6.77564">
        <ele>386</ele>
        <time>2014-12-28T09:39:01Z</time>
      </trkpt>
      <trkpt lat="47.52262" lon="6.77563">
        <ele>386</ele>
        <time>2014-12-28T09:39:02Z</time>
      </trkpt>
      <trkpt lat="47.52264" lon="6.77562">
        <ele>386</ele>
        <time>2014-12-28T09:39:03Z</time>
      </trkpt>
      <trkpt lat="47.52267" lon="6.77561">
        <ele>386</ele>
        <time>2014-12-28T09:39:04Z</time>
      </trkpt>
      <trkpt lat="47.52269" lon="6.77559">
        <ele>386</ele>
        <time>2014-12-28T09:39:05Z</time>
      </trkpt>
      <trkpt lat="47.52272" lon="6.77558">
        <ele>386</ele>
        <time>2014-12-28T09:39:06Z</time>
      </trkpt>
      <trkpt lat="47.52275" lon="6.77556">
        <ele>386</ele>
        <time>2014-12-28T09:39:07Z</time>
      </trkpt>
      <trkpt lat="47.52278" lon="6.77555">
        <ele>386</ele>
        <time>2014-12-28T09:39:08Z</time>
      </trkpt>
      <trkpt lat="47.52281" lon="6.77553">
        <ele>386</ele>
        <time>2014-12-28T09:39:09Z</time>
      </trkpt>
      <trkpt lat="47.52284" lon="6.77552">
        <ele>387</ele>
        <time>2014-12-28T09:39:10Z</time>
      </trkpt>
      <trkpt lat="47.52286" lon="6.7755">
        <ele>387</ele>
        <time>2014-12-28T09:39:11Z</time>
      </trkpt>
      <trkpt lat="47.52289" lon="6.77549">
        <ele>387</ele>
        <time>2014-12-28T09:39:12Z</time>
      </trkpt>
      <trkpt lat="47.52291" lon="6.77547">
        <ele>387</ele>
        <time>2014-12-28T09:39:13Z</time>
      </trkpt>
      <trkpt lat="47.52294" lon="6.77545">
        <ele>387</ele>
        <time>2014-12-28T09:39:14Z</time>
      </trkpt>
      <trkpt lat="47.52297" lon="6.77543">
        <ele>387</ele>
        <time>2014-12-28T09:39:15Z</time>
      </trkpt>
      <trkpt lat="47.52299" lon="6.77541">
        <ele>387</ele>
        <time>2014-12-28T09:39:16Z</time>
      </trkpt>
      <trkpt lat="47.52302" lon="6.77539">
        <ele>387</ele>
        <time>2014-12-28T09:39:17Z</time>
      </trkpt>
      <trkpt lat="47.52304" lon="6.77538">
        <ele>387</ele>
        <time>2014-12-28T09:39:18Z</time>
      </trkpt>
      <trkpt lat="47.52306" lon="6.77536">
        <ele>387</ele>
        <time>2014-12-28T09:39:19Z</time>
      </trkpt>
      <trkpt lat="47.52308" lon="6.77535">
        <ele>387</ele>
        <time>2014-12-28T09:39:20Z</time>
      </trkpt>
      <trkpt lat="47.5231" lon="6.77533">
        <ele>387</ele>
        <time>2014-12-28T09:39:21Z</time>
      </trkpt>
      <trkpt lat="47.52312" lon="6.77532">
        <ele>387</ele>
        <time>2014-12-28T09:39:22Z</time>
      </trkpt>
      <trkpt lat="47.52315" lon="6.7753">
        <ele>387</ele>
        <time>2014-12-28T09:39:23Z</time>
      </trkpt>
      <trkpt lat="47.52317" lon="6.77528">
        <ele>388</ele>
        <time>2014-12-28T09:39:24Z</time>
      </trkpt>
      <trkpt lat="47.52319" lon="6.77526">
        <ele>388</ele>
        <time>2014-12-28T09:39:25Z</time>
      </trkpt>
      <trkpt lat="47.52321" lon="6.77525">
        <ele>388</ele>
        <time>2014-12-28T09:39:26Z</time>
      </trkpt>
      <trkpt lat="47.52323" lon="6.77523">
        <ele>388</ele>
        <time>2014-12-28T09:39:27Z</time>
      </trkpt>
      <trkpt lat="47.52325" lon="6.77521">
        <ele>388</ele>
        <time>2014-12-28T09:39:28Z</time>
      </trkpt>
      <trkpt lat="47.52328" lon="6.7752">
        <ele>388</ele>
        <time>2014-12-28T09:39:29Z</time>
      </trkpt>
      <trkpt lat="47.5233" lon="6.77518">
        <ele>388</ele>
        <time>2014-12-28T09:39:30Z</time>
      </trkpt>
      <trkpt lat="47.52332" lon="6.77516">
        <ele>388</ele>
        <time>2014-12-28T09:39:31Z</time>
      </trkpt>
      <trkpt lat="47.52335" lon="6.77515">
        <ele>388</ele>
        <time>2014-12-28T09:39:32Z</time>
      </trkpt>
      <trkpt lat="47.52337" lon="6.77513">
        <ele>388</ele>
        <time>2014-12-28T09:39:33Z</time>
      </trkpt>
      <trkpt lat="47.5234" lon="6.77512">
        <ele>388</ele>
        <time>2014-12-28T09:39:34Z</time>
      </trkpt>
      <trkpt lat="47.52342" lon="6.7751">
        <ele>388</ele>
        <time>2014-12-28T09:39:35Z</time>
      </trkpt>
      <trkpt lat="47.52344" lon="6.77509">
        <ele>388</ele>
        <time>2014-12-28T09:39:36Z</time>
      </trkpt>
      <trkpt lat="47.52363" lon="6.77499">
        <ele>390</ele>
        <time>2014-12-28T09:39:44Z</time>
      </trkpt>
      <trkpt lat="47.52367" lon="6.77497">
        <ele>390</ele>
        <time>2014-12-28T09:39:46Z</time>
      </trkpt>
      <trkpt lat="47.52369" lon="6.77496">
        <ele>390</ele>
        <time>2014-12-28T09:39:47Z</time>
      </trkpt>
      <trkpt lat="47.52371" lon="6.77495">
        <ele>390</ele>
        <time>2014-12-28T09:39:48Z</time>
      </trkpt>
      <trkpt lat="47.52374" lon="6.77494">
        <ele>390</ele>
        <time>2014-12-28T09:39:49Z</time>
      </trkpt>
      <trkpt lat="47.52376" lon="6.77492">
        <ele>390</ele>
        <time>2014-12-28T09:39:49Z</time>
      </trkpt>
      <trkpt lat="47.52379" lon="6.7749">
        <ele>390</ele>
        <time>2014-12-28T09:39:51Z</time>
      </trkpt>
      <trkpt lat="47.52381" lon="6.77489">
        <ele>390</ele>
        <time>2014-12-28T09:39:52Z</time>
      </trkpt>
      <trkpt lat="47.52384" lon="6.77488">
        <ele>391</ele>
        <time>2014-12-28T09:39:53Z</time>
      </trkpt>
      <trkpt lat="47.52388" lon="6.77486">
        <ele>391</ele>
        <time>2014-12-28T09:39:55Z</time>
      </trkpt>
      <trkpt lat="47.5239" lon="6.77485">
        <ele>391</ele>
        <time>2014-12-28T09:39:56Z</time>
      </trkpt>
      <trkpt lat="47.52392" lon="6.77483">
        <ele>391</ele>
        <time>2014-12-28T09:39:57Z</time>
      </trkpt>
      <trkpt lat="47.52394" lon="6.77481">
        <ele>391</ele>
        <time>2014-12-28T09:39:58Z</time>
      </trkpt>
      <trkpt lat="47.52396" lon="6.77479">
        <ele>391</ele>
        <time>2014-12-28T09:39:59Z</time>
      </trkpt>
      <trkpt lat="47.52399" lon="6.77477">
        <ele>391</ele>
        <time>2014-12-28T09:40:00Z</time>
      </trkpt>
      <trkpt lat="47.52401" lon="6.77475">
        <ele>391</ele>
        <time>2014-12-28T09:40:01Z</time>
      </trkpt>
      <trkpt lat="47.52403" lon="6.77473">
        <ele>391</ele>
        <time>2014-12-28T09:40:02Z</time>
      </trkpt>
      <trkpt lat="47.52406" lon="6.77468">
        <ele>391</ele>
        <time>2014-12-28T09:40:04Z</time>
      </trkpt>
      <trkpt lat="47.52407" lon="6.77467">
        <ele>391</ele>
        <time>2014-12-28T09:40:05Z</time>
      </trkpt>
      <trkpt lat="47.5241" lon="6.77464">
        <ele>391</ele>
        <time>2014-12-28T09:40:08Z</time>
      </trkpt>
      <trkpt lat="47.52411" lon="6.77463">
        <ele>391</ele>
        <time>2014-12-28T09:40:09Z</time>
      </trkpt>
      <trkpt lat="47.52414" lon="6.77459">
        <ele>391</ele>
        <time>2014-12-28T09:40:11Z</time>
      </trkpt>
      <trkpt lat="47.52416" lon="6.77457">
        <ele>391</ele>
        <time>2014-12-28T09:40:12Z</time>
      </trkpt>
      <trkpt lat="47.52418" lon="6.77454">
        <ele>392</ele>
        <time>2014-12-28T09:40:13Z</time>
      </trkpt>
      <trkpt lat="47.5242" lon="6.77452">
        <ele>392</ele>
        <time>2014-12-28T09:40:14Z</time>
      </trkpt>
      <trkpt lat="47.52422" lon="6.77449">
        <ele>392</ele>
        <time>2014-12-28T09:40:15Z</time>
      </trkpt>
      <trkpt lat="47.52425" lon="6.77446">
        <ele>392</ele>
        <time>2014-12-28T09:40:16Z</time>
      </trkpt>
      <trkpt lat="47.52427" lon="6.77443">
        <ele>392</ele>
        <time>2014-12-28T09:40:17Z</time>
      </trkpt>
      <trkpt lat="47.52428" lon="6.7744">
        <ele>392</ele>
        <time>2014-12-28T09:40:18Z</time>
      </trkpt>
      <trkpt lat="47.52432" lon="6.77436">
        <ele>392</ele>
        <time>2014-12-28T09:40:20Z</time>
      </trkpt>
      <trkpt lat="47.52434" lon="6.77435">
        <ele>392</ele>
        <time>2014-12-28T09:40:21Z</time>
      </trkpt>
      <trkpt lat="47.52437" lon="6.77432">
        <ele>392</ele>
        <time>2014-12-28T09:40:23Z</time>
      </trkpt>
      <trkpt lat="47.52439" lon="6.77431">
        <ele>392</ele>
        <time>2014-12-28T09:40:24Z</time>
      </trkpt>
      <trkpt lat="47.52441" lon="6.77427">
        <ele>392</ele>
        <time>2014-12-28T09:40:28Z</time>
      </trkpt>
      <trkpt lat="47.52442" lon="6.77426">
        <ele>392</ele>
        <time>2014-12-28T09:40:29Z</time>
      </trkpt>
      <trkpt lat="47.52446" lon="6.77424">
        <ele>392</ele>
        <time>2014-12-28T09:40:31Z</time>
      </trkpt>
      <trkpt lat="47.52447" lon="6.77424">
        <ele>392</ele>
        <time>2014-12-28T09:40:32Z</time>
      </trkpt>
      <trkpt lat="47.52451" lon="6.77423">
        <ele>392</ele>
        <time>2014-12-28T09:40:34Z</time>
      </trkpt>
      <trkpt lat="47.52453" lon="6.77423">
        <ele>392</ele>
        <time>2014-12-28T09:40:35Z</time>
      </trkpt>
      <trkpt lat="47.52457" lon="6.77422">
        <ele>392</ele>
        <time>2014-12-28T09:40:37Z</time>
      </trkpt>
      <trkpt lat="47.52462" lon="6.77419">
        <ele>392</ele>
        <time>2014-12-28T09:40:40Z</time>
      </trkpt>
      <trkpt lat="47.52466" lon="6.77419">
        <ele>392</ele>
        <time>2014-12-28T09:40:42Z</time>
      </trkpt>
      <trkpt lat="47.52469" lon="6.77417">
        <ele>392</ele>
        <time>2014-12-28T09:40:43Z</time>
      </trkpt>
      <trkpt lat="47.52471" lon="6.77417">
        <ele>391</ele>
        <time>2014-12-28T09:40:44Z</time>
      </trkpt>
      <trkpt lat="47.52473" lon="6.77415">
        <ele>391</ele>
        <time>2014-12-28T09:40:45Z</time>
      </trkpt>
      <trkpt lat="47.52474" lon="6.77415">
        <ele>391</ele>
        <time>2014-12-28T09:40:46Z</time>
      </trkpt>
      <trkpt lat="47.52479" lon="6.77413">
        <ele>391</ele>
        <time>2014-12-28T09:40:47Z</time>
      </trkpt>
      <trkpt lat="47.52481" lon="6.77412">
        <ele>391</ele>
        <time>2014-12-28T09:40:48Z</time>
      </trkpt>
      <trkpt lat="47.52483" lon="6.77411">
        <ele>391</ele>
        <time>2014-12-28T09:40:49Z</time>
      </trkpt>
      <trkpt lat="47.52486" lon="6.77408">
        <ele>391</ele>
        <time>2014-12-28T09:40:50Z</time>
      </trkpt>
      <trkpt lat="47.52488" lon="6.77405">
        <ele>391</ele>
        <time>2014-12-28T09:40:51Z</time>
      </trkpt>
      <trkpt lat="47.52491" lon="6.77401">
        <ele>391</ele>
        <time>2014-12-28T09:40:53Z</time>
      </trkpt>
      <trkpt lat="47.52493" lon="6.77398">
        <ele>391</ele>
        <time>2014-12-28T09:40:54Z</time>
      </trkpt>
      <trkpt lat="47.52495" lon="6.77397">
        <ele>391</ele>
        <time>2014-12-28T09:40:55Z</time>
      </trkpt>
      <trkpt lat="47.52498" lon="6.77395">
        <ele>391</ele>
        <time>2014-12-28T09:40:56Z</time>
      </trkpt>
      <trkpt lat="47.525" lon="6.77393">
        <ele>391</ele>
        <time>2014-12-28T09:40:57Z</time>
      </trkpt>
      <trkpt lat="47.52502" lon="6.7739">
        <ele>390</ele>
        <time>2014-12-28T09:40:58Z</time>
      </trkpt>
      <trkpt lat="47.52504" lon="6.77389">
        <ele>390</ele>
        <time>2014-12-28T09:40:59Z</time>
      </trkpt>
      <trkpt lat="47.52507" lon="6.77386">
        <ele>390</ele>
        <time>2014-12-28T09:41:00Z</time>
      </trkpt>
      <trkpt lat="47.52511" lon="6.77381">
        <ele>389</ele>
        <time>2014-12-28T09:41:01Z</time>
      </trkpt>
      <trkpt lat="47.52513" lon="6.77378">
        <ele>388</ele>
        <time>2014-12-28T09:41:02Z</time>
      </trkpt>
      <trkpt lat="47.52515" lon="6.77375">
        <ele>388</ele>
        <time>2014-12-28T09:41:03Z</time>
      </trkpt>
      <trkpt lat="47.52517" lon="6.7737">
        <ele>388</ele>
        <time>2014-12-28T09:41:05Z</time>
      </trkpt>
      <trkpt lat="47.52517" lon="6.77369">
        <ele>387</ele>
        <time>2014-12-28T09:41:06Z</time>
      </trkpt>
      <trkpt lat="47.52519" lon="6.77363">
        <ele>387</ele>
        <time>2014-12-28T09:41:09Z</time>
      </trkpt>
      <trkpt lat="47.52521" lon="6.77361">
        <ele>387</ele>
        <time>2014-12-28T09:41:10Z</time>
      </trkpt>
      <trkpt lat="47.52522" lon="6.77359">
        <ele>387</ele>
        <time>2014-12-28T09:41:11Z</time>
      </trkpt>
      <trkpt lat="47.52525" lon="6.77356">
        <ele>387</ele>
        <time>2014-12-28T09:41:12Z</time>
      </trkpt>
      <trkpt lat="47.52527" lon="6.77353">
        <ele>387</ele>
        <time>2014-12-28T09:41:13Z</time>
      </trkpt>
      <trkpt lat="47.5253" lon="6.77351">
        <ele>387</ele>
        <time>2014-12-28T09:41:14Z</time>
      </trkpt>
      <trkpt lat="47.52533" lon="6.77348">
        <ele>387</ele>
        <time>2014-12-28T09:41:15Z</time>
      </trkpt>
      <trkpt lat="47.52536" lon="6.77345">
        <ele>387</ele>
        <time>2014-12-28T09:41:16Z</time>
      </trkpt>
      <trkpt lat="47.52539" lon="6.77342">
        <ele>387</ele>
        <time>2014-12-28T09:41:17Z</time>
      </trkpt>
      <trkpt lat="47.52542" lon="6.77339">
        <ele>387</ele>
        <time>2014-12-28T09:41:18Z</time>
      </trkpt>
      <trkpt lat="47.52545" lon="6.77336">
        <ele>387</ele>
        <time>2014-12-28T09:41:19Z</time>
      </trkpt>
      <trkpt lat="47.52548" lon="6.77334">
        <ele>387</ele>
        <time>2014-12-28T09:41:20Z</time>
      </trkpt>
      <trkpt lat="47.5255" lon="6.77331">
        <ele>385</ele>
        <time>2014-12-28T09:41:21Z</time>
      </trkpt>
      <trkpt lat="47.52553" lon="6.77329">
        <ele>385</ele>
        <time>2014-12-28T09:41:22Z</time>
      </trkpt>
      <trkpt lat="47.52555" lon="6.77327">
        <ele>385</ele>
        <time>2014-12-28T09:41:23Z</time>
      </trkpt>
      <trkpt lat="47.52557" lon="6.77325">
        <ele>385</ele>
        <time>2014-12-28T09:41:24Z</time>
      </trkpt>
      <trkpt lat="47.5256" lon="6.77323">
        <ele>385</ele>
        <time>2014-12-28T09:41:25Z</time>
      </trkpt>
      <trkpt lat="47.52562" lon="6.77321">
        <ele>385</ele>
        <time>2014-12-28T09:41:26Z</time>
      </trkpt>
      <trkpt lat="47.52565" lon="6.77319">
        <ele>385</ele>
        <time>2014-12-28T09:41:27Z</time>
      </trkpt>
      <trkpt lat="47.52568" lon="6.77318">
        <ele>385</ele>
        <time>2014-12-28T09:41:28Z</time>
      </trkpt>
      <trkpt lat="47.5257" lon="6.77317">
        <ele>385</ele>
        <time>2014-12-28T09:41:29Z</time>
      </trkpt>
      <trkpt lat="47.52573" lon="6.77316">
        <ele>385</ele>
        <time>2014-12-28T09:41:30Z</time>
      </trkpt>
      <trkpt lat="47.52575" lon="6.77315">
        <ele>385</ele>
        <time>2014-12-28T09:41:31Z</time>
      </trkpt>
      <trkpt lat="47.52578" lon="6.77314">
        <ele>385</ele>
        <time>2014-12-28T09:41:32Z</time>
      </trkpt>
      <trkpt lat="47.5258" lon="6.77313">
        <ele>385</ele>
        <time>2014-12-28T09:41:33Z</time>
      </trkpt>
      <trkpt lat="47.52583" lon="6.77312">
        <ele>385</ele>
        <time>2014-12-28T09:41:34Z</time>
      </trkpt>
      <trkpt lat="47.52585" lon="6.77311">
        <ele>386</ele>
        <time>2014-12-28T09:41:35Z</time>
      </trkpt>
      <trkpt lat="47.52588" lon="6.77309">
        <ele>386</ele>
        <time>2014-12-28T09:41:36Z</time>
      </trkpt>
      <trkpt lat="47.52601" lon="6.77297">
        <ele>386</ele>
        <time>2014-12-28T09:41:44Z</time>
      </trkpt>
      <trkpt lat="47.52605" lon="6.77295">
        <ele>386</ele>
        <time>2014-12-28T09:41:47Z</time>
      </trkpt>
      <trkpt lat="47.52607" lon="6.77294">
        <ele>386</ele>
        <time>2014-12-28T09:41:48Z</time>
      </trkpt>
      <trkpt lat="47.52609" lon="6.77292">
        <ele>386</ele>
        <time>2014-12-28T09:41:49Z</time>
      </trkpt>
      <trkpt lat="47.52611" lon="6.7729">
        <ele>386</ele>
        <time>2014-12-28T09:41:50Z</time>
      </trkpt>
      <trkpt lat="47.52614" lon="6.77288">
        <ele>386</ele>
        <time>2014-12-28T09:41:51Z</time>
      </trkpt>
      <trkpt lat="47.52616" lon="6.77286">
        <ele>387</ele>
        <time>2014-12-28T09:41:52Z</time>
      </trkpt>
      <trkpt lat="47.52618" lon="6.77283">
        <ele>387</ele>
        <time>2014-12-28T09:41:53Z</time>
      </trkpt>
      <trkpt lat="47.52621" lon="6.77281">
        <ele>387</ele>
        <time>2014-12-28T09:41:54Z</time>
      </trkpt>
      <trkpt lat="47.52624" lon="6.77279">
        <ele>387</ele>
        <time>2014-12-28T09:41:55Z</time>
      </trkpt>
      <trkpt lat="47.52627" lon="6.77278">
        <ele>387</ele>
        <time>2014-12-28T09:41:56Z</time>
      </trkpt>
      <trkpt lat="47.5263" lon="6.77277">
        <ele>387</ele>
        <time>2014-12-28T09:41:57Z</time>
      </trkpt>
      <trkpt lat="47.52632" lon="6.77276">
        <ele>387</ele>
        <time>2014-12-28T09:41:58Z</time>
      </trkpt>
      <trkpt lat="47.52635" lon="6.77274">
        <ele>387</ele>
        <time>2014-12-28T09:41:59Z</time>
      </trkpt>
      <trkpt lat="47.52637" lon="6.77272">
        <ele>387</ele>
        <time>2014-12-28T09:42:00Z</time>
      </trkpt>
      <trkpt lat="47.5264" lon="6.7727">
        <ele>387</ele>
        <time>2014-12-28T09:42:01Z</time>
      </trkpt>
      <trkpt lat="47.52642" lon="6.77268">
        <ele>387</ele>
        <time>2014-12-28T09:42:02Z</time>
      </trkpt>
      <trkpt lat="47.52645" lon="6.77267">
        <ele>386</ele>
        <time>2014-12-28T09:42:03Z</time>
      </trkpt>
      <trkpt lat="47.52647" lon="6.77265">
        <ele>386</ele>
        <time>2014-12-28T09:42:04Z</time>
      </trkpt>
      <trkpt lat="47.5265" lon="6.77264">
        <ele>386</ele>
        <time>2014-12-28T09:42:05Z</time>
      </trkpt>
      <trkpt lat="47.52653" lon="6.77263">
        <ele>386</ele>
        <time>2014-12-28T09:42:06Z</time>
      </trkpt>
      <trkpt lat="47.52655" lon="6.77261">
        <ele>386</ele>
        <time>2014-12-28T09:42:07Z</time>
      </trkpt>
      <trkpt lat="47.52658" lon="6.7726">
        <ele>386</ele>
        <time>2014-12-28T09:42:08Z</time>
      </trkpt>
      <trkpt lat="47.52661" lon="6.77259">
        <ele>386</ele>
        <time>2014-12-28T09:42:09Z</time>
      </trkpt>
      <trkpt lat="47.52663" lon="6.77257">
        <ele>386</ele>
        <time>2014-12-28T09:42:10Z</time>
      </trkpt>
      <trkpt lat="47.52666" lon="6.77255">
        <ele>386</ele>
        <time>2014-12-28T09:42:11Z</time>
      </trkpt>
      <trkpt lat="47.52668" lon="6.77254">
        <ele>386</ele>
        <time>2014-12-28T09:42:12Z</time>
      </trkpt>
      <trkpt lat="47.5267" lon="6.77252">
        <ele>386</ele>
        <time>2014-12-28T09:42:13Z</time>
      </trkpt>
      <trkpt lat="47.52672" lon="6.7725">
        <ele>386</ele>
        <time>2014-12-28T09:42:14Z</time>
      </trkpt>
      <trkpt lat="47.52674" lon="6.77249">
        <ele>385</ele>
        <time>2014-12-28T09:42:15Z</time>
      </trkpt>
      <trkpt lat="47.52678" lon="6.77247">
        <ele>385</ele>
        <time>2014-12-28T09:42:16Z</time>
      </trkpt>
      <trkpt lat="47.52681" lon="6.77246">
        <ele>385</ele>
        <time>2014-12-28T09:42:17Z</time>
      </trkpt>
      <trkpt lat="47.52684" lon="6.77244">
        <ele>385</ele>
        <time>2014-12-28T09:42:18Z</time>
      </trkpt>
      <trkpt lat="47.52688" lon="6.77243">
        <ele>385</ele>
        <time>2014-12-28T09:42:19Z</time>
      </trkpt>
      <trkpt lat="47.52691" lon="6.77241">
        <ele>385</ele>
        <time>2014-12-28T09:42:20Z</time>
      </trkpt>
      <trkpt lat="47.52693" lon="6.77239">
        <ele>385</ele>
        <time>2014-12-28T09:42:21Z</time>
      </trkpt>
      <trkpt lat="47.52696" lon="6.77236">
        <ele>385</ele>
        <time>2014-12-28T09:42:22Z</time>
      </trkpt>
      <trkpt lat="47.52699" lon="6.77233">
        <ele>385</ele>
        <time>2014-12-28T09:42:23Z</time>
      </trkpt>
      <trkpt lat="47.52702" lon="6.77229">
        <ele>384</ele>
        <time>2014-12-28T09:42:24Z</time>
      </trkpt>
      <trkpt lat="47.52704" lon="6.77226">
        <ele>384</ele>
        <time>2014-12-28T09:42:25Z</time>
      </trkpt>
      <trkpt lat="47.52707" lon="6.77224">
        <ele>384</ele>
        <time>2014-12-28T09:42:26Z</time>
      </trkpt>
      <trkpt lat="47.5271" lon="6.77223">
        <ele>384</ele>
        <time>2014-12-28T09:42:27Z</time>
      </trkpt>
      <trkpt lat="47.52713" lon="6.77221">
        <ele>384</ele>
        <time>2014-12-28T09:42:28Z</time>
      </trkpt>
      <trkpt lat="47.52715" lon="6.7722">
        <ele>383</ele>
        <time>2014-12-28T09:42:29Z</time>
      </trkpt>
      <trkpt lat="47.52718" lon="6.77219">
        <ele>383</ele>
        <time>2014-12-28T09:42:30Z</time>
      </trkpt>
      <trkpt lat="47.52721" lon="6.77217">
        <ele>383</ele>
        <time>2014-12-28T09:42:31Z</time>
      </trkpt>
      <trkpt lat="47.52723" lon="6.77216">
        <ele>383</ele>
        <time>2014-12-28T09:42:32Z</time>
      </trkpt>
      <trkpt lat="47.52726" lon="6.77214">
        <ele>383</ele>
        <time>2014-12-28T09:42:33Z</time>
      </trkpt>
      <trkpt lat="47.52729" lon="6.77212">
        <ele>383</ele>
        <time>2014-12-28T09:42:34Z</time>
      </trkpt>
      <trkpt lat="47.52732" lon="6.77211">
        <ele>382</ele>
        <time>2014-12-28T09:42:35Z</time>
      </trkpt>
      <trkpt lat="47.52735" lon="6.77209">
        <ele>382</ele>
        <time>2014-12-28T09:42:36Z</time>
      </trkpt>
      <trkpt lat="47.52753" lon="6.77203">
        <ele>381</ele>
        <time>2014-12-28T09:42:44Z</time>
      </trkpt>
      <trkpt lat="47.52755" lon="6.77198">
        <ele>380</ele>
        <time>2014-12-28T09:42:46Z</time>
      </trkpt>
      <trkpt lat="47.52757" lon="6.77196">
        <ele>380</ele>
        <time>2014-12-28T09:42:47Z</time>
      </trkpt>
      <trkpt lat="47.52759" lon="6.77194">
        <ele>380</ele>
        <time>2014-12-28T09:42:48Z</time>
      </trkpt>
      <trkpt lat="47.52762" lon="6.77193">
        <ele>380</ele>
        <time>2014-12-28T09:42:49Z</time>
      </trkpt>
      <trkpt lat="47.52765" lon="6.77192">
        <ele>380</ele>
        <time>2014-12-28T09:42:50Z</time>
      </trkpt>
      <trkpt lat="47.52768" lon="6.77191">
        <ele>380</ele>
        <time>2014-12-28T09:42:51Z</time>
      </trkpt>
      <trkpt lat="47.52771" lon="6.7719">
        <ele>380</ele>
        <time>2014-12-28T09:42:52Z</time>
      </trkpt>
      <trkpt lat="47.52773" lon="6.77189">
        <ele>380</ele>
        <time>2014-12-28T09:42:53Z</time>
      </trkpt>
      <trkpt lat="47.52777" lon="6.77187">
        <ele>380</ele>
        <time>2014-12-28T09:42:55Z</time>
      </trkpt>
      <trkpt lat="47.52779" lon="6.77187">
        <ele>380</ele>
        <time>2014-12-28T09:42:56Z</time>
      </trkpt>
      <trkpt lat="47.52782" lon="6.77187">
        <ele>380</ele>
        <time>2014-12-28T09:43:00Z</time>
      </trkpt>
      <trkpt lat="47.52784" lon="6.77185">
        <ele>380</ele>
        <time>2014-12-28T09:43:01Z</time>
      </trkpt>
      <trkpt lat="47.52786" lon="6.77184">
        <ele>379</ele>
        <time>2014-12-28T09:43:02Z</time>
      </trkpt>
      <trkpt lat="47.5279" lon="6.77181">
        <ele>379</ele>
        <time>2014-12-28T09:43:03Z</time>
      </trkpt>
      <trkpt lat="47.52793" lon="6.77178">
        <ele>379</ele>
        <time>2014-12-28T09:43:04Z</time>
      </trkpt>
      <trkpt lat="47.52797" lon="6.77176">
        <ele>379</ele>
        <time>2014-12-28T09:43:05Z</time>
      </trkpt>
      <trkpt lat="47.528" lon="6.77173">
        <ele>378</ele>
        <time>2014-12-28T09:43:06Z</time>
      </trkpt>
      <trkpt lat="47.52803" lon="6.7717">
        <ele>378</ele>
        <time>2014-12-28T09:43:07Z</time>
      </trkpt>
      <trkpt lat="47.52807" lon="6.77168">
        <ele>378</ele>
        <time>2014-12-28T09:43:08Z</time>
      </trkpt>
      <trkpt lat="47.5281" lon="6.77167">
        <ele>377</ele>
        <time>2014-12-28T09:43:09Z</time>
      </trkpt>
      <trkpt lat="47.52814" lon="6.77165">
        <ele>377</ele>
        <time>2014-12-28T09:43:10Z</time>
      </trkpt>
      <trkpt lat="47.52818" lon="6.77163">
        <ele>377</ele>
        <time>2014-12-28T09:43:11Z</time>
      </trkpt>
      <trkpt lat="47.52822" lon="6.77161">
        <ele>377</ele>
        <time>2014-12-28T09:43:12Z</time>
      </trkpt>
      <trkpt lat="47.52825" lon="6.77158">
        <ele>377</ele>
        <time>2014-12-28T09:43:13Z</time>
      </trkpt>
      <trkpt lat="47.52828" lon="6.77156">
        <ele>377</ele>
        <time>2014-12-28T09:43:14Z</time>
      </trkpt>
      <trkpt lat="47.52831" lon="6.77154">
        <ele>377</ele>
        <time>2014-12-28T09:43:15Z</time>
      </trkpt>
      <trkpt lat="47.52834" lon="6.77152">
        <ele>377</ele>
        <time>2014-12-28T09:43:16Z</time>
      </trkpt>
      <trkpt lat="47.52836" lon="6.77151">
        <ele>377</ele>
        <time>2014-12-28T09:43:17Z</time>
      </trkpt>
      <trkpt lat="47.52839" lon="6.77149">
        <ele>377</ele>
        <time>2014-12-28T09:43:18Z</time>
      </trkpt>
      <trkpt lat="47.52841" lon="6.77148">
        <ele>377</ele>
        <time>2014-12-28T09:43:19Z</time>
      </trkpt>
      <trkpt lat="47.52844" lon="6.77145">
        <ele>377</ele>
        <time>2014-12-28T09:43:20Z</time>
      </trkpt>
      <trkpt lat="47.52847" lon="6.77143">
        <ele>377</ele>
        <time>2014-12-28T09:43:21Z</time>
      </trkpt>
      <trkpt lat="47.52849" lon="6.77141">
        <ele>377</ele>
        <time>2014-12-28T09:43:22Z</time>
      </trkpt>
      <trkpt lat="47.52852" lon="6.77139">
        <ele>377</ele>
        <time>2014-12-28T09:43:23Z</time>
      </trkpt>
      <trkpt lat="47.52854" lon="6.77138">
        <ele>377</ele>
        <time>2014-12-28T09:43:24Z</time>
      </trkpt>
      <trkpt lat="47.52855" lon="6.77135">
        <ele>377</ele>
        <time>2014-12-28T09:43:25Z</time>
      </trkpt>
      <trkpt lat="47.52857" lon="6.77133">
        <ele>377</ele>
        <time>2014-12-28T09:43:26Z</time>
      </trkpt>
      <trkpt lat="47.52859" lon="6.7713">
        <ele>377</ele>
        <time>2014-12-28T09:43:27Z</time>
      </trkpt>
      <trkpt lat="47.5286" lon="6.77127">
        <ele>377</ele>
        <time>2014-12-28T09:43:28Z</time>
      </trkpt>
      <trkpt lat="47.52861" lon="6.77125">
        <ele>377</ele>
        <time>2014-12-28T09:43:29Z</time>
      </trkpt>
      <trkpt lat="47.52863" lon="6.77122">
        <ele>377</ele>
        <time>2014-12-28T09:43:30Z</time>
      </trkpt>
      <trkpt lat="47.52864" lon="6.77119">
        <ele>377</ele>
        <time>2014-12-28T09:43:31Z</time>
      </trkpt>
      <trkpt lat="47.52865" lon="6.77115">
        <ele>377</ele>
        <time>2014-12-28T09:43:32Z</time>
      </trkpt>
      <trkpt lat="47.52865" lon="6.77111">
        <ele>377</ele>
        <time>2014-12-28T09:43:33Z</time>
      </trkpt>
      <trkpt lat="47.52865" lon="6.77108">
        <ele>377</ele>
        <time>2014-12-28T09:43:34Z</time>
      </trkpt>
      <trkpt lat="47.52866" lon="6.77104">
        <ele>377</ele>
        <time>2014-12-28T09:43:35Z</time>
      </trkpt>
      <trkpt lat="47.52867" lon="6.771">
        <ele>377</ele>
        <time>2014-12-28T09:43:36Z</time>
      </trkpt>
      <trkpt lat="47.5287" lon="6.77093">
        <ele>377</ele>
        <time>2014-12-28T09:43:39Z</time>
      </trkpt>
      <trkpt lat="47.52872" lon="6.77091">
        <ele>377</ele>
        <time>2014-12-28T09:43:40Z</time>
      </trkpt>
      <trkpt lat="47.52874" lon="6.77088">
        <ele>377</ele>
        <time>2014-12-28T09:43:41Z</time>
      </trkpt>
      <trkpt lat="47.52876" lon="6.77086">
        <ele>377</ele>
        <time>2014-12-28T09:43:42Z</time>
      </trkpt>
      <trkpt lat="47.52878" lon="6.77083">
        <ele>378</ele>
        <time>2014-12-28T09:43:43Z</time>
      </trkpt>
      <trkpt lat="47.5288" lon="6.77081">
        <ele>378</ele>
        <time>2014-12-28T09:43:44Z</time>
      </trkpt>
      <trkpt lat="47.52882" lon="6.7708">
        <ele>378</ele>
        <time>2014-12-28T09:43:45Z</time>
      </trkpt>
      <trkpt lat="47.52885" lon="6.77078">
        <ele>378</ele>
        <time>2014-12-28T09:43:47Z</time>
      </trkpt>
      <trkpt lat="47.52887" lon="6.77076">
        <ele>378</ele>
        <time>2014-12-28T09:43:48Z</time>
      </trkpt>
      <trkpt lat="47.52889" lon="6.77074">
        <ele>378</ele>
        <time>2014-12-28T09:43:49Z</time>
      </trkpt>
      <trkpt lat="47.52891" lon="6.77072">
        <ele>378</ele>
        <time>2014-12-28T09:43:50Z</time>
      </trkpt>
      <trkpt lat="47.52893" lon="6.77069">
        <ele>378</ele>
        <time>2014-12-28T09:43:51Z</time>
      </trkpt>
      <trkpt lat="47.52895" lon="6.77067">
        <ele>378</ele>
        <time>2014-12-28T09:43:52Z</time>
      </trkpt>
      <trkpt lat="47.52897" lon="6.77063">
        <ele>378</ele>
        <time>2014-12-28T09:43:53Z</time>
      </trkpt>
      <trkpt lat="47.529" lon="6.7706">
        <ele>378</ele>
        <time>2014-12-28T09:43:54Z</time>
      </trkpt>
      <trkpt lat="47.52903" lon="6.77057">
        <ele>378</ele>
        <time>2014-12-28T09:43:55Z</time>
      </trkpt>
      <trkpt lat="47.52905" lon="6.77054">
        <ele>378</ele>
        <time>2014-12-28T09:43:56Z</time>
      </trkpt>
      <trkpt lat="47.52908" lon="6.77051">
        <ele>378</ele>
        <time>2014-12-28T09:43:57Z</time>
      </trkpt>
      <trkpt lat="47.52911" lon="6.77049">
        <ele>378</ele>
        <time>2014-12-28T09:43:58Z</time>
      </trkpt>
      <trkpt lat="47.52914" lon="6.77046">
        <ele>378</ele>
        <time>2014-12-28T09:43:59Z</time>
      </trkpt>
      <trkpt lat="47.52917" lon="6.77043">
        <ele>379</ele>
        <time>2014-12-28T09:44:00Z</time>
      </trkpt>
      <trkpt lat="47.52919" lon="6.77039">
        <ele>379</ele>
        <time>2014-12-28T09:44:01Z</time>
      </trkpt>
      <trkpt lat="47.52921" lon="6.77035">
        <ele>379</ele>
        <time>2014-12-28T09:44:02Z</time>
      </trkpt>
      <trkpt lat="47.52922" lon="6.77031">
        <ele>379</ele>
        <time>2014-12-28T09:44:03Z</time>
      </trkpt>
      <trkpt lat="47.52922" lon="6.77027">
        <ele>379</ele>
        <time>2014-12-28T09:44:04Z</time>
      </trkpt>
      <trkpt lat="47.52921" lon="6.77023">
        <ele>379</ele>
        <time>2014-12-28T09:44:06Z</time>
      </trkpt>
      <trkpt lat="47.5292" lon="6.77021">
        <ele>379</ele>
        <time>2014-12-28T09:44:07Z</time>
      </trkpt>
      <trkpt lat="47.52919" lon="6.77016">
        <ele>379</ele>
        <time>2014-12-28T09:44:09Z</time>
      </trkpt>
      <trkpt lat="47.52918" lon="6.77014">
        <ele>379</ele>
        <time>2014-12-28T09:44:10Z</time>
      </trkpt>
      <trkpt lat="47.52915" lon="6.7701">
        <ele>379</ele>
        <time>2014-12-28T09:44:12Z</time>
      </trkpt>
      <trkpt lat="47.52913" lon="6.77009">
        <ele>379</ele>
        <time>2014-12-28T09:44:13Z</time>
      </trkpt>
      <trkpt lat="47.52912" lon="6.77004">
        <ele>379</ele>
        <time>2014-12-28T09:44:15Z</time>
      </trkpt>
      <trkpt lat="47.52913" lon="6.77001">
        <ele>379</ele>
        <time>2014-12-28T09:44:16Z</time>
      </trkpt>
      <trkpt lat="47.52913" lon="6.76997">
        <ele>379</ele>
        <time>2014-12-28T09:44:17Z</time>
      </trkpt>
      <trkpt lat="47.52914" lon="6.76994">
        <ele>379</ele>
        <time>2014-12-28T09:44:18Z</time>
      </trkpt>
      <trkpt lat="47.52916" lon="6.76991">
        <ele>379</ele>
        <time>2014-12-28T09:44:19Z</time>
      </trkpt>
      <trkpt lat="47.52917" lon="6.76988">
        <ele>379</ele>
        <time>2014-12-28T09:44:20Z</time>
      </trkpt>
      <trkpt lat="47.52921" lon="6.76985">
        <ele>379</ele>
        <time>2014-12-28T09:44:22Z</time>
      </trkpt>
      <trkpt lat="47.52922" lon="6.76982">
        <ele>379</ele>
        <time>2014-12-28T09:44:23Z</time>
      </trkpt>
      <trkpt lat="47.52924" lon="6.7698">
        <ele>379</ele>
        <time>2014-12-28T09:44:24Z</time>
      </trkpt>
      <trkpt lat="47.52926" lon="6.76977">
        <ele>379</ele>
        <time>2014-12-28T09:44:25Z</time>
      </trkpt>
      <trkpt lat="47.52928" lon="6.76974">
        <ele>379</ele>
        <time>2014-12-28T09:44:26Z</time>
      </trkpt>
      <trkpt lat="47.5293" lon="6.76972">
        <ele>379</ele>
        <time>2014-12-28T09:44:27Z</time>
      </trkpt>
      <trkpt lat="47.52932" lon="6.76969">
        <ele>379</ele>
        <time>2014-12-28T09:44:28Z</time>
      </trkpt>
      <trkpt lat="47.52932" lon="6.76966">
        <ele>379</ele>
        <time>2014-12-28T09:44:29Z</time>
      </trkpt>
      <trkpt lat="47.52933" lon="6.76962">
        <ele>379</ele>
        <time>2014-12-28T09:44:30Z</time>
      </trkpt>
      <trkpt lat="47.52934" lon="6.76957">
        <ele>379</ele>
        <time>2014-12-28T09:44:31Z</time>
      </trkpt>
      <trkpt lat="47.52934" lon="6.76953">
        <ele>379</ele>
        <time>2014-12-28T09:44:32Z</time>
      </trkpt>
      <trkpt lat="47.52934" lon="6.76948">
        <ele>379</ele>
        <time>2014-12-28T09:44:33Z</time>
      </trkpt>
      <trkpt lat="47.52934" lon="6.76943">
        <ele>379</ele>
        <time>2014-12-28T09:44:34Z</time>
      </trkpt>
      <trkpt lat="47.52934" lon="6.76939">
        <ele>379</ele>
        <time>2014-12-28T09:44:35Z</time>
      </trkpt>
      <trkpt lat="47.52933" lon="6.76935">
        <ele>379</ele>
        <time>2014-12-28T09:44:36Z</time>
      </trkpt>
      <trkpt lat="47.52933" lon="6.7693">
        <ele>379</ele>
        <time>2014-12-28T09:44:39Z</time>
      </trkpt>
      <trkpt lat="47.52935" lon="6.76932">
        <ele>379</ele>
        <time>2014-12-28T09:44:40Z</time>
      </trkpt>
      <trkpt lat="47.52937" lon="6.76934">
        <ele>379</ele>
        <time>2014-12-28T09:44:41Z</time>
      </trkpt>
      <trkpt lat="47.5294" lon="6.76937">
        <ele>379</ele>
        <time>2014-12-28T09:44:42Z</time>
      </trkpt>
      <trkpt lat="47.52942" lon="6.76939">
        <ele>380</ele>
        <time>2014-12-28T09:44:43Z</time>
      </trkpt>
      <trkpt lat="47.52945" lon="6.76942">
        <ele>380</ele>
        <time>2014-12-28T09:44:44Z</time>
      </trkpt>
      <trkpt lat="47.52947" lon="6.76944">
        <ele>380</ele>
        <time>2014-12-28T09:44:45Z</time>
      </trkpt>
      <trkpt lat="47.52949" lon="6.76947">
        <ele>380</ele>
        <time>2014-12-28T09:44:46Z</time>
      </trkpt>
      <trkpt lat="47.52951" lon="6.7695">
        <ele>380</ele>
        <time>2014-12-28T09:44:47Z</time>
      </trkpt>
      <trkpt lat="47.52953" lon="6.76953">
        <ele>381</ele>
        <time>2014-12-28T09:44:48Z</time>
      </trkpt>
      <trkpt lat="47.52955" lon="6.76957">
        <ele>381</ele>
        <time>2014-12-28T09:44:49Z</time>
      </trkpt>
      <trkpt lat="47.52956" lon="6.76959">
        <ele>381</ele>
        <time>2014-12-28T09:44:50Z</time>
      </trkpt>
      <trkpt lat="47.52958" lon="6.76961">
        <ele>381</ele>
        <time>2014-12-28T09:44:51Z</time>
      </trkpt>
      <trkpt lat="47.52961" lon="6.76963">
        <ele>381</ele>
        <time>2014-12-28T09:44:53Z</time>
      </trkpt>
      <trkpt lat="47.52962" lon="6.76964">
        <ele>381</ele>
        <time>2014-12-28T09:44:54Z</time>
      </trkpt>
      <trkpt lat="47.52965" lon="6.76966">
        <ele>382</ele>
        <time>2014-12-28T09:44:56Z</time>
      </trkpt>
      <trkpt lat="47.52967" lon="6.76967">
        <ele>382</ele>
        <time>2014-12-28T09:44:57Z</time>
      </trkpt>
      <trkpt lat="47.52971" lon="6.76965">
        <ele>382</ele>
        <time>2014-12-28T09:44:59Z</time>
      </trkpt>
      <trkpt lat="47.52973" lon="6.76964">
        <ele>382</ele>
        <time>2014-12-28T09:45:00Z</time>
      </trkpt>
      <trkpt lat="47.52975" lon="6.76962">
        <ele>382</ele>
        <time>2014-12-28T09:45:01Z</time>
      </trkpt>
      <trkpt lat="47.52977" lon="6.76959">
        <ele>382</ele>
        <time>2014-12-28T09:45:02Z</time>
      </trkpt>
      <trkpt lat="47.52978" lon="6.76955">
        <ele>382</ele>
        <time>2014-12-28T09:45:03Z</time>
      </trkpt>
      <trkpt lat="47.5298" lon="6.76952">
        <ele>383</ele>
        <time>2014-12-28T09:45:04Z</time>
      </trkpt>
      <trkpt lat="47.52981" lon="6.76948">
        <ele>383</ele>
        <time>2014-12-28T09:45:05Z</time>
      </trkpt>
      <trkpt lat="47.52982" lon="6.76944">
        <ele>383</ele>
        <time>2014-12-28T09:45:06Z</time>
      </trkpt>
      <trkpt lat="47.52984" lon="6.76942">
        <ele>383</ele>
        <time>2014-12-28T09:45:07Z</time>
      </trkpt>
      <trkpt lat="47.52986" lon="6.7694">
        <ele>383</ele>
        <time>2014-12-28T09:45:08Z</time>
      </trkpt>
      <trkpt lat="47.5299" lon="6.76939">
        <ele>383</ele>
        <time>2014-12-28T09:45:10Z</time>
      </trkpt>
      <trkpt lat="47.52991" lon="6.7694">
        <ele>383</ele>
        <time>2014-12-28T09:45:11Z</time>
      </trkpt>
      <trkpt lat="47.52994" lon="6.76942">
        <ele>383</ele>
        <time>2014-12-28T09:45:13Z</time>
      </trkpt>
      <trkpt lat="47.52995" lon="6.76944">
        <ele>383</ele>
        <time>2014-12-28T09:45:14Z</time>
      </trkpt>
      <trkpt lat="47.52996" lon="6.76948">
        <ele>383</ele>
        <time>2014-12-28T09:45:16Z</time>
      </trkpt>
      <trkpt lat="47.52995" lon="6.76951">
        <ele>383</ele>
        <time>2014-12-28T09:45:17Z</time>
      </trkpt>
      <trkpt lat="47.52994" lon="6.76954">
        <ele>383</ele>
        <time>2014-12-28T09:45:18Z</time>
      </trkpt>
      <trkpt lat="47.52992" lon="6.76957">
        <ele>383</ele>
        <time>2014-12-28T09:45:19Z</time>
      </trkpt>
      <trkpt lat="47.52991" lon="6.7696">
        <ele>383</ele>
        <time>2014-12-28T09:45:20Z</time>
      </trkpt>
      <trkpt lat="47.52989" lon="6.76963">
        <ele>383</ele>
        <time>2014-12-28T09:45:21Z</time>
      </trkpt>
      <trkpt lat="47.52988" lon="6.76967">
        <ele>383</ele>
        <time>2014-12-28T09:45:23Z</time>
      </trkpt>
      <trkpt lat="47.52987" lon="6.7697">
        <ele>383</ele>
        <time>2014-12-28T09:45:24Z</time>
      </trkpt>
      <trkpt lat="47.52987" lon="6.76976">
        <ele>383</ele>
        <time>2014-12-28T09:45:26Z</time>
      </trkpt>
      <trkpt lat="47.52987" lon="6.76979">
        <ele>383</ele>
        <time>2014-12-28T09:45:27Z</time>
      </trkpt>
      <trkpt lat="47.52984" lon="6.76983">
        <ele>383</ele>
        <time>2014-12-28T09:45:29Z</time>
      </trkpt>
      <trkpt lat="47.52982" lon="6.76985">
        <ele>383</ele>
        <time>2014-12-28T09:45:30Z</time>
      </trkpt>
      <trkpt lat="47.52979" lon="6.7699">
        <ele>383</ele>
        <time>2014-12-28T09:45:32Z</time>
      </trkpt>
      <trkpt lat="47.52978" lon="6.76992">
        <ele>383</ele>
        <time>2014-12-28T09:45:33Z</time>
      </trkpt>
      <trkpt lat="47.52975" lon="6.76997">
        <ele>383</ele>
        <time>2014-12-28T09:45:35Z</time>
      </trkpt>
      <trkpt lat="47.52974" lon="6.77">
        <ele>382</ele>
        <time>2014-12-28T09:45:36Z</time>
      </trkpt>
      <trkpt lat="47.52982" lon="6.7701">
        <ele>382</ele>
        <time>2014-12-28T09:45:44Z</time>
      </trkpt>
      <trkpt lat="47.52985" lon="6.7701">
        <ele>383</ele>
        <time>2014-12-28T09:45:45Z</time>
      </trkpt>
      <trkpt lat="47.52987" lon="6.77009">
        <ele>383</ele>
        <time>2014-12-28T09:45:46Z</time>
      </trkpt>
      <trkpt lat="47.5299" lon="6.77009">
        <ele>383</ele>
        <time>2014-12-28T09:45:46Z</time>
      </trkpt>
      <trkpt lat="47.52993" lon="6.77009">
        <ele>383</ele>
        <time>2014-12-28T09:45:48Z</time>
      </trkpt>
      <trkpt lat="47.52996" lon="6.77009">
        <ele>383</ele>
        <time>2014-12-28T09:45:49Z</time>
      </trkpt>
      <trkpt lat="47.52998" lon="6.77008">
        <ele>383</ele>
        <time>2014-12-28T09:45:51Z</time>
      </trkpt>
      <trkpt lat="47.53002" lon="6.77006">
        <ele>383</ele>
        <time>2014-12-28T09:45:53Z</time>
      </trkpt>
      <trkpt lat="47.53004" lon="6.77005">
        <ele>383</ele>
        <time>2014-12-28T09:45:54Z</time>
      </trkpt>
      <trkpt lat="47.53006" lon="6.76999">
        <ele>383</ele>
        <time>2014-12-28T09:45:57Z</time>
      </trkpt>
      <trkpt lat="47.53006" lon="6.76997">
        <ele>383</ele>
        <time>2014-12-28T09:45:58Z</time>
      </trkpt>
      <trkpt lat="47.53006" lon="6.76993">
        <ele>383</ele>
        <time>2014-12-28T09:45:59Z</time>
      </trkpt>
      <trkpt lat="47.53006" lon="6.7699">
        <ele>383</ele>
        <time>2014-12-28T09:46:00Z</time>
      </trkpt>
      <trkpt lat="47.53006" lon="6.76986">
        <ele>383</ele>
        <time>2014-12-28T09:46:01Z</time>
      </trkpt>
      <trkpt lat="47.53006" lon="6.76982">
        <ele>383</ele>
        <time>2014-12-28T09:46:02Z</time>
      </trkpt>
      <trkpt lat="47.53007" lon="6.76979">
        <ele>383</ele>
        <time>2014-12-28T09:46:03Z</time>
      </trkpt>
      <trkpt lat="47.53008" lon="6.76976">
        <ele>383</ele>
        <time>2014-12-28T09:46:04Z</time>
      </trkpt>
      <trkpt lat="47.5301" lon="6.76973">
        <ele>383</ele>
        <time>2014-12-28T09:46:05Z</time>
      </trkpt>
      <trkpt lat="47.53011" lon="6.76969">
        <ele>383</ele>
        <time>2014-12-28T09:46:06Z</time>
      </trkpt>
      <trkpt lat="47.53013" lon="6.76966">
        <ele>383</ele>
        <time>2014-12-28T09:46:07Z</time>
      </trkpt>
      <trkpt lat="47.53014" lon="6.76963">
        <ele>383</ele>
        <time>2014-12-28T09:46:08Z</time>
      </trkpt>
      <trkpt lat="47.53016" lon="6.76958">
        <ele>384</ele>
        <time>2014-12-28T09:46:10Z</time>
      </trkpt>
      <trkpt lat="47.53017" lon="6.76955">
        <ele>384</ele>
        <time>2014-12-28T09:46:11Z</time>
      </trkpt>
      <trkpt lat="47.53018" lon="6.7695">
        <ele>384</ele>
        <time>2014-12-28T09:46:13Z</time>
      </trkpt>
      <trkpt lat="47.53019" lon="6.76947">
        <ele>384</ele>
        <time>2014-12-28T09:46:14Z</time>
      </trkpt>
      <trkpt lat="47.53021" lon="6.76944">
        <ele>384</ele>
        <time>2014-12-28T09:46:15Z</time>
      </trkpt>
      <trkpt lat="47.53022" lon="6.76941">
        <ele>384</ele>
        <time>2014-12-28T09:46:16Z</time>
      </trkpt>
      <trkpt lat="47.53023" lon="6.76937">
        <ele>384</ele>
        <time>2014-12-28T09:46:17Z</time>
      </trkpt>
      <trkpt lat="47.53025" lon="6.76934">
        <ele>384</ele>
        <time>2014-12-28T09:46:18Z</time>
      </trkpt>
      <trkpt lat="47.53027" lon="6.76931">
        <ele>384</ele>
        <time>2014-12-28T09:46:19Z</time>
      </trkpt>
      <trkpt lat="47.53028" lon="6.76927">
        <ele>384</ele>
        <time>2014-12-28T09:46:20Z</time>
      </trkpt>
      <trkpt lat="47.53031" lon="6.76922">
        <ele>384</ele>
        <time>2014-12-28T09:46:22Z</time>
      </trkpt>
      <trkpt lat="47.53032" lon="6.7692">
        <ele>384</ele>
        <time>2014-12-28T09:46:23Z</time>
      </trkpt>
      <trkpt lat="47.53033" lon="6.76917">
        <ele>384</ele>
        <time>2014-12-28T09:46:24Z</time>
      </trkpt>
      <trkpt lat="47.53035" lon="6.76915">
        <ele>383</ele>
        <time>2014-12-28T09:46:25Z</time>
      </trkpt>
      <trkpt lat="47.53037" lon="6.76913">
        <ele>383</ele>
        <time>2014-12-28T09:46:26Z</time>
      </trkpt>
      <trkpt lat="47.53039" lon="6.7691">
        <ele>383</ele>
        <time>2014-12-28T09:46:27Z</time>
      </trkpt>
      <trkpt lat="47.53041" lon="6.76906">
        <ele>383</ele>
        <time>2014-12-28T09:46:29Z</time>
      </trkpt>
      <trkpt lat="47.53042" lon="6.76903">
        <ele>383</ele>
        <time>2014-12-28T09:46:30Z</time>
      </trkpt>
      <trkpt lat="47.53045" lon="6.769">
        <ele>383</ele>
        <time>2014-12-28T09:46:32Z</time>
      </trkpt>
      <trkpt lat="47.53046" lon="6.76898">
        <ele>383</ele>
        <time>2014-12-28T09:46:33Z</time>
      </trkpt>
      <trkpt lat="47.53049" lon="6.76895">
        <ele>383</ele>
        <time>2014-12-28T09:46:35Z</time>
      </trkpt>
      <trkpt lat="47.5305" lon="6.76894">
        <ele>384</ele>
        <time>2014-12-28T09:46:36Z</time>
      </trkpt>
      <trkpt lat="47.53053" lon="6.76887">
        <ele>384</ele>
        <time>2014-12-28T09:46:44Z</time>
      </trkpt>
      <trkpt lat="47.5305" lon="6.76887">
        <ele>383</ele>
        <time>2014-12-28T09:46:59Z</time>
      </trkpt>
      <trkpt lat="47.53048" lon="6.76888">
        <ele>383</ele>
        <time>2014-12-28T09:47:00Z</time>
      </trkpt>
      <trkpt lat="47.53046" lon="6.76892">
        <ele>383</ele>
        <time>2014-12-28T09:47:03Z</time>
      </trkpt>
      <trkpt lat="47.53045" lon="6.76894">
        <ele>383</ele>
        <time>2014-12-28T09:47:04Z</time>
      </trkpt>
      <trkpt lat="47.53044" lon="6.76899">
        <ele>383</ele>
        <time>2014-12-28T09:47:07Z</time>
      </trkpt>
      <trkpt lat="47.53043" lon="6.769">
        <ele>383</ele>
        <time>2014-12-28T09:47:08Z</time>
      </trkpt>
      <trkpt lat="47.53039" lon="6.76903">
        <ele>383</ele>
        <time>2014-12-28T09:47:12Z</time>
      </trkpt>
      <trkpt lat="47.53038" lon="6.76903">
        <ele>383</ele>
        <time>2014-12-28T09:47:13Z</time>
      </trkpt>
      <trkpt lat="47.53036" lon="6.76909">
        <ele>383</ele>
        <time>2014-12-28T09:47:17Z</time>
      </trkpt>
      <trkpt lat="47.53035" lon="6.7691">
        <ele>383</ele>
        <time>2014-12-28T09:47:18Z</time>
      </trkpt>
      <trkpt lat="47.53033" lon="6.76914">
        <ele>383</ele>
        <time>2014-12-28T09:47:21Z</time>
      </trkpt>
      <trkpt lat="47.53032" lon="6.76916">
        <ele>383</ele>
        <time>2014-12-28T09:47:22Z</time>
      </trkpt>
      <trkpt lat="47.53031" lon="6.76919">
        <ele>384</ele>
        <time>2014-12-28T09:47:23Z</time>
      </trkpt>
      <trkpt lat="47.5303" lon="6.76923">
        <ele>384</ele>
        <time>2014-12-28T09:47:24Z</time>
      </trkpt>
      <trkpt lat="47.53029" lon="6.76927">
        <ele>384</ele>
        <time>2014-12-28T09:47:25Z</time>
      </trkpt>
      <trkpt lat="47.53029" lon="6.7693">
        <ele>384</ele>
        <time>2014-12-28T09:47:26Z</time>
      </trkpt>
      <trkpt lat="47.53029" lon="6.76936">
        <ele>384</ele>
        <time>2014-12-28T09:47:28Z</time>
      </trkpt>
      <trkpt lat="47.53029" lon="6.76939">
        <ele>384</ele>
        <time>2014-12-28T09:47:29Z</time>
      </trkpt>
      <trkpt lat="47.53029" lon="6.76945">
        <ele>384</ele>
        <time>2014-12-28T09:47:31Z</time>
      </trkpt>
      <trkpt lat="47.53028" lon="6.76947">
        <ele>384</ele>
        <time>2014-12-28T09:47:32Z</time>
      </trkpt>
      <trkpt lat="47.53027" lon="6.76953">
        <ele>384</ele>
        <time>2014-12-28T09:47:52Z</time>
      </trkpt>
      <trkpt lat="47.53027" lon="6.76955">
        <ele>384</ele>
        <time>2014-12-28T09:47:53Z</time>
      </trkpt>
      <trkpt lat="47.53027" lon="6.76959">
        <ele>384</ele>
        <time>2014-12-28T09:47:54Z</time>
      </trkpt>
      <trkpt lat="47.53027" lon="6.76962">
        <ele>383</ele>
        <time>2014-12-28T09:47:55Z</time>
      </trkpt>
      <trkpt lat="47.53026" lon="6.76968">
        <ele>383</ele>
        <time>2014-12-28T09:47:57Z</time>
      </trkpt>
      <trkpt lat="47.53025" lon="6.76972">
        <ele>383</ele>
        <time>2014-12-28T09:47:58Z</time>
      </trkpt>
      <trkpt lat="47.53025" lon="6.76978">
        <ele>383</ele>
        <time>2014-12-28T09:47:59Z</time>
      </trkpt>
      <trkpt lat="47.53024" lon="6.76984">
        <ele>383</ele>
        <time>2014-12-28T09:48:00Z</time>
      </trkpt>
      <trkpt lat="47.53024" lon="6.76989">
        <ele>383</ele>
        <time>2014-12-28T09:48:01Z</time>
      </trkpt>
      <trkpt lat="47.53025" lon="6.76991">
        <ele>383</ele>
        <time>2014-12-28T09:48:02Z</time>
      </trkpt>
      <trkpt lat="47.53026" lon="6.76998">
        <ele>383</ele>
        <time>2014-12-28T09:48:08Z</time>
      </trkpt>
      <trkpt lat="47.53026" lon="6.76998">
        <ele>383</ele>
        <time>2014-12-28T09:48:09Z</time>
      </trkpt>
      <trkpt lat="47.53026" lon="6.77005">
        <ele>382</ele>
        <time>2014-12-28T09:48:21Z</time>
      </trkpt>
      <trkpt lat="47.53026" lon="6.77005">
        <ele>382</ele>
        <time>2014-12-28T09:48:22Z</time>
      </trkpt>
      <trkpt lat="47.53022" lon="6.77006">
        <ele>382</ele>
        <time>2014-12-28T09:48:36Z</time>
      </trkpt>
      <trkpt lat="47.53015" lon="6.77011">
        <ele>383</ele>
        <time>2014-12-28T09:48:44Z</time>
      </trkpt>
      <trkpt lat="47.53013" lon="6.77013">
        <ele>383</ele>
        <time>2014-12-28T09:48:46Z</time>
      </trkpt>
      <trkpt lat="47.53011" lon="6.77013">
        <ele>383</ele>
        <time>2014-12-28T09:48:47Z</time>
      </trkpt>
      <trkpt lat="47.53008" lon="6.77014">
        <ele>383</ele>
        <time>2014-12-28T09:48:48Z</time>
      </trkpt>
      <trkpt lat="47.53006" lon="6.77013">
        <ele>383</ele>
        <time>2014-12-28T09:48:49Z</time>
      </trkpt>
      <trkpt lat="47.53003" lon="6.77013">
        <ele>383</ele>
        <time>2014-12-28T09:48:50Z</time>
      </trkpt>
      <trkpt lat="47.53" lon="6.77012">
        <ele>383</ele>
        <time>2014-12-28T09:48:50Z</time>
      </trkpt>
      <trkpt lat="47.52997" lon="6.77011">
        <ele>383</ele>
        <time>2014-12-28T09:48:52Z</time>
      </trkpt>
      <trkpt lat="47.52995" lon="6.7701">
        <ele>383</ele>
        <time>2014-12-28T09:48:53Z</time>
      </trkpt>
      <trkpt lat="47.5299" lon="6.77011">
        <ele>383</ele>
        <time>2014-12-28T09:48:56Z</time>
      </trkpt>
      <trkpt lat="47.52989" lon="6.7701">
        <ele>383</ele>
        <time>2014-12-28T09:48:57Z</time>
      </trkpt>
      <trkpt lat="47.52987" lon="6.77007">
        <ele>383</ele>
        <time>2014-12-28T09:48:59Z</time>
      </trkpt>
      <trkpt lat="47.52986" lon="6.77003">
        <ele>383</ele>
        <time>2014-12-28T09:49:00Z</time>
      </trkpt>
      <trkpt lat="47.52986" lon="6.76999">
        <ele>383</ele>
        <time>2014-12-28T09:49:01Z</time>
      </trkpt>
      <trkpt lat="47.52987" lon="6.76996">
        <ele>383</ele>
        <time>2014-12-28T09:49:02Z</time>
      </trkpt>
      <trkpt lat="47.52988" lon="6.76991">
        <ele>383</ele>
        <time>2014-12-28T09:49:04Z</time>
      </trkpt>
      <trkpt lat="47.52989" lon="6.7699">
        <ele>383</ele>
        <time>2014-12-28T09:49:05Z</time>
      </trkpt>
      <trkpt lat="47.52992" lon="6.76986">
        <ele>383</ele>
        <time>2014-12-28T09:49:08Z</time>
      </trkpt>
      <trkpt lat="47.52993" lon="6.76985">
        <ele>383</ele>
        <time>2014-12-28T09:49:09Z</time>
      </trkpt>
      <trkpt lat="47.52995" lon="6.76979">
        <ele>383</ele>
        <time>2014-12-28T09:49:12Z</time>
      </trkpt>
      <trkpt lat="47.52995" lon="6.76976">
        <ele>383</ele>
        <time>2014-12-28T09:49:13Z</time>
      </trkpt>
      <trkpt lat="47.52996" lon="6.7697">
        <ele>383</ele>
        <time>2014-12-28T09:49:16Z</time>
      </trkpt>
      <trkpt lat="47.52996" lon="6.76968">
        <ele>383</ele>
        <time>2014-12-28T09:49:17Z</time>
      </trkpt>
      <trkpt lat="47.52997" lon="6.76961">
        <ele>383</ele>
        <time>2014-12-28T09:49:20Z</time>
      </trkpt>
      <trkpt lat="47.52998" lon="6.76959">
        <ele>383</ele>
        <time>2014-12-28T09:49:21Z</time>
      </trkpt>
      <trkpt lat="47.53001" lon="6.76954">
        <ele>384</ele>
        <time>2014-12-28T09:49:23Z</time>
      </trkpt>
      <trkpt lat="47.53002" lon="6.76952">
        <ele>384</ele>
        <time>2014-12-28T09:49:24Z</time>
      </trkpt>
      <trkpt lat="47.53005" lon="6.76949">
        <ele>384</ele>
        <time>2014-12-28T09:49:26Z</time>
      </trkpt>
      <trkpt lat="47.53006" lon="6.76946">
        <ele>384</ele>
        <time>2014-12-28T09:49:27Z</time>
      </trkpt>
      <trkpt lat="47.53007" lon="6.76941">
        <ele>384</ele>
        <time>2014-12-28T09:49:29Z</time>
      </trkpt>
      <trkpt lat="47.53007" lon="6.76938">
        <ele>384</ele>
        <time>2014-12-28T09:49:30Z</time>
      </trkpt>
      <trkpt lat="47.53006" lon="6.76932">
        <ele>384</ele>
        <time>2014-12-28T09:49:32Z</time>
      </trkpt>
      <trkpt lat="47.53006" lon="6.7693">
        <ele>384</ele>
        <time>2014-12-28T09:49:33Z</time>
      </trkpt>
      <trkpt lat="47.53002" lon="6.7693">
        <ele>384</ele>
        <time>2014-12-28T09:49:36Z</time>
      </trkpt>
      <trkpt lat="47.52993" lon="6.76944">
        <ele>383</ele>
        <time>2014-12-28T09:49:44Z</time>
      </trkpt>
      <trkpt lat="47.52991" lon="6.76948">
        <ele>383</ele>
        <time>2014-12-28T09:49:47Z</time>
      </trkpt>
      <trkpt lat="47.5299" lon="6.76949">
        <ele>383</ele>
        <time>2014-12-28T09:49:48Z</time>
      </trkpt>
      <trkpt lat="47.52986" lon="6.76951">
        <ele>383</ele>
        <time>2014-12-28T09:49:50Z</time>
      </trkpt>
      <trkpt lat="47.52985" lon="6.76951">
        <ele>383</ele>
        <time>2014-12-28T09:49:51Z</time>
      </trkpt>
      <trkpt lat="47.52982" lon="6.7695">
        <ele>383</ele>
        <time>2014-12-28T09:49:53Z</time>
      </trkpt>
      <trkpt lat="47.52981" lon="6.76947">
        <ele>383</ele>
        <time>2014-12-28T09:49:54Z</time>
      </trkpt>
      <trkpt lat="47.52979" lon="6.76941">
        <ele>383</ele>
        <time>2014-12-28T09:49:56Z</time>
      </trkpt>
      <trkpt lat="47.52978" lon="6.76938">
        <ele>383</ele>
        <time>2014-12-28T09:49:57Z</time>
      </trkpt>
      <trkpt lat="47.52978" lon="6.76932">
        <ele>383</ele>
        <time>2014-12-28T09:49:59Z</time>
      </trkpt>
      <trkpt lat="47.52978" lon="6.76929">
        <ele>383</ele>
        <time>2014-12-28T09:50:00Z</time>
      </trkpt>
      <trkpt lat="47.52977" lon="6.76926">
        <ele>383</ele>
        <time>2014-12-28T09:50:01Z</time>
      </trkpt>
      <trkpt lat="47.52976" lon="6.76922">
        <ele>383</ele>
        <time>2014-12-28T09:50:02Z</time>
      </trkpt>
      <trkpt lat="47.52975" lon="6.76919">
        <ele>383</ele>
        <time>2014-12-28T09:50:03Z</time>
      </trkpt>
      <trkpt lat="47.52973" lon="6.76915">
        <ele>382</ele>
        <time>2014-12-28T09:50:04Z</time>
      </trkpt>
      <trkpt lat="47.52971" lon="6.76912">
        <ele>382</ele>
        <time>2014-12-28T09:50:05Z</time>
      </trkpt>
      <trkpt lat="47.5297" lon="6.76909">
        <ele>381</ele>
        <time>2014-12-28T09:50:05Z</time>
      </trkpt>
      <trkpt lat="47.52967" lon="6.76905">
        <ele>381</ele>
        <time>2014-12-28T09:50:07Z</time>
      </trkpt>
      <trkpt lat="47.52965" lon="6.76903">
        <ele>381</ele>
        <time>2014-12-28T09:50:08Z</time>
      </trkpt>
      <trkpt lat="47.52961" lon="6.76899">
        <ele>380</ele>
        <time>2014-12-28T09:50:10Z</time>
      </trkpt>
      <trkpt lat="47.5296" lon="6.76897">
        <ele>380</ele>
        <time>2014-12-28T09:50:11Z</time>
      </trkpt>
      <trkpt lat="47.52956" lon="6.76895">
        <ele>380</ele>
        <time>2014-12-28T09:50:14Z</time>
      </trkpt>
      <trkpt lat="47.52955" lon="6.76897">
        <ele>380</ele>
        <time>2014-12-28T09:50:15Z</time>
      </trkpt>
      <trkpt lat="47.52953" lon="6.769">
        <ele>380</ele>
        <time>2014-12-28T09:50:16Z</time>
      </trkpt>
      <trkpt lat="47.52952" lon="6.76903">
        <ele>379</ele>
        <time>2014-12-28T09:50:17Z</time>
      </trkpt>
      <trkpt lat="47.52951" lon="6.76909">
        <ele>379</ele>
        <time>2014-12-28T09:50:19Z</time>
      </trkpt>
      <trkpt lat="47.5295" lon="6.76913">
        <ele>379</ele>
        <time>2014-12-28T09:50:20Z</time>
      </trkpt>
      <trkpt lat="47.5295" lon="6.76916">
        <ele>379</ele>
        <time>2014-12-28T09:50:21Z</time>
      </trkpt>
      <trkpt lat="47.52949" lon="6.76919">
        <ele>380</ele>
        <time>2014-12-28T09:50:22Z</time>
      </trkpt>
      <trkpt lat="47.52949" lon="6.76926">
        <ele>380</ele>
        <time>2014-12-28T09:50:25Z</time>
      </trkpt>
      <trkpt lat="47.52948" lon="6.76926">
        <ele>380</ele>
        <time>2014-12-28T09:50:26Z</time>
      </trkpt>
      <trkpt lat="47.52946" lon="6.76932">
        <ele>380</ele>
        <time>2014-12-28T09:50:29Z</time>
      </trkpt>
      <trkpt lat="47.52946" lon="6.76935">
        <ele>380</ele>
        <time>2014-12-28T09:50:30Z</time>
      </trkpt>
      <trkpt lat="47.52944" lon="6.76941">
        <ele>380</ele>
        <time>2014-12-28T09:50:32Z</time>
      </trkpt>
      <trkpt lat="47.52944" lon="6.76943">
        <ele>380</ele>
        <time>2014-12-28T09:50:33Z</time>
      </trkpt>
      <trkpt lat="47.52942" lon="6.76948">
        <ele>380</ele>
        <time>2014-12-28T09:50:35Z</time>
      </trkpt>
      <trkpt lat="47.5294" lon="6.76951">
        <ele>380</ele>
        <time>2014-12-28T09:50:36Z</time>
      </trkpt>
      <trkpt lat="47.52935" lon="6.7697">
        <ele>379</ele>
        <time>2014-12-28T09:50:44Z</time>
      </trkpt>
      <trkpt lat="47.52939" lon="6.7697">
        <ele>380</ele>
        <time>2014-12-28T09:50:49Z</time>
      </trkpt>
      <trkpt lat="47.5294" lon="6.7697">
        <ele>380</ele>
        <time>2014-12-28T09:50:50Z</time>
      </trkpt>
      <trkpt lat="47.52942" lon="6.76976">
        <ele>380</ele>
        <time>2014-12-28T09:50:54Z</time>
      </trkpt>
      <trkpt lat="47.52942" lon="6.76978">
        <ele>380</ele>
        <time>2014-12-28T09:50:55Z</time>
      </trkpt>
      <trkpt lat="47.52942" lon="6.76983">
        <ele>380</ele>
        <time>2014-12-28T09:50:57Z</time>
      </trkpt>
      <trkpt lat="47.52943" lon="6.76986">
        <ele>380</ele>
        <time>2014-12-28T09:50:58Z</time>
      </trkpt>
      <trkpt lat="47.52945" lon="6.76991">
        <ele>380</ele>
        <time>2014-12-28T09:51:00Z</time>
      </trkpt>
      <trkpt lat="47.52946" lon="6.76993">
        <ele>380</ele>
        <time>2014-12-28T09:51:01Z</time>
      </trkpt>
      <trkpt lat="47.52948" lon="6.76998">
        <ele>380</ele>
        <time>2014-12-28T09:51:04Z</time>
      </trkpt>
      <trkpt lat="47.52948" lon="6.77">
        <ele>379</ele>
        <time>2014-12-28T09:51:05Z</time>
      </trkpt>
      <trkpt lat="47.52946" lon="6.77005">
        <ele>379</ele>
        <time>2014-12-28T09:51:07Z</time>
      </trkpt>
      <trkpt lat="47.52945" lon="6.77007">
        <ele>379</ele>
        <time>2014-12-28T09:51:08Z</time>
      </trkpt>
      <trkpt lat="47.52943" lon="6.77011">
        <ele>379</ele>
        <time>2014-12-28T09:51:10Z</time>
      </trkpt>
      <trkpt lat="47.52941" lon="6.77013">
        <ele>379</ele>
        <time>2014-12-28T09:51:11Z</time>
      </trkpt>
      <trkpt lat="47.52939" lon="6.77016">
        <ele>379</ele>
        <time>2014-12-28T09:51:13Z</time>
      </trkpt>
      <trkpt lat="47.52938" lon="6.77018">
        <ele>379</ele>
        <time>2014-12-28T09:51:14Z</time>
      </trkpt>
      <trkpt lat="47.52936" lon="6.77022">
        <ele>379</ele>
        <time>2014-12-28T09:51:16Z</time>
      </trkpt>
      <trkpt lat="47.52935" lon="6.77024">
        <ele>379</ele>
        <time>2014-12-28T09:51:17Z</time>
      </trkpt>
      <trkpt lat="47.52933" lon="6.77028">
        <ele>379</ele>
        <time>2014-12-28T09:51:19Z</time>
      </trkpt>
      <trkpt lat="47.52932" lon="6.7703">
        <ele>379</ele>
        <time>2014-12-28T09:51:20Z</time>
      </trkpt>
      <trkpt lat="47.52929" lon="6.77033">
        <ele>379</ele>
        <time>2014-12-28T09:51:22Z</time>
      </trkpt>
      <trkpt lat="47.52928" lon="6.77035">
        <ele>379</ele>
        <time>2014-12-28T09:51:23Z</time>
      </trkpt>
      <trkpt lat="47.52926" lon="6.77039">
        <ele>379</ele>
        <time>2014-12-28T09:51:25Z</time>
      </trkpt>
      <trkpt lat="47.52925" lon="6.77042">
        <ele>379</ele>
        <time>2014-12-28T09:51:26Z</time>
      </trkpt>
      <trkpt lat="47.52922" lon="6.77046">
        <ele>379</ele>
        <time>2014-12-28T09:51:28Z</time>
      </trkpt>
      <trkpt lat="47.5292" lon="6.77047">
        <ele>379</ele>
        <time>2014-12-28T09:51:29Z</time>
      </trkpt>
      <trkpt lat="47.52916" lon="6.77048">
        <ele>378</ele>
        <time>2014-12-28T09:51:31Z</time>
      </trkpt>
      <trkpt lat="47.52914" lon="6.77049">
        <ele>378</ele>
        <time>2014-12-28T09:51:32Z</time>
      </trkpt>
      <trkpt lat="47.5291" lon="6.77051">
        <ele>378</ele>
        <time>2014-12-28T09:51:35Z</time>
      </trkpt>
      <trkpt lat="47.5291" lon="6.77053">
        <ele>378</ele>
        <time>2014-12-28T09:51:36Z</time>
      </trkpt>
      <trkpt lat="47.52912" lon="6.77067">
        <ele>378</ele>
        <time>2014-12-28T09:51:43Z</time>
      </trkpt>
      <trkpt lat="47.52912" lon="6.77069">
        <ele>378</ele>
        <time>2014-12-28T09:51:43Z</time>
      </trkpt>
      <trkpt lat="47.52911" lon="6.77075">
        <ele>378</ele>
        <time>2014-12-28T09:51:47Z</time>
      </trkpt>
      <trkpt lat="47.5291" lon="6.77079">
        <ele>378</ele>
        <time>2014-12-28T09:51:49Z</time>
      </trkpt>
      <trkpt lat="47.52908" lon="6.77084">
        <ele>378</ele>
        <time>2014-12-28T09:51:50Z</time>
      </trkpt>
      <trkpt lat="47.52907" lon="6.77088">
        <ele>378</ele>
        <time>2014-12-28T09:51:51Z</time>
      </trkpt>
      <trkpt lat="47.52906" lon="6.77092">
        <ele>378</ele>
        <time>2014-12-28T09:51:52Z</time>
      </trkpt>
      <trkpt lat="47.52905" lon="6.77096">
        <ele>378</ele>
        <time>2014-12-28T09:51:53Z</time>
      </trkpt>
      <trkpt lat="47.52904" lon="6.77099">
        <ele>378</ele>
        <time>2014-12-28T09:51:54Z</time>
      </trkpt>
      <trkpt lat="47.52903" lon="6.77103">
        <ele>378</ele>
        <time>2014-12-28T09:51:55Z</time>
      </trkpt>
      <trkpt lat="47.52902" lon="6.77106">
        <ele>378</ele>
        <time>2014-12-28T09:51:56Z</time>
      </trkpt>
      <trkpt lat="47.529" lon="6.77109">
        <ele>378</ele>
        <time>2014-12-28T09:51:57Z</time>
      </trkpt>
      <trkpt lat="47.52898" lon="6.77113">
        <ele>378</ele>
        <time>2014-12-28T09:51:58Z</time>
      </trkpt>
      <trkpt lat="47.52897" lon="6.77116">
        <ele>377</ele>
        <time>2014-12-28T09:51:59Z</time>
      </trkpt>
      <trkpt lat="47.52895" lon="6.77119">
        <ele>377</ele>
        <time>2014-12-28T09:52:00Z</time>
      </trkpt>
      <trkpt lat="47.52894" lon="6.77122">
        <ele>377</ele>
        <time>2014-12-28T09:52:01Z</time>
      </trkpt>
      <trkpt lat="47.52893" lon="6.77125">
        <ele>377</ele>
        <time>2014-12-28T09:52:02Z</time>
      </trkpt>
      <trkpt lat="47.52891" lon="6.77128">
        <ele>377</ele>
        <time>2014-12-28T09:52:03Z</time>
      </trkpt>
      <trkpt lat="47.5289" lon="6.77131">
        <ele>377</ele>
        <time>2014-12-28T09:52:04Z</time>
      </trkpt>
      <trkpt lat="47.52887" lon="6.77136">
        <ele>377</ele>
        <time>2014-12-28T09:52:06Z</time>
      </trkpt>
      <trkpt lat="47.52886" lon="6.77138">
        <ele>377</ele>
        <time>2014-12-28T09:52:07Z</time>
      </trkpt>
      <trkpt lat="47.52883" lon="6.77143">
        <ele>377</ele>
        <time>2014-12-28T09:52:09Z</time>
      </trkpt>
      <trkpt lat="47.52882" lon="6.77145">
        <ele>377</ele>
        <time>2014-12-28T09:52:10Z</time>
      </trkpt>
      <trkpt lat="47.52879" lon="6.77149">
        <ele>377</ele>
        <time>2014-12-28T09:52:12Z</time>
      </trkpt>
      <trkpt lat="47.52878" lon="6.77151">
        <ele>377</ele>
        <time>2014-12-28T09:52:13Z</time>
      </trkpt>
      <trkpt lat="47.52875" lon="6.77154">
        <ele>377</ele>
        <time>2014-12-28T09:52:15Z</time>
      </trkpt>
      <trkpt lat="47.52874" lon="6.77154">
        <ele>377</ele>
        <time>2014-12-28T09:52:16Z</time>
      </trkpt>
      <trkpt lat="47.5287" lon="6.77156">
        <ele>377</ele>
        <time>2014-12-28T09:52:18Z</time>
      </trkpt>
      <trkpt lat="47.52867" lon="6.77158">
        <ele>377</ele>
        <time>2014-12-28T09:52:19Z</time>
      </trkpt>
      <trkpt lat="47.52864" lon="6.77161">
        <ele>377</ele>
        <time>2014-12-28T09:52:21Z</time>
      </trkpt>
      <trkpt lat="47.52863" lon="6.77162">
        <ele>377</ele>
        <time>2014-12-28T09:52:22Z</time>
      </trkpt>
      <trkpt lat="47.52859" lon="6.77163">
        <ele>377</ele>
        <time>2014-12-28T09:52:24Z</time>
      </trkpt>
      <trkpt lat="47.52856" lon="6.77163">
        <ele>377</ele>
        <time>2014-12-28T09:52:25Z</time>
      </trkpt>
      <trkpt lat="47.52854" lon="6.77162">
        <ele>377</ele>
        <time>2014-12-28T09:52:26Z</time>
      </trkpt>
      <trkpt lat="47.52852" lon="6.77162">
        <ele>377</ele>
        <time>2014-12-28T09:52:27Z</time>
      </trkpt>
      <trkpt lat="47.52847" lon="6.77163">
        <ele>377</ele>
        <time>2014-12-28T09:52:29Z</time>
      </trkpt>
      <trkpt lat="47.52845" lon="6.77164">
        <ele>377</ele>
        <time>2014-12-28T09:52:30Z</time>
      </trkpt>
      <trkpt lat="47.52841" lon="6.77166">
        <ele>377</ele>
        <time>2014-12-28T09:52:32Z</time>
      </trkpt>
      <trkpt lat="47.52839" lon="6.77166">
        <ele>377</ele>
        <time>2014-12-28T09:52:33Z</time>
      </trkpt>
      <trkpt lat="47.52836" lon="6.77167">
        <ele>377</ele>
        <time>2014-12-28T09:52:34Z</time>
      </trkpt>
      <trkpt lat="47.52834" lon="6.77167">
        <ele>377</ele>
        <time>2014-12-28T09:52:35Z</time>
      </trkpt>
      <trkpt lat="47.52832" lon="6.77167">
        <ele>377</ele>
        <time>2014-12-28T09:52:36Z</time>
      </trkpt>
      <trkpt lat="47.52829" lon="6.77166">
        <ele>377</ele>
        <time>2014-12-28T09:52:39Z</time>
      </trkpt>
      <trkpt lat="47.52826" lon="6.77161">
        <ele>377</ele>
        <time>2014-12-28T09:52:44Z</time>
      </trkpt>
      <trkpt lat="47.52825" lon="6.7716">
        <ele>377</ele>
        <time>2014-12-28T09:52:46Z</time>
      </trkpt>
      <trkpt lat="47.52823" lon="6.77155">
        <ele>377</ele>
        <time>2014-12-28T09:52:50Z</time>
      </trkpt>
      <trkpt lat="47.52823" lon="6.77153">
        <ele>377</ele>
        <time>2014-12-28T09:52:51Z</time>
      </trkpt>
      <trkpt lat="47.5282" lon="6.77148">
        <ele>377</ele>
        <time>2014-12-28T09:52:54Z</time>
      </trkpt>
      <trkpt lat="47.52818" lon="6.77147">
        <ele>377</ele>
        <time>2014-12-28T09:52:55Z</time>
      </trkpt>
      <trkpt lat="47.52815" lon="6.77145">
        <ele>377</ele>
        <time>2014-12-28T09:52:57Z</time>
      </trkpt>
      <trkpt lat="47.52813" lon="6.77145">
        <ele>378</ele>
        <time>2014-12-28T09:52:58Z</time>
      </trkpt>
      <trkpt lat="47.52809" lon="6.77144">
        <ele>378</ele>
        <time>2014-12-28T09:53:03Z</time>
      </trkpt>
      <trkpt lat="47.52808" lon="6.77145">
        <ele>378</ele>
        <time>2014-12-28T09:53:04Z</time>
      </trkpt>
      <trkpt lat="47.52806" lon="6.7715">
        <ele>378</ele>
        <time>2014-12-28T09:53:11Z</time>
      </trkpt>
      <trkpt lat="47.52806" lon="6.77151">
        <ele>378</ele>
        <time>2014-12-28T09:53:12Z</time>
      </trkpt>
      <trkpt lat="47.52807" lon="6.77157">
        <ele>378</ele>
        <time>2014-12-28T09:54:00Z</time>
      </trkpt>
      <trkpt lat="47.52807" lon="6.77158">
        <ele>378</ele>
        <time>2014-12-28T09:54:01Z</time>
      </trkpt>
      <trkpt lat="47.52807" lon="6.77164">
        <ele>378</ele>
        <time>2014-12-28T09:54:09Z</time>
      </trkpt>
      <trkpt lat="47.52807" lon="6.77165">
        <ele>378</ele>
        <time>2014-12-28T09:54:10Z</time>
      </trkpt>
      <trkpt lat="47.5281" lon="6.77168">
        <ele>378</ele>
        <time>2014-12-28T09:54:15Z</time>
      </trkpt>
      <trkpt lat="47.52811" lon="6.77168">
        <ele>377</ele>
        <time>2014-12-28T09:54:16Z</time>
      </trkpt>
      <trkpt lat="47.52815" lon="6.77167">
        <ele>377</ele>
        <time>2014-12-28T09:54:26Z</time>
      </trkpt>
      <trkpt lat="47.52817" lon="6.77167">
        <ele>377</ele>
        <time>2014-12-28T09:54:27Z</time>
      </trkpt>
      <trkpt lat="47.52819" lon="6.77167">
        <ele>377</ele>
        <time>2014-12-28T09:54:28Z</time>
      </trkpt>
      <trkpt lat="47.52821" lon="6.77167">
        <ele>377</ele>
        <time>2014-12-28T09:54:29Z</time>
      </trkpt>
      <trkpt lat="47.52825" lon="6.77166">
        <ele>377</ele>
        <time>2014-12-28T09:54:31Z</time>
      </trkpt>
      <trkpt lat="47.52827" lon="6.77166">
        <ele>377</ele>
        <time>2014-12-28T09:54:32Z</time>
      </trkpt>
      <trkpt lat="47.5283" lon="6.77163">
        <ele>377</ele>
        <time>2014-12-28T09:54:34Z</time>
      </trkpt>
      <trkpt lat="47.52831" lon="6.77161">
        <ele>377</ele>
        <time>2014-12-28T09:54:35Z</time>
      </trkpt>
      <trkpt lat="47.52833" lon="6.7716">
        <ele>377</ele>
        <time>2014-12-28T09:54:36Z</time>
      </trkpt>
      <trkpt lat="47.52836" lon="6.77155">
        <ele>377</ele>
        <time>2014-12-28T09:54:39Z</time>
      </trkpt>
      <trkpt lat="47.5284" lon="6.77152">
        <ele>377</ele>
        <time>2014-12-28T09:54:42Z</time>
      </trkpt>
      <trkpt lat="47.52842" lon="6.7715">
        <ele>377</ele>
        <time>2014-12-28T09:54:43Z</time>
      </trkpt>
      <trkpt lat="47.52844" lon="6.77149">
        <ele>377</ele>
        <time>2014-12-28T09:54:44Z</time>
      </trkpt>
      <trkpt lat="47.52846" lon="6.77148">
        <ele>377</ele>
        <time>2014-12-28T09:54:45Z</time>
      </trkpt>
      <trkpt lat="47.5285" lon="6.77146">
        <ele>377</ele>
        <time>2014-12-28T09:54:49Z</time>
      </trkpt>
      <trkpt lat="47.5285" lon="6.77146">
        <ele>377</ele>
        <time>2014-12-28T09:54:50Z</time>
      </trkpt>
      <trkpt lat="47.52852" lon="6.77141">
        <ele>377</ele>
        <time>2014-12-28T09:54:54Z</time>
      </trkpt>
      <trkpt lat="47.52852" lon="6.77139">
        <ele>377</ele>
        <time>2014-12-28T09:54:55Z</time>
      </trkpt>
      <trkpt lat="47.52854" lon="6.77135">
        <ele>377</ele>
        <time>2014-12-28T09:54:58Z</time>
      </trkpt>
      <trkpt lat="47.52855" lon="6.77133">
        <ele>377</ele>
        <time>2014-12-28T09:54:59Z</time>
      </trkpt>
      <trkpt lat="47.52858" lon="6.7713">
        <ele>377</ele>
        <time>2014-12-28T09:55:01Z</time>
      </trkpt>
      <trkpt lat="47.52859" lon="6.77129">
        <ele>377</ele>
        <time>2014-12-28T09:55:02Z</time>
      </trkpt>
      <trkpt lat="47.52861" lon="6.77124">
        <ele>377</ele>
        <time>2014-12-28T09:55:04Z</time>
      </trkpt>
      <trkpt lat="47.52862" lon="6.77122">
        <ele>377</ele>
        <time>2014-12-28T09:55:05Z</time>
      </trkpt>
      <trkpt lat="47.52864" lon="6.77117">
        <ele>377</ele>
        <time>2014-12-28T09:55:07Z</time>
      </trkpt>
      <trkpt lat="47.52864" lon="6.77114">
        <ele>377</ele>
        <time>2014-12-28T09:55:08Z</time>
      </trkpt>
      <trkpt lat="47.52865" lon="6.77109">
        <ele>377</ele>
        <time>2014-12-28T09:55:10Z</time>
      </trkpt>
      <trkpt lat="47.52866" lon="6.77106">
        <ele>377</ele>
        <time>2014-12-28T09:55:11Z</time>
      </trkpt>
      <trkpt lat="47.52867" lon="6.77101">
        <ele>377</ele>
        <time>2014-12-28T09:55:13Z</time>
      </trkpt>
      <trkpt lat="47.52869" lon="6.77099">
        <ele>377</ele>
        <time>2014-12-28T09:55:14Z</time>
      </trkpt>
      <trkpt lat="47.52871" lon="6.77095">
        <ele>377</ele>
        <time>2014-12-28T09:55:16Z</time>
      </trkpt>
      <trkpt lat="47.52873" lon="6.77093">
        <ele>377</ele>
        <time>2014-12-28T09:55:17Z</time>
      </trkpt>
      <trkpt lat="47.52876" lon="6.7709">
        <ele>377</ele>
        <time>2014-12-28T09:55:19Z</time>
      </trkpt>
      <trkpt lat="47.52877" lon="6.77089">
        <ele>377</ele>
        <time>2014-12-28T09:55:20Z</time>
      </trkpt>
      <trkpt lat="47.5288" lon="6.77086">
        <ele>378</ele>
        <time>2014-12-28T09:55:22Z</time>
      </trkpt>
      <trkpt lat="47.52882" lon="6.77083">
        <ele>378</ele>
        <time>2014-12-28T09:55:23Z</time>
      </trkpt>
      <trkpt lat="47.52884" lon="6.7708">
        <ele>378</ele>
        <time>2014-12-28T09:55:24Z</time>
      </trkpt>
      <trkpt lat="47.52886" lon="6.77078">
        <ele>378</ele>
        <time>2014-12-28T09:55:25Z</time>
      </trkpt>
      <trkpt lat="47.52889" lon="6.77075">
        <ele>378</ele>
        <time>2014-12-28T09:55:27Z</time>
      </trkpt>
      <trkpt lat="47.52891" lon="6.77075">
        <ele>378</ele>
        <time>2014-12-28T09:55:28Z</time>
      </trkpt>
      <trkpt lat="47.52893" lon="6.77073">
        <ele>378</ele>
        <time>2014-12-28T09:55:30Z</time>
      </trkpt>
      <trkpt lat="47.52895" lon="6.77071">
        <ele>378</ele>
        <time>2014-12-28T09:55:31Z</time>
      </trkpt>
      <trkpt lat="47.52898" lon="6.77067">
        <ele>378</ele>
        <time>2014-12-28T09:55:33Z</time>
      </trkpt>
      <trkpt lat="47.529" lon="6.77065">
        <ele>378</ele>
        <time>2014-12-28T09:55:34Z</time>
      </trkpt>
      <trkpt lat="47.52902" lon="6.77063">
        <ele>378</ele>
        <time>2014-12-28T09:55:35Z</time>
      </trkpt>
      <trkpt lat="47.52904" lon="6.77061">
        <ele>378</ele>
        <time>2014-12-28T09:55:36Z</time>
      </trkpt>
      <trkpt lat="47.52914" lon="6.77048">
        <ele>378</ele>
        <time>2014-12-28T09:55:44Z</time>
      </trkpt>
      <trkpt lat="47.52917" lon="6.77045">
        <ele>378</ele>
        <time>2014-12-28T09:55:46Z</time>
      </trkpt>
      <trkpt lat="47.52918" lon="6.77043">
        <ele>379</ele>
        <time>2014-12-28T09:55:47Z</time>
      </trkpt>
      <trkpt lat="47.5292" lon="6.77038">
        <ele>379</ele>
        <time>2014-12-28T09:55:49Z</time>
      </trkpt>
      <trkpt lat="47.52921" lon="6.77035">
        <ele>379</ele>
        <time>2014-12-28T09:55:50Z</time>
      </trkpt>
      <trkpt lat="47.52922" lon="6.7703">
        <ele>379</ele>
        <time>2014-12-28T09:55:52Z</time>
      </trkpt>
      <trkpt lat="47.52922" lon="6.77028">
        <ele>379</ele>
        <time>2014-12-28T09:55:53Z</time>
      </trkpt>
      <trkpt lat="47.52921" lon="6.77023">
        <ele>379</ele>
        <time>2014-12-28T09:55:56Z</time>
      </trkpt>
      <trkpt lat="47.5292" lon="6.77022">
        <ele>379</ele>
        <time>2014-12-28T09:55:57Z</time>
      </trkpt>
      <trkpt lat="47.52917" lon="6.77017">
        <ele>379</ele>
        <time>2014-12-28T09:56:00Z</time>
      </trkpt>
      <trkpt lat="47.52916" lon="6.77016">
        <ele>379</ele>
        <time>2014-12-28T09:56:01Z</time>
      </trkpt>
      <trkpt lat="47.52913" lon="6.77012">
        <ele>379</ele>
        <time>2014-12-28T09:56:03Z</time>
      </trkpt>
      <trkpt lat="47.52912" lon="6.77011">
        <ele>379</ele>
        <time>2014-12-28T09:56:04Z</time>
      </trkpt>
      <trkpt lat="47.52912" lon="6.77004">
        <ele>379</ele>
        <time>2014-12-28T09:56:08Z</time>
      </trkpt>
      <trkpt lat="47.52913" lon="6.77003">
        <ele>379</ele>
        <time>2014-12-28T09:56:09Z</time>
      </trkpt>
      <trkpt lat="47.52915" lon="6.76999">
        <ele>379</ele>
        <time>2014-12-28T09:56:11Z</time>
      </trkpt>
      <trkpt lat="47.52915" lon="6.76997">
        <ele>379</ele>
        <time>2014-12-28T09:56:12Z</time>
      </trkpt>
      <trkpt lat="47.52917" lon="6.76992">
        <ele>379</ele>
        <time>2014-12-28T09:56:14Z</time>
      </trkpt>
      <trkpt lat="47.52918" lon="6.7699">
        <ele>379</ele>
        <time>2014-12-28T09:56:15Z</time>
      </trkpt>
      <trkpt lat="47.52921" lon="6.76985">
        <ele>379</ele>
        <time>2014-12-28T09:56:17Z</time>
      </trkpt>
      <trkpt lat="47.52922" lon="6.76983">
        <ele>379</ele>
        <time>2014-12-28T09:56:18Z</time>
      </trkpt>
      <trkpt lat="47.52925" lon="6.7698">
        <ele>379</ele>
        <time>2014-12-28T09:56:20Z</time>
      </trkpt>
      <trkpt lat="47.52926" lon="6.76979">
        <ele>379</ele>
        <time>2014-12-28T09:56:21Z</time>
      </trkpt>
      <trkpt lat="47.52929" lon="6.76975">
        <ele>379</ele>
        <time>2014-12-28T09:56:23Z</time>
      </trkpt>
      <trkpt lat="47.5293" lon="6.76972">
        <ele>379</ele>
        <time>2014-12-28T09:56:24Z</time>
      </trkpt>
      <trkpt lat="47.52931" lon="6.76967">
        <ele>379</ele>
        <time>2014-12-28T09:56:26Z</time>
      </trkpt>
      <trkpt lat="47.52931" lon="6.76964">
        <ele>379</ele>
        <time>2014-12-28T09:56:27Z</time>
      </trkpt>
      <trkpt lat="47.52932" lon="6.76959">
        <ele>379</ele>
        <time>2014-12-28T09:56:29Z</time>
      </trkpt>
      <trkpt lat="47.52932" lon="6.76957">
        <ele>379</ele>
        <time>2014-12-28T09:56:30Z</time>
      </trkpt>
      <trkpt lat="47.52933" lon="6.76952">
        <ele>379</ele>
        <time>2014-12-28T09:56:32Z</time>
      </trkpt>
      <trkpt lat="47.52933" lon="6.76949">
        <ele>379</ele>
        <time>2014-12-28T09:56:33Z</time>
      </trkpt>
      <trkpt lat="47.52933" lon="6.76943">
        <ele>379</ele>
        <time>2014-12-28T09:56:35Z</time>
      </trkpt>
      <trkpt lat="47.52933" lon="6.7694">
        <ele>379</ele>
        <time>2014-12-28T09:56:36Z</time>
      </trkpt>
      <trkpt lat="47.52945" lon="6.7693">
        <ele>380</ele>
        <time>2014-12-28T09:56:44Z</time>
      </trkpt>
      <trkpt lat="47.52948" lon="6.76932">
        <ele>380</ele>
        <time>2014-12-28T09:56:46Z</time>
      </trkpt>
      <trkpt lat="47.5295" lon="6.76933">
        <ele>380</ele>
        <time>2014-12-28T09:56:47Z</time>
      </trkpt>
      <trkpt lat="47.52954" lon="6.76935">
        <ele>381</ele>
        <time>2014-12-28T09:56:50Z</time>
      </trkpt>
      <trkpt lat="47.52955" lon="6.76936">
        <ele>381</ele>
        <time>2014-12-28T09:56:51Z</time>
      </trkpt>
      <trkpt lat="47.52959" lon="6.76939">
        <ele>381</ele>
        <time>2014-12-28T09:56:54Z</time>
      </trkpt>
      <trkpt lat="47.5296" lon="6.76941">
        <ele>381</ele>
        <time>2014-12-28T09:56:55Z</time>
      </trkpt>
      <trkpt lat="47.52961" lon="6.76943">
        <ele>381</ele>
        <time>2014-12-28T09:56:56Z</time>
      </trkpt>
      <trkpt lat="47.52963" lon="6.76946">
        <ele>381</ele>
        <time>2014-12-28T09:56:57Z</time>
      </trkpt>
      <trkpt lat="47.52965" lon="6.76951">
        <ele>382</ele>
        <time>2014-12-28T09:56:59Z</time>
      </trkpt>
      <trkpt lat="47.52966" lon="6.76954">
        <ele>382</ele>
        <time>2014-12-28T09:57:00Z</time>
      </trkpt>
      <trkpt lat="47.52969" lon="6.76957">
        <ele>382</ele>
        <time>2014-12-28T09:57:02Z</time>
      </trkpt>
      <trkpt lat="47.52972" lon="6.76958">
        <ele>382</ele>
        <time>2014-12-28T09:57:03Z</time>
      </trkpt>
      <trkpt lat="47.52975" lon="6.76958">
        <ele>382</ele>
        <time>2014-12-28T09:57:05Z</time>
      </trkpt>
      <trkpt lat="47.52976" lon="6.76957">
        <ele>382</ele>
        <time>2014-12-28T09:57:06Z</time>
      </trkpt>
      <trkpt lat="47.52978" lon="6.76956">
        <ele>382</ele>
        <time>2014-12-28T09:57:08Z</time>
      </trkpt>
      <trkpt lat="47.5298" lon="6.76954">
        <ele>383</ele>
        <time>2014-12-28T09:57:09Z</time>
      </trkpt>
      <trkpt lat="47.52982" lon="6.76948">
        <ele>383</ele>
        <time>2014-12-28T09:57:11Z</time>
      </trkpt>
      <trkpt lat="47.52983" lon="6.76946">
        <ele>383</ele>
        <time>2014-12-28T09:57:12Z</time>
      </trkpt>
      <trkpt lat="47.52985" lon="6.76941">
        <ele>383</ele>
        <time>2014-12-28T09:57:14Z</time>
      </trkpt>
      <trkpt lat="47.52986" lon="6.76939">
        <ele>383</ele>
        <time>2014-12-28T09:57:15Z</time>
      </trkpt>
      <trkpt lat="47.52988" lon="6.76936">
        <ele>383</ele>
        <time>2014-12-28T09:57:17Z</time>
      </trkpt>
      <trkpt lat="47.52989" lon="6.76934">
        <ele>383</ele>
        <time>2014-12-28T09:57:18Z</time>
      </trkpt>
      <trkpt lat="47.52994" lon="6.76933">
        <ele>383</ele>
        <time>2014-12-28T09:57:22Z</time>
      </trkpt>
      <trkpt lat="47.52995" lon="6.76933">
        <ele>383</ele>
        <time>2014-12-28T09:57:23Z</time>
      </trkpt>
      <trkpt lat="47.52997" lon="6.76939">
        <ele>383</ele>
        <time>2014-12-28T09:57:28Z</time>
      </trkpt>
      <trkpt lat="47.52996" lon="6.76941">
        <ele>383</ele>
        <time>2014-12-28T09:57:29Z</time>
      </trkpt>
      <trkpt lat="47.52994" lon="6.76946">
        <ele>383</ele>
        <time>2014-12-28T09:57:31Z</time>
      </trkpt>
      <trkpt lat="47.52993" lon="6.76948">
        <ele>383</ele>
        <time>2014-12-28T09:57:32Z</time>
      </trkpt>
      <trkpt lat="47.52993" lon="6.76953">
        <ele>383</ele>
        <time>2014-12-28T09:57:35Z</time>
      </trkpt>
      <trkpt lat="47.52993" lon="6.76955">
        <ele>383</ele>
        <time>2014-12-28T09:57:36Z</time>
      </trkpt>
      <trkpt lat="47.52993" lon="6.76971">
        <ele>383</ele>
        <time>2014-12-28T09:57:44Z</time>
      </trkpt>
      <trkpt lat="47.5299" lon="6.76974">
        <ele>383</ele>
        <time>2014-12-28T09:57:47Z</time>
      </trkpt>
      <trkpt lat="47.52988" lon="6.76976">
        <ele>383</ele>
        <time>2014-12-28T09:57:48Z</time>
      </trkpt>
      <trkpt lat="47.52986" lon="6.76978">
        <ele>383</ele>
        <time>2014-12-28T09:57:49Z</time>
      </trkpt>
      <trkpt lat="47.52984" lon="6.7698">
        <ele>383</ele>
        <time>2014-12-28T09:57:50Z</time>
      </trkpt>
      <trkpt lat="47.52981" lon="6.76984">
        <ele>383</ele>
        <time>2014-12-28T09:57:52Z</time>
      </trkpt>
      <trkpt lat="47.5298" lon="6.76986">
        <ele>383</ele>
        <time>2014-12-28T09:57:53Z</time>
      </trkpt>
      <trkpt lat="47.52979" lon="6.76991">
        <ele>383</ele>
        <time>2014-12-28T09:57:55Z</time>
      </trkpt>
      <trkpt lat="47.52979" lon="6.76994">
        <ele>383</ele>
        <time>2014-12-28T09:57:56Z</time>
      </trkpt>
      <trkpt lat="47.52979" lon="6.77">
        <ele>382</ele>
        <time>2014-12-28T09:57:58Z</time>
      </trkpt>
      <trkpt lat="47.52979" lon="6.77003">
        <ele>382</ele>
        <time>2014-12-28T09:57:59Z</time>
      </trkpt>
      <trkpt lat="47.52982" lon="6.77007">
        <ele>382</ele>
        <time>2014-12-28T09:58:02Z</time>
      </trkpt>
      <trkpt lat="47.52983" lon="6.77008">
        <ele>383</ele>
        <time>2014-12-28T09:58:03Z</time>
      </trkpt>
      <trkpt lat="47.52987" lon="6.77008">
        <ele>383</ele>
        <time>2014-12-28T09:58:05Z</time>
      </trkpt>
      <trkpt lat="47.52989" lon="6.77008">
        <ele>383</ele>
        <time>2014-12-28T09:58:06Z</time>
      </trkpt>
      <trkpt lat="47.52993" lon="6.77009">
        <ele>383</ele>
        <time>2014-12-28T09:58:09Z</time>
      </trkpt>
      <trkpt lat="47.52994" lon="6.7701">
        <ele>383</ele>
        <time>2014-12-28T09:58:10Z</time>
      </trkpt>
      <trkpt lat="47.52997" lon="6.77008">
        <ele>383</ele>
        <time>2014-12-28T09:58:12Z</time>
      </trkpt>
      <trkpt lat="47.52999" lon="6.77008">
        <ele>383</ele>
        <time>2014-12-28T09:58:13Z</time>
      </trkpt>
      <trkpt lat="47.53003" lon="6.77006">
        <ele>383</ele>
        <time>2014-12-28T09:58:20Z</time>
      </trkpt>
      <trkpt lat="47.53004" lon="6.77005">
        <ele>383</ele>
        <time>2014-12-28T09:58:21Z</time>
      </trkpt>
      <trkpt lat="47.53006" lon="6.77001">
        <ele>383</ele>
        <time>2014-12-28T09:58:24Z</time>
      </trkpt>
      <trkpt lat="47.53006" lon="6.76999">
        <ele>383</ele>
        <time>2014-12-28T09:58:25Z</time>
      </trkpt>
      <trkpt lat="47.53006" lon="6.76993">
        <ele>383</ele>
        <time>2014-12-28T09:58:27Z</time>
      </trkpt>
      <trkpt lat="47.53006" lon="6.7699">
        <ele>383</ele>
        <time>2014-12-28T09:58:28Z</time>
      </trkpt>
      <trkpt lat="47.53007" lon="6.76984">
        <ele>383</ele>
        <time>2014-12-28T09:58:30Z</time>
      </trkpt>
      <trkpt lat="47.53007" lon="6.76981">
        <ele>383</ele>
        <time>2014-12-28T09:58:31Z</time>
      </trkpt>
      <trkpt lat="47.53009" lon="6.76976">
        <ele>383</ele>
        <time>2014-12-28T09:58:33Z</time>
      </trkpt>
      <trkpt lat="47.53009" lon="6.76973">
        <ele>383</ele>
        <time>2014-12-28T09:58:34Z</time>
      </trkpt>
      <trkpt lat="47.53012" lon="6.76969">
        <ele>383</ele>
        <time>2014-12-28T09:58:36Z</time>
      </trkpt>
      <trkpt lat="47.53018" lon="6.76951">
        <ele>384</ele>
        <time>2014-12-28T09:58:44Z</time>
      </trkpt>
      <trkpt lat="47.53019" lon="6.76945">
        <ele>384</ele>
        <time>2014-12-28T09:58:47Z</time>
      </trkpt>
      <trkpt lat="47.5302" lon="6.76942">
        <ele>384</ele>
        <time>2014-12-28T09:58:48Z</time>
      </trkpt>
      <trkpt lat="47.53022" lon="6.76939">
        <ele>384</ele>
        <time>2014-12-28T09:58:49Z</time>
      </trkpt>
      <trkpt lat="47.53023" lon="6.76936">
        <ele>384</ele>
        <time>2014-12-28T09:58:50Z</time>
      </trkpt>
      <trkpt lat="47.53025" lon="6.7693">
        <ele>384</ele>
        <time>2014-12-28T09:58:52Z</time>
      </trkpt>
      <trkpt lat="47.53025" lon="6.76927">
        <ele>384</ele>
        <time>2014-12-28T09:58:53Z</time>
      </trkpt>
      <trkpt lat="47.53027" lon="6.76921">
        <ele>384</ele>
        <time>2014-12-28T09:58:55Z</time>
      </trkpt>
      <trkpt lat="47.53028" lon="6.76919">
        <ele>384</ele>
        <time>2014-12-28T09:58:56Z</time>
      </trkpt>
      <trkpt lat="47.53031" lon="6.76914">
        <ele>383</ele>
        <time>2014-12-28T09:58:58Z</time>
      </trkpt>
      <trkpt lat="47.53032" lon="6.76913">
        <ele>383</ele>
        <time>2014-12-28T09:58:59Z</time>
      </trkpt>
      <trkpt lat="47.53036" lon="6.76909">
        <ele>383</ele>
        <time>2014-12-28T09:59:02Z</time>
      </trkpt>
      <trkpt lat="47.53037" lon="6.76908">
        <ele>383</ele>
        <time>2014-12-28T09:59:03Z</time>
      </trkpt>
      <trkpt lat="47.53039" lon="6.76905">
        <ele>383</ele>
        <time>2014-12-28T09:59:05Z</time>
      </trkpt>
      <trkpt lat="47.5304" lon="6.76903">
        <ele>383</ele>
        <time>2014-12-28T09:59:06Z</time>
      </trkpt>
      <trkpt lat="47.53041" lon="6.76899">
        <ele>383</ele>
        <time>2014-12-28T09:59:08Z</time>
      </trkpt>
      <trkpt lat="47.53043" lon="6.76896">
        <ele>383</ele>
        <time>2014-12-28T09:59:09Z</time>
      </trkpt>
      <trkpt lat="47.53045" lon="6.76892">
        <ele>383</ele>
        <time>2014-12-28T09:59:11Z</time>
      </trkpt>
      <trkpt lat="47.53047" lon="6.7689">
        <ele>383</ele>
        <time>2014-12-28T09:59:12Z</time>
      </trkpt>
      <trkpt lat="47.53049" lon="6.76887">
        <ele>383</ele>
        <time>2014-12-28T09:59:14Z</time>
      </trkpt>
      <trkpt lat="47.53051" lon="6.76885">
        <ele>383</ele>
        <time>2014-12-28T09:59:15Z</time>
      </trkpt>
      <trkpt lat="47.53054" lon="6.76882">
        <ele>383</ele>
        <time>2014-12-28T09:59:17Z</time>
      </trkpt>
      <trkpt lat="47.53056" lon="6.76881">
        <ele>384</ele>
        <time>2014-12-28T09:59:18Z</time>
      </trkpt>
      <trkpt lat="47.53059" lon="6.76879">
        <ele>384</ele>
        <time>2014-12-28T09:59:20Z</time>
      </trkpt>
      <trkpt lat="47.53061" lon="6.76878">
        <ele>384</ele>
        <time>2014-12-28T09:59:21Z</time>
      </trkpt>
      <trkpt lat="47.53064" lon="6.76877">
        <ele>384</ele>
        <time>2014-12-28T09:59:23Z</time>
      </trkpt>
      <trkpt lat="47.53066" lon="6.76875">
        <ele>384</ele>
        <time>2014-12-28T09:59:24Z</time>
      </trkpt>
      <trkpt lat="47.53068" lon="6.76874">
        <ele>384</ele>
        <time>2014-12-28T09:59:25Z</time>
      </trkpt>
      <trkpt lat="47.5307" lon="6.76872">
        <ele>384</ele>
        <time>2014-12-28T09:59:26Z</time>
      </trkpt>
      <trkpt lat="47.53072" lon="6.7687">
        <ele>384</ele>
        <time>2014-12-28T09:59:27Z</time>
      </trkpt>
      <trkpt lat="47.53074" lon="6.76868">
        <ele>384</ele>
        <time>2014-12-28T09:59:28Z</time>
      </trkpt>
      <trkpt lat="47.53077" lon="6.76865">
        <ele>384</ele>
        <time>2014-12-28T09:59:30Z</time>
      </trkpt>
      <trkpt lat="47.53078" lon="6.76863">
        <ele>384</ele>
        <time>2014-12-28T09:59:31Z</time>
      </trkpt>
      <trkpt lat="47.53082" lon="6.76861">
        <ele>384</ele>
        <time>2014-12-28T09:59:34Z</time>
      </trkpt>
      <trkpt lat="47.53084" lon="6.76861">
        <ele>384</ele>
        <time>2014-12-28T09:59:35Z</time>
      </trkpt>
      <trkpt lat="47.53086" lon="6.76861">
        <ele>384</ele>
        <time>2014-12-28T09:59:36Z</time>
      </trkpt>
      <trkpt lat="47.5309" lon="6.76861">
        <ele>384</ele>
        <time>2014-12-28T09:59:39Z</time>
      </trkpt>
      <trkpt lat="47.53094" lon="6.76863">
        <ele>384</ele>
        <time>2014-12-28T09:59:42Z</time>
      </trkpt>
      <trkpt lat="47.53095" lon="6.76864">
        <ele>384</ele>
        <time>2014-12-28T09:59:43Z</time>
      </trkpt>
      <trkpt lat="47.53098" lon="6.76868">
        <ele>384</ele>
        <time>2014-12-28T09:59:45Z</time>
      </trkpt>
      <trkpt lat="47.53099" lon="6.7687">
        <ele>384</ele>
        <time>2014-12-28T09:59:46Z</time>
      </trkpt>
      <trkpt lat="47.53102" lon="6.76873">
        <ele>384</ele>
        <time>2014-12-28T09:59:48Z</time>
      </trkpt>
      <trkpt lat="47.53103" lon="6.76874">
        <ele>384</ele>
        <time>2014-12-28T09:59:49Z</time>
      </trkpt>
      <trkpt lat="47.53105" lon="6.76878">
        <ele>384</ele>
        <time>2014-12-28T09:59:51Z</time>
      </trkpt>
      <trkpt lat="47.53106" lon="6.76879">
        <ele>384</ele>
        <time>2014-12-28T09:59:52Z</time>
      </trkpt>
      <trkpt lat="47.53108" lon="6.76883">
        <ele>384</ele>
        <time>2014-12-28T09:59:54Z</time>
      </trkpt>
      <trkpt lat="47.53109" lon="6.76885">
        <ele>384</ele>
        <time>2014-12-28T09:59:55Z</time>
      </trkpt>
      <trkpt lat="47.53111" lon="6.7689">
        <ele>384</ele>
        <time>2014-12-28T09:59:58Z</time>
      </trkpt>
      <trkpt lat="47.53112" lon="6.76891">
        <ele>384</ele>
        <time>2014-12-28T09:59:59Z</time>
      </trkpt>
      <trkpt lat="47.53116" lon="6.76895">
        <ele>384</ele>
        <time>2014-12-28T10:00:03Z</time>
      </trkpt>
      <trkpt lat="47.53116" lon="6.76896">
        <ele>384</ele>
        <time>2014-12-28T10:00:04Z</time>
      </trkpt>
      <trkpt lat="47.53117" lon="6.76902">
        <ele>384</ele>
        <time>2014-12-28T10:00:07Z</time>
      </trkpt>
      <trkpt lat="47.53118" lon="6.76904">
        <ele>384</ele>
        <time>2014-12-28T10:00:08Z</time>
      </trkpt>
      <trkpt lat="47.53119" lon="6.7691">
        <ele>384</ele>
        <time>2014-12-28T10:00:10Z</time>
      </trkpt>
      <trkpt lat="47.5312" lon="6.76913">
        <ele>384</ele>
        <time>2014-12-28T10:00:11Z</time>
      </trkpt>
      <trkpt lat="47.53122" lon="6.76919">
        <ele>384</ele>
        <time>2014-12-28T10:00:13Z</time>
      </trkpt>
      <trkpt lat="47.53123" lon="6.76921">
        <ele>384</ele>
        <time>2014-12-28T10:00:14Z</time>
      </trkpt>
      <trkpt lat="47.53126" lon="6.76926">
        <ele>384</ele>
        <time>2014-12-28T10:00:17Z</time>
      </trkpt>
      <trkpt lat="47.53127" lon="6.76927">
        <ele>384</ele>
        <time>2014-12-28T10:00:18Z</time>
      </trkpt>
      <trkpt lat="47.5313" lon="6.76927">
        <ele>384</ele>
        <time>2014-12-28T10:00:20Z</time>
      </trkpt>
      <trkpt lat="47.53132" lon="6.76926">
        <ele>384</ele>
        <time>2014-12-28T10:00:21Z</time>
      </trkpt>
      <trkpt lat="47.53135" lon="6.76925">
        <ele>384</ele>
        <time>2014-12-28T10:00:23Z</time>
      </trkpt>
      <trkpt lat="47.53136" lon="6.76923">
        <ele>384</ele>
        <time>2014-12-28T10:00:24Z</time>
      </trkpt>
      <trkpt lat="47.53139" lon="6.76919">
        <ele>384</ele>
        <time>2014-12-28T10:00:27Z</time>
      </trkpt>
      <trkpt lat="47.5314" lon="6.76917">
        <ele>384</ele>
        <time>2014-12-28T10:00:28Z</time>
      </trkpt>
      <trkpt lat="47.53142" lon="6.76911">
        <ele>384</ele>
        <time>2014-12-28T10:00:31Z</time>
      </trkpt>
      <trkpt lat="47.53142" lon="6.7691">
        <ele>384</ele>
        <time>2014-12-28T10:00:32Z</time>
      </trkpt>
      <trkpt lat="47.53145" lon="6.76908">
        <ele>384</ele>
        <time>2014-12-28T10:00:34Z</time>
      </trkpt>
      <trkpt lat="47.53147" lon="6.76908">
        <ele>384</ele>
        <time>2014-12-28T10:00:35Z</time>
      </trkpt>
      <trkpt lat="47.53151" lon="6.76906">
        <ele>384</ele>
        <time>2014-12-28T10:00:39Z</time>
      </trkpt>
      <trkpt lat="47.53151" lon="6.76905">
        <ele>384</ele>
        <time>2014-12-28T10:00:40Z</time>
      </trkpt>
      <trkpt lat="47.53152" lon="6.769">
        <ele>384</ele>
        <time>2014-12-28T10:00:42Z</time>
      </trkpt>
      <trkpt lat="47.53152" lon="6.76897">
        <ele>384</ele>
        <time>2014-12-28T10:00:43Z</time>
      </trkpt>
      <trkpt lat="47.53152" lon="6.76891">
        <ele>384</ele>
        <time>2014-12-28T10:00:45Z</time>
      </trkpt>
      <trkpt lat="47.53151" lon="6.76888">
        <ele>384</ele>
        <time>2014-12-28T10:00:46Z</time>
      </trkpt>
      <trkpt lat="47.5315" lon="6.76883">
        <ele>384</ele>
        <time>2014-12-28T10:00:48Z</time>
      </trkpt>
      <trkpt lat="47.5315" lon="6.76881">
        <ele>384</ele>
        <time>2014-12-28T10:00:49Z</time>
      </trkpt>
      <trkpt lat="47.53149" lon="6.76875">
        <ele>384</ele>
        <time>2014-12-28T10:00:52Z</time>
      </trkpt>
      <trkpt lat="47.53148" lon="6.76873">
        <ele>384</ele>
        <time>2014-12-28T10:00:53Z</time>
      </trkpt>
      <trkpt lat="47.53148" lon="6.76867">
        <ele>383</ele>
        <time>2014-12-28T10:00:56Z</time>
      </trkpt>
      <trkpt lat="47.53148" lon="6.76865">
        <ele>383</ele>
        <time>2014-12-28T10:00:57Z</time>
      </trkpt>
      <trkpt lat="47.53147" lon="6.76859">
        <ele>383</ele>
        <time>2014-12-28T10:00:59Z</time>
      </trkpt>
      <trkpt lat="47.53146" lon="6.76856">
        <ele>383</ele>
        <time>2014-12-28T10:01:00Z</time>
      </trkpt>
      <trkpt lat="47.53145" lon="6.7685">
        <ele>383</ele>
        <time>2014-12-28T10:01:02Z</time>
      </trkpt>
      <trkpt lat="47.53145" lon="6.76848">
        <ele>383</ele>
        <time>2014-12-28T10:01:03Z</time>
      </trkpt>
      <trkpt lat="47.53148" lon="6.76845">
        <ele>383</ele>
        <time>2014-12-28T10:01:06Z</time>
      </trkpt>
      <trkpt lat="47.5315" lon="6.76845">
        <ele>383</ele>
        <time>2014-12-28T10:01:07Z</time>
      </trkpt>
      <trkpt lat="47.53154" lon="6.76844">
        <ele>383</ele>
        <time>2014-12-28T10:01:10Z</time>
      </trkpt>
      <trkpt lat="47.53155" lon="6.76845">
        <ele>383</ele>
        <time>2014-12-28T10:01:11Z</time>
      </trkpt>
      <trkpt lat="47.53157" lon="6.76848">
        <ele>383</ele>
        <time>2014-12-28T10:01:14Z</time>
      </trkpt>
      <trkpt lat="47.53159" lon="6.76849">
        <ele>383</ele>
        <time>2014-12-28T10:01:15Z</time>
      </trkpt>
      <trkpt lat="47.53162" lon="6.76852">
        <ele>383</ele>
        <time>2014-12-28T10:01:17Z</time>
      </trkpt>
      <trkpt lat="47.53163" lon="6.76853">
        <ele>383</ele>
        <time>2014-12-28T10:01:18Z</time>
      </trkpt>
      <trkpt lat="47.53165" lon="6.76856">
        <ele>383</ele>
        <time>2014-12-28T10:01:20Z</time>
      </trkpt>
      <trkpt lat="47.53167" lon="6.76856">
        <ele>383</ele>
        <time>2014-12-28T10:01:21Z</time>
      </trkpt>
      <trkpt lat="47.53171" lon="6.76858">
        <ele>383</ele>
        <time>2014-12-28T10:01:24Z</time>
      </trkpt>
      <trkpt lat="47.53172" lon="6.76859">
        <ele>383</ele>
        <time>2014-12-28T10:01:25Z</time>
      </trkpt>
      <trkpt lat="47.53176" lon="6.76861">
        <ele>383</ele>
        <time>2014-12-28T10:01:28Z</time>
      </trkpt>
      <trkpt lat="47.53177" lon="6.76861">
        <ele>383</ele>
        <time>2014-12-28T10:01:29Z</time>
      </trkpt>
      <trkpt lat="47.53181" lon="6.7686">
        <ele>383</ele>
        <time>2014-12-28T10:01:32Z</time>
      </trkpt>
      <trkpt lat="47.53182" lon="6.76859">
        <ele>383</ele>
        <time>2014-12-28T10:01:33Z</time>
      </trkpt>
      <trkpt lat="47.53185" lon="6.76856">
        <ele>383</ele>
        <time>2014-12-28T10:01:35Z</time>
      </trkpt>
      <trkpt lat="47.53187" lon="6.76854">
        <ele>383</ele>
        <time>2014-12-28T10:01:36Z</time>
      </trkpt>
      <trkpt lat="47.5319" lon="6.76849">
        <ele>383</ele>
        <time>2014-12-28T10:01:39Z</time>
      </trkpt>
      <trkpt lat="47.53193" lon="6.76845">
        <ele>383</ele>
        <time>2014-12-28T10:01:41Z</time>
      </trkpt>
      <trkpt lat="47.53193" lon="6.76844">
        <ele>383</ele>
        <time>2014-12-28T10:01:42Z</time>
      </trkpt>
      <trkpt lat="47.53194" lon="6.76838">
        <ele>383</ele>
        <time>2014-12-28T10:01:46Z</time>
      </trkpt>
      <trkpt lat="47.53193" lon="6.76836">
        <ele>383</ele>
        <time>2014-12-28T10:01:47Z</time>
      </trkpt>
      <trkpt lat="47.53192" lon="6.76831">
        <ele>382</ele>
        <time>2014-12-28T10:01:50Z</time>
      </trkpt>
      <trkpt lat="47.53191" lon="6.7683">
        <ele>382</ele>
        <time>2014-12-28T10:01:51Z</time>
      </trkpt>
      <trkpt lat="47.53188" lon="6.76825">
        <ele>382</ele>
        <time>2014-12-28T10:01:54Z</time>
      </trkpt>
      <trkpt lat="47.53187" lon="6.76823">
        <ele>382</ele>
        <time>2014-12-28T10:01:55Z</time>
      </trkpt>
      <trkpt lat="47.53185" lon="6.76817">
        <ele>382</ele>
        <time>2014-12-28T10:01:58Z</time>
      </trkpt>
      <trkpt lat="47.53184" lon="6.76815">
        <ele>382</ele>
        <time>2014-12-28T10:01:59Z</time>
      </trkpt>
      <trkpt lat="47.53182" lon="6.76812">
        <ele>382</ele>
        <time>2014-12-28T10:02:01Z</time>
      </trkpt>
      <trkpt lat="47.5318" lon="6.7681">
        <ele>382</ele>
        <time>2014-12-28T10:02:02Z</time>
      </trkpt>
      <trkpt lat="47.53178" lon="6.76805">
        <ele>382</ele>
        <time>2014-12-28T10:02:04Z</time>
      </trkpt>
      <trkpt lat="47.53178" lon="6.76802">
        <ele>381</ele>
        <time>2014-12-28T10:02:05Z</time>
      </trkpt>
      <trkpt lat="47.53179" lon="6.76797">
        <ele>381</ele>
        <time>2014-12-28T10:02:07Z</time>
      </trkpt>
      <trkpt lat="47.53179" lon="6.76795">
        <ele>381</ele>
        <time>2014-12-28T10:02:08Z</time>
      </trkpt>
      <trkpt lat="47.53178" lon="6.7679">
        <ele>381</ele>
        <time>2014-12-28T10:02:10Z</time>
      </trkpt>
      <trkpt lat="47.53177" lon="6.76787">
        <ele>380</ele>
        <time>2014-12-28T10:02:11Z</time>
      </trkpt>
      <trkpt lat="47.53175" lon="6.76782">
        <ele>380</ele>
        <time>2014-12-28T10:02:13Z</time>
      </trkpt>
      <trkpt lat="47.53175" lon="6.76779">
        <ele>380</ele>
        <time>2014-12-28T10:02:14Z</time>
      </trkpt>
      <trkpt lat="47.53174" lon="6.76773">
        <ele>379</ele>
        <time>2014-12-28T10:02:16Z</time>
      </trkpt>
      <trkpt lat="47.53173" lon="6.76771">
        <ele>379</ele>
        <time>2014-12-28T10:02:17Z</time>
      </trkpt>
      <trkpt lat="47.53171" lon="6.76765">
        <ele>379</ele>
        <time>2014-12-28T10:02:19Z</time>
      </trkpt>
      <trkpt lat="47.5317" lon="6.76762">
        <ele>379</ele>
        <time>2014-12-28T10:02:20Z</time>
      </trkpt>
      <trkpt lat="47.53168" lon="6.76757">
        <ele>379</ele>
        <time>2014-12-28T10:02:22Z</time>
      </trkpt>
      <trkpt lat="47.53167" lon="6.76755">
        <ele>379</ele>
        <time>2014-12-28T10:02:23Z</time>
      </trkpt>
      <trkpt lat="47.53165" lon="6.7675">
        <ele>379</ele>
        <time>2014-12-28T10:02:25Z</time>
      </trkpt>
      <trkpt lat="47.53164" lon="6.76747">
        <ele>379</ele>
        <time>2014-12-28T10:02:26Z</time>
      </trkpt>
      <trkpt lat="47.53162" lon="6.76742">
        <ele>379</ele>
        <time>2014-12-28T10:02:28Z</time>
      </trkpt>
      <trkpt lat="47.5316" lon="6.7674">
        <ele>379</ele>
        <time>2014-12-28T10:02:29Z</time>
      </trkpt>
      <trkpt lat="47.53157" lon="6.76735">
        <ele>379</ele>
        <time>2014-12-28T10:02:31Z</time>
      </trkpt>
      <trkpt lat="47.53156" lon="6.76734">
        <ele>379</ele>
        <time>2014-12-28T10:02:32Z</time>
      </trkpt>
      <trkpt lat="47.53153" lon="6.7673">
        <ele>379</ele>
        <time>2014-12-28T10:02:36Z</time>
      </trkpt>
      <trkpt lat="47.53147" lon="6.76729">
        <ele>379</ele>
        <time>2014-12-28T10:02:44Z</time>
      </trkpt>
      <trkpt lat="47.53144" lon="6.76727">
        <ele>379</ele>
        <time>2014-12-28T10:02:47Z</time>
      </trkpt>
      <trkpt lat="47.53142" lon="6.76725">
        <ele>379</ele>
        <time>2014-12-28T10:02:48Z</time>
      </trkpt>
      <trkpt lat="47.53139" lon="6.76723">
        <ele>379</ele>
        <time>2014-12-28T10:02:50Z</time>
      </trkpt>
      <trkpt lat="47.53138" lon="6.76723">
        <ele>379</ele>
        <time>2014-12-28T10:02:51Z</time>
      </trkpt>
      <trkpt lat="47.53134" lon="6.76721">
        <ele>379</ele>
        <time>2014-12-28T10:02:54Z</time>
      </trkpt>
      <trkpt lat="47.53132" lon="6.7672">
        <ele>379</ele>
        <time>2014-12-28T10:02:55Z</time>
      </trkpt>
      <trkpt lat="47.53129" lon="6.76719">
        <ele>379</ele>
        <time>2014-12-28T10:02:57Z</time>
      </trkpt>
      <trkpt lat="47.53127" lon="6.7672">
        <ele>379</ele>
        <time>2014-12-28T10:02:58Z</time>
      </trkpt>
      <trkpt lat="47.53124" lon="6.76721">
        <ele>379</ele>
        <time>2014-12-28T10:03:00Z</time>
      </trkpt>
      <trkpt lat="47.53123" lon="6.76722">
        <ele>379</ele>
        <time>2014-12-28T10:03:01Z</time>
      </trkpt>
      <trkpt lat="47.53119" lon="6.76723">
        <ele>379</ele>
        <time>2014-12-28T10:03:04Z</time>
      </trkpt>
      <trkpt lat="47.53118" lon="6.76724">
        <ele>380</ele>
        <time>2014-12-28T10:03:05Z</time>
      </trkpt>
      <trkpt lat="47.53116" lon="6.76727">
        <ele>380</ele>
        <time>2014-12-28T10:03:07Z</time>
      </trkpt>
      <trkpt lat="47.53115" lon="6.76729">
        <ele>380</ele>
        <time>2014-12-28T10:03:08Z</time>
      </trkpt>
      <trkpt lat="47.53112" lon="6.76734">
        <ele>380</ele>
        <time>2014-12-28T10:03:11Z</time>
      </trkpt>
      <trkpt lat="47.53111" lon="6.76735">
        <ele>380</ele>
        <time>2014-12-28T10:03:12Z</time>
      </trkpt>
      <trkpt lat="47.53109" lon="6.76738">
        <ele>380</ele>
        <time>2014-12-28T10:03:14Z</time>
      </trkpt>
      <trkpt lat="47.53108" lon="6.7674">
        <ele>380</ele>
        <time>2014-12-28T10:03:15Z</time>
      </trkpt>
      <trkpt lat="47.53106" lon="6.76745">
        <ele>380</ele>
        <time>2014-12-28T10:03:17Z</time>
      </trkpt>
      <trkpt lat="47.53105" lon="6.76747">
        <ele>380</ele>
        <time>2014-12-28T10:03:18Z</time>
      </trkpt>
      <trkpt lat="47.53104" lon="6.76752">
        <ele>381</ele>
        <time>2014-12-28T10:03:20Z</time>
      </trkpt>
      <trkpt lat="47.53103" lon="6.76754">
        <ele>381</ele>
        <time>2014-12-28T10:03:21Z</time>
      </trkpt>
      <trkpt lat="47.531" lon="6.76758">
        <ele>381</ele>
        <time>2014-12-28T10:03:23Z</time>
      </trkpt>
      <trkpt lat="47.53099" lon="6.7676">
        <ele>381</ele>
        <time>2014-12-28T10:03:24Z</time>
      </trkpt>
      <trkpt lat="47.53096" lon="6.76764">
        <ele>381</ele>
        <time>2014-12-28T10:03:26Z</time>
      </trkpt>
      <trkpt lat="47.53095" lon="6.76765">
        <ele>381</ele>
        <time>2014-12-28T10:03:27Z</time>
      </trkpt>
      <trkpt lat="47.53092" lon="6.76767">
        <ele>381</ele>
        <time>2014-12-28T10:03:29Z</time>
      </trkpt>
      <trkpt lat="47.53091" lon="6.76768">
        <ele>381</ele>
        <time>2014-12-28T10:03:30Z</time>
      </trkpt>
      <trkpt lat="47.53087" lon="6.76771">
        <ele>381</ele>
        <time>2014-12-28T10:03:32Z</time>
      </trkpt>
      <trkpt lat="47.53086" lon="6.76773">
        <ele>381</ele>
        <time>2014-12-28T10:03:33Z</time>
      </trkpt>
      <trkpt lat="47.53083" lon="6.76777">
        <ele>381</ele>
        <time>2014-12-28T10:03:35Z</time>
      </trkpt>
      <trkpt lat="47.53081" lon="6.76778">
        <ele>381</ele>
        <time>2014-12-28T10:03:36Z</time>
      </trkpt>
      <trkpt lat="47.53069" lon="6.76786">
        <ele>381</ele>
        <time>2014-12-28T10:03:44Z</time>
      </trkpt>
      <trkpt lat="47.53073" lon="6.76789">
        <ele>382</ele>
        <time>2014-12-28T10:03:54Z</time>
      </trkpt>
      <trkpt lat="47.53074" lon="6.76789">
        <ele>382</ele>
        <time>2014-12-28T10:03:55Z</time>
      </trkpt>
      <trkpt lat="47.53078" lon="6.76789">
        <ele>382</ele>
        <time>2014-12-28T10:03:59Z</time>
      </trkpt>
      <trkpt lat="47.53079" lon="6.7679">
        <ele>382</ele>
        <time>2014-12-28T10:04:00Z</time>
      </trkpt>
      <trkpt lat="47.53083" lon="6.76791">
        <ele>382</ele>
        <time>2014-12-28T10:04:05Z</time>
      </trkpt>
      <trkpt lat="47.53084" lon="6.76792">
        <ele>382</ele>
        <time>2014-12-28T10:04:06Z</time>
      </trkpt>
      <trkpt lat="47.53086" lon="6.76797">
        <ele>382</ele>
        <time>2014-12-28T10:04:09Z</time>
      </trkpt>
      <trkpt lat="47.53087" lon="6.76798">
        <ele>382</ele>
        <time>2014-12-28T10:04:10Z</time>
      </trkpt>
      <trkpt lat="47.53089" lon="6.76803">
        <ele>383</ele>
        <time>2014-12-28T10:04:13Z</time>
      </trkpt>
      <trkpt lat="47.5309" lon="6.76804">
        <ele>383</ele>
        <time>2014-12-28T10:04:14Z</time>
      </trkpt>
      <trkpt lat="47.5309" lon="6.76808">
        <ele>383</ele>
        <time>2014-12-28T10:04:16Z</time>
      </trkpt>
      <trkpt lat="47.53091" lon="6.76811">
        <ele>383</ele>
        <time>2014-12-28T10:04:17Z</time>
      </trkpt>
      <trkpt lat="47.53091" lon="6.76817">
        <ele>383</ele>
        <time>2014-12-28T10:04:22Z</time>
      </trkpt>
      <trkpt lat="47.53091" lon="6.76818">
        <ele>383</ele>
        <time>2014-12-28T10:04:23Z</time>
      </trkpt>
      <trkpt lat="47.53091" lon="6.76823">
        <ele>383</ele>
        <time>2014-12-28T10:04:25Z</time>
      </trkpt>
      <trkpt lat="47.5309" lon="6.76826">
        <ele>383</ele>
        <time>2014-12-28T10:04:26Z</time>
      </trkpt>
      <trkpt lat="47.53087" lon="6.7683">
        <ele>383</ele>
        <time>2014-12-28T10:04:29Z</time>
      </trkpt>
      <trkpt lat="47.53086" lon="6.76831">
        <ele>383</ele>
        <time>2014-12-28T10:04:30Z</time>
      </trkpt>
      <trkpt lat="47.53083" lon="6.76832">
        <ele>383</ele>
        <time>2014-12-28T10:04:33Z</time>
      </trkpt>
      <trkpt lat="47.53081" lon="6.76833">
        <ele>383</ele>
        <time>2014-12-28T10:04:34Z</time>
      </trkpt>
      <trkpt lat="47.53079" lon="6.76833">
        <ele>383</ele>
        <time>2014-12-28T10:04:36Z</time>
      </trkpt>
      <trkpt lat="47.53075" lon="6.76833">
        <ele>383</ele>
        <time>2014-12-28T10:04:39Z</time>
      </trkpt>
      <trkpt lat="47.53073" lon="6.76835">
        <ele>383</ele>
        <time>2014-12-28T10:04:42Z</time>
      </trkpt>
      <trkpt lat="47.53071" lon="6.76836">
        <ele>383</ele>
        <time>2014-12-28T10:04:43Z</time>
      </trkpt>
      <trkpt lat="47.53067" lon="6.76837">
        <ele>383</ele>
        <time>2014-12-28T10:04:45Z</time>
      </trkpt>
      <trkpt lat="47.53066" lon="6.76837">
        <ele>383</ele>
        <time>2014-12-28T10:04:46Z</time>
      </trkpt>
      <trkpt lat="47.53062" lon="6.76835">
        <ele>383</ele>
        <time>2014-12-28T10:04:48Z</time>
      </trkpt>
      <trkpt lat="47.5306" lon="6.76834">
        <ele>383</ele>
        <time>2014-12-28T10:04:49Z</time>
      </trkpt>
      <trkpt lat="47.53057" lon="6.76831">
        <ele>382</ele>
        <time>2014-12-28T10:04:51Z</time>
      </trkpt>
      <trkpt lat="47.53055" lon="6.7683">
        <ele>382</ele>
        <time>2014-12-28T10:04:52Z</time>
      </trkpt>
      <trkpt lat="47.53052" lon="6.76828">
        <ele>382</ele>
        <time>2014-12-28T10:04:54Z</time>
      </trkpt>
      <trkpt lat="47.5305" lon="6.76826">
        <ele>382</ele>
        <time>2014-12-28T10:04:55Z</time>
      </trkpt>
      <trkpt lat="47.53047" lon="6.76824">
        <ele>382</ele>
        <time>2014-12-28T10:04:57Z</time>
      </trkpt>
      <trkpt lat="47.53046" lon="6.76823">
        <ele>382</ele>
        <time>2014-12-28T10:04:58Z</time>
      </trkpt>
      <trkpt lat="47.53042" lon="6.7682">
        <ele>381</ele>
        <time>2014-12-28T10:05:00Z</time>
      </trkpt>
      <trkpt lat="47.53039" lon="6.76819">
        <ele>381</ele>
        <time>2014-12-28T10:05:01Z</time>
      </trkpt>
      <trkpt lat="47.53035" lon="6.7682">
        <ele>381</ele>
        <time>2014-12-28T10:05:04Z</time>
      </trkpt>
      <trkpt lat="47.53034" lon="6.76821">
        <ele>381</ele>
        <time>2014-12-28T10:05:05Z</time>
      </trkpt>
      <trkpt lat="47.53031" lon="6.76823">
        <ele>381</ele>
        <time>2014-12-28T10:05:07Z</time>
      </trkpt>
      <trkpt lat="47.5303" lon="6.76824">
        <ele>381</ele>
        <time>2014-12-28T10:05:08Z</time>
      </trkpt>
      <trkpt lat="47.53029" lon="6.76829">
        <ele>381</ele>
        <time>2014-12-28T10:05:10Z</time>
      </trkpt>
      <trkpt lat="47.53028" lon="6.76831">
        <ele>381</ele>
        <time>2014-12-28T10:05:11Z</time>
      </trkpt>
      <trkpt lat="47.53028" lon="6.76837">
        <ele>382</ele>
        <time>2014-12-28T10:05:14Z</time>
      </trkpt>
      <trkpt lat="47.53028" lon="6.76839">
        <ele>382</ele>
        <time>2014-12-28T10:05:15Z</time>
      </trkpt>
      <trkpt lat="47.53027" lon="6.76845">
        <ele>382</ele>
        <time>2014-12-28T10:05:18Z</time>
      </trkpt>
      <trkpt lat="47.53026" lon="6.76847">
        <ele>382</ele>
        <time>2014-12-28T10:05:19Z</time>
      </trkpt>
      <trkpt lat="47.53027" lon="6.76853">
        <ele>382</ele>
        <time>2014-12-28T10:05:23Z</time>
      </trkpt>
      <trkpt lat="47.53026" lon="6.76854">
        <ele>382</ele>
        <time>2014-12-28T10:05:24Z</time>
      </trkpt>
      <trkpt lat="47.53025" lon="6.76859">
        <ele>382</ele>
        <time>2014-12-28T10:05:28Z</time>
      </trkpt>
      <trkpt lat="47.53024" lon="6.76861">
        <ele>382</ele>
        <time>2014-12-28T10:05:29Z</time>
      </trkpt>
      <trkpt lat="47.53023" lon="6.76866">
        <ele>382</ele>
        <time>2014-12-28T10:05:31Z</time>
      </trkpt>
      <trkpt lat="47.53023" lon="6.76869">
        <ele>382</ele>
        <time>2014-12-28T10:05:32Z</time>
      </trkpt>
      <trkpt lat="47.53021" lon="6.76874">
        <ele>382</ele>
        <time>2014-12-28T10:05:34Z</time>
      </trkpt>
      <trkpt lat="47.5302" lon="6.76877">
        <ele>382</ele>
        <time>2014-12-28T10:05:35Z</time>
      </trkpt>
      <trkpt lat="47.53018" lon="6.76879">
        <ele>383</ele>
        <time>2014-12-28T10:05:36Z</time>
      </trkpt>
      <trkpt lat="47.53014" lon="6.76886">
        <ele>383</ele>
        <time>2014-12-28T10:05:38Z</time>
      </trkpt>
      <trkpt lat="47.5301" lon="6.76893">
        <ele>383</ele>
        <time>2014-12-28T10:05:40Z</time>
      </trkpt>
      <trkpt lat="47.53006" lon="6.76896">
        <ele>383</ele>
        <time>2014-12-28T10:05:42Z</time>
      </trkpt>
      <trkpt lat="47.53005" lon="6.76897">
        <ele>383</ele>
        <time>2014-12-28T10:05:43Z</time>
      </trkpt>
      <trkpt lat="47.53001" lon="6.76897">
        <ele>383</ele>
        <time>2014-12-28T10:05:46Z</time>
      </trkpt>
      <trkpt lat="47.53" lon="6.76896">
        <ele>383</ele>
        <time>2014-12-28T10:05:47Z</time>
      </trkpt>
      <trkpt lat="47.52997" lon="6.76894">
        <ele>383</ele>
        <time>2014-12-28T10:05:49Z</time>
      </trkpt>
      <trkpt lat="47.52994" lon="6.76893">
        <ele>383</ele>
        <time>2014-12-28T10:05:50Z</time>
      </trkpt>
      <trkpt lat="47.52991" lon="6.76891">
        <ele>382</ele>
        <time>2014-12-28T10:05:52Z</time>
      </trkpt>
      <trkpt lat="47.52989" lon="6.7689">
        <ele>382</ele>
        <time>2014-12-28T10:05:53Z</time>
      </trkpt>
      <trkpt lat="47.52986" lon="6.7689">
        <ele>382</ele>
        <time>2014-12-28T10:05:55Z</time>
      </trkpt>
      <trkpt lat="47.52983" lon="6.76889">
        <ele>382</ele>
        <time>2014-12-28T10:05:56Z</time>
      </trkpt>
      <trkpt lat="47.52979" lon="6.76886">
        <ele>381</ele>
        <time>2014-12-28T10:05:58Z</time>
      </trkpt>
      <trkpt lat="47.52977" lon="6.76886">
        <ele>381</ele>
        <time>2014-12-28T10:05:59Z</time>
      </trkpt>
      <trkpt lat="47.52973" lon="6.76885">
        <ele>381</ele>
        <time>2014-12-28T10:06:01Z</time>
      </trkpt>
      <trkpt lat="47.52971" lon="6.76885">
        <ele>381</ele>
        <time>2014-12-28T10:06:02Z</time>
      </trkpt>
      <trkpt lat="47.52968" lon="6.76885">
        <ele>381</ele>
        <time>2014-12-28T10:06:03Z</time>
      </trkpt>
      <trkpt lat="47.52965" lon="6.76884">
        <ele>380</ele>
        <time>2014-12-28T10:06:04Z</time>
      </trkpt>
      <trkpt lat="47.52963" lon="6.76883">
        <ele>380</ele>
        <time>2014-12-28T10:06:05Z</time>
      </trkpt>
      <trkpt lat="47.5296" lon="6.76882">
        <ele>380</ele>
        <time>2014-12-28T10:06:06Z</time>
      </trkpt>
      <trkpt lat="47.52958" lon="6.76881">
        <ele>380</ele>
        <time>2014-12-28T10:06:07Z</time>
      </trkpt>
      <trkpt lat="47.52956" lon="6.76881">
        <ele>379</ele>
        <time>2014-12-28T10:06:08Z</time>
      </trkpt>
      <trkpt lat="47.52951" lon="6.7688">
        <ele>379</ele>
        <time>2014-12-28T10:06:10Z</time>
      </trkpt>
      <trkpt lat="47.5295" lon="6.76881">
        <ele>379</ele>
        <time>2014-12-28T10:06:11Z</time>
      </trkpt>
      <trkpt lat="47.52946" lon="6.76883">
        <ele>379</ele>
        <time>2014-12-28T10:06:13Z</time>
      </trkpt>
      <trkpt lat="47.52945" lon="6.76885">
        <ele>379</ele>
        <time>2014-12-28T10:06:14Z</time>
      </trkpt>
      <trkpt lat="47.52941" lon="6.76886">
        <ele>379</ele>
        <time>2014-12-28T10:06:16Z</time>
      </trkpt>
      <trkpt lat="47.52939" lon="6.76887">
        <ele>378</ele>
        <time>2014-12-28T10:06:17Z</time>
      </trkpt>
      <trkpt lat="47.52935" lon="6.76888">
        <ele>378</ele>
        <time>2014-12-28T10:06:19Z</time>
      </trkpt>
      <trkpt lat="47.52934" lon="6.7689">
        <ele>378</ele>
        <time>2014-12-28T10:06:20Z</time>
      </trkpt>
      <trkpt lat="47.52932" lon="6.76894">
        <ele>378</ele>
        <time>2014-12-28T10:06:22Z</time>
      </trkpt>
      <trkpt lat="47.52932" lon="6.76896">
        <ele>378</ele>
        <time>2014-12-28T10:06:23Z</time>
      </trkpt>
      <trkpt lat="47.52931" lon="6.76901">
        <ele>379</ele>
        <time>2014-12-28T10:06:25Z</time>
      </trkpt>
      <trkpt lat="47.52932" lon="6.76903">
        <ele>379</ele>
        <time>2014-12-28T10:06:26Z</time>
      </trkpt>
      <trkpt lat="47.52931" lon="6.76908">
        <ele>379</ele>
        <time>2014-12-28T10:06:28Z</time>
      </trkpt>
      <trkpt lat="47.52931" lon="6.7691">
        <ele>379</ele>
        <time>2014-12-28T10:06:29Z</time>
      </trkpt>
      <trkpt lat="47.5293" lon="6.76915">
        <ele>379</ele>
        <time>2014-12-28T10:06:31Z</time>
      </trkpt>
      <trkpt lat="47.52929" lon="6.76917">
        <ele>379</ele>
        <time>2014-12-28T10:06:32Z</time>
      </trkpt>
      <trkpt lat="47.52928" lon="6.76921">
        <ele>379</ele>
        <time>2014-12-28T10:06:34Z</time>
      </trkpt>
      <trkpt lat="47.52927" lon="6.76924">
        <ele>379</ele>
        <time>2014-12-28T10:06:35Z</time>
      </trkpt>
      <trkpt lat="47.52926" lon="6.76926">
        <ele>379</ele>
        <time>2014-12-28T10:06:36Z</time>
      </trkpt>
      <trkpt lat="47.52921" lon="6.76942">
        <ele>379</ele>
        <time>2014-12-28T10:06:44Z</time>
      </trkpt>
      <trkpt lat="47.5292" lon="6.76949">
        <ele>379</ele>
        <time>2014-12-28T10:06:48Z</time>
      </trkpt>
      <trkpt lat="47.5292" lon="6.76951">
        <ele>379</ele>
        <time>2014-12-28T10:06:49Z</time>
      </trkpt>
      <trkpt lat="47.52921" lon="6.76957">
        <ele>379</ele>
        <time>2014-12-28T10:06:51Z</time>
      </trkpt>
      <trkpt lat="47.5292" lon="6.76959">
        <ele>379</ele>
        <time>2014-12-28T10:06:52Z</time>
      </trkpt>
      <trkpt lat="47.5292" lon="6.76963">
        <ele>379</ele>
        <time>2014-12-28T10:06:54Z</time>
      </trkpt>
      <trkpt lat="47.52919" lon="6.76966">
        <ele>379</ele>
        <time>2014-12-28T10:06:55Z</time>
      </trkpt>
      <trkpt lat="47.52919" lon="6.76969">
        <ele>379</ele>
        <time>2014-12-28T10:06:56Z</time>
      </trkpt>
      <trkpt lat="47.52919" lon="6.76973">
        <ele>379</ele>
        <time>2014-12-28T10:06:57Z</time>
      </trkpt>
      <trkpt lat="47.52919" lon="6.76977">
        <ele>379</ele>
        <time>2014-12-28T10:06:58Z</time>
      </trkpt>
      <trkpt lat="47.52919" lon="6.76981">
        <ele>379</ele>
        <time>2014-12-28T10:06:59Z</time>
      </trkpt>
      <trkpt lat="47.52919" lon="6.76985">
        <ele>379</ele>
        <time>2014-12-28T10:07:00Z</time>
      </trkpt>
      <trkpt lat="47.52919" lon="6.76988">
        <ele>379</ele>
        <time>2014-12-28T10:07:01Z</time>
      </trkpt>
      <trkpt lat="47.52919" lon="6.76995">
        <ele>379</ele>
        <time>2014-12-28T10:07:03Z</time>
      </trkpt>
      <trkpt lat="47.52919" lon="6.76998">
        <ele>379</ele>
        <time>2014-12-28T10:07:04Z</time>
      </trkpt>
      <trkpt lat="47.52917" lon="6.77004">
        <ele>379</ele>
        <time>2014-12-28T10:07:06Z</time>
      </trkpt>
      <trkpt lat="47.52916" lon="6.77007">
        <ele>379</ele>
        <time>2014-12-28T10:07:07Z</time>
      </trkpt>
      <trkpt lat="47.52912" lon="6.77011">
        <ele>379</ele>
        <time>2014-12-28T10:07:09Z</time>
      </trkpt>
      <trkpt lat="47.52911" lon="6.77012">
        <ele>379</ele>
        <time>2014-12-28T10:07:10Z</time>
      </trkpt>
      <trkpt lat="47.52909" lon="6.77014">
        <ele>379</ele>
        <time>2014-12-28T10:07:11Z</time>
      </trkpt>
      <trkpt lat="47.52906" lon="6.77015">
        <ele>379</ele>
        <time>2014-12-28T10:07:12Z</time>
      </trkpt>
      <trkpt lat="47.52904" lon="6.77017">
        <ele>379</ele>
        <time>2014-12-28T10:07:13Z</time>
      </trkpt>
      <trkpt lat="47.52901" lon="6.77019">
        <ele>379</ele>
        <time>2014-12-28T10:07:14Z</time>
      </trkpt>
      <trkpt lat="47.52898" lon="6.77021">
        <ele>379</ele>
        <time>2014-12-28T10:07:15Z</time>
      </trkpt>
      <trkpt lat="47.52896" lon="6.77022">
        <ele>379</ele>
        <time>2014-12-28T10:07:16Z</time>
      </trkpt>
      <trkpt lat="47.52893" lon="6.77024">
        <ele>379</ele>
        <time>2014-12-28T10:07:17Z</time>
      </trkpt>
      <trkpt lat="47.52891" lon="6.77026">
        <ele>379</ele>
        <time>2014-12-28T10:07:18Z</time>
      </trkpt>
      <trkpt lat="47.52888" lon="6.7703">
        <ele>379</ele>
        <time>2014-12-28T10:07:20Z</time>
      </trkpt>
      <trkpt lat="47.52888" lon="6.77032">
        <ele>379</ele>
        <time>2014-12-28T10:07:21Z</time>
      </trkpt>
      <trkpt lat="47.52886" lon="6.77037">
        <ele>379</ele>
        <time>2014-12-28T10:07:23Z</time>
      </trkpt>
      <trkpt lat="47.52885" lon="6.7704">
        <ele>379</ele>
        <time>2014-12-28T10:07:24Z</time>
      </trkpt>
      <trkpt lat="47.52884" lon="6.77043">
        <ele>378</ele>
        <time>2014-12-28T10:07:25Z</time>
      </trkpt>
      <trkpt lat="47.52882" lon="6.77046">
        <ele>378</ele>
        <time>2014-12-28T10:07:26Z</time>
      </trkpt>
      <trkpt lat="47.5288" lon="6.77052">
        <ele>378</ele>
        <time>2014-12-28T10:07:28Z</time>
      </trkpt>
      <trkpt lat="47.52879" lon="6.77054">
        <ele>378</ele>
        <time>2014-12-28T10:07:29Z</time>
      </trkpt>
      <trkpt lat="47.52877" lon="6.77059">
        <ele>378</ele>
        <time>2014-12-28T10:07:32Z</time>
      </trkpt>
      <trkpt lat="47.52877" lon="6.7706">
        <ele>378</ele>
        <time>2014-12-28T10:07:33Z</time>
      </trkpt>
      <trkpt lat="47.52877" lon="6.77066">
        <ele>378</ele>
        <time>2014-12-28T10:07:36Z</time>
      </trkpt>
      <trkpt lat="47.52882" lon="6.77077">
        <ele>378</ele>
        <time>2014-12-28T10:07:44Z</time>
      </trkpt>
      <trkpt lat="47.52879" lon="6.77081">
        <ele>378</ele>
        <time>2014-12-28T10:07:47Z</time>
      </trkpt>
      <trkpt lat="47.52878" lon="6.77083">
        <ele>378</ele>
        <time>2014-12-28T10:07:48Z</time>
      </trkpt>
      <trkpt lat="47.52876" lon="6.77085">
        <ele>377</ele>
        <time>2014-12-28T10:07:49Z</time>
      </trkpt>
      <trkpt lat="47.52874" lon="6.77088">
        <ele>377</ele>
        <time>2014-12-28T10:07:50Z</time>
      </trkpt>
      <trkpt lat="47.52872" lon="6.77091">
        <ele>377</ele>
        <time>2014-12-28T10:07:51Z</time>
      </trkpt>
      <trkpt lat="47.52871" lon="6.77094">
        <ele>377</ele>
        <time>2014-12-28T10:07:52Z</time>
      </trkpt>
      <trkpt lat="47.52869" lon="6.771">
        <ele>377</ele>
        <time>2014-12-28T10:07:54Z</time>
      </trkpt>
      <trkpt lat="47.52867" lon="6.77102">
        <ele>377</ele>
        <time>2014-12-28T10:07:55Z</time>
      </trkpt>
      <trkpt lat="47.52865" lon="6.77106">
        <ele>377</ele>
        <time>2014-12-28T10:07:57Z</time>
      </trkpt>
      <trkpt lat="47.52864" lon="6.77108">
        <ele>377</ele>
        <time>2014-12-28T10:07:58Z</time>
      </trkpt>
      <trkpt lat="47.5286" lon="6.77112">
        <ele>377</ele>
        <time>2014-12-28T10:08:00Z</time>
      </trkpt>
      <trkpt lat="47.52858" lon="6.77114">
        <ele>377</ele>
        <time>2014-12-28T10:08:01Z</time>
      </trkpt>
      <trkpt lat="47.52855" lon="6.77118">
        <ele>377</ele>
        <time>2014-12-28T10:08:03Z</time>
      </trkpt>
      <trkpt lat="47.52854" lon="6.77122">
        <ele>377</ele>
        <time>2014-12-28T10:08:04Z</time>
      </trkpt>
      <trkpt lat="47.52852" lon="6.77125">
        <ele>377</ele>
        <time>2014-12-28T10:08:05Z</time>
      </trkpt>
      <trkpt lat="47.52851" lon="6.77129">
        <ele>377</ele>
        <time>2014-12-28T10:08:06Z</time>
      </trkpt>
      <trkpt lat="47.52849" lon="6.77132">
        <ele>377</ele>
        <time>2014-12-28T10:08:07Z</time>
      </trkpt>
      <trkpt lat="47.52847" lon="6.77135">
        <ele>377</ele>
        <time>2014-12-28T10:08:08Z</time>
      </trkpt>
      <trkpt lat="47.52846" lon="6.77138">
        <ele>377</ele>
        <time>2014-12-28T10:08:09Z</time>
      </trkpt>
      <trkpt lat="47.52844" lon="6.7714">
        <ele>377</ele>
        <time>2014-12-28T10:08:10Z</time>
      </trkpt>
      <trkpt lat="47.52843" lon="6.77143">
        <ele>377</ele>
        <time>2014-12-28T10:08:11Z</time>
      </trkpt>
      <trkpt lat="47.52841" lon="6.77145">
        <ele>377</ele>
        <time>2014-12-28T10:08:12Z</time>
      </trkpt>
      <trkpt lat="47.52839" lon="6.77147">
        <ele>377</ele>
        <time>2014-12-28T10:08:13Z</time>
      </trkpt>
      <trkpt lat="47.52836" lon="6.77147">
        <ele>377</ele>
        <time>2014-12-28T10:08:14Z</time>
      </trkpt>
      <trkpt lat="47.52834" lon="6.77148">
        <ele>377</ele>
        <time>2014-12-28T10:08:15Z</time>
      </trkpt>
      <trkpt lat="47.52831" lon="6.77148">
        <ele>377</ele>
        <time>2014-12-28T10:08:16Z</time>
      </trkpt>
      <trkpt lat="47.52828" lon="6.77151">
        <ele>377</ele>
        <time>2014-12-28T10:08:18Z</time>
      </trkpt>
      <trkpt lat="47.52827" lon="6.77152">
        <ele>377</ele>
        <time>2014-12-28T10:08:19Z</time>
      </trkpt>
      <trkpt lat="47.52825" lon="6.77156">
        <ele>377</ele>
        <time>2014-12-28T10:08:21Z</time>
      </trkpt>
      <trkpt lat="47.52824" lon="6.77158">
        <ele>377</ele>
        <time>2014-12-28T10:08:22Z</time>
      </trkpt>
      <trkpt lat="47.52823" lon="6.77162">
        <ele>377</ele>
        <time>2014-12-28T10:08:24Z</time>
      </trkpt>
      <trkpt lat="47.52822" lon="6.77164">
        <ele>377</ele>
        <time>2014-12-28T10:08:25Z</time>
      </trkpt>
      <trkpt lat="47.52823" lon="6.7717">
        <ele>377</ele>
        <time>2014-12-28T10:08:36Z</time>
      </trkpt>
      <trkpt lat="47.52833" lon="6.77173">
        <ele>377</ele>
        <time>2014-12-28T10:08:44Z</time>
      </trkpt>
      <trkpt lat="47.52843" lon="6.77157">
        <ele>377</ele>
        <time>2014-12-28T10:09:00Z</time>
      </trkpt>
      <trkpt lat="47.52846" lon="6.77154">
        <ele>377</ele>
        <time>2014-12-28T10:09:02Z</time>
      </trkpt>
      <trkpt lat="47.52847" lon="6.77152">
        <ele>377</ele>
        <time>2014-12-28T10:09:03Z</time>
      </trkpt>
      <trkpt lat="47.5285" lon="6.77149">
        <ele>377</ele>
        <time>2014-12-28T10:09:05Z</time>
      </trkpt>
      <trkpt lat="47.52851" lon="6.77147">
        <ele>377</ele>
        <time>2014-12-28T10:09:06Z</time>
      </trkpt>
      <trkpt lat="47.52852" lon="6.77142">
        <ele>377</ele>
        <time>2014-12-28T10:09:08Z</time>
      </trkpt>
      <trkpt lat="47.52855" lon="6.77141">
        <ele>377</ele>
        <time>2014-12-28T10:09:09Z</time>
      </trkpt>
      <trkpt lat="47.52858" lon="6.77138">
        <ele>377</ele>
        <time>2014-12-28T10:09:11Z</time>
      </trkpt>
      <trkpt lat="47.52862" lon="6.77136">
        <ele>377</ele>
        <time>2014-12-28T10:09:12Z</time>
      </trkpt>
      <trkpt lat="47.52865" lon="6.77134">
        <ele>377</ele>
        <time>2014-12-28T10:09:13Z</time>
      </trkpt>
      <trkpt lat="47.52867" lon="6.77131">
        <ele>377</ele>
        <time>2014-12-28T10:09:14Z</time>
      </trkpt>
      <trkpt lat="47.5287" lon="6.77128">
        <ele>377</ele>
        <time>2014-12-28T10:09:15Z</time>
      </trkpt>
      <trkpt lat="47.52873" lon="6.77125">
        <ele>377</ele>
        <time>2014-12-28T10:09:16Z</time>
      </trkpt>
      <trkpt lat="47.52875" lon="6.77121">
        <ele>377</ele>
        <time>2014-12-28T10:09:17Z</time>
      </trkpt>
      <trkpt lat="47.52877" lon="6.77118">
        <ele>377</ele>
        <time>2014-12-28T10:09:18Z</time>
      </trkpt>
      <trkpt lat="47.52878" lon="6.77113">
        <ele>377</ele>
        <time>2014-12-28T10:09:19Z</time>
      </trkpt>
      <trkpt lat="47.52879" lon="6.77109">
        <ele>377</ele>
        <time>2014-12-28T10:09:20Z</time>
      </trkpt>
      <trkpt lat="47.52881" lon="6.77105">
        <ele>377</ele>
        <time>2014-12-28T10:09:21Z</time>
      </trkpt>
      <trkpt lat="47.52882" lon="6.77101">
        <ele>377</ele>
        <time>2014-12-28T10:09:22Z</time>
      </trkpt>
      <trkpt lat="47.52883" lon="6.77098">
        <ele>378</ele>
        <time>2014-12-28T10:09:23Z</time>
      </trkpt>
      <trkpt lat="47.52884" lon="6.77095">
        <ele>378</ele>
        <time>2014-12-28T10:09:24Z</time>
      </trkpt>
      <trkpt lat="47.52886" lon="6.77089">
        <ele>378</ele>
        <time>2014-12-28T10:09:26Z</time>
      </trkpt>
      <trkpt lat="47.52886" lon="6.77086">
        <ele>378</ele>
        <time>2014-12-28T10:09:27Z</time>
      </trkpt>
      <trkpt lat="47.52888" lon="6.7708">
        <ele>378</ele>
        <time>2014-12-28T10:09:29Z</time>
      </trkpt>
      <trkpt lat="47.52889" lon="6.77078">
        <ele>378</ele>
        <time>2014-12-28T10:09:30Z</time>
      </trkpt>
      <trkpt lat="47.52892" lon="6.77074">
        <ele>378</ele>
        <time>2014-12-28T10:09:32Z</time>
      </trkpt>
      <trkpt lat="47.52894" lon="6.77073">
        <ele>378</ele>
        <time>2014-12-28T10:09:33Z</time>
      </trkpt>
      <trkpt lat="47.52897" lon="6.77069">
        <ele>378</ele>
        <time>2014-12-28T10:09:36Z</time>
      </trkpt>
      <trkpt lat="47.52898" lon="6.77069">
        <ele>378</ele>
        <time>2014-12-28T10:09:39Z</time>
      </trkpt>
      <trkpt lat="47.52901" lon="6.77066">
        <ele>378</ele>
        <time>2014-12-28T10:09:43Z</time>
      </trkpt>
      <trkpt lat="47.52902" lon="6.77066">
        <ele>378</ele>
        <time>2014-12-28T10:09:44Z</time>
      </trkpt>
      <trkpt lat="47.52905" lon="6.77063">
        <ele>378</ele>
        <time>2014-12-28T10:09:47Z</time>
      </trkpt>
      <trkpt lat="47.52906" lon="6.77061">
        <ele>378</ele>
        <time>2014-12-28T10:09:48Z</time>
      </trkpt>
      <trkpt lat="47.52908" lon="6.77057">
        <ele>378</ele>
        <time>2014-12-28T10:09:50Z</time>
      </trkpt>
      <trkpt lat="47.52909" lon="6.77056">
        <ele>378</ele>
        <time>2014-12-28T10:09:51Z</time>
      </trkpt>
      <trkpt lat="47.52911" lon="6.77052">
        <ele>378</ele>
        <time>2014-12-28T10:09:53Z</time>
      </trkpt>
      <trkpt lat="47.52912" lon="6.77051">
        <ele>378</ele>
        <time>2014-12-28T10:09:54Z</time>
      </trkpt>
      <trkpt lat="47.52915" lon="6.77046">
        <ele>378</ele>
        <time>2014-12-28T10:09:56Z</time>
      </trkpt>
      <trkpt lat="47.52917" lon="6.77045">
        <ele>379</ele>
        <time>2014-12-28T10:09:57Z</time>
      </trkpt>
      <trkpt lat="47.52919" lon="6.77043">
        <ele>379</ele>
        <time>2014-12-28T10:09:58Z</time>
      </trkpt>
      <trkpt lat="47.52921" lon="6.77041">
        <ele>379</ele>
        <time>2014-12-28T10:09:59Z</time>
      </trkpt>
      <trkpt lat="47.52925" lon="6.77039">
        <ele>379</ele>
        <time>2014-12-28T10:10:01Z</time>
      </trkpt>
      <trkpt lat="47.52927" lon="6.77037">
        <ele>379</ele>
        <time>2014-12-28T10:10:02Z</time>
      </trkpt>
      <trkpt lat="47.52929" lon="6.77033">
        <ele>379</ele>
        <time>2014-12-28T10:10:04Z</time>
      </trkpt>
      <trkpt lat="47.5293" lon="6.77031">
        <ele>379</ele>
        <time>2014-12-28T10:10:05Z</time>
      </trkpt>
      <trkpt lat="47.52931" lon="6.77026">
        <ele>379</ele>
        <time>2014-12-28T10:10:08Z</time>
      </trkpt>
      <trkpt lat="47.5293" lon="6.77024">
        <ele>379</ele>
        <time>2014-12-28T10:10:09Z</time>
      </trkpt>
      <trkpt lat="47.52929" lon="6.7702">
        <ele>379</ele>
        <time>2014-12-28T10:10:11Z</time>
      </trkpt>
      <trkpt lat="47.52928" lon="6.77018">
        <ele>379</ele>
        <time>2014-12-28T10:10:12Z</time>
      </trkpt>
      <trkpt lat="47.52925" lon="6.77013">
        <ele>379</ele>
        <time>2014-12-28T10:10:15Z</time>
      </trkpt>
      <trkpt lat="47.52925" lon="6.77012">
        <ele>379</ele>
        <time>2014-12-28T10:10:16Z</time>
      </trkpt>
      <trkpt lat="47.52922" lon="6.77007">
        <ele>379</ele>
        <time>2014-12-28T10:10:21Z</time>
      </trkpt>
      <trkpt lat="47.52921" lon="6.77004">
        <ele>379</ele>
        <time>2014-12-28T10:10:22Z</time>
      </trkpt>
      <trkpt lat="47.52921" lon="6.76998">
        <ele>379</ele>
        <time>2014-12-28T10:10:24Z</time>
      </trkpt>
      <trkpt lat="47.52922" lon="6.76996">
        <ele>379</ele>
        <time>2014-12-28T10:10:25Z</time>
      </trkpt>
      <trkpt lat="47.52925" lon="6.76992">
        <ele>379</ele>
        <time>2014-12-28T10:10:28Z</time>
      </trkpt>
      <trkpt lat="47.52926" lon="6.7699">
        <ele>379</ele>
        <time>2014-12-28T10:10:29Z</time>
      </trkpt>
      <trkpt lat="47.52928" lon="6.76985">
        <ele>379</ele>
        <time>2014-12-28T10:10:31Z</time>
      </trkpt>
      <trkpt lat="47.5293" lon="6.76982">
        <ele>379</ele>
        <time>2014-12-28T10:10:32Z</time>
      </trkpt>
      <trkpt lat="47.52931" lon="6.76979">
        <ele>379</ele>
        <time>2014-12-28T10:10:33Z</time>
      </trkpt>
      <trkpt lat="47.52932" lon="6.76977">
        <ele>379</ele>
        <time>2014-12-28T10:10:34Z</time>
      </trkpt>
      <trkpt lat="47.52934" lon="6.76974">
        <ele>379</ele>
        <time>2014-12-28T10:10:35Z</time>
      </trkpt>
      <trkpt lat="47.52935" lon="6.76971">
        <ele>379</ele>
        <time>2014-12-28T10:10:36Z</time>
      </trkpt>
      <trkpt lat="47.52939" lon="6.7695">
        <ele>380</ele>
        <time>2014-12-28T10:10:44Z</time>
      </trkpt>
      <trkpt lat="47.52939" lon="6.76944">
        <ele>380</ele>
        <time>2014-12-28T10:10:46Z</time>
      </trkpt>
      <trkpt lat="47.52938" lon="6.76941">
        <ele>379</ele>
        <time>2014-12-28T10:10:47Z</time>
      </trkpt>
      <trkpt lat="47.52937" lon="6.76935">
        <ele>379</ele>
        <time>2014-12-28T10:10:49Z</time>
      </trkpt>
      <trkpt lat="47.52936" lon="6.76932">
        <ele>379</ele>
        <time>2014-12-28T10:10:50Z</time>
      </trkpt>
      <trkpt lat="47.52936" lon="6.76929">
        <ele>379</ele>
        <time>2014-12-28T10:10:51Z</time>
      </trkpt>
      <trkpt lat="47.52935" lon="6.76925">
        <ele>379</ele>
        <time>2014-12-28T10:10:52Z</time>
      </trkpt>
      <trkpt lat="47.52939" lon="6.76922">
        <ele>379</ele>
        <time>2014-12-28T10:10:57Z</time>
      </trkpt>
      <trkpt lat="47.52942" lon="6.76925">
        <ele>379</ele>
        <time>2014-12-28T10:10:58Z</time>
      </trkpt>
      <trkpt lat="47.52945" lon="6.76928">
        <ele>380</ele>
        <time>2014-12-28T10:10:59Z</time>
      </trkpt>
      <trkpt lat="47.52948" lon="6.76931">
        <ele>380</ele>
        <time>2014-12-28T10:11:00Z</time>
      </trkpt>
      <trkpt lat="47.52951" lon="6.76933">
        <ele>380</ele>
        <time>2014-12-28T10:11:01Z</time>
      </trkpt>
      <trkpt lat="47.52954" lon="6.76936">
        <ele>381</ele>
        <time>2014-12-28T10:11:02Z</time>
      </trkpt>
      <trkpt lat="47.52957" lon="6.76939">
        <ele>381</ele>
        <time>2014-12-28T10:11:03Z</time>
      </trkpt>
      <trkpt lat="47.5296" lon="6.76941">
        <ele>381</ele>
        <time>2014-12-28T10:11:04Z</time>
      </trkpt>
      <trkpt lat="47.52962" lon="6.76943">
        <ele>381</ele>
        <time>2014-12-28T10:11:05Z</time>
      </trkpt>
      <trkpt lat="47.52964" lon="6.76944">
        <ele>381</ele>
        <time>2014-12-28T10:11:06Z</time>
      </trkpt>
      <trkpt lat="47.52968" lon="6.76946">
        <ele>382</ele>
        <time>2014-12-28T10:11:09Z</time>
      </trkpt>
      <trkpt lat="47.52969" lon="6.76947">
        <ele>382</ele>
        <time>2014-12-28T10:11:10Z</time>
      </trkpt>
      <trkpt lat="47.52971" lon="6.76952">
        <ele>382</ele>
        <time>2014-12-28T10:11:13Z</time>
      </trkpt>
      <trkpt lat="47.52971" lon="6.76954">
        <ele>382</ele>
        <time>2014-12-28T10:11:14Z</time>
      </trkpt>
      <trkpt lat="47.52972" lon="6.76958">
        <ele>382</ele>
        <time>2014-12-28T10:11:16Z</time>
      </trkpt>
      <trkpt lat="47.52973" lon="6.7696">
        <ele>382</ele>
        <time>2014-12-28T10:11:17Z</time>
      </trkpt>
      <trkpt lat="47.52975" lon="6.76964">
        <ele>382</ele>
        <time>2014-12-28T10:11:20Z</time>
      </trkpt>
      <trkpt lat="47.52976" lon="6.76964">
        <ele>382</ele>
        <time>2014-12-28T10:11:21Z</time>
      </trkpt>
      <trkpt lat="47.5298" lon="6.76961">
        <ele>383</ele>
        <time>2014-12-28T10:11:24Z</time>
      </trkpt>
      <trkpt lat="47.52981" lon="6.76959">
        <ele>383</ele>
        <time>2014-12-28T10:11:25Z</time>
      </trkpt>
      <trkpt lat="47.52985" lon="6.76955">
        <ele>383</ele>
        <time>2014-12-28T10:11:27Z</time>
      </trkpt>
      <trkpt lat="47.52986" lon="6.76952">
        <ele>383</ele>
        <time>2014-12-28T10:11:28Z</time>
      </trkpt>
      <trkpt lat="47.52987" lon="6.76949">
        <ele>383</ele>
        <time>2014-12-28T10:11:29Z</time>
      </trkpt>
      <trkpt lat="47.52988" lon="6.76946">
        <ele>383</ele>
        <time>2014-12-28T10:11:30Z</time>
      </trkpt>
      <trkpt lat="47.52989" lon="6.76943">
        <ele>383</ele>
        <time>2014-12-28T10:11:31Z</time>
      </trkpt>
      <trkpt lat="47.52991" lon="6.7694">
        <ele>383</ele>
        <time>2014-12-28T10:11:32Z</time>
      </trkpt>
      <trkpt lat="47.52994" lon="6.76935">
        <ele>383</ele>
        <time>2014-12-28T10:11:34Z</time>
      </trkpt>
      <trkpt lat="47.52995" lon="6.76934">
        <ele>383</ele>
        <time>2014-12-28T10:11:35Z</time>
      </trkpt>
      <trkpt lat="47.52996" lon="6.76932">
        <ele>383</ele>
        <time>2014-12-28T10:11:36Z</time>
      </trkpt>
      <trkpt lat="47.52999" lon="6.7693">
        <ele>383</ele>
        <time>2014-12-28T10:11:39Z</time>
      </trkpt>
      <trkpt lat="47.53002" lon="6.76932">
        <ele>384</ele>
        <time>2014-12-28T10:11:43Z</time>
      </trkpt>
      <trkpt lat="47.53003" lon="6.76935">
        <ele>384</ele>
        <time>2014-12-28T10:11:44Z</time>
      </trkpt>
      <trkpt lat="47.53004" lon="6.76941">
        <ele>384</ele>
        <time>2014-12-28T10:11:46Z</time>
      </trkpt>
      <trkpt lat="47.53004" lon="6.76943">
        <ele>384</ele>
        <time>2014-12-28T10:11:47Z</time>
      </trkpt>
      <trkpt lat="47.53001" lon="6.76947">
        <ele>384</ele>
        <time>2014-12-28T10:11:50Z</time>
      </trkpt>
      <trkpt lat="47.53" lon="6.7695">
        <ele>383</ele>
        <time>2014-12-28T10:11:51Z</time>
      </trkpt>
      <trkpt lat="47.52998" lon="6.76954">
        <ele>383</ele>
        <time>2014-12-28T10:11:53Z</time>
      </trkpt>
      <trkpt lat="47.52997" lon="6.76957">
        <ele>383</ele>
        <time>2014-12-28T10:11:54Z</time>
      </trkpt>
      <trkpt lat="47.52997" lon="6.76963">
        <ele>383</ele>
        <time>2014-12-28T10:11:57Z</time>
      </trkpt>
      <trkpt lat="47.52997" lon="6.76964">
        <ele>383</ele>
        <time>2014-12-28T10:11:58Z</time>
      </trkpt>
      <trkpt lat="47.52995" lon="6.7697">
        <ele>383</ele>
        <time>2014-12-28T10:12:01Z</time>
      </trkpt>
      <trkpt lat="47.52994" lon="6.76972">
        <ele>383</ele>
        <time>2014-12-28T10:12:02Z</time>
      </trkpt>
      <trkpt lat="47.52992" lon="6.76977">
        <ele>383</ele>
        <time>2014-12-28T10:12:04Z</time>
      </trkpt>
      <trkpt lat="47.5299" lon="6.76979">
        <ele>383</ele>
        <time>2014-12-28T10:12:05Z</time>
      </trkpt>
      <trkpt lat="47.52988" lon="6.76981">
        <ele>383</ele>
        <time>2014-12-28T10:12:06Z</time>
      </trkpt>
      <trkpt lat="47.52986" lon="6.76983">
        <ele>383</ele>
        <time>2014-12-28T10:12:07Z</time>
      </trkpt>
      <trkpt lat="47.52983" lon="6.76987">
        <ele>383</ele>
        <time>2014-12-28T10:12:09Z</time>
      </trkpt>
      <trkpt lat="47.52981" lon="6.76989">
        <ele>383</ele>
        <time>2014-12-28T10:12:10Z</time>
      </trkpt>
      <trkpt lat="47.52979" lon="6.76992">
        <ele>383</ele>
        <time>2014-12-28T10:12:12Z</time>
      </trkpt>
      <trkpt lat="47.52978" lon="6.76993">
        <ele>383</ele>
        <time>2014-12-28T10:12:13Z</time>
      </trkpt>
      <trkpt lat="47.52977" lon="6.76998">
        <ele>383</ele>
        <time>2014-12-28T10:12:15Z</time>
      </trkpt>
      <trkpt lat="47.52977" lon="6.77001">
        <ele>382</ele>
        <time>2014-12-28T10:12:16Z</time>
      </trkpt>
      <trkpt lat="47.52978" lon="6.77005">
        <ele>382</ele>
        <time>2014-12-28T10:12:18Z</time>
      </trkpt>
      <trkpt lat="47.52979" lon="6.77007">
        <ele>382</ele>
        <time>2014-12-28T10:12:19Z</time>
      </trkpt>
      <trkpt lat="47.52982" lon="6.77009">
        <ele>383</ele>
        <time>2014-12-28T10:12:21Z</time>
      </trkpt>
      <trkpt lat="47.52984" lon="6.7701">
        <ele>383</ele>
        <time>2014-12-28T10:12:22Z</time>
      </trkpt>
      <trkpt lat="47.52987" lon="6.77011">
        <ele>383</ele>
        <time>2014-12-28T10:12:24Z</time>
      </trkpt>
      <trkpt lat="47.52989" lon="6.77011">
        <ele>383</ele>
        <time>2014-12-28T10:12:25Z</time>
      </trkpt>
      <trkpt lat="47.52993" lon="6.77012">
        <ele>383</ele>
        <time>2014-12-28T10:12:27Z</time>
      </trkpt>
      <trkpt lat="47.52995" lon="6.77012">
        <ele>383</ele>
        <time>2014-12-28T10:12:28Z</time>
      </trkpt>
      <trkpt lat="47.52998" lon="6.77012">
        <ele>383</ele>
        <time>2014-12-28T10:12:30Z</time>
      </trkpt>
      <trkpt lat="47.52999" lon="6.77012">
        <ele>383</ele>
        <time>2014-12-28T10:12:31Z</time>
      </trkpt>
      <trkpt lat="47.53003" lon="6.7701">
        <ele>383</ele>
        <time>2014-12-28T10:12:33Z</time>
      </trkpt>
      <trkpt lat="47.53005" lon="6.77009">
        <ele>383</ele>
        <time>2014-12-28T10:12:34Z</time>
      </trkpt>
      <trkpt lat="47.53007" lon="6.77008">
        <ele>383</ele>
        <time>2014-12-28T10:12:35Z</time>
      </trkpt>
      <trkpt lat="47.53009" lon="6.77007">
        <ele>383</ele>
        <time>2014-12-28T10:12:36Z</time>
      </trkpt>
      <trkpt lat="47.53014" lon="6.76999">
        <ele>383</ele>
        <time>2014-12-28T10:12:44Z</time>
      </trkpt>
      <trkpt lat="47.53012" lon="6.76993">
        <ele>383</ele>
        <time>2014-12-28T10:12:47Z</time>
      </trkpt>
      <trkpt lat="47.53012" lon="6.7699">
        <ele>383</ele>
        <time>2014-12-28T10:12:48Z</time>
      </trkpt>
      <trkpt lat="47.53012" lon="6.76984">
        <ele>383</ele>
        <time>2014-12-28T10:12:50Z</time>
      </trkpt>
      <trkpt lat="47.53012" lon="6.76982">
        <ele>383</ele>
        <time>2014-12-28T10:12:51Z</time>
      </trkpt>
      <trkpt lat="47.53013" lon="6.76977">
        <ele>383</ele>
        <time>2014-12-28T10:12:53Z</time>
      </trkpt>
      <trkpt lat="47.53013" lon="6.76975">
        <ele>383</ele>
        <time>2014-12-28T10:12:54Z</time>
      </trkpt>
      <trkpt lat="47.53015" lon="6.76971">
        <ele>383</ele>
        <time>2014-12-28T10:12:56Z</time>
      </trkpt>
      <trkpt lat="47.53016" lon="6.76968">
        <ele>383</ele>
        <time>2014-12-28T10:12:57Z</time>
      </trkpt>
      <trkpt lat="47.53017" lon="6.76963">
        <ele>383</ele>
        <time>2014-12-28T10:12:59Z</time>
      </trkpt>
      <trkpt lat="47.53018" lon="6.7696">
        <ele>383</ele>
        <time>2014-12-28T10:13:00Z</time>
      </trkpt>
      <trkpt lat="47.53019" lon="6.76956">
        <ele>384</ele>
        <time>2014-12-28T10:13:01Z</time>
      </trkpt>
      <trkpt lat="47.5302" lon="6.76953">
        <ele>384</ele>
        <time>2014-12-28T10:13:02Z</time>
      </trkpt>
      <trkpt lat="47.53021" lon="6.7695">
        <ele>384</ele>
        <time>2014-12-28T10:13:03Z</time>
      </trkpt>
      <trkpt lat="47.53022" lon="6.76947">
        <ele>384</ele>
        <time>2014-12-28T10:13:04Z</time>
      </trkpt>
      <trkpt lat="47.53023" lon="6.76941">
        <ele>384</ele>
        <time>2014-12-28T10:13:06Z</time>
      </trkpt>
      <trkpt lat="47.53023" lon="6.76938">
        <ele>384</ele>
        <time>2014-12-28T10:13:07Z</time>
      </trkpt>
      <trkpt lat="47.53025" lon="6.76933">
        <ele>384</ele>
        <time>2014-12-28T10:13:09Z</time>
      </trkpt>
      <trkpt lat="47.53027" lon="6.76931">
        <ele>384</ele>
        <time>2014-12-28T10:13:10Z</time>
      </trkpt>
      <trkpt lat="47.53029" lon="6.76927">
        <ele>384</ele>
        <time>2014-12-28T10:13:12Z</time>
      </trkpt>
      <trkpt lat="47.5303" lon="6.76925">
        <ele>384</ele>
        <time>2014-12-28T10:13:13Z</time>
      </trkpt>
      <trkpt lat="47.53032" lon="6.76921">
        <ele>384</ele>
        <time>2014-12-28T10:13:15Z</time>
      </trkpt>
      <trkpt lat="47.53032" lon="6.76919">
        <ele>384</ele>
        <time>2014-12-28T10:13:16Z</time>
      </trkpt>
      <trkpt lat="47.53033" lon="6.76914">
        <ele>383</ele>
        <time>2014-12-28T10:13:18Z</time>
      </trkpt>
      <trkpt lat="47.53034" lon="6.76912">
        <ele>383</ele>
        <time>2014-12-28T10:13:19Z</time>
      </trkpt>
      <trkpt lat="47.53037" lon="6.76909">
        <ele>383</ele>
        <time>2014-12-28T10:13:21Z</time>
      </trkpt>
      <trkpt lat="47.53038" lon="6.76908">
        <ele>383</ele>
        <time>2014-12-28T10:13:22Z</time>
      </trkpt>
      <trkpt lat="47.53042" lon="6.76904">
        <ele>383</ele>
        <time>2014-12-28T10:13:26Z</time>
      </trkpt>
      <trkpt lat="47.53042" lon="6.76903">
        <ele>383</ele>
        <time>2014-12-28T10:13:27Z</time>
      </trkpt>
      <trkpt lat="47.53043" lon="6.76898">
        <ele>383</ele>
        <time>2014-12-28T10:13:29Z</time>
      </trkpt>
      <trkpt lat="47.53043" lon="6.76896">
        <ele>383</ele>
        <time>2014-12-28T10:13:30Z</time>
      </trkpt>
      <trkpt lat="47.53045" lon="6.76891">
        <ele>383</ele>
        <time>2014-12-28T10:13:32Z</time>
      </trkpt>
      <trkpt lat="47.53046" lon="6.7689">
        <ele>383</ele>
        <time>2014-12-28T10:13:33Z</time>
      </trkpt>
      <trkpt lat="47.5305" lon="6.76888">
        <ele>383</ele>
        <time>2014-12-28T10:13:36Z</time>
      </trkpt>
      <trkpt lat="47.53052" lon="6.76888">
        <ele>383</ele>
        <time>2014-12-28T10:13:39Z</time>
      </trkpt>
      <trkpt lat="47.53055" lon="6.76886">
        <ele>384</ele>
        <time>2014-12-28T10:13:42Z</time>
      </trkpt>
      <trkpt lat="47.53057" lon="6.76885">
        <ele>384</ele>
        <time>2014-12-28T10:13:43Z</time>
      </trkpt>
      <trkpt lat="47.53059" lon="6.76882">
        <ele>384</ele>
        <time>2014-12-28T10:13:45Z</time>
      </trkpt>
      <trkpt lat="47.53061" lon="6.76881">
        <ele>384</ele>
        <time>2014-12-28T10:13:46Z</time>
      </trkpt>
      <trkpt lat="47.53063" lon="6.76878">
        <ele>384</ele>
        <time>2014-12-28T10:13:47Z</time>
      </trkpt>
      <trkpt lat="47.53065" lon="6.76876">
        <ele>384</ele>
        <time>2014-12-28T10:13:48Z</time>
      </trkpt>
      <trkpt lat="47.53067" lon="6.76875">
        <ele>384</ele>
        <time>2014-12-28T10:13:49Z</time>
      </trkpt>
      <trkpt lat="47.53069" lon="6.76873">
        <ele>384</ele>
        <time>2014-12-28T10:13:50Z</time>
      </trkpt>
      <trkpt lat="47.53071" lon="6.76871">
        <ele>384</ele>
        <time>2014-12-28T10:13:51Z</time>
      </trkpt>
      <trkpt lat="47.53073" lon="6.76869">
        <ele>384</ele>
        <time>2014-12-28T10:13:52Z</time>
      </trkpt>
      <trkpt lat="47.53077" lon="6.76867">
        <ele>384</ele>
        <time>2014-12-28T10:13:54Z</time>
      </trkpt>
      <trkpt lat="47.53079" lon="6.76867">
        <ele>384</ele>
        <time>2014-12-28T10:13:55Z</time>
      </trkpt>
      <trkpt lat="47.53083" lon="6.76866">
        <ele>384</ele>
        <time>2014-12-28T10:13:57Z</time>
      </trkpt>
      <trkpt lat="47.53086" lon="6.76865">
        <ele>384</ele>
        <time>2014-12-28T10:13:58Z</time>
      </trkpt>
      <trkpt lat="47.53088" lon="6.76864">
        <ele>384</ele>
        <time>2014-12-28T10:13:59Z</time>
      </trkpt>
      <trkpt lat="47.53091" lon="6.76863">
        <ele>384</ele>
        <time>2014-12-28T10:14:00Z</time>
      </trkpt>
      <trkpt lat="47.53093" lon="6.76862">
        <ele>384</ele>
        <time>2014-12-28T10:14:01Z</time>
      </trkpt>
      <trkpt lat="47.53096" lon="6.76862">
        <ele>384</ele>
        <time>2014-12-28T10:14:02Z</time>
      </trkpt>
      <trkpt lat="47.53098" lon="6.76862">
        <ele>384</ele>
        <time>2014-12-28T10:14:03Z</time>
      </trkpt>
      <trkpt lat="47.531" lon="6.76862">
        <ele>384</ele>
        <time>2014-12-28T10:14:04Z</time>
      </trkpt>
      <trkpt lat="47.53104" lon="6.76864">
        <ele>384</ele>
        <time>2014-12-28T10:14:06Z</time>
      </trkpt>
      <trkpt lat="47.53105" lon="6.76865">
        <ele>384</ele>
        <time>2014-12-28T10:14:07Z</time>
      </trkpt>
      <trkpt lat="47.53107" lon="6.7687">
        <ele>384</ele>
        <time>2014-12-28T10:14:09Z</time>
      </trkpt>
      <trkpt lat="47.53109" lon="6.76873">
        <ele>384</ele>
        <time>2014-12-28T10:14:10Z</time>
      </trkpt>
      <trkpt lat="47.5311" lon="6.76877">
        <ele>384</ele>
        <time>2014-12-28T10:14:11Z</time>
      </trkpt>
      <trkpt lat="47.5311" lon="6.76881">
        <ele>384</ele>
        <time>2014-12-28T10:14:12Z</time>
      </trkpt>
      <trkpt lat="47.53111" lon="6.76884">
        <ele>384</ele>
        <time>2014-12-28T10:14:13Z</time>
      </trkpt>
      <trkpt lat="47.53112" lon="6.76888">
        <ele>384</ele>
        <time>2014-12-28T10:14:14Z</time>
      </trkpt>
      <trkpt lat="47.53113" lon="6.76893">
        <ele>384</ele>
        <time>2014-12-28T10:14:16Z</time>
      </trkpt>
      <trkpt lat="47.53114" lon="6.76895">
        <ele>384</ele>
        <time>2014-12-28T10:14:17Z</time>
      </trkpt>
      <trkpt lat="47.53116" lon="6.76901">
        <ele>384</ele>
        <time>2014-12-28T10:14:20Z</time>
      </trkpt>
      <trkpt lat="47.53116" lon="6.76903">
        <ele>384</ele>
        <time>2014-12-28T10:14:21Z</time>
      </trkpt>
      <trkpt lat="47.53118" lon="6.76908">
        <ele>384</ele>
        <time>2014-12-28T10:14:23Z</time>
      </trkpt>
      <trkpt lat="47.53119" lon="6.76911">
        <ele>384</ele>
        <time>2014-12-28T10:14:24Z</time>
      </trkpt>
      <trkpt lat="47.5312" lon="6.76917">
        <ele>384</ele>
        <time>2014-12-28T10:14:26Z</time>
      </trkpt>
      <trkpt lat="47.53121" lon="6.76919">
        <ele>384</ele>
        <time>2014-12-28T10:14:27Z</time>
      </trkpt>
      <trkpt lat="47.53122" lon="6.76925">
        <ele>384</ele>
        <time>2014-12-28T10:14:29Z</time>
      </trkpt>
      <trkpt lat="47.53123" lon="6.76928">
        <ele>384</ele>
        <time>2014-12-28T10:14:30Z</time>
      </trkpt>
      <trkpt lat="47.53125" lon="6.76932">
        <ele>384</ele>
        <time>2014-12-28T10:14:32Z</time>
      </trkpt>
      <trkpt lat="47.53126" lon="6.76932">
        <ele>384</ele>
        <time>2014-12-28T10:14:33Z</time>
      </trkpt>
      <trkpt lat="47.53129" lon="6.76934">
        <ele>384</ele>
        <time>2014-12-28T10:14:36Z</time>
      </trkpt>
      <trkpt lat="47.53138" lon="6.76934">
        <ele>384</ele>
        <time>2014-12-28T10:14:44Z</time>
      </trkpt>
      <trkpt lat="47.5314" lon="6.7693">
        <ele>384</ele>
        <time>2014-12-28T10:14:47Z</time>
      </trkpt>
      <trkpt lat="47.5314" lon="6.76928">
        <ele>384</ele>
        <time>2014-12-28T10:14:48Z</time>
      </trkpt>
      <trkpt lat="47.53142" lon="6.76926">
        <ele>384</ele>
        <time>2014-12-28T10:14:50Z</time>
      </trkpt>
      <trkpt lat="47.53144" lon="6.76924">
        <ele>384</ele>
        <time>2014-12-28T10:14:51Z</time>
      </trkpt>
      <trkpt lat="47.53147" lon="6.76922">
        <ele>384</ele>
        <time>2014-12-28T10:14:53Z</time>
      </trkpt>
      <trkpt lat="47.53148" lon="6.76921">
        <ele>384</ele>
        <time>2014-12-28T10:14:54Z</time>
      </trkpt>
      <trkpt lat="47.53151" lon="6.76917">
        <ele>384</ele>
        <time>2014-12-28T10:14:57Z</time>
      </trkpt>
      <trkpt lat="47.53152" lon="6.76915">
        <ele>384</ele>
        <time>2014-12-28T10:14:58Z</time>
      </trkpt>
      <trkpt lat="47.53154" lon="6.76909">
        <ele>384</ele>
        <time>2014-12-28T10:15:00Z</time>
      </trkpt>
      <trkpt lat="47.53154" lon="6.76907">
        <ele>384</ele>
        <time>2014-12-28T10:15:01Z</time>
      </trkpt>
      <trkpt lat="47.53153" lon="6.76902">
        <ele>384</ele>
        <time>2014-12-28T10:15:03Z</time>
      </trkpt>
      <trkpt lat="47.53153" lon="6.769">
        <ele>384</ele>
        <time>2014-12-28T10:15:04Z</time>
      </trkpt>
      <trkpt lat="47.53151" lon="6.76894">
        <ele>384</ele>
        <time>2014-12-28T10:15:07Z</time>
      </trkpt>
      <trkpt lat="47.53151" lon="6.76892">
        <ele>384</ele>
        <time>2014-12-28T10:15:08Z</time>
      </trkpt>
      <trkpt lat="47.53149" lon="6.76887">
        <ele>384</ele>
        <time>2014-12-28T10:15:11Z</time>
      </trkpt>
      <trkpt lat="47.53149" lon="6.76885">
        <ele>384</ele>
        <time>2014-12-28T10:15:12Z</time>
      </trkpt>
      <trkpt lat="47.53148" lon="6.76882">
        <ele>384</ele>
        <time>2014-12-28T10:15:13Z</time>
      </trkpt>
      <trkpt lat="47.53147" lon="6.76878">
        <ele>384</ele>
        <time>2014-12-28T10:15:14Z</time>
      </trkpt>
      <trkpt lat="47.53146" lon="6.76872">
        <ele>384</ele>
        <time>2014-12-28T10:15:16Z</time>
      </trkpt>
      <trkpt lat="47.53145" lon="6.76869">
        <ele>383</ele>
        <time>2014-12-28T10:15:17Z</time>
      </trkpt>
      <trkpt lat="47.53145" lon="6.76862">
        <ele>383</ele>
        <time>2014-12-28T10:15:19Z</time>
      </trkpt>
      <trkpt lat="47.53144" lon="6.76859">
        <ele>383</ele>
        <time>2014-12-28T10:15:20Z</time>
      </trkpt>
      <trkpt lat="47.53145" lon="6.76854">
        <ele>383</ele>
        <time>2014-12-28T10:15:22Z</time>
      </trkpt>
      <trkpt lat="47.53145" lon="6.76852">
        <ele>383</ele>
        <time>2014-12-28T10:15:23Z</time>
      </trkpt>
      <trkpt lat="47.53148" lon="6.76849">
        <ele>383</ele>
        <time>2014-12-28T10:15:26Z</time>
      </trkpt>
      <trkpt lat="47.53149" lon="6.76849">
        <ele>383</ele>
        <time>2014-12-28T10:15:27Z</time>
      </trkpt>
      <trkpt lat="47.53153" lon="6.7685">
        <ele>383</ele>
        <time>2014-12-28T10:15:30Z</time>
      </trkpt>
      <trkpt lat="47.53155" lon="6.76851">
        <ele>383</ele>
        <time>2014-12-28T10:15:31Z</time>
      </trkpt>
      <trkpt lat="47.53158" lon="6.76854">
        <ele>383</ele>
        <time>2014-12-28T10:15:34Z</time>
      </trkpt>
      <trkpt lat="47.53159" lon="6.76856">
        <ele>383</ele>
        <time>2014-12-28T10:15:35Z</time>
      </trkpt>
      <trkpt lat="47.53161" lon="6.76861">
        <ele>383</ele>
        <time>2014-12-28T10:15:40Z</time>
      </trkpt>
      <trkpt lat="47.53162" lon="6.76861">
        <ele>383</ele>
        <time>2014-12-28T10:15:41Z</time>
      </trkpt>
      <trkpt lat="47.53165" lon="6.76864">
        <ele>383</ele>
        <time>2014-12-28T10:15:43Z</time>
      </trkpt>
      <trkpt lat="47.53166" lon="6.76865">
        <ele>383</ele>
        <time>2014-12-28T10:15:44Z</time>
      </trkpt>
      <trkpt lat="47.5317" lon="6.76864">
        <ele>383</ele>
        <time>2014-12-28T10:15:46Z</time>
      </trkpt>
      <trkpt lat="47.53172" lon="6.76863">
        <ele>383</ele>
        <time>2014-12-28T10:15:47Z</time>
      </trkpt>
      <trkpt lat="47.53175" lon="6.76861">
        <ele>383</ele>
        <time>2014-12-28T10:15:49Z</time>
      </trkpt>
      <trkpt lat="47.53177" lon="6.76859">
        <ele>383</ele>
        <time>2014-12-28T10:15:50Z</time>
      </trkpt>
      <trkpt lat="47.53179" lon="6.76857">
        <ele>383</ele>
        <time>2014-12-28T10:15:51Z</time>
      </trkpt>
      <trkpt lat="47.53181" lon="6.76856">
        <ele>383</ele>
        <time>2014-12-28T10:15:52Z</time>
      </trkpt>
      <trkpt lat="47.53185" lon="6.76852">
        <ele>383</ele>
        <time>2014-12-28T10:15:54Z</time>
      </trkpt>
      <trkpt lat="47.53186" lon="6.76851">
        <ele>383</ele>
        <time>2014-12-28T10:15:55Z</time>
      </trkpt>
      <trkpt lat="47.53189" lon="6.76847">
        <ele>383</ele>
        <time>2014-12-28T10:15:57Z</time>
      </trkpt>
      <trkpt lat="47.5319" lon="6.76846">
        <ele>383</ele>
        <time>2014-12-28T10:15:58Z</time>
      </trkpt>
      <trkpt lat="47.53192" lon="6.76842">
        <ele>383</ele>
        <time>2014-12-28T10:16:00Z</time>
      </trkpt>
      <trkpt lat="47.53192" lon="6.7684">
        <ele>383</ele>
        <time>2014-12-28T10:16:01Z</time>
      </trkpt>
      <trkpt lat="47.53193" lon="6.76835">
        <ele>383</ele>
        <time>2014-12-28T10:16:03Z</time>
      </trkpt>
      <trkpt lat="47.53193" lon="6.76832">
        <ele>382</ele>
        <time>2014-12-28T10:16:04Z</time>
      </trkpt>
      <trkpt lat="47.5319" lon="6.76828">
        <ele>382</ele>
        <time>2014-12-28T10:16:08Z</time>
      </trkpt>
      <trkpt lat="47.5319" lon="6.76827">
        <ele>382</ele>
        <time>2014-12-28T10:16:09Z</time>
      </trkpt>
      <trkpt lat="47.53188" lon="6.76821">
        <ele>382</ele>
        <time>2014-12-28T10:16:12Z</time>
      </trkpt>
      <trkpt lat="47.53188" lon="6.76819">
        <ele>382</ele>
        <time>2014-12-28T10:16:13Z</time>
      </trkpt>
      <trkpt lat="47.53185" lon="6.76815">
        <ele>382</ele>
        <time>2014-12-28T10:16:18Z</time>
      </trkpt>
      <trkpt lat="47.53184" lon="6.76814">
        <ele>382</ele>
        <time>2014-12-28T10:16:19Z</time>
      </trkpt>
      <trkpt lat="47.53182" lon="6.7681">
        <ele>382</ele>
        <time>2014-12-28T10:16:21Z</time>
      </trkpt>
      <trkpt lat="47.53181" lon="6.76806">
        <ele>382</ele>
        <time>2014-12-28T10:16:22Z</time>
      </trkpt>
      <trkpt lat="47.5318" lon="6.768">
        <ele>381</ele>
        <time>2014-12-28T10:16:24Z</time>
      </trkpt>
      <trkpt lat="47.5318" lon="6.76798">
        <ele>381</ele>
        <time>2014-12-28T10:16:25Z</time>
      </trkpt>
      <trkpt lat="47.5318" lon="6.76793">
        <ele>381</ele>
        <time>2014-12-28T10:16:27Z</time>
      </trkpt>
      <trkpt lat="47.5318" lon="6.76791">
        <ele>381</ele>
        <time>2014-12-28T10:16:28Z</time>
      </trkpt>
      <trkpt lat="47.53179" lon="6.76787">
        <ele>380</ele>
        <time>2014-12-28T10:16:30Z</time>
      </trkpt>
      <trkpt lat="47.53178" lon="6.76784">
        <ele>380</ele>
        <time>2014-12-28T10:16:31Z</time>
      </trkpt>
      <trkpt lat="47.53176" lon="6.76779">
        <ele>380</ele>
        <time>2014-12-28T10:16:33Z</time>
      </trkpt>
      <trkpt lat="47.53175" lon="6.76777">
        <ele>379</ele>
        <time>2014-12-28T10:16:34Z</time>
      </trkpt>
      <trkpt lat="47.53173" lon="6.76773">
        <ele>379</ele>
        <time>2014-12-28T10:16:36Z</time>
      </trkpt>
      <trkpt lat="47.53171" lon="6.76771">
        <ele>379</ele>
        <time>2014-12-28T10:16:39Z</time>
      </trkpt>
      <trkpt lat="47.53169" lon="6.76769">
        <ele>379</ele>
        <time>2014-12-28T10:16:41Z</time>
      </trkpt>
      <trkpt lat="47.53168" lon="6.76765">
        <ele>379</ele>
        <time>2014-12-28T10:16:42Z</time>
      </trkpt>
      <trkpt lat="47.53166" lon="6.76759">
        <ele>379</ele>
        <time>2014-12-28T10:16:44Z</time>
      </trkpt>
      <trkpt lat="47.53165" lon="6.76757">
        <ele>379</ele>
        <time>2014-12-28T10:16:45Z</time>
      </trkpt>
      <trkpt lat="47.53163" lon="6.76753">
        <ele>379</ele>
        <time>2014-12-28T10:16:50Z</time>
      </trkpt>
      <trkpt lat="47.53161" lon="6.76752">
        <ele>379</ele>
        <time>2014-12-28T10:16:51Z</time>
      </trkpt>
      <trkpt lat="47.53157" lon="6.76751">
        <ele>379</ele>
        <time>2014-12-28T10:16:54Z</time>
      </trkpt>
      <trkpt lat="47.53156" lon="6.7675">
        <ele>379</ele>
        <time>2014-12-28T10:16:55Z</time>
      </trkpt>
      <trkpt lat="47.53153" lon="6.76747">
        <ele>379</ele>
        <time>2014-12-28T10:16:58Z</time>
      </trkpt>
      <trkpt lat="47.53151" lon="6.76746">
        <ele>379</ele>
        <time>2014-12-28T10:16:59Z</time>
      </trkpt>
      <trkpt lat="47.53148" lon="6.76742">
        <ele>379</ele>
        <time>2014-12-28T10:17:01Z</time>
      </trkpt>
      <trkpt lat="47.53146" lon="6.7674">
        <ele>379</ele>
        <time>2014-12-28T10:17:02Z</time>
      </trkpt>
      <trkpt lat="47.53143" lon="6.76737">
        <ele>379</ele>
        <time>2014-12-28T10:17:04Z</time>
      </trkpt>
      <trkpt lat="47.53142" lon="6.76735">
        <ele>379</ele>
        <time>2014-12-28T10:17:05Z</time>
      </trkpt>
      <trkpt lat="47.53139" lon="6.7673">
        <ele>379</ele>
        <time>2014-12-28T10:17:07Z</time>
      </trkpt>
      <trkpt lat="47.53138" lon="6.76729">
        <ele>379</ele>
        <time>2014-12-28T10:17:08Z</time>
      </trkpt>
      <trkpt lat="47.53135" lon="6.76728">
        <ele>379</ele>
        <time>2014-12-28T10:17:10Z</time>
      </trkpt>
      <trkpt lat="47.53133" lon="6.76728">
        <ele>379</ele>
        <time>2014-12-28T10:17:11Z</time>
      </trkpt>
      <trkpt lat="47.5313" lon="6.76728">
        <ele>379</ele>
        <time>2014-12-28T10:17:13Z</time>
      </trkpt>
      <trkpt lat="47.53128" lon="6.76728">
        <ele>379</ele>
        <time>2014-12-28T10:17:14Z</time>
      </trkpt>
      <trkpt lat="47.53125" lon="6.76729">
        <ele>379</ele>
        <time>2014-12-28T10:17:16Z</time>
      </trkpt>
      <trkpt lat="47.53123" lon="6.76729">
        <ele>379</ele>
        <time>2014-12-28T10:17:17Z</time>
      </trkpt>
      <trkpt lat="47.53119" lon="6.76731">
        <ele>380</ele>
        <time>2014-12-28T10:17:19Z</time>
      </trkpt>
      <trkpt lat="47.53118" lon="6.76732">
        <ele>380</ele>
        <time>2014-12-28T10:17:20Z</time>
      </trkpt>
      <trkpt lat="47.53114" lon="6.76735">
        <ele>380</ele>
        <time>2014-12-28T10:17:23Z</time>
      </trkpt>
      <trkpt lat="47.53113" lon="6.76737">
        <ele>380</ele>
        <time>2014-12-28T10:17:24Z</time>
      </trkpt>
      <trkpt lat="47.5311" lon="6.76741">
        <ele>380</ele>
        <time>2014-12-28T10:17:26Z</time>
      </trkpt>
      <trkpt lat="47.53109" lon="6.76743">
        <ele>380</ele>
        <time>2014-12-28T10:17:27Z</time>
      </trkpt>
      <trkpt lat="47.53106" lon="6.76746">
        <ele>380</ele>
        <time>2014-12-28T10:17:30Z</time>
      </trkpt>
      <trkpt lat="47.53106" lon="6.76748">
        <ele>380</ele>
        <time>2014-12-28T10:17:31Z</time>
      </trkpt>
      <trkpt lat="47.53103" lon="6.76752">
        <ele>381</ele>
        <time>2014-12-28T10:17:34Z</time>
      </trkpt>
      <trkpt lat="47.53102" lon="6.76753">
        <ele>381</ele>
        <time>2014-12-28T10:17:35Z</time>
      </trkpt>
      <trkpt lat="47.53099" lon="6.76757">
        <ele>381</ele>
        <time>2014-12-28T10:17:37Z</time>
      </trkpt>
      <trkpt lat="47.53085" lon="6.76768">
        <ele>381</ele>
        <time>2014-12-28T10:17:45Z</time>
      </trkpt>
      <trkpt lat="47.53082" lon="6.76771">
        <ele>381</ele>
        <time>2014-12-28T10:17:47Z</time>
      </trkpt>
      <trkpt lat="47.53079" lon="6.76772">
        <ele>381</ele>
        <time>2014-12-28T10:17:48Z</time>
      </trkpt>
      <trkpt lat="47.53077" lon="6.76774">
        <ele>381</ele>
        <time>2014-12-28T10:17:49Z</time>
      </trkpt>
      <trkpt lat="47.53075" lon="6.76775">
        <ele>381</ele>
        <time>2014-12-28T10:17:50Z</time>
      </trkpt>
      <trkpt lat="47.53073" lon="6.76776">
        <ele>381</ele>
        <time>2014-12-28T10:17:51Z</time>
      </trkpt>
      <trkpt lat="47.5307" lon="6.76777">
        <ele>381</ele>
        <time>2014-12-28T10:17:52Z</time>
      </trkpt>
      <trkpt lat="47.53068" lon="6.76778">
        <ele>381</ele>
        <time>2014-12-28T10:17:53Z</time>
      </trkpt>
      <trkpt lat="47.53066" lon="6.76779">
        <ele>381</ele>
        <time>2014-12-28T10:17:54Z</time>
      </trkpt>
      <trkpt lat="47.53063" lon="6.76784">
        <ele>381</ele>
        <time>2014-12-28T10:17:56Z</time>
      </trkpt>
      <trkpt lat="47.53063" lon="6.76786">
        <ele>381</ele>
        <time>2014-12-28T10:17:57Z</time>
      </trkpt>
      <trkpt lat="47.53067" lon="6.76789">
        <ele>382</ele>
        <time>2014-12-28T10:18:01Z</time>
      </trkpt>
      <trkpt lat="47.53068" lon="6.76789">
        <ele>382</ele>
        <time>2014-12-28T10:18:02Z</time>
      </trkpt>
      <trkpt lat="47.53071" lon="6.76787">
        <ele>381</ele>
        <time>2014-12-28T10:18:05Z</time>
      </trkpt>
      <trkpt lat="47.53072" lon="6.76787">
        <ele>381</ele>
        <time>2014-12-28T10:18:06Z</time>
      </trkpt>
      <trkpt lat="47.53076" lon="6.76786">
        <ele>381</ele>
        <time>2014-12-28T10:18:09Z</time>
      </trkpt>
      <trkpt lat="47.53076" lon="6.76786">
        <ele>381</ele>
        <time>2014-12-28T10:18:10Z</time>
      </trkpt>
      <trkpt lat="47.5308" lon="6.76785">
        <ele>381</ele>
        <time>2014-12-28T10:18:15Z</time>
      </trkpt>
      <trkpt lat="47.53082" lon="6.76786">
        <ele>381</ele>
        <time>2014-12-28T10:18:16Z</time>
      </trkpt>
      <trkpt lat="47.53084" lon="6.76789">
        <ele>382</ele>
        <time>2014-12-28T10:18:18Z</time>
      </trkpt>
      <trkpt lat="47.53086" lon="6.76791">
        <ele>382</ele>
        <time>2014-12-28T10:18:19Z</time>
      </trkpt>
      <trkpt lat="47.53087" lon="6.76796">
        <ele>382</ele>
        <time>2014-12-28T10:18:21Z</time>
      </trkpt>
      <trkpt lat="47.53088" lon="6.76798">
        <ele>382</ele>
        <time>2014-12-28T10:18:22Z</time>
      </trkpt>
      <trkpt lat="47.53089" lon="6.76802">
        <ele>382</ele>
        <time>2014-12-28T10:18:24Z</time>
      </trkpt>
      <trkpt lat="47.53089" lon="6.76804">
        <ele>383</ele>
        <time>2014-12-28T10:18:25Z</time>
      </trkpt>
      <trkpt lat="47.5309" lon="6.76809">
        <ele>383</ele>
        <time>2014-12-28T10:18:27Z</time>
      </trkpt>
      <trkpt lat="47.53091" lon="6.76811">
        <ele>383</ele>
        <time>2014-12-28T10:18:28Z</time>
      </trkpt>
      <trkpt lat="47.53091" lon="6.76816">
        <ele>383</ele>
        <time>2014-12-28T10:18:31Z</time>
      </trkpt>
      <trkpt lat="47.53091" lon="6.76819">
        <ele>383</ele>
        <time>2014-12-28T10:18:32Z</time>
      </trkpt>
      <trkpt lat="47.5309" lon="6.76824">
        <ele>383</ele>
        <time>2014-12-28T10:18:35Z</time>
      </trkpt>
      <trkpt lat="47.5309" lon="6.76825">
        <ele>383</ele>
        <time>2014-12-28T10:18:36Z</time>
      </trkpt>
      <trkpt lat="47.53084" lon="6.76833">
        <ele>384</ele>
        <time>2014-12-28T10:18:44Z</time>
      </trkpt>
      <trkpt lat="47.53081" lon="6.76836">
        <ele>383</ele>
        <time>2014-12-28T10:18:48Z</time>
      </trkpt>
      <trkpt lat="47.53078" lon="6.76836">
        <ele>383</ele>
        <time>2014-12-28T10:18:49Z</time>
      </trkpt>
      <trkpt lat="47.53074" lon="6.76836">
        <ele>383</ele>
        <time>2014-12-28T10:18:51Z</time>
      </trkpt>
      <trkpt lat="47.53073" lon="6.76836">
        <ele>383</ele>
        <time>2014-12-28T10:18:52Z</time>
      </trkpt>
      <trkpt lat="47.53069" lon="6.76833">
        <ele>383</ele>
        <time>2014-12-28T10:18:57Z</time>
      </trkpt>
      <trkpt lat="47.53069" lon="6.76832">
        <ele>383</ele>
        <time>2014-12-28T10:18:58Z</time>
      </trkpt>
      <trkpt lat="47.53066" lon="6.7683">
        <ele>383</ele>
        <time>2014-12-28T10:19:00Z</time>
      </trkpt>
      <trkpt lat="47.53064" lon="6.76829">
        <ele>383</ele>
        <time>2014-12-28T10:19:01Z</time>
      </trkpt>
      <trkpt lat="47.53061" lon="6.76826">
        <ele>383</ele>
        <time>2014-12-28T10:19:03Z</time>
      </trkpt>
      <trkpt lat="47.53059" lon="6.76826">
        <ele>382</ele>
        <time>2014-12-28T10:19:04Z</time>
      </trkpt>
      <trkpt lat="47.53055" lon="6.76825">
        <ele>382</ele>
        <time>2014-12-28T10:19:06Z</time>
      </trkpt>
      <trkpt lat="47.53053" lon="6.76825">
        <ele>382</ele>
        <time>2014-12-28T10:19:07Z</time>
      </trkpt>
      <trkpt lat="47.53051" lon="6.76824">
        <ele>382</ele>
        <time>2014-12-28T10:19:08Z</time>
      </trkpt>
      <trkpt lat="47.53048" lon="6.76823">
        <ele>382</ele>
        <time>2014-12-28T10:19:09Z</time>
      </trkpt>
      <trkpt lat="47.53045" lon="6.76823">
        <ele>382</ele>
        <time>2014-12-28T10:19:10Z</time>
      </trkpt>
      <trkpt lat="47.53042" lon="6.76822">
        <ele>381</ele>
        <time>2014-12-28T10:19:11Z</time>
      </trkpt>
      <trkpt lat="47.53039" lon="6.76822">
        <ele>381</ele>
        <time>2014-12-28T10:19:12Z</time>
      </trkpt>
      <trkpt lat="47.53037" lon="6.76822">
        <ele>381</ele>
        <time>2014-12-28T10:19:13Z</time>
      </trkpt>
      <trkpt lat="47.53035" lon="6.76822">
        <ele>381</ele>
        <time>2014-12-28T10:19:14Z</time>
      </trkpt>
      <trkpt lat="47.53032" lon="6.76823">
        <ele>381</ele>
        <time>2014-12-28T10:19:15Z</time>
      </trkpt>
      <trkpt lat="47.53029" lon="6.76826">
        <ele>381</ele>
        <time>2014-12-28T10:19:17Z</time>
      </trkpt>
      <trkpt lat="47.53029" lon="6.76827">
        <ele>381</ele>
        <time>2014-12-28T10:19:18Z</time>
      </trkpt>
      <trkpt lat="47.53027" lon="6.76832">
        <ele>381</ele>
        <time>2014-12-28T10:19:21Z</time>
      </trkpt>
      <trkpt lat="47.53027" lon="6.76834">
        <ele>382</ele>
        <time>2014-12-28T10:19:22Z</time>
      </trkpt>
      <trkpt lat="47.53028" lon="6.7684">
        <ele>382</ele>
        <time>2014-12-28T10:19:25Z</time>
      </trkpt>
      <trkpt lat="47.53028" lon="6.76841">
        <ele>382</ele>
        <time>2014-12-28T10:19:26Z</time>
      </trkpt>
      <trkpt lat="47.53029" lon="6.76846">
        <ele>382</ele>
        <time>2014-12-28T10:19:29Z</time>
      </trkpt>
      <trkpt lat="47.53029" lon="6.76849">
        <ele>382</ele>
        <time>2014-12-28T10:19:30Z</time>
      </trkpt>
      <trkpt lat="47.53026" lon="6.76854">
        <ele>382</ele>
        <time>2014-12-28T10:19:33Z</time>
      </trkpt>
      <trkpt lat="47.53026" lon="6.76855">
        <ele>382</ele>
        <time>2014-12-28T10:19:34Z</time>
      </trkpt>
      <trkpt lat="47.53025" lon="6.76857">
        <ele>382</ele>
        <time>2014-12-28T10:19:36Z</time>
      </trkpt>
      <trkpt lat="47.53019" lon="6.76865">
        <ele>382</ele>
        <time>2014-12-28T10:19:44Z</time>
      </trkpt>
      <trkpt lat="47.53016" lon="6.76866">
        <ele>382</ele>
        <time>2014-12-28T10:19:47Z</time>
      </trkpt>
      <trkpt lat="47.53013" lon="6.76867">
        <ele>382</ele>
        <time>2014-12-28T10:19:48Z</time>
      </trkpt>
      <trkpt lat="47.5301" lon="6.76869">
        <ele>382</ele>
        <time>2014-12-28T10:19:50Z</time>
      </trkpt>
      <trkpt lat="47.53009" lon="6.7687">
        <ele>382</ele>
        <time>2014-12-28T10:19:51Z</time>
      </trkpt>
      <trkpt lat="47.53006" lon="6.76872">
        <ele>382</ele>
        <time>2014-12-28T10:19:53Z</time>
      </trkpt>
      <trkpt lat="47.53004" lon="6.76872">
        <ele>382</ele>
        <time>2014-12-28T10:19:54Z</time>
      </trkpt>
      <trkpt lat="47.53" lon="6.76871">
        <ele>381</ele>
        <time>2014-12-28T10:19:56Z</time>
      </trkpt>
      <trkpt lat="47.52997" lon="6.76871">
        <ele>381</ele>
        <time>2014-12-28T10:19:57Z</time>
      </trkpt>
      <trkpt lat="47.52993" lon="6.7687">
        <ele>381</ele>
        <time>2014-12-28T10:19:59Z</time>
      </trkpt>
      <trkpt lat="47.52991" lon="6.7687">
        <ele>381</ele>
        <time>2014-12-28T10:20:00Z</time>
      </trkpt>
      <trkpt lat="47.52988" lon="6.76871">
        <ele>381</ele>
        <time>2014-12-28T10:20:02Z</time>
      </trkpt>
      <trkpt lat="47.52986" lon="6.7687">
        <ele>381</ele>
        <time>2014-12-28T10:20:03Z</time>
      </trkpt>
      <trkpt lat="47.52981" lon="6.76871">
        <ele>381</ele>
        <time>2014-12-28T10:20:05Z</time>
      </trkpt>
      <trkpt lat="47.5298" lon="6.76871">
        <ele>381</ele>
        <time>2014-12-28T10:20:06Z</time>
      </trkpt>
      <trkpt lat="47.52977" lon="6.76873">
        <ele>381</ele>
        <time>2014-12-28T10:20:08Z</time>
      </trkpt>
      <trkpt lat="47.52975" lon="6.76874">
        <ele>381</ele>
        <time>2014-12-28T10:20:09Z</time>
      </trkpt>
      <trkpt lat="47.52971" lon="6.76875">
        <ele>381</ele>
        <time>2014-12-28T10:20:11Z</time>
      </trkpt>
      <trkpt lat="47.52969" lon="6.76876">
        <ele>380</ele>
        <time>2014-12-28T10:20:12Z</time>
      </trkpt>
      <trkpt lat="47.52965" lon="6.76875">
        <ele>380</ele>
        <time>2014-12-28T10:20:14Z</time>
      </trkpt>
      <trkpt lat="47.52963" lon="6.76875">
        <ele>380</ele>
        <time>2014-12-28T10:20:15Z</time>
      </trkpt>
      <trkpt lat="47.52959" lon="6.76874">
        <ele>379</ele>
        <time>2014-12-28T10:20:17Z</time>
      </trkpt>
      <trkpt lat="47.52957" lon="6.76875">
        <ele>379</ele>
        <time>2014-12-28T10:20:18Z</time>
      </trkpt>
      <trkpt lat="47.52953" lon="6.76876">
        <ele>379</ele>
        <time>2014-12-28T10:20:20Z</time>
      </trkpt>
      <trkpt lat="47.52951" lon="6.76877">
        <ele>379</ele>
        <time>2014-12-28T10:20:21Z</time>
      </trkpt>
      <trkpt lat="47.52948" lon="6.76878">
        <ele>379</ele>
        <time>2014-12-28T10:20:22Z</time>
      </trkpt>
      <trkpt lat="47.52946" lon="6.7688">
        <ele>379</ele>
        <time>2014-12-28T10:20:23Z</time>
      </trkpt>
      <trkpt lat="47.52944" lon="6.76881">
        <ele>379</ele>
        <time>2014-12-28T10:20:24Z</time>
      </trkpt>
      <trkpt lat="47.52941" lon="6.76883">
        <ele>378</ele>
        <time>2014-12-28T10:20:25Z</time>
      </trkpt>
      <trkpt lat="47.52938" lon="6.76886">
        <ele>378</ele>
        <time>2014-12-28T10:20:27Z</time>
      </trkpt>
      <trkpt lat="47.52936" lon="6.76888">
        <ele>378</ele>
        <time>2014-12-28T10:20:28Z</time>
      </trkpt>
      <trkpt lat="47.52933" lon="6.76893">
        <ele>378</ele>
        <time>2014-12-28T10:20:31Z</time>
      </trkpt>
      <trkpt lat="47.52933" lon="6.76895">
        <ele>378</ele>
        <time>2014-12-28T10:20:32Z</time>
      </trkpt>
      <trkpt lat="47.52932" lon="6.76899">
        <ele>378</ele>
        <time>2014-12-28T10:20:34Z</time>
      </trkpt>
      <trkpt lat="47.52932" lon="6.76902">
        <ele>379</ele>
        <time>2014-12-28T10:20:35Z</time>
      </trkpt>
      <trkpt lat="47.52932" lon="6.76906">
        <ele>379</ele>
        <time>2014-12-28T10:20:37Z</time>
      </trkpt>
      <trkpt lat="47.52927" lon="6.76922">
        <ele>379</ele>
        <time>2014-12-28T10:20:45Z</time>
      </trkpt>
      <trkpt lat="47.52926" lon="6.76927">
        <ele>379</ele>
        <time>2014-12-28T10:20:48Z</time>
      </trkpt>
      <trkpt lat="47.52925" lon="6.7693">
        <ele>379</ele>
        <time>2014-12-28T10:20:49Z</time>
      </trkpt>
      <trkpt lat="47.52924" lon="6.76935">
        <ele>379</ele>
        <time>2014-12-28T10:20:50Z</time>
      </trkpt>
      <trkpt lat="47.52924" lon="6.76938">
        <ele>379</ele>
        <time>2014-12-28T10:20:50Z</time>
      </trkpt>
      <trkpt lat="47.52924" lon="6.76942">
        <ele>379</ele>
        <time>2014-12-28T10:20:52Z</time>
      </trkpt>
      <trkpt lat="47.52924" lon="6.76947">
        <ele>379</ele>
        <time>2014-12-28T10:20:53Z</time>
      </trkpt>
      <trkpt lat="47.52925" lon="6.76953">
        <ele>379</ele>
        <time>2014-12-28T10:20:55Z</time>
      </trkpt>
      <trkpt lat="47.52925" lon="6.76956">
        <ele>379</ele>
        <time>2014-12-28T10:20:56Z</time>
      </trkpt>
      <trkpt lat="47.52924" lon="6.76961">
        <ele>379</ele>
        <time>2014-12-28T10:20:58Z</time>
      </trkpt>
      <trkpt lat="47.52924" lon="6.76963">
        <ele>379</ele>
        <time>2014-12-28T10:20:59Z</time>
      </trkpt>
      <trkpt lat="47.52923" lon="6.76968">
        <ele>379</ele>
        <time>2014-12-28T10:21:01Z</time>
      </trkpt>
      <trkpt lat="47.52922" lon="6.76971">
        <ele>379</ele>
        <time>2014-12-28T10:21:02Z</time>
      </trkpt>
      <trkpt lat="47.52922" lon="6.76975">
        <ele>379</ele>
        <time>2014-12-28T10:21:03Z</time>
      </trkpt>
      <trkpt lat="47.52921" lon="6.76979">
        <ele>379</ele>
        <time>2014-12-28T10:21:04Z</time>
      </trkpt>
      <trkpt lat="47.52921" lon="6.76983">
        <ele>379</ele>
        <time>2014-12-28T10:21:05Z</time>
      </trkpt>
      <trkpt lat="47.52921" lon="6.76987">
        <ele>379</ele>
        <time>2014-12-28T10:21:06Z</time>
      </trkpt>
      <trkpt lat="47.52921" lon="6.76991">
        <ele>379</ele>
        <time>2014-12-28T10:21:07Z</time>
      </trkpt>
      <trkpt lat="47.5292" lon="6.76994">
        <ele>379</ele>
        <time>2014-12-28T10:21:08Z</time>
      </trkpt>
      <trkpt lat="47.52918" lon="6.76997">
        <ele>379</ele>
        <time>2014-12-28T10:21:09Z</time>
      </trkpt>
      <trkpt lat="47.52917" lon="6.77">
        <ele>379</ele>
        <time>2014-12-28T10:21:10Z</time>
      </trkpt>
      <trkpt lat="47.52916" lon="6.77003">
        <ele>379</ele>
        <time>2014-12-28T10:21:11Z</time>
      </trkpt>
      <trkpt lat="47.52915" lon="6.77006">
        <ele>379</ele>
        <time>2014-12-28T10:21:12Z</time>
      </trkpt>
      <trkpt lat="47.52912" lon="6.77009">
        <ele>379</ele>
        <time>2014-12-28T10:21:14Z</time>
      </trkpt>
      <trkpt lat="47.52911" lon="6.7701">
        <ele>379</ele>
        <time>2014-12-28T10:21:15Z</time>
      </trkpt>
      <trkpt lat="47.52908" lon="6.77011">
        <ele>379</ele>
        <time>2014-12-28T10:21:17Z</time>
      </trkpt>
      <trkpt lat="47.52906" lon="6.77012">
        <ele>379</ele>
        <time>2014-12-28T10:21:18Z</time>
      </trkpt>
      <trkpt lat="47.52903" lon="6.77016">
        <ele>379</ele>
        <time>2014-12-28T10:21:20Z</time>
      </trkpt>
      <trkpt lat="47.52901" lon="6.77018">
        <ele>379</ele>
        <time>2014-12-28T10:21:21Z</time>
      </trkpt>
      <trkpt lat="47.52899" lon="6.77019">
        <ele>379</ele>
        <time>2014-12-28T10:21:22Z</time>
      </trkpt>
      <trkpt lat="47.52896" lon="6.77021">
        <ele>379</ele>
        <time>2014-12-28T10:21:23Z</time>
      </trkpt>
      <trkpt lat="47.52894" lon="6.77023">
        <ele>379</ele>
        <time>2014-12-28T10:21:24Z</time>
      </trkpt>
      <trkpt lat="47.52892" lon="6.77025">
        <ele>379</ele>
        <time>2014-12-28T10:21:25Z</time>
      </trkpt>
      <trkpt lat="47.5289" lon="6.77028">
        <ele>379</ele>
        <time>2014-12-28T10:21:27Z</time>
      </trkpt>
      <trkpt lat="47.52889" lon="6.7703">
        <ele>379</ele>
        <time>2014-12-28T10:21:28Z</time>
      </trkpt>
      <trkpt lat="47.52888" lon="6.77034">
        <ele>379</ele>
        <time>2014-12-28T10:21:30Z</time>
      </trkpt>
      <trkpt lat="47.52887" lon="6.77036">
        <ele>379</ele>
        <time>2014-12-28T10:21:31Z</time>
      </trkpt>
      <trkpt lat="47.52886" lon="6.7704">
        <ele>379</ele>
        <time>2014-12-28T10:21:33Z</time>
      </trkpt>
      <trkpt lat="47.52885" lon="6.77042">
        <ele>379</ele>
        <time>2014-12-28T10:21:34Z</time>
      </trkpt>
      <trkpt lat="47.52884" lon="6.77048">
        <ele>378</ele>
        <time>2014-12-28T10:21:39Z</time>
      </trkpt>
      <trkpt lat="47.52884" lon="6.77049">
        <ele>378</ele>
        <time>2014-12-28T10:21:40Z</time>
      </trkpt>
      <trkpt lat="47.52884" lon="6.77055">
        <ele>378</ele>
        <time>2014-12-28T10:21:43Z</time>
      </trkpt>
      <trkpt lat="47.52884" lon="6.77058">
        <ele>378</ele>
        <time>2014-12-28T10:21:44Z</time>
      </trkpt>
      <trkpt lat="47.52883" lon="6.77062">
        <ele>378</ele>
        <time>2014-12-28T10:21:46Z</time>
      </trkpt>
      <trkpt lat="47.52883" lon="6.77065">
        <ele>378</ele>
        <time>2014-12-28T10:21:47Z</time>
      </trkpt>
      <trkpt lat="47.52882" lon="6.77068">
        <ele>378</ele>
        <time>2014-12-28T10:21:48Z</time>
      </trkpt>
      <trkpt lat="47.52883" lon="6.77071">
        <ele>378</ele>
        <time>2014-12-28T10:21:49Z</time>
      </trkpt>
      <trkpt lat="47.52883" lon="6.77075">
        <ele>378</ele>
        <time>2014-12-28T10:21:50Z</time>
      </trkpt>
      <trkpt lat="47.52883" lon="6.7708">
        <ele>378</ele>
        <time>2014-12-28T10:21:51Z</time>
      </trkpt>
      <trkpt lat="47.52882" lon="6.77086">
        <ele>378</ele>
        <time>2014-12-28T10:21:53Z</time>
      </trkpt>
      <trkpt lat="47.52881" lon="6.77088">
        <ele>378</ele>
        <time>2014-12-28T10:21:54Z</time>
      </trkpt>
      <trkpt lat="47.52878" lon="6.77092">
        <ele>377</ele>
        <time>2014-12-28T10:21:56Z</time>
      </trkpt>
      <trkpt lat="47.52877" lon="6.77095">
        <ele>377</ele>
        <time>2014-12-28T10:21:57Z</time>
      </trkpt>
      <trkpt lat="47.52876" lon="6.77098">
        <ele>377</ele>
        <time>2014-12-28T10:21:58Z</time>
      </trkpt>
      <trkpt lat="47.52874" lon="6.77101">
        <ele>377</ele>
        <time>2014-12-28T10:21:59Z</time>
      </trkpt>
      <trkpt lat="47.52872" lon="6.77103">
        <ele>377</ele>
        <time>2014-12-28T10:22:00Z</time>
      </trkpt>
      <trkpt lat="47.5287" lon="6.77106">
        <ele>377</ele>
        <time>2014-12-28T10:22:01Z</time>
      </trkpt>
      <trkpt lat="47.52867" lon="6.7711">
        <ele>377</ele>
        <time>2014-12-28T10:22:03Z</time>
      </trkpt>
      <trkpt lat="47.52865" lon="6.77111">
        <ele>377</ele>
        <time>2014-12-28T10:22:04Z</time>
      </trkpt>
      <trkpt lat="47.52861" lon="6.77114">
        <ele>377</ele>
        <time>2014-12-28T10:22:06Z</time>
      </trkpt>
      <trkpt lat="47.52859" lon="6.77116">
        <ele>377</ele>
        <time>2014-12-28T10:22:07Z</time>
      </trkpt>
      <trkpt lat="47.52856" lon="6.7712">
        <ele>377</ele>
        <time>2014-12-28T10:22:09Z</time>
      </trkpt>
      <trkpt lat="47.52855" lon="6.77122">
        <ele>377</ele>
        <time>2014-12-28T10:22:10Z</time>
      </trkpt>
      <trkpt lat="47.52852" lon="6.77126">
        <ele>377</ele>
        <time>2014-12-28T10:22:12Z</time>
      </trkpt>
      <trkpt lat="47.5285" lon="6.77128">
        <ele>377</ele>
        <time>2014-12-28T10:22:13Z</time>
      </trkpt>
      <trkpt lat="47.52848" lon="6.7713">
        <ele>377</ele>
        <time>2014-12-28T10:22:14Z</time>
      </trkpt>
      <trkpt lat="47.52846" lon="6.77132">
        <ele>377</ele>
        <time>2014-12-28T10:22:15Z</time>
      </trkpt>
      <trkpt lat="47.52843" lon="6.77135">
        <ele>377</ele>
        <time>2014-12-28T10:22:16Z</time>
      </trkpt>
      <trkpt lat="47.52841" lon="6.77136">
        <ele>377</ele>
        <time>2014-12-28T10:22:17Z</time>
      </trkpt>
      <trkpt lat="47.52838" lon="6.77139">
        <ele>377</ele>
        <time>2014-12-28T10:22:19Z</time>
      </trkpt>
      <trkpt lat="47.52836" lon="6.77141">
        <ele>377</ele>
        <time>2014-12-28T10:22:20Z</time>
      </trkpt>
      <trkpt lat="47.52832" lon="6.77144">
        <ele>377</ele>
        <time>2014-12-28T10:22:22Z</time>
      </trkpt>
      <trkpt lat="47.5283" lon="6.77145">
        <ele>377</ele>
        <time>2014-12-28T10:22:23Z</time>
      </trkpt>
      <trkpt lat="47.52828" lon="6.77147">
        <ele>377</ele>
        <time>2014-12-28T10:22:24Z</time>
      </trkpt>
      <trkpt lat="47.52826" lon="6.77148">
        <ele>377</ele>
        <time>2014-12-28T10:22:25Z</time>
      </trkpt>
      <trkpt lat="47.52823" lon="6.7715">
        <ele>377</ele>
        <time>2014-12-28T10:22:26Z</time>
      </trkpt>
      <trkpt lat="47.5282" lon="6.77152">
        <ele>377</ele>
        <time>2014-12-28T10:22:27Z</time>
      </trkpt>
      <trkpt lat="47.52818" lon="6.77155">
        <ele>377</ele>
        <time>2014-12-28T10:22:29Z</time>
      </trkpt>
      <trkpt lat="47.52817" lon="6.77156">
        <ele>377</ele>
        <time>2014-12-28T10:22:30Z</time>
      </trkpt>
      <trkpt lat="47.52814" lon="6.77159">
        <ele>377</ele>
        <time>2014-12-28T10:22:33Z</time>
      </trkpt>
      <trkpt lat="47.52813" lon="6.7716">
        <ele>377</ele>
        <time>2014-12-28T10:22:34Z</time>
      </trkpt>
      <trkpt lat="47.52809" lon="6.77159">
        <ele>378</ele>
        <time>2014-12-28T10:22:41Z</time>
      </trkpt>
      <trkpt lat="47.52808" lon="6.77161">
        <ele>378</ele>
        <time>2014-12-28T10:22:42Z</time>
      </trkpt>
      <trkpt lat="47.52811" lon="6.77158">
        <ele>377</ele>
        <time>2014-12-28T10:22:51Z</time>
      </trkpt>
      <trkpt lat="47.52813" lon="6.77157">
        <ele>377</ele>
        <time>2014-12-28T10:22:52Z</time>
      </trkpt>
      <trkpt lat="47.52817" lon="6.77155">
        <ele>377</ele>
        <time>2014-12-28T10:22:55Z</time>
      </trkpt>
      <trkpt lat="47.52818" lon="6.77154">
        <ele>377</ele>
        <time>2014-12-28T10:22:56Z</time>
      </trkpt>
      <trkpt lat="47.52821" lon="6.77152">
        <ele>377</ele>
        <time>2014-12-28T10:22:58Z</time>
      </trkpt>
      <trkpt lat="47.52823" lon="6.7715">
        <ele>377</ele>
        <time>2014-12-28T10:22:59Z</time>
      </trkpt>
      <trkpt lat="47.52826" lon="6.77147">
        <ele>377</ele>
        <time>2014-12-28T10:23:01Z</time>
      </trkpt>
      <trkpt lat="47.52826" lon="6.77145">
        <ele>377</ele>
        <time>2014-12-28T10:23:02Z</time>
      </trkpt>
      <trkpt lat="47.52829" lon="6.77142">
        <ele>377</ele>
        <time>2014-12-28T10:23:06Z</time>
      </trkpt>
      <trkpt lat="47.5283" lon="6.77141">
        <ele>377</ele>
        <time>2014-12-28T10:23:07Z</time>
      </trkpt>
      <trkpt lat="47.52834" lon="6.77137">
        <ele>377</ele>
        <time>2014-12-28T10:23:09Z</time>
      </trkpt>
      <trkpt lat="47.52835" lon="6.77135">
        <ele>377</ele>
        <time>2014-12-28T10:23:10Z</time>
      </trkpt>
      <trkpt lat="47.52838" lon="6.77132">
        <ele>377</ele>
        <time>2014-12-28T10:23:12Z</time>
      </trkpt>
      <trkpt lat="47.5284" lon="6.77129">
        <ele>377</ele>
        <time>2014-12-28T10:23:13Z</time>
      </trkpt>
      <trkpt lat="47.52842" lon="6.77125">
        <ele>377</ele>
        <time>2014-12-28T10:23:15Z</time>
      </trkpt>
      <trkpt lat="47.52844" lon="6.77124">
        <ele>377</ele>
        <time>2014-12-28T10:23:16Z</time>
      </trkpt>
      <trkpt lat="47.52847" lon="6.7712">
        <ele>377</ele>
        <time>2014-12-28T10:23:18Z</time>
      </trkpt>
      <trkpt lat="47.52849" lon="6.77117">
        <ele>377</ele>
        <time>2014-12-28T10:23:19Z</time>
      </trkpt>
      <trkpt lat="47.52851" lon="6.77113">
        <ele>377</ele>
        <time>2014-12-28T10:23:21Z</time>
      </trkpt>
      <trkpt lat="47.52851" lon="6.77111">
        <ele>377</ele>
        <time>2014-12-28T10:23:22Z</time>
      </trkpt>
      <trkpt lat="47.5285" lon="6.77107">
        <ele>377</ele>
        <time>2014-12-28T10:23:25Z</time>
      </trkpt>
      <trkpt lat="47.5285" lon="6.77104">
        <ele>377</ele>
        <time>2014-12-28T10:23:26Z</time>
      </trkpt>
      <trkpt lat="47.5285" lon="6.77099">
        <ele>377</ele>
        <time>2014-12-28T10:23:28Z</time>
      </trkpt>
      <trkpt lat="47.5285" lon="6.77096">
        <ele>377</ele>
        <time>2014-12-28T10:23:29Z</time>
      </trkpt>
      <trkpt lat="47.52849" lon="6.7709">
        <ele>377</ele>
        <time>2014-12-28T10:23:32Z</time>
      </trkpt>
      <trkpt lat="47.52848" lon="6.77089">
        <ele>377</ele>
        <time>2014-12-28T10:23:33Z</time>
      </trkpt>
      <trkpt lat="47.52849" lon="6.77085">
        <ele>377</ele>
        <time>2014-12-28T10:23:35Z</time>
      </trkpt>
      <trkpt lat="47.5285" lon="6.77082">
        <ele>378</ele>
        <time>2014-12-28T10:23:36Z</time>
      </trkpt>
      <trkpt lat="47.52853" lon="6.77056">
        <ele>378</ele>
        <time>2014-12-28T10:23:44Z</time>
      </trkpt>
      <trkpt lat="47.52854" lon="6.77053">
        <ele>378</ele>
        <time>2014-12-28T10:23:45Z</time>
      </trkpt>
      <trkpt lat="47.52854" lon="6.77049">
        <ele>378</ele>
        <time>2014-12-28T10:23:46Z</time>
      </trkpt>
      <trkpt lat="47.52855" lon="6.77045">
        <ele>378</ele>
        <time>2014-12-28T10:23:47Z</time>
      </trkpt>
      <trkpt lat="47.52855" lon="6.77042">
        <ele>378</ele>
        <time>2014-12-28T10:23:47Z</time>
      </trkpt>
      <trkpt lat="47.52857" lon="6.77037">
        <ele>379</ele>
        <time>2014-12-28T10:23:49Z</time>
      </trkpt>
      <trkpt lat="47.52858" lon="6.77033">
        <ele>379</ele>
        <time>2014-12-28T10:23:50Z</time>
      </trkpt>
      <trkpt lat="47.52859" lon="6.77029">
        <ele>379</ele>
        <time>2014-12-28T10:23:51Z</time>
      </trkpt>
      <trkpt lat="47.52861" lon="6.77026">
        <ele>379</ele>
        <time>2014-12-28T10:23:52Z</time>
      </trkpt>
      <trkpt lat="47.52863" lon="6.77023">
        <ele>379</ele>
        <time>2014-12-28T10:23:54Z</time>
      </trkpt>
      <trkpt lat="47.52864" lon="6.77019">
        <ele>379</ele>
        <time>2014-12-28T10:23:56Z</time>
      </trkpt>
      <trkpt lat="47.52865" lon="6.77016">
        <ele>379</ele>
        <time>2014-12-28T10:23:57Z</time>
      </trkpt>
      <trkpt lat="47.52865" lon="6.77011">
        <ele>379</ele>
        <time>2014-12-28T10:23:58Z</time>
      </trkpt>
      <trkpt lat="47.52865" lon="6.77007">
        <ele>379</ele>
        <time>2014-12-28T10:23:59Z</time>
      </trkpt>
      <trkpt lat="47.52865" lon="6.77004">
        <ele>379</ele>
        <time>2014-12-28T10:23:59Z</time>
      </trkpt>
      <trkpt lat="47.52866" lon="6.76998">
        <ele>380</ele>
        <time>2014-12-28T10:24:03Z</time>
      </trkpt>
      <trkpt lat="47.52866" lon="6.76996">
        <ele>380</ele>
        <time>2014-12-28T10:24:04Z</time>
      </trkpt>
      <trkpt lat="47.52867" lon="6.76992">
        <ele>380</ele>
        <time>2014-12-28T10:24:06Z</time>
      </trkpt>
      <trkpt lat="47.52866" lon="6.76989">
        <ele>380</ele>
        <time>2014-12-28T10:24:07Z</time>
      </trkpt>
      <trkpt lat="47.52867" lon="6.76985">
        <ele>380</ele>
        <time>2014-12-28T10:24:08Z</time>
      </trkpt>
      <trkpt lat="47.52867" lon="6.76981">
        <ele>380</ele>
        <time>2014-12-28T10:24:09Z</time>
      </trkpt>
      <trkpt lat="47.52868" lon="6.76976">
        <ele>380</ele>
        <time>2014-12-28T10:24:10Z</time>
      </trkpt>
      <trkpt lat="47.52869" lon="6.76973">
        <ele>380</ele>
        <time>2014-12-28T10:24:11Z</time>
      </trkpt>
      <trkpt lat="47.5287" lon="6.76967">
        <ele>380</ele>
        <time>2014-12-28T10:24:12Z</time>
      </trkpt>
      <trkpt lat="47.52871" lon="6.76963">
        <ele>380</ele>
        <time>2014-12-28T10:24:13Z</time>
      </trkpt>
      <trkpt lat="47.52871" lon="6.7696">
        <ele>380</ele>
        <time>2014-12-28T10:24:14Z</time>
      </trkpt>
      <trkpt lat="47.52872" lon="6.76956">
        <ele>380</ele>
        <time>2014-12-28T10:24:15Z</time>
      </trkpt>
      <trkpt lat="47.52872" lon="6.7695">
        <ele>380</ele>
        <time>2014-12-28T10:24:17Z</time>
      </trkpt>
      <trkpt lat="47.52873" lon="6.76948">
        <ele>380</ele>
        <time>2014-12-28T10:24:18Z</time>
      </trkpt>
      <trkpt lat="47.52876" lon="6.76943">
        <ele>380</ele>
        <time>2014-12-28T10:24:20Z</time>
      </trkpt>
      <trkpt lat="47.52877" lon="6.7694">
        <ele>380</ele>
        <time>2014-12-28T10:24:21Z</time>
      </trkpt>
      <trkpt lat="47.52878" lon="6.76936">
        <ele>380</ele>
        <time>2014-12-28T10:24:22Z</time>
      </trkpt>
      <trkpt lat="47.52879" lon="6.76931">
        <ele>380</ele>
        <time>2014-12-28T10:24:23Z</time>
      </trkpt>
      <trkpt lat="47.5288" lon="6.76926">
        <ele>380</ele>
        <time>2014-12-28T10:24:24Z</time>
      </trkpt>
      <trkpt lat="47.52882" lon="6.76921">
        <ele>380</ele>
        <time>2014-12-28T10:24:25Z</time>
      </trkpt>
      <trkpt lat="47.52883" lon="6.76917">
        <ele>379</ele>
        <time>2014-12-28T10:24:26Z</time>
      </trkpt>
      <trkpt lat="47.52884" lon="6.76912">
        <ele>379</ele>
        <time>2014-12-28T10:24:27Z</time>
      </trkpt>
      <trkpt lat="47.52884" lon="6.76909">
        <ele>379</ele>
        <time>2014-12-28T10:24:28Z</time>
      </trkpt>
      <trkpt lat="47.52885" lon="6.76905">
        <ele>379</ele>
        <time>2014-12-28T10:24:29Z</time>
      </trkpt>
      <trkpt lat="47.52887" lon="6.76899">
        <ele>379</ele>
        <time>2014-12-28T10:24:31Z</time>
      </trkpt>
      <trkpt lat="47.52888" lon="6.76897">
        <ele>378</ele>
        <time>2014-12-28T10:24:32Z</time>
      </trkpt>
      <trkpt lat="47.52889" lon="6.76893">
        <ele>378</ele>
        <time>2014-12-28T10:24:34Z</time>
      </trkpt>
      <trkpt lat="47.5289" lon="6.76891">
        <ele>378</ele>
        <time>2014-12-28T10:24:35Z</time>
      </trkpt>
      <trkpt lat="47.5289" lon="6.76887">
        <ele>378</ele>
        <time>2014-12-28T10:24:36Z</time>
      </trkpt>
      <trkpt lat="47.52891" lon="6.76878">
        <ele>378</ele>
        <time>2014-12-28T10:24:39Z</time>
      </trkpt>
      <trkpt lat="47.52892" lon="6.76875">
        <ele>378</ele>
        <time>2014-12-28T10:24:40Z</time>
      </trkpt>
      <trkpt lat="47.52892" lon="6.76872">
        <ele>378</ele>
        <time>2014-12-28T10:24:41Z</time>
      </trkpt>
      <trkpt lat="47.52893" lon="6.76868">
        <ele>377</ele>
        <time>2014-12-28T10:24:42Z</time>
      </trkpt>
      <trkpt lat="47.52894" lon="6.76864">
        <ele>377</ele>
        <time>2014-12-28T10:24:43Z</time>
      </trkpt>
      <trkpt lat="47.52895" lon="6.7686">
        <ele>377</ele>
        <time>2014-12-28T10:24:44Z</time>
      </trkpt>
      <trkpt lat="47.52896" lon="6.76857">
        <ele>377</ele>
        <time>2014-12-28T10:24:45Z</time>
      </trkpt>
      <trkpt lat="47.52897" lon="6.76853">
        <ele>377</ele>
        <time>2014-12-28T10:24:46Z</time>
      </trkpt>
      <trkpt lat="47.52898" lon="6.76848">
        <ele>376</ele>
        <time>2014-12-28T10:24:47Z</time>
      </trkpt>
      <trkpt lat="47.529" lon="6.76842">
        <ele>376</ele>
        <time>2014-12-28T10:24:51Z</time>
      </trkpt>
      <trkpt lat="47.52901" lon="6.76841">
        <ele>376</ele>
        <time>2014-12-28T10:24:52Z</time>
      </trkpt>
      <trkpt lat="47.52903" lon="6.76836">
        <ele>376</ele>
        <time>2014-12-28T10:25:00Z</time>
      </trkpt>
      <trkpt lat="47.52903" lon="6.76835">
        <ele>376</ele>
        <time>2014-12-28T10:25:01Z</time>
      </trkpt>
      <trkpt lat="47.52903" lon="6.76829">
        <ele>375</ele>
        <time>2014-12-28T10:25:04Z</time>
      </trkpt>
      <trkpt lat="47.52903" lon="6.76828">
        <ele>375</ele>
        <time>2014-12-28T10:25:05Z</time>
      </trkpt>
      <trkpt lat="47.52904" lon="6.76823">
        <ele>375</ele>
        <time>2014-12-28T10:25:07Z</time>
      </trkpt>
      <trkpt lat="47.52904" lon="6.7682">
        <ele>375</ele>
        <time>2014-12-28T10:25:08Z</time>
      </trkpt>
      <trkpt lat="47.52905" lon="6.76817">
        <ele>375</ele>
        <time>2014-12-28T10:25:09Z</time>
      </trkpt>
      <trkpt lat="47.52905" lon="6.76813">
        <ele>375</ele>
        <time>2014-12-28T10:25:10Z</time>
      </trkpt>
      <trkpt lat="47.52905" lon="6.7681">
        <ele>375</ele>
        <time>2014-12-28T10:25:11Z</time>
      </trkpt>
      <trkpt lat="47.52906" lon="6.76807">
        <ele>375</ele>
        <time>2014-12-28T10:25:12Z</time>
      </trkpt>
      <trkpt lat="47.52906" lon="6.76803">
        <ele>375</ele>
        <time>2014-12-28T10:25:13Z</time>
      </trkpt>
      <trkpt lat="47.52907" lon="6.768">
        <ele>374</ele>
        <time>2014-12-28T10:25:14Z</time>
      </trkpt>
      <trkpt lat="47.52908" lon="6.76794">
        <ele>374</ele>
        <time>2014-12-28T10:25:16Z</time>
      </trkpt>
      <trkpt lat="47.52909" lon="6.76791">
        <ele>374</ele>
        <time>2014-12-28T10:25:17Z</time>
      </trkpt>
      <trkpt lat="47.52911" lon="6.76785">
        <ele>374</ele>
        <time>2014-12-28T10:25:20Z</time>
      </trkpt>
      <trkpt lat="47.52911" lon="6.76784">
        <ele>373</ele>
        <time>2014-12-28T10:25:21Z</time>
      </trkpt>
      <trkpt lat="47.52913" lon="6.76779">
        <ele>373</ele>
        <time>2014-12-28T10:25:24Z</time>
      </trkpt>
      <trkpt lat="47.52913" lon="6.76777">
        <ele>373</ele>
        <time>2014-12-28T10:25:25Z</time>
      </trkpt>
      <trkpt lat="47.52914" lon="6.76771">
        <ele>373</ele>
        <time>2014-12-28T10:25:27Z</time>
      </trkpt>
      <trkpt lat="47.52915" lon="6.76768">
        <ele>373</ele>
        <time>2014-12-28T10:25:28Z</time>
      </trkpt>
      <trkpt lat="47.52917" lon="6.76763">
        <ele>373</ele>
        <time>2014-12-28T10:25:30Z</time>
      </trkpt>
      <trkpt lat="47.52918" lon="6.76761">
        <ele>373</ele>
        <time>2014-12-28T10:25:31Z</time>
      </trkpt>
      <trkpt lat="47.52919" lon="6.76756">
        <ele>373</ele>
        <time>2014-12-28T10:25:33Z</time>
      </trkpt>
      <trkpt lat="47.5292" lon="6.76754">
        <ele>373</ele>
        <time>2014-12-28T10:25:34Z</time>
      </trkpt>
      <trkpt lat="47.52921" lon="6.7675">
        <ele>373</ele>
        <time>2014-12-28T10:25:36Z</time>
      </trkpt>
      <trkpt lat="47.52921" lon="6.76747">
        <ele>373</ele>
        <time>2014-12-28T10:25:44Z</time>
      </trkpt>
      <trkpt lat="47.52922" lon="6.76743">
        <ele>373</ele>
        <time>2014-12-28T10:25:50Z</time>
      </trkpt>
      <trkpt lat="47.52923" lon="6.7674">
        <ele>373</ele>
        <time>2014-12-28T10:25:51Z</time>
      </trkpt>
      <trkpt lat="47.52924" lon="6.76735">
        <ele>373</ele>
        <time>2014-12-28T10:25:53Z</time>
      </trkpt>
      <trkpt lat="47.52925" lon="6.76732">
        <ele>373</ele>
        <time>2014-12-28T10:25:54Z</time>
      </trkpt>
      <trkpt lat="47.52927" lon="6.76727">
        <ele>373</ele>
        <time>2014-12-28T10:25:56Z</time>
      </trkpt>
      <trkpt lat="47.52927" lon="6.76725">
        <ele>373</ele>
        <time>2014-12-28T10:25:57Z</time>
      </trkpt>
      <trkpt lat="47.52929" lon="6.7672">
        <ele>372</ele>
        <time>2014-12-28T10:25:59Z</time>
      </trkpt>
      <trkpt lat="47.52929" lon="6.76717">
        <ele>372</ele>
        <time>2014-12-28T10:26:00Z</time>
      </trkpt>
      <trkpt lat="47.5293" lon="6.76711">
        <ele>372</ele>
        <time>2014-12-28T10:26:02Z</time>
      </trkpt>
      <trkpt lat="47.5293" lon="6.76708">
        <ele>372</ele>
        <time>2014-12-28T10:26:03Z</time>
      </trkpt>
      <trkpt lat="47.52929" lon="6.76705">
        <ele>372</ele>
        <time>2014-12-28T10:26:04Z</time>
      </trkpt>
      <trkpt lat="47.52929" lon="6.76702">
        <ele>372</ele>
        <time>2014-12-28T10:26:05Z</time>
      </trkpt>
      <trkpt lat="47.52928" lon="6.76698">
        <ele>371</ele>
        <time>2014-12-28T10:26:06Z</time>
      </trkpt>
      <trkpt lat="47.52927" lon="6.76694">
        <ele>371</ele>
        <time>2014-12-28T10:26:07Z</time>
      </trkpt>
      <trkpt lat="47.52926" lon="6.76691">
        <ele>371</ele>
        <time>2014-12-28T10:26:08Z</time>
      </trkpt>
      <trkpt lat="47.52926" lon="6.76687">
        <ele>370</ele>
        <time>2014-12-28T10:26:09Z</time>
      </trkpt>
      <trkpt lat="47.52926" lon="6.76683">
        <ele>370</ele>
        <time>2014-12-28T10:26:10Z</time>
      </trkpt>
      <trkpt lat="47.52926" lon="6.76679">
        <ele>370</ele>
        <time>2014-12-28T10:26:11Z</time>
      </trkpt>
      <trkpt lat="47.52926" lon="6.76675">
        <ele>370</ele>
        <time>2014-12-28T10:26:12Z</time>
      </trkpt>
      <trkpt lat="47.52926" lon="6.76671">
        <ele>370</ele>
        <time>2014-12-28T10:26:13Z</time>
      </trkpt>
      <trkpt lat="47.52926" lon="6.76668">
        <ele>370</ele>
        <time>2014-12-28T10:26:14Z</time>
      </trkpt>
      <trkpt lat="47.52926" lon="6.76664">
        <ele>370</ele>
        <time>2014-12-28T10:26:15Z</time>
      </trkpt>
      <trkpt lat="47.52926" lon="6.76661">
        <ele>370</ele>
        <time>2014-12-28T10:26:16Z</time>
      </trkpt>
      <trkpt lat="47.52926" lon="6.76657">
        <ele>370</ele>
        <time>2014-12-28T10:26:17Z</time>
      </trkpt>
      <trkpt lat="47.52926" lon="6.76653">
        <ele>370</ele>
        <time>2014-12-28T10:26:18Z</time>
      </trkpt>
      <trkpt lat="47.52926" lon="6.7665">
        <ele>370</ele>
        <time>2014-12-28T10:26:19Z</time>
      </trkpt>
      <trkpt lat="47.52925" lon="6.76646">
        <ele>369</ele>
        <time>2014-12-28T10:26:20Z</time>
      </trkpt>
      <trkpt lat="47.52925" lon="6.76643">
        <ele>369</ele>
        <time>2014-12-28T10:26:21Z</time>
      </trkpt>
      <trkpt lat="47.52925" lon="6.76639">
        <ele>369</ele>
        <time>2014-12-28T10:26:22Z</time>
      </trkpt>
      <trkpt lat="47.52925" lon="6.76635">
        <ele>369</ele>
        <time>2014-12-28T10:26:23Z</time>
      </trkpt>
      <trkpt lat="47.52925" lon="6.76631">
        <ele>369</ele>
        <time>2014-12-28T10:26:24Z</time>
      </trkpt>
      <trkpt lat="47.52925" lon="6.76627">
        <ele>369</ele>
        <time>2014-12-28T10:26:25Z</time>
      </trkpt>
      <trkpt lat="47.52925" lon="6.76623">
        <ele>368</ele>
        <time>2014-12-28T10:26:26Z</time>
      </trkpt>
      <trkpt lat="47.52925" lon="6.76619">
        <ele>368</ele>
        <time>2014-12-28T10:26:27Z</time>
      </trkpt>
      <trkpt lat="47.52925" lon="6.76615">
        <ele>368</ele>
        <time>2014-12-28T10:26:28Z</time>
      </trkpt>
      <trkpt lat="47.52926" lon="6.76611">
        <ele>367</ele>
        <time>2014-12-28T10:26:29Z</time>
      </trkpt>
      <trkpt lat="47.52926" lon="6.76607">
        <ele>367</ele>
        <time>2014-12-28T10:26:30Z</time>
      </trkpt>
      <trkpt lat="47.52927" lon="6.76603">
        <ele>367</ele>
        <time>2014-12-28T10:26:31Z</time>
      </trkpt>
      <trkpt lat="47.52927" lon="6.76598">
        <ele>366</ele>
        <time>2014-12-28T10:26:32Z</time>
      </trkpt>
      <trkpt lat="47.52927" lon="6.76595">
        <ele>366</ele>
        <time>2014-12-28T10:26:33Z</time>
      </trkpt>
      <trkpt lat="47.52927" lon="6.76588">
        <ele>366</ele>
        <time>2014-12-28T10:26:35Z</time>
      </trkpt>
      <trkpt lat="47.52928" lon="6.76585">
        <ele>366</ele>
        <time>2014-12-28T10:26:36Z</time>
      </trkpt>
      <trkpt lat="47.52929" lon="6.76578">
        <ele>366</ele>
        <time>2014-12-28T10:26:39Z</time>
      </trkpt>
      <trkpt lat="47.5293" lon="6.76573">
        <ele>366</ele>
        <time>2014-12-28T10:26:41Z</time>
      </trkpt>
      <trkpt lat="47.52931" lon="6.7657">
        <ele>366</ele>
        <time>2014-12-28T10:26:42Z</time>
      </trkpt>
      <trkpt lat="47.52931" lon="6.76566">
        <ele>366</ele>
        <time>2014-12-28T10:26:43Z</time>
      </trkpt>
      <trkpt lat="47.52931" lon="6.76562">
        <ele>366</ele>
        <time>2014-12-28T10:26:44Z</time>
      </trkpt>
      <trkpt lat="47.52931" lon="6.76558">
        <ele>365</ele>
        <time>2014-12-28T10:26:45Z</time>
      </trkpt>
      <trkpt lat="47.52931" lon="6.76554">
        <ele>365</ele>
        <time>2014-12-28T10:26:46Z</time>
      </trkpt>
      <trkpt lat="47.5293" lon="6.76549">
        <ele>365</ele>
        <time>2014-12-28T10:26:47Z</time>
      </trkpt>
      <trkpt lat="47.5293" lon="6.76544">
        <ele>365</ele>
        <time>2014-12-28T10:26:48Z</time>
      </trkpt>
      <trkpt lat="47.52929" lon="6.7654">
        <ele>364</ele>
        <time>2014-12-28T10:26:49Z</time>
      </trkpt>
      <trkpt lat="47.52929" lon="6.76536">
        <ele>364</ele>
        <time>2014-12-28T10:26:50Z</time>
      </trkpt>
      <trkpt lat="47.52928" lon="6.76532">
        <ele>363</ele>
        <time>2014-12-28T10:26:51Z</time>
      </trkpt>
      <trkpt lat="47.52928" lon="6.76527">
        <ele>363</ele>
        <time>2014-12-28T10:26:52Z</time>
      </trkpt>
      <trkpt lat="47.52927" lon="6.76522">
        <ele>362</ele>
        <time>2014-12-28T10:26:53Z</time>
      </trkpt>
      <trkpt lat="47.52926" lon="6.76518">
        <ele>362</ele>
        <time>2014-12-28T10:26:54Z</time>
      </trkpt>
      <trkpt lat="47.52925" lon="6.76514">
        <ele>361</ele>
        <time>2014-12-28T10:26:55Z</time>
      </trkpt>
      <trkpt lat="47.52924" lon="6.76509">
        <ele>361</ele>
        <time>2014-12-28T10:26:56Z</time>
      </trkpt>
      <trkpt lat="47.52923" lon="6.76505">
        <ele>361</ele>
        <time>2014-12-28T10:26:57Z</time>
      </trkpt>
      <trkpt lat="47.52922" lon="6.76501">
        <ele>361</ele>
        <time>2014-12-28T10:26:58Z</time>
      </trkpt>
      <trkpt lat="47.5292" lon="6.76497">
        <ele>361</ele>
        <time>2014-12-28T10:26:59Z</time>
      </trkpt>
      <trkpt lat="47.52919" lon="6.76494">
        <ele>361</ele>
        <time>2014-12-28T10:27:00Z</time>
      </trkpt>
      <trkpt lat="47.52918" lon="6.7649">
        <ele>361</ele>
        <time>2014-12-28T10:27:01Z</time>
      </trkpt>
      <trkpt lat="47.52917" lon="6.76487">
        <ele>361</ele>
        <time>2014-12-28T10:27:02Z</time>
      </trkpt>
      <trkpt lat="47.52916" lon="6.76484">
        <ele>360</ele>
        <time>2014-12-28T10:27:03Z</time>
      </trkpt>
      <trkpt lat="47.52915" lon="6.76481">
        <ele>360</ele>
        <time>2014-12-28T10:27:04Z</time>
      </trkpt>
      <trkpt lat="47.52913" lon="6.76477">
        <ele>360</ele>
        <time>2014-12-28T10:27:05Z</time>
      </trkpt>
      <trkpt lat="47.52912" lon="6.76473">
        <ele>360</ele>
        <time>2014-12-28T10:27:06Z</time>
      </trkpt>
      <trkpt lat="47.52911" lon="6.76469">
        <ele>360</ele>
        <time>2014-12-28T10:27:07Z</time>
      </trkpt>
      <trkpt lat="47.52909" lon="6.76466">
        <ele>360</ele>
        <time>2014-12-28T10:27:08Z</time>
      </trkpt>
      <trkpt lat="47.52908" lon="6.76462">
        <ele>360</ele>
        <time>2014-12-28T10:27:09Z</time>
      </trkpt>
      <trkpt lat="47.52907" lon="6.76459">
        <ele>360</ele>
        <time>2014-12-28T10:27:10Z</time>
      </trkpt>
      <trkpt lat="47.52906" lon="6.76455">
        <ele>360</ele>
        <time>2014-12-28T10:27:11Z</time>
      </trkpt>
      <trkpt lat="47.52905" lon="6.76451">
        <ele>360</ele>
        <time>2014-12-28T10:27:12Z</time>
      </trkpt>
      <trkpt lat="47.52904" lon="6.76448">
        <ele>360</ele>
        <time>2014-12-28T10:27:13Z</time>
      </trkpt>
      <trkpt lat="47.52902" lon="6.76444">
        <ele>360</ele>
        <time>2014-12-28T10:27:14Z</time>
      </trkpt>
      <trkpt lat="47.52901" lon="6.7644">
        <ele>360</ele>
        <time>2014-12-28T10:27:15Z</time>
      </trkpt>
      <trkpt lat="47.529" lon="6.76437">
        <ele>360</ele>
        <time>2014-12-28T10:27:16Z</time>
      </trkpt>
      <trkpt lat="47.52899" lon="6.76433">
        <ele>360</ele>
        <time>2014-12-28T10:27:17Z</time>
      </trkpt>
      <trkpt lat="47.52898" lon="6.76429">
        <ele>360</ele>
        <time>2014-12-28T10:27:18Z</time>
      </trkpt>
      <trkpt lat="47.52897" lon="6.76426">
        <ele>360</ele>
        <time>2014-12-28T10:27:19Z</time>
      </trkpt>
      <trkpt lat="47.52896" lon="6.76422">
        <ele>360</ele>
        <time>2014-12-28T10:27:20Z</time>
      </trkpt>
      <trkpt lat="47.52895" lon="6.76419">
        <ele>360</ele>
        <time>2014-12-28T10:27:21Z</time>
      </trkpt>
      <trkpt lat="47.52894" lon="6.76416">
        <ele>359</ele>
        <time>2014-12-28T10:27:22Z</time>
      </trkpt>
      <trkpt lat="47.52893" lon="6.76412">
        <ele>360</ele>
        <time>2014-12-28T10:27:23Z</time>
      </trkpt>
      <trkpt lat="47.52892" lon="6.76409">
        <ele>360</ele>
        <time>2014-12-28T10:27:24Z</time>
      </trkpt>
      <trkpt lat="47.52891" lon="6.76403">
        <ele>360</ele>
        <time>2014-12-28T10:27:26Z</time>
      </trkpt>
      <trkpt lat="47.5289" lon="6.764">
        <ele>360</ele>
        <time>2014-12-28T10:27:27Z</time>
      </trkpt>
      <trkpt lat="47.52889" lon="6.76397">
        <ele>360</ele>
        <time>2014-12-28T10:27:28Z</time>
      </trkpt>
      <trkpt lat="47.52888" lon="6.76394">
        <ele>360</ele>
        <time>2014-12-28T10:27:29Z</time>
      </trkpt>
      <trkpt lat="47.52886" lon="6.7639">
        <ele>360</ele>
        <time>2014-12-28T10:27:30Z</time>
      </trkpt>
      <trkpt lat="47.52885" lon="6.76387">
        <ele>360</ele>
        <time>2014-12-28T10:27:31Z</time>
      </trkpt>
      <trkpt lat="47.52884" lon="6.76384">
        <ele>360</ele>
        <time>2014-12-28T10:27:32Z</time>
      </trkpt>
      <trkpt lat="47.52883" lon="6.76381">
        <ele>360</ele>
        <time>2014-12-28T10:27:33Z</time>
      </trkpt>
      <trkpt lat="47.52883" lon="6.76378">
        <ele>360</ele>
        <time>2014-12-28T10:27:34Z</time>
      </trkpt>
      <trkpt lat="47.52882" lon="6.76375">
        <ele>360</ele>
        <time>2014-12-28T10:27:35Z</time>
      </trkpt>
      <trkpt lat="47.5288" lon="6.76369">
        <ele>360</ele>
        <time>2014-12-28T10:27:37Z</time>
      </trkpt>
      <trkpt lat="47.52873" lon="6.76346">
        <ele>359</ele>
        <time>2014-12-28T10:27:45Z</time>
      </trkpt>
      <trkpt lat="47.52871" lon="6.7634">
        <ele>359</ele>
        <time>2014-12-28T10:27:47Z</time>
      </trkpt>
      <trkpt lat="47.5287" lon="6.76337">
        <ele>359</ele>
        <time>2014-12-28T10:27:48Z</time>
      </trkpt>
      <trkpt lat="47.52869" lon="6.76334">
        <ele>358</ele>
        <time>2014-12-28T10:27:49Z</time>
      </trkpt>
      <trkpt lat="47.52868" lon="6.76331">
        <ele>359</ele>
        <time>2014-12-28T10:27:50Z</time>
      </trkpt>
      <trkpt lat="47.52867" lon="6.76327">
        <ele>359</ele>
        <time>2014-12-28T10:27:51Z</time>
      </trkpt>
      <trkpt lat="47.52866" lon="6.76324">
        <ele>359</ele>
        <time>2014-12-28T10:27:52Z</time>
      </trkpt>
      <trkpt lat="47.52865" lon="6.76321">
        <ele>358</ele>
        <time>2014-12-28T10:27:53Z</time>
      </trkpt>
      <trkpt lat="47.52864" lon="6.76317">
        <ele>358</ele>
        <time>2014-12-28T10:27:54Z</time>
      </trkpt>
      <trkpt lat="47.52863" lon="6.76314">
        <ele>358</ele>
        <time>2014-12-28T10:27:55Z</time>
      </trkpt>
      <trkpt lat="47.52862" lon="6.76311">
        <ele>358</ele>
        <time>2014-12-28T10:27:56Z</time>
      </trkpt>
      <trkpt lat="47.52861" lon="6.76308">
        <ele>358</ele>
        <time>2014-12-28T10:27:57Z</time>
      </trkpt>
      <trkpt lat="47.5286" lon="6.76305">
        <ele>358</ele>
        <time>2014-12-28T10:27:58Z</time>
      </trkpt>
      <trkpt lat="47.52859" lon="6.76302">
        <ele>358</ele>
        <time>2014-12-28T10:27:59Z</time>
      </trkpt>
      <trkpt lat="47.52858" lon="6.76299">
        <ele>358</ele>
        <time>2014-12-28T10:28:00Z</time>
      </trkpt>
      <trkpt lat="47.52857" lon="6.76296">
        <ele>358</ele>
        <time>2014-12-28T10:28:01Z</time>
      </trkpt>
      <trkpt lat="47.52856" lon="6.76293">
        <ele>358</ele>
        <time>2014-12-28T10:28:02Z</time>
      </trkpt>
      <trkpt lat="47.52854" lon="6.76287">
        <ele>358</ele>
        <time>2014-12-28T10:28:04Z</time>
      </trkpt>
      <trkpt lat="47.52853" lon="6.76284">
        <ele>358</ele>
        <time>2014-12-28T10:28:05Z</time>
      </trkpt>
      <trkpt lat="47.52852" lon="6.76278">
        <ele>358</ele>
        <time>2014-12-28T10:28:07Z</time>
      </trkpt>
      <trkpt lat="47.52851" lon="6.76275">
        <ele>358</ele>
        <time>2014-12-28T10:28:08Z</time>
      </trkpt>
      <trkpt lat="47.5285" lon="6.76273">
        <ele>357</ele>
        <time>2014-12-28T10:28:09Z</time>
      </trkpt>
      <trkpt lat="47.52849" lon="6.76269">
        <ele>357</ele>
        <time>2014-12-28T10:28:10Z</time>
      </trkpt>
      <trkpt lat="47.52847" lon="6.76266">
        <ele>357</ele>
        <time>2014-12-28T10:28:11Z</time>
      </trkpt>
      <trkpt lat="47.52846" lon="6.76263">
        <ele>357</ele>
        <time>2014-12-28T10:28:12Z</time>
      </trkpt>
      <trkpt lat="47.52845" lon="6.76259">
        <ele>357</ele>
        <time>2014-12-28T10:28:13Z</time>
      </trkpt>
      <trkpt lat="47.52844" lon="6.76256">
        <ele>357</ele>
        <time>2014-12-28T10:28:14Z</time>
      </trkpt>
      <trkpt lat="47.52842" lon="6.7625">
        <ele>357</ele>
        <time>2014-12-28T10:28:16Z</time>
      </trkpt>
      <trkpt lat="47.52842" lon="6.76247">
        <ele>357</ele>
        <time>2014-12-28T10:28:17Z</time>
      </trkpt>
      <trkpt lat="47.5284" lon="6.76241">
        <ele>357</ele>
        <time>2014-12-28T10:28:19Z</time>
      </trkpt>
      <trkpt lat="47.5284" lon="6.76238">
        <ele>357</ele>
        <time>2014-12-28T10:28:20Z</time>
      </trkpt>
      <trkpt lat="47.52838" lon="6.76232">
        <ele>357</ele>
        <time>2014-12-28T10:28:22Z</time>
      </trkpt>
      <trkpt lat="47.52837" lon="6.76229">
        <ele>357</ele>
        <time>2014-12-28T10:28:23Z</time>
      </trkpt>
      <trkpt lat="47.52836" lon="6.76225">
        <ele>357</ele>
        <time>2014-12-28T10:28:24Z</time>
      </trkpt>
      <trkpt lat="47.52835" lon="6.76222">
        <ele>357</ele>
        <time>2014-12-28T10:28:25Z</time>
      </trkpt>
      <trkpt lat="47.52834" lon="6.76218">
        <ele>358</ele>
        <time>2014-12-28T10:28:26Z</time>
      </trkpt>
      <trkpt lat="47.52833" lon="6.76215">
        <ele>357</ele>
        <time>2014-12-28T10:28:27Z</time>
      </trkpt>
      <trkpt lat="47.52832" lon="6.76212">
        <ele>357</ele>
        <time>2014-12-28T10:28:28Z</time>
      </trkpt>
      <trkpt lat="47.52831" lon="6.76209">
        <ele>357</ele>
        <time>2014-12-28T10:28:29Z</time>
      </trkpt>
      <trkpt lat="47.5283" lon="6.76206">
        <ele>357</ele>
        <time>2014-12-28T10:28:30Z</time>
      </trkpt>
      <trkpt lat="47.52829" lon="6.76202">
        <ele>357</ele>
        <time>2014-12-28T10:28:31Z</time>
      </trkpt>
      <trkpt lat="47.52827" lon="6.76196">
        <ele>357</ele>
        <time>2014-12-28T10:28:33Z</time>
      </trkpt>
      <trkpt lat="47.52827" lon="6.76193">
        <ele>357</ele>
        <time>2014-12-28T10:28:34Z</time>
      </trkpt>
      <trkpt lat="47.52826" lon="6.7619">
        <ele>357</ele>
        <time>2014-12-28T10:28:35Z</time>
      </trkpt>
      <trkpt lat="47.52825" lon="6.76187">
        <ele>357</ele>
        <time>2014-12-28T10:28:36Z</time>
      </trkpt>
      <trkpt lat="47.52822" lon="6.76177">
        <ele>357</ele>
        <time>2014-12-28T10:28:39Z</time>
      </trkpt>
      <trkpt lat="47.52821" lon="6.76174">
        <ele>357</ele>
        <time>2014-12-28T10:28:40Z</time>
      </trkpt>
      <trkpt lat="47.5282" lon="6.76171">
        <ele>357</ele>
        <time>2014-12-28T10:28:41Z</time>
      </trkpt>
      <trkpt lat="47.5282" lon="6.76168">
        <ele>357</ele>
        <time>2014-12-28T10:28:42Z</time>
      </trkpt>
      <trkpt lat="47.52819" lon="6.76165">
        <ele>357</ele>
        <time>2014-12-28T10:28:43Z</time>
      </trkpt>
      <trkpt lat="47.52818" lon="6.76161">
        <ele>357</ele>
        <time>2014-12-28T10:28:44Z</time>
      </trkpt>
      <trkpt lat="47.52817" lon="6.76158">
        <ele>357</ele>
        <time>2014-12-28T10:28:45Z</time>
      </trkpt>
      <trkpt lat="47.52815" lon="6.76153">
        <ele>357</ele>
        <time>2014-12-28T10:28:46Z</time>
      </trkpt>
      <trkpt lat="47.52814" lon="6.76148">
        <ele>357</ele>
        <time>2014-12-28T10:28:47Z</time>
      </trkpt>
      <trkpt lat="47.52812" lon="6.76143">
        <ele>357</ele>
        <time>2014-12-28T10:28:48Z</time>
      </trkpt>
      <trkpt lat="47.5281" lon="6.76139">
        <ele>357</ele>
        <time>2014-12-28T10:28:49Z</time>
      </trkpt>
      <trkpt lat="47.52808" lon="6.76133">
        <ele>357</ele>
        <time>2014-12-28T10:28:51Z</time>
      </trkpt>
      <trkpt lat="47.52807" lon="6.76131">
        <ele>357</ele>
        <time>2014-12-28T10:28:52Z</time>
      </trkpt>
      <trkpt lat="47.52806" lon="6.76128">
        <ele>357</ele>
        <time>2014-12-28T10:28:53Z</time>
      </trkpt>
      <trkpt lat="47.52805" lon="6.76124">
        <ele>357</ele>
        <time>2014-12-28T10:28:54Z</time>
      </trkpt>
      <trkpt lat="47.52804" lon="6.76121">
        <ele>357</ele>
        <time>2014-12-28T10:28:55Z</time>
      </trkpt>
      <trkpt lat="47.52803" lon="6.76117">
        <ele>357</ele>
        <time>2014-12-28T10:28:56Z</time>
      </trkpt>
      <trkpt lat="47.52802" lon="6.76112">
        <ele>357</ele>
        <time>2014-12-28T10:28:58Z</time>
      </trkpt>
      <trkpt lat="47.52801" lon="6.76108">
        <ele>357</ele>
        <time>2014-12-28T10:28:59Z</time>
      </trkpt>
      <trkpt lat="47.52799" lon="6.76102">
        <ele>357</ele>
        <time>2014-12-28T10:29:01Z</time>
      </trkpt>
      <trkpt lat="47.52798" lon="6.76099">
        <ele>357</ele>
        <time>2014-12-28T10:29:02Z</time>
      </trkpt>
      <trkpt lat="47.52798" lon="6.76096">
        <ele>357</ele>
        <time>2014-12-28T10:29:03Z</time>
      </trkpt>
      <trkpt lat="47.52797" lon="6.76093">
        <ele>357</ele>
        <time>2014-12-28T10:29:04Z</time>
      </trkpt>
      <trkpt lat="47.52796" lon="6.76089">
        <ele>357</ele>
        <time>2014-12-28T10:29:05Z</time>
      </trkpt>
      <trkpt lat="47.52795" lon="6.76086">
        <ele>356</ele>
        <time>2014-12-28T10:29:06Z</time>
      </trkpt>
      <trkpt lat="47.52793" lon="6.7608">
        <ele>356</ele>
        <time>2014-12-28T10:29:08Z</time>
      </trkpt>
      <trkpt lat="47.52792" lon="6.76077">
        <ele>356</ele>
        <time>2014-12-28T10:29:09Z</time>
      </trkpt>
      <trkpt lat="47.52791" lon="6.76074">
        <ele>356</ele>
        <time>2014-12-28T10:29:10Z</time>
      </trkpt>
      <trkpt lat="47.5279" lon="6.7607">
        <ele>356</ele>
        <time>2014-12-28T10:29:11Z</time>
      </trkpt>
      <trkpt lat="47.5279" lon="6.76067">
        <ele>356</ele>
        <time>2014-12-28T10:29:12Z</time>
      </trkpt>
      <trkpt lat="47.52789" lon="6.76064">
        <ele>356</ele>
        <time>2014-12-28T10:29:13Z</time>
      </trkpt>
      <trkpt lat="47.52787" lon="6.76059">
        <ele>356</ele>
        <time>2014-12-28T10:29:17Z</time>
      </trkpt>
      <trkpt lat="47.52787" lon="6.76057">
        <ele>356</ele>
        <time>2014-12-28T10:29:18Z</time>
      </trkpt>
      <trkpt lat="47.52786" lon="6.76055">
        <ele>356</ele>
        <time>2014-12-28T10:29:19Z</time>
      </trkpt>
      <trkpt lat="47.52785" lon="6.76051">
        <ele>356</ele>
        <time>2014-12-28T10:29:20Z</time>
      </trkpt>
      <trkpt lat="47.52784" lon="6.76048">
        <ele>356</ele>
        <time>2014-12-28T10:29:21Z</time>
      </trkpt>
      <trkpt lat="47.52783" lon="6.76044">
        <ele>356</ele>
        <time>2014-12-28T10:29:22Z</time>
      </trkpt>
      <trkpt lat="47.52782" lon="6.7604">
        <ele>355</ele>
        <time>2014-12-28T10:29:23Z</time>
      </trkpt>
      <trkpt lat="47.52781" lon="6.76034">
        <ele>355</ele>
        <time>2014-12-28T10:29:24Z</time>
      </trkpt>
      <trkpt lat="47.52779" lon="6.76029">
        <ele>355</ele>
        <time>2014-12-28T10:29:25Z</time>
      </trkpt>
      <trkpt lat="47.52777" lon="6.76024">
        <ele>355</ele>
        <time>2014-12-28T10:29:26Z</time>
      </trkpt>
      <trkpt lat="47.52776" lon="6.76021">
        <ele>355</ele>
        <time>2014-12-28T10:29:27Z</time>
      </trkpt>
      <trkpt lat="47.52774" lon="6.76018">
        <ele>355</ele>
        <time>2014-12-28T10:29:28Z</time>
      </trkpt>
      <trkpt lat="47.52773" lon="6.76016">
        <ele>354</ele>
        <time>2014-12-28T10:29:29Z</time>
      </trkpt>
      <trkpt lat="47.52771" lon="6.76012">
        <ele>354</ele>
        <time>2014-12-28T10:29:30Z</time>
      </trkpt>
      <trkpt lat="47.5277" lon="6.76008">
        <ele>354</ele>
        <time>2014-12-28T10:29:31Z</time>
      </trkpt>
      <trkpt lat="47.52768" lon="6.76004">
        <ele>354</ele>
        <time>2014-12-28T10:29:32Z</time>
      </trkpt>
      <trkpt lat="47.52767" lon="6.76001">
        <ele>354</ele>
        <time>2014-12-28T10:29:33Z</time>
      </trkpt>
      <trkpt lat="47.52765" lon="6.75998">
        <ele>354</ele>
        <time>2014-12-28T10:29:34Z</time>
      </trkpt>
      <trkpt lat="47.52763" lon="6.75995">
        <ele>354</ele>
        <time>2014-12-28T10:29:35Z</time>
      </trkpt>
      <trkpt lat="47.52762" lon="6.75992">
        <ele>354</ele>
        <time>2014-12-28T10:29:36Z</time>
      </trkpt>
      <trkpt lat="47.52761" lon="6.7599">
        <ele>354</ele>
        <time>2014-12-28T10:29:37Z</time>
      </trkpt>
      <trkpt lat="47.52756" lon="6.75984">
        <ele>354</ele>
        <time>2014-12-28T10:29:40Z</time>
      </trkpt>
      <trkpt lat="47.52753" lon="6.75981">
        <ele>354</ele>
        <time>2014-12-28T10:29:42Z</time>
      </trkpt>
      <trkpt lat="47.52752" lon="6.7598">
        <ele>354</ele>
        <time>2014-12-28T10:29:43Z</time>
      </trkpt>
      <trkpt lat="47.52749" lon="6.75978">
        <ele>354</ele>
        <time>2014-12-28T10:29:45Z</time>
      </trkpt>
      <trkpt lat="47.52747" lon="6.75978">
        <ele>354</ele>
        <time>2014-12-28T10:29:46Z</time>
      </trkpt>
      <trkpt lat="47.52744" lon="6.75979">
        <ele>354</ele>
        <time>2014-12-28T10:29:48Z</time>
      </trkpt>
      <trkpt lat="47.52741" lon="6.7598">
        <ele>354</ele>
        <time>2014-12-28T10:29:49Z</time>
      </trkpt>
      <trkpt lat="47.52739" lon="6.7598">
        <ele>354</ele>
        <time>2014-12-28T10:29:50Z</time>
      </trkpt>
      <trkpt lat="47.52736" lon="6.75981">
        <ele>354</ele>
        <time>2014-12-28T10:29:51Z</time>
      </trkpt>
      <trkpt lat="47.52733" lon="6.75981">
        <ele>354</ele>
        <time>2014-12-28T10:29:52Z</time>
      </trkpt>
      <trkpt lat="47.5273" lon="6.75981">
        <ele>354</ele>
        <time>2014-12-28T10:29:53Z</time>
      </trkpt>
      <trkpt lat="47.52727" lon="6.75981">
        <ele>354</ele>
        <time>2014-12-28T10:29:54Z</time>
      </trkpt>
      <trkpt lat="47.52723" lon="6.7598">
        <ele>355</ele>
        <time>2014-12-28T10:29:55Z</time>
      </trkpt>
      <trkpt lat="47.52719" lon="6.7598">
        <ele>355</ele>
        <time>2014-12-28T10:29:56Z</time>
      </trkpt>
      <trkpt lat="47.52716" lon="6.75979">
        <ele>355</ele>
        <time>2014-12-28T10:29:57Z</time>
      </trkpt>
      <trkpt lat="47.52713" lon="6.7598">
        <ele>355</ele>
        <time>2014-12-28T10:29:58Z</time>
      </trkpt>
      <trkpt lat="47.52711" lon="6.75981">
        <ele>355</ele>
        <time>2014-12-28T10:29:59Z</time>
      </trkpt>
      <trkpt lat="47.5271" lon="6.75987">
        <ele>355</ele>
        <time>2014-12-28T10:30:02Z</time>
      </trkpt>
      <trkpt lat="47.52711" lon="6.75988">
        <ele>355</ele>
        <time>2014-12-28T10:30:03Z</time>
      </trkpt>
      <trkpt lat="47.52708" lon="6.75991">
        <ele>355</ele>
        <time>2014-12-28T10:30:42Z</time>
      </trkpt>
      <trkpt lat="47.52706" lon="6.75992">
        <ele>355</ele>
        <time>2014-12-28T10:30:43Z</time>
      </trkpt>
      <trkpt lat="47.52703" lon="6.75995">
        <ele>355</ele>
        <time>2014-12-28T10:30:46Z</time>
      </trkpt>
      <trkpt lat="47.52702" lon="6.75997">
        <ele>355</ele>
        <time>2014-12-28T10:30:47Z</time>
      </trkpt>
      <trkpt lat="47.52699" lon="6.76001">
        <ele>356</ele>
        <time>2014-12-28T10:30:49Z</time>
      </trkpt>
      <trkpt lat="47.52697" lon="6.76002">
        <ele>356</ele>
        <time>2014-12-28T10:30:50Z</time>
      </trkpt>
      <trkpt lat="47.52694" lon="6.76006">
        <ele>356</ele>
        <time>2014-12-28T10:30:52Z</time>
      </trkpt>
      <trkpt lat="47.52692" lon="6.76008">
        <ele>356</ele>
        <time>2014-12-28T10:30:53Z</time>
      </trkpt>
      <trkpt lat="47.52689" lon="6.76011">
        <ele>356</ele>
        <time>2014-12-28T10:30:55Z</time>
      </trkpt>
      <trkpt lat="47.52687" lon="6.76012">
        <ele>356</ele>
        <time>2014-12-28T10:30:56Z</time>
      </trkpt>
      <trkpt lat="47.52684" lon="6.76015">
        <ele>356</ele>
        <time>2014-12-28T10:30:58Z</time>
      </trkpt>
      <trkpt lat="47.52682" lon="6.76016">
        <ele>356</ele>
        <time>2014-12-28T10:30:59Z</time>
      </trkpt>
      <trkpt lat="47.52679" lon="6.76019">
        <ele>356</ele>
        <time>2014-12-28T10:31:01Z</time>
      </trkpt>
      <trkpt lat="47.52677" lon="6.76021">
        <ele>356</ele>
        <time>2014-12-28T10:31:02Z</time>
      </trkpt>
      <trkpt lat="47.52674" lon="6.76024">
        <ele>357</ele>
        <time>2014-12-28T10:31:04Z</time>
      </trkpt>
      <trkpt lat="47.52673" lon="6.76026">
        <ele>357</ele>
        <time>2014-12-28T10:31:05Z</time>
      </trkpt>
      <trkpt lat="47.5267" lon="6.76029">
        <ele>357</ele>
        <time>2014-12-28T10:31:07Z</time>
      </trkpt>
      <trkpt lat="47.52668" lon="6.7603">
        <ele>357</ele>
        <time>2014-12-28T10:31:08Z</time>
      </trkpt>
      <trkpt lat="47.52665" lon="6.76034">
        <ele>358</ele>
        <time>2014-12-28T10:31:17Z</time>
      </trkpt>
      <trkpt lat="47.52665" lon="6.76034">
        <ele>358</ele>
        <time>2014-12-28T10:31:18Z</time>
      </trkpt>
      <trkpt lat="47.52662" lon="6.76037">
        <ele>358</ele>
        <time>2014-12-28T10:31:20Z</time>
      </trkpt>
      <trkpt lat="47.5266" lon="6.76039">
        <ele>358</ele>
        <time>2014-12-28T10:31:21Z</time>
      </trkpt>
      <trkpt lat="47.52657" lon="6.76042">
        <ele>358</ele>
        <time>2014-12-28T10:31:23Z</time>
      </trkpt>
      <trkpt lat="47.52655" lon="6.76043">
        <ele>359</ele>
        <time>2014-12-28T10:31:24Z</time>
      </trkpt>
      <trkpt lat="47.52652" lon="6.76045">
        <ele>359</ele>
        <time>2014-12-28T10:31:26Z</time>
      </trkpt>
      <trkpt lat="47.5265" lon="6.76047">
        <ele>359</ele>
        <time>2014-12-28T10:31:27Z</time>
      </trkpt>
      <trkpt lat="47.52647" lon="6.76049">
        <ele>359</ele>
        <time>2014-12-28T10:31:29Z</time>
      </trkpt>
      <trkpt lat="47.52646" lon="6.76051">
        <ele>359</ele>
        <time>2014-12-28T10:31:30Z</time>
      </trkpt>
      <trkpt lat="47.52642" lon="6.76054">
        <ele>360</ele>
        <time>2014-12-28T10:31:32Z</time>
      </trkpt>
      <trkpt lat="47.5264" lon="6.76056">
        <ele>360</ele>
        <time>2014-12-28T10:31:33Z</time>
      </trkpt>
      <trkpt lat="47.52638" lon="6.76057">
        <ele>360</ele>
        <time>2014-12-28T10:31:34Z</time>
      </trkpt>
      <trkpt lat="47.52636" lon="6.7606">
        <ele>360</ele>
        <time>2014-12-28T10:31:35Z</time>
      </trkpt>
      <trkpt lat="47.52634" lon="6.76062">
        <ele>360</ele>
        <time>2014-12-28T10:31:36Z</time>
      </trkpt>
      <trkpt lat="47.52622" lon="6.76072">
        <ele>362</ele>
        <time>2014-12-28T10:31:44Z</time>
      </trkpt>
      <trkpt lat="47.5262" lon="6.76074">
        <ele>363</ele>
        <time>2014-12-28T10:31:46Z</time>
      </trkpt>
      <trkpt lat="47.52618" lon="6.76076">
        <ele>363</ele>
        <time>2014-12-28T10:31:47Z</time>
      </trkpt>
      <trkpt lat="47.52616" lon="6.76078">
        <ele>363</ele>
        <time>2014-12-28T10:31:48Z</time>
      </trkpt>
      <trkpt lat="47.52614" lon="6.76079">
        <ele>364</ele>
        <time>2014-12-28T10:31:49Z</time>
      </trkpt>
      <trkpt lat="47.5261" lon="6.76081">
        <ele>364</ele>
        <time>2014-12-28T10:31:51Z</time>
      </trkpt>
      <trkpt lat="47.52608" lon="6.76082">
        <ele>365</ele>
        <time>2014-12-28T10:31:52Z</time>
      </trkpt>
      <trkpt lat="47.52605" lon="6.76085">
        <ele>366</ele>
        <time>2014-12-28T10:31:54Z</time>
      </trkpt>
      <trkpt lat="47.52603" lon="6.76087">
        <ele>366</ele>
        <time>2014-12-28T10:31:55Z</time>
      </trkpt>
      <trkpt lat="47.52601" lon="6.76089">
        <ele>366</ele>
        <time>2014-12-28T10:31:56Z</time>
      </trkpt>
      <trkpt lat="47.52599" lon="6.76091">
        <ele>366</ele>
        <time>2014-12-28T10:31:57Z</time>
      </trkpt>
      <trkpt lat="47.52597" lon="6.76093">
        <ele>366</ele>
        <time>2014-12-28T10:31:58Z</time>
      </trkpt>
      <trkpt lat="47.52595" lon="6.76094">
        <ele>366</ele>
        <time>2014-12-28T10:31:59Z</time>
      </trkpt>
      <trkpt lat="47.52594" lon="6.76096">
        <ele>366</ele>
        <time>2014-12-28T10:32:00Z</time>
      </trkpt>
      <trkpt lat="47.52592" lon="6.76098">
        <ele>366</ele>
        <time>2014-12-28T10:32:01Z</time>
      </trkpt>
      <trkpt lat="47.52588" lon="6.76103">
        <ele>366</ele>
        <time>2014-12-28T10:32:03Z</time>
      </trkpt>
      <trkpt lat="47.52586" lon="6.76104">
        <ele>366</ele>
        <time>2014-12-28T10:32:04Z</time>
      </trkpt>
      <trkpt lat="47.52583" lon="6.76106">
        <ele>367</ele>
        <time>2014-12-28T10:32:06Z</time>
      </trkpt>
      <trkpt lat="47.52582" lon="6.76107">
        <ele>367</ele>
        <time>2014-12-28T10:32:07Z</time>
      </trkpt>
      <trkpt lat="47.52579" lon="6.76109">
        <ele>368</ele>
        <time>2014-12-28T10:32:09Z</time>
      </trkpt>
      <trkpt lat="47.52577" lon="6.7611">
        <ele>368</ele>
        <time>2014-12-28T10:32:10Z</time>
      </trkpt>
      <trkpt lat="47.52574" lon="6.76113">
        <ele>368</ele>
        <time>2014-12-28T10:32:13Z</time>
      </trkpt>
      <trkpt lat="47.52573" lon="6.76114">
        <ele>368</ele>
        <time>2014-12-28T10:32:14Z</time>
      </trkpt>
      <trkpt lat="47.5257" lon="6.76116">
        <ele>369</ele>
        <time>2014-12-28T10:32:16Z</time>
      </trkpt>
      <trkpt lat="47.52568" lon="6.76118">
        <ele>369</ele>
        <time>2014-12-28T10:32:17Z</time>
      </trkpt>
      <trkpt lat="47.52566" lon="6.76119">
        <ele>369</ele>
        <time>2014-12-28T10:32:19Z</time>
      </trkpt>
      <trkpt lat="47.52564" lon="6.76121">
        <ele>370</ele>
        <time>2014-12-28T10:32:20Z</time>
      </trkpt>
      <trkpt lat="47.52562" lon="6.76123">
        <ele>370</ele>
        <time>2014-12-28T10:32:22Z</time>
      </trkpt>
      <trkpt lat="47.5256" lon="6.76125">
        <ele>370</ele>
        <time>2014-12-28T10:32:23Z</time>
      </trkpt>
      <trkpt lat="47.52557" lon="6.7613">
        <ele>371</ele>
        <time>2014-12-28T10:32:26Z</time>
      </trkpt>
      <trkpt lat="47.52556" lon="6.76131">
        <ele>371</ele>
        <time>2014-12-28T10:32:27Z</time>
      </trkpt>
      <trkpt lat="47.52554" lon="6.76136">
        <ele>371</ele>
        <time>2014-12-28T10:32:29Z</time>
      </trkpt>
      <trkpt lat="47.52553" lon="6.76137">
        <ele>372</ele>
        <time>2014-12-28T10:32:30Z</time>
      </trkpt>
      <trkpt lat="47.5255" lon="6.76141">
        <ele>372</ele>
        <time>2014-12-28T10:32:33Z</time>
      </trkpt>
      <trkpt lat="47.52549" lon="6.76143">
        <ele>372</ele>
        <time>2014-12-28T10:32:34Z</time>
      </trkpt>
      <trkpt lat="47.52546" lon="6.76149">
        <ele>373</ele>
        <time>2014-12-28T10:32:36Z</time>
      </trkpt>
      <trkpt lat="47.52543" lon="6.76155">
        <ele>374</ele>
        <time>2014-12-28T10:32:39Z</time>
      </trkpt>
      <trkpt lat="47.52541" lon="6.76159">
        <ele>374</ele>
        <time>2014-12-28T10:32:41Z</time>
      </trkpt>
      <trkpt lat="47.5254" lon="6.76161">
        <ele>374</ele>
        <time>2014-12-28T10:32:42Z</time>
      </trkpt>
      <trkpt lat="47.52538" lon="6.76165">
        <ele>375</ele>
        <time>2014-12-28T10:32:44Z</time>
      </trkpt>
      <trkpt lat="47.52537" lon="6.76167">
        <ele>377</ele>
        <time>2014-12-28T10:32:45Z</time>
      </trkpt>
      <trkpt lat="47.52534" lon="6.76171">
        <ele>378</ele>
        <time>2014-12-28T10:32:47Z</time>
      </trkpt>
      <trkpt lat="47.52533" lon="6.76173">
        <ele>378</ele>
        <time>2014-12-28T10:32:48Z</time>
      </trkpt>
      <trkpt lat="47.5253" lon="6.76176">
        <ele>378</ele>
        <time>2014-12-28T10:32:50Z</time>
      </trkpt>
      <trkpt lat="47.52529" lon="6.76178">
        <ele>379</ele>
        <time>2014-12-28T10:32:51Z</time>
      </trkpt>
      <trkpt lat="47.52526" lon="6.76182">
        <ele>379</ele>
        <time>2014-12-28T10:32:53Z</time>
      </trkpt>
      <trkpt lat="47.52525" lon="6.76183">
        <ele>379</ele>
        <time>2014-12-28T10:32:54Z</time>
      </trkpt>
      <trkpt lat="47.52522" lon="6.76187">
        <ele>380</ele>
        <time>2014-12-28T10:32:56Z</time>
      </trkpt>
      <trkpt lat="47.52521" lon="6.76189">
        <ele>380</ele>
        <time>2014-12-28T10:32:57Z</time>
      </trkpt>
      <trkpt lat="47.52519" lon="6.76193">
        <ele>380</ele>
        <time>2014-12-28T10:32:59Z</time>
      </trkpt>
      <trkpt lat="47.52518" lon="6.76195">
        <ele>380</ele>
        <time>2014-12-28T10:33:00Z</time>
      </trkpt>
      <trkpt lat="47.52516" lon="6.76199">
        <ele>380</ele>
        <time>2014-12-28T10:33:02Z</time>
      </trkpt>
      <trkpt lat="47.52515" lon="6.76201">
        <ele>381</ele>
        <time>2014-12-28T10:33:03Z</time>
      </trkpt>
      <trkpt lat="47.52512" lon="6.76205">
        <ele>381</ele>
        <time>2014-12-28T10:33:05Z</time>
      </trkpt>
      <trkpt lat="47.52511" lon="6.76207">
        <ele>381</ele>
        <time>2014-12-28T10:33:06Z</time>
      </trkpt>
      <trkpt lat="47.52508" lon="6.76212">
        <ele>382</ele>
        <time>2014-12-28T10:33:08Z</time>
      </trkpt>
      <trkpt lat="47.52507" lon="6.76214">
        <ele>382</ele>
        <time>2014-12-28T10:33:09Z</time>
      </trkpt>
      <trkpt lat="47.52505" lon="6.76218">
        <ele>383</ele>
        <time>2014-12-28T10:33:11Z</time>
      </trkpt>
      <trkpt lat="47.52503" lon="6.7622">
        <ele>383</ele>
        <time>2014-12-28T10:33:12Z</time>
      </trkpt>
      <trkpt lat="47.52501" lon="6.76224">
        <ele>384</ele>
        <time>2014-12-28T10:33:14Z</time>
      </trkpt>
      <trkpt lat="47.52499" lon="6.76226">
        <ele>385</ele>
        <time>2014-12-28T10:33:15Z</time>
      </trkpt>
      <trkpt lat="47.52496" lon="6.76228">
        <ele>385</ele>
        <time>2014-12-28T10:33:17Z</time>
      </trkpt>
      <trkpt lat="47.52495" lon="6.76229">
        <ele>385</ele>
        <time>2014-12-28T10:33:18Z</time>
      </trkpt>
      <trkpt lat="47.52491" lon="6.76227">
        <ele>385</ele>
        <time>2014-12-28T10:33:20Z</time>
      </trkpt>
      <trkpt lat="47.52489" lon="6.76225">
        <ele>385</ele>
        <time>2014-12-28T10:33:21Z</time>
      </trkpt>
      <trkpt lat="47.52487" lon="6.76223">
        <ele>385</ele>
        <time>2014-12-28T10:33:22Z</time>
      </trkpt>
      <trkpt lat="47.52485" lon="6.76221">
        <ele>385</ele>
        <time>2014-12-28T10:33:23Z</time>
      </trkpt>
      <trkpt lat="47.52482" lon="6.76216">
        <ele>385</ele>
        <time>2014-12-28T10:33:25Z</time>
      </trkpt>
      <trkpt lat="47.52481" lon="6.76213">
        <ele>385</ele>
        <time>2014-12-28T10:33:26Z</time>
      </trkpt>
      <trkpt lat="47.5248" lon="6.7621">
        <ele>384</ele>
        <time>2014-12-28T10:33:27Z</time>
      </trkpt>
      <trkpt lat="47.52478" lon="6.76207">
        <ele>384</ele>
        <time>2014-12-28T10:33:28Z</time>
      </trkpt>
      <trkpt lat="47.52477" lon="6.76204">
        <ele>384</ele>
        <time>2014-12-28T10:33:29Z</time>
      </trkpt>
      <trkpt lat="47.52475" lon="6.76202">
        <ele>384</ele>
        <time>2014-12-28T10:33:30Z</time>
      </trkpt>
      <trkpt lat="47.52472" lon="6.76197">
        <ele>384</ele>
        <time>2014-12-28T10:33:32Z</time>
      </trkpt>
      <trkpt lat="47.52471" lon="6.76196">
        <ele>384</ele>
        <time>2014-12-28T10:33:33Z</time>
      </trkpt>
      <trkpt lat="47.52469" lon="6.76191">
        <ele>385</ele>
        <time>2014-12-28T10:33:36Z</time>
      </trkpt>
      <trkpt lat="47.52455" lon="6.76169">
        <ele>386</ele>
        <time>2014-12-28T10:33:45Z</time>
      </trkpt>
      <trkpt lat="47.52453" lon="6.76166">
        <ele>383</ele>
        <time>2014-12-28T10:33:46Z</time>
      </trkpt>
      <trkpt lat="47.52451" lon="6.76164">
        <ele>384</ele>
        <time>2014-12-28T10:33:47Z</time>
      </trkpt>
      <trkpt lat="47.52449" lon="6.76161">
        <ele>384</ele>
        <time>2014-12-28T10:33:49Z</time>
      </trkpt>
      <trkpt lat="47.52448" lon="6.76159">
        <ele>384</ele>
        <time>2014-12-28T10:33:50Z</time>
      </trkpt>
      <trkpt lat="47.52446" lon="6.76154">
        <ele>384</ele>
        <time>2014-12-28T10:33:53Z</time>
      </trkpt>
      <trkpt lat="47.52445" lon="6.76154">
        <ele>384</ele>
        <time>2014-12-28T10:33:54Z</time>
      </trkpt>
      <trkpt lat="47.52444" lon="6.76158">
        <ele>385</ele>
        <time>2014-12-28T10:33:56Z</time>
      </trkpt>
      <trkpt lat="47.52444" lon="6.76161">
        <ele>385</ele>
        <time>2014-12-28T10:33:57Z</time>
      </trkpt>
      <trkpt lat="47.52445" lon="6.76165">
        <ele>385</ele>
        <time>2014-12-28T10:33:58Z</time>
      </trkpt>
      <trkpt lat="47.52446" lon="6.76168">
        <ele>387</ele>
        <time>2014-12-28T10:33:59Z</time>
      </trkpt>
      <trkpt lat="47.52446" lon="6.76172">
        <ele>387</ele>
        <time>2014-12-28T10:34:00Z</time>
      </trkpt>
      <trkpt lat="47.52447" lon="6.76175">
        <ele>387</ele>
        <time>2014-12-28T10:34:01Z</time>
      </trkpt>
      <trkpt lat="47.52449" lon="6.76181">
        <ele>387</ele>
        <time>2014-12-28T10:34:03Z</time>
      </trkpt>
      <trkpt lat="47.5245" lon="6.76184">
        <ele>387</ele>
        <time>2014-12-28T10:34:04Z</time>
      </trkpt>
      <trkpt lat="47.52452" lon="6.76189">
        <ele>387</ele>
        <time>2014-12-28T10:34:06Z</time>
      </trkpt>
      <trkpt lat="47.52452" lon="6.76193">
        <ele>387</ele>
        <time>2014-12-28T10:34:07Z</time>
      </trkpt>
      <trkpt lat="47.52452" lon="6.76196">
        <ele>387</ele>
        <time>2014-12-28T10:34:08Z</time>
      </trkpt>
      <trkpt lat="47.52452" lon="6.762">
        <ele>387</ele>
        <time>2014-12-28T10:34:09Z</time>
      </trkpt>
      <trkpt lat="47.52451" lon="6.76206">
        <ele>387</ele>
        <time>2014-12-28T10:34:11Z</time>
      </trkpt>
      <trkpt lat="47.52451" lon="6.76209">
        <ele>387</ele>
        <time>2014-12-28T10:34:12Z</time>
      </trkpt>
      <trkpt lat="47.5245" lon="6.76214">
        <ele>388</ele>
        <time>2014-12-28T10:34:14Z</time>
      </trkpt>
      <trkpt lat="47.5245" lon="6.76217">
        <ele>388</ele>
        <time>2014-12-28T10:34:15Z</time>
      </trkpt>
      <trkpt lat="47.52448" lon="6.76222">
        <ele>388</ele>
        <time>2014-12-28T10:34:17Z</time>
      </trkpt>
      <trkpt lat="47.52446" lon="6.76223">
        <ele>389</ele>
        <time>2014-12-28T10:34:18Z</time>
      </trkpt>
      <trkpt lat="47.52444" lon="6.76226">
        <ele>389</ele>
        <time>2014-12-28T10:34:20Z</time>
      </trkpt>
      <trkpt lat="47.52442" lon="6.76228">
        <ele>389</ele>
        <time>2014-12-28T10:34:21Z</time>
      </trkpt>
      <trkpt lat="47.52439" lon="6.7623">
        <ele>390</ele>
        <time>2014-12-28T10:34:23Z</time>
      </trkpt>
      <trkpt lat="47.52438" lon="6.76232">
        <ele>390</ele>
        <time>2014-12-28T10:34:24Z</time>
      </trkpt>
      <trkpt lat="47.52434" lon="6.76235">
        <ele>391</ele>
        <time>2014-12-28T10:34:26Z</time>
      </trkpt>
      <trkpt lat="47.52433" lon="6.76236">
        <ele>391</ele>
        <time>2014-12-28T10:34:27Z</time>
      </trkpt>
      <trkpt lat="47.52429" lon="6.76239">
        <ele>392</ele>
        <time>2014-12-28T10:34:29Z</time>
      </trkpt>
      <trkpt lat="47.52428" lon="6.7624">
        <ele>392</ele>
        <time>2014-12-28T10:34:30Z</time>
      </trkpt>
      <trkpt lat="47.52425" lon="6.76242">
        <ele>392</ele>
        <time>2014-12-28T10:34:32Z</time>
      </trkpt>
      <trkpt lat="47.52423" lon="6.76243">
        <ele>392</ele>
        <time>2014-12-28T10:34:33Z</time>
      </trkpt>
      <trkpt lat="47.5242" lon="6.76245">
        <ele>392</ele>
        <time>2014-12-28T10:34:35Z</time>
      </trkpt>
      <trkpt lat="47.52418" lon="6.76246">
        <ele>392</ele>
        <time>2014-12-28T10:34:36Z</time>
      </trkpt>
      <trkpt lat="47.52415" lon="6.7625">
        <ele>392</ele>
        <time>2014-12-28T10:34:39Z</time>
      </trkpt>
      <trkpt lat="47.52412" lon="6.76254">
        <ele>393</ele>
        <time>2014-12-28T10:34:43Z</time>
      </trkpt>
      <trkpt lat="47.52411" lon="6.76255">
        <ele>393</ele>
        <time>2014-12-28T10:34:44Z</time>
      </trkpt>
      <trkpt lat="47.52407" lon="6.76258">
        <ele>393</ele>
        <time>2014-12-28T10:34:46Z</time>
      </trkpt>
      <trkpt lat="47.52405" lon="6.7626">
        <ele>393</ele>
        <time>2014-12-28T10:34:47Z</time>
      </trkpt>
      <trkpt lat="47.52402" lon="6.76264">
        <ele>393</ele>
        <time>2014-12-28T10:34:49Z</time>
      </trkpt>
      <trkpt lat="47.524" lon="6.76266">
        <ele>393</ele>
        <time>2014-12-28T10:34:50Z</time>
      </trkpt>
      <trkpt lat="47.52397" lon="6.76269">
        <ele>394</ele>
        <time>2014-12-28T10:34:53Z</time>
      </trkpt>
      <trkpt lat="47.52396" lon="6.7627">
        <ele>394</ele>
        <time>2014-12-28T10:34:54Z</time>
      </trkpt>
      <trkpt lat="47.52393" lon="6.76275">
        <ele>394</ele>
        <time>2014-12-28T10:34:57Z</time>
      </trkpt>
      <trkpt lat="47.52392" lon="6.76277">
        <ele>394</ele>
        <time>2014-12-28T10:34:58Z</time>
      </trkpt>
      <trkpt lat="47.5239" lon="6.76281">
        <ele>395</ele>
        <time>2014-12-28T10:35:00Z</time>
      </trkpt>
      <trkpt lat="47.52388" lon="6.76284">
        <ele>395</ele>
        <time>2014-12-28T10:35:01Z</time>
      </trkpt>
      <trkpt lat="47.52386" lon="6.76287">
        <ele>395</ele>
        <time>2014-12-28T10:35:02Z</time>
      </trkpt>
      <trkpt lat="47.52385" lon="6.76291">
        <ele>395</ele>
        <time>2014-12-28T10:35:03Z</time>
      </trkpt>
      <trkpt lat="47.52384" lon="6.76297">
        <ele>395</ele>
        <time>2014-12-28T10:35:05Z</time>
      </trkpt>
      <trkpt lat="47.52384" lon="6.76299">
        <ele>395</ele>
        <time>2014-12-28T10:35:06Z</time>
      </trkpt>
      <trkpt lat="47.52381" lon="6.76304">
        <ele>395</ele>
        <time>2014-12-28T10:35:09Z</time>
      </trkpt>
      <trkpt lat="47.5238" lon="6.76306">
        <ele>395</ele>
        <time>2014-12-28T10:35:10Z</time>
      </trkpt>
      <trkpt lat="47.52378" lon="6.7631">
        <ele>396</ele>
        <time>2014-12-28T10:35:12Z</time>
      </trkpt>
      <trkpt lat="47.52377" lon="6.76313">
        <ele>396</ele>
        <time>2014-12-28T10:35:13Z</time>
      </trkpt>
      <trkpt lat="47.52376" lon="6.76317">
        <ele>396</ele>
        <time>2014-12-28T10:35:14Z</time>
      </trkpt>
      <trkpt lat="47.52375" lon="6.76321">
        <ele>396</ele>
        <time>2014-12-28T10:35:15Z</time>
      </trkpt>
      <trkpt lat="47.52374" lon="6.76325">
        <ele>396</ele>
        <time>2014-12-28T10:35:16Z</time>
      </trkpt>
      <trkpt lat="47.52373" lon="6.76329">
        <ele>396</ele>
        <time>2014-12-28T10:35:17Z</time>
      </trkpt>
      <trkpt lat="47.52371" lon="6.76334">
        <ele>398</ele>
        <time>2014-12-28T10:35:19Z</time>
      </trkpt>
      <trkpt lat="47.52371" lon="6.76337">
        <ele>398</ele>
        <time>2014-12-28T10:35:20Z</time>
      </trkpt>
      <trkpt lat="47.52369" lon="6.76342">
        <ele>398</ele>
        <time>2014-12-28T10:35:23Z</time>
      </trkpt>
      <trkpt lat="47.52368" lon="6.76344">
        <ele>398</ele>
        <time>2014-12-28T10:35:24Z</time>
      </trkpt>
      <trkpt lat="47.52368" lon="6.76349">
        <ele>398</ele>
        <time>2014-12-28T10:35:26Z</time>
      </trkpt>
      <trkpt lat="47.52367" lon="6.76352">
        <ele>398</ele>
        <time>2014-12-28T10:35:27Z</time>
      </trkpt>
      <trkpt lat="47.52367" lon="6.76357">
        <ele>398</ele>
        <time>2014-12-28T10:35:29Z</time>
      </trkpt>
      <trkpt lat="47.52366" lon="6.76359">
        <ele>398</ele>
        <time>2014-12-28T10:35:30Z</time>
      </trkpt>
      <trkpt lat="47.52365" lon="6.76362">
        <ele>398</ele>
        <time>2014-12-28T10:35:31Z</time>
      </trkpt>
      <trkpt lat="47.52364" lon="6.76365">
        <ele>398</ele>
        <time>2014-12-28T10:35:32Z</time>
      </trkpt>
      <trkpt lat="47.52363" lon="6.76369">
        <ele>398</ele>
        <time>2014-12-28T10:35:33Z</time>
      </trkpt>
      <trkpt lat="47.52362" lon="6.76372">
        <ele>398</ele>
        <time>2014-12-28T10:35:34Z</time>
      </trkpt>
      <trkpt lat="47.52361" lon="6.76375">
        <ele>398</ele>
        <time>2014-12-28T10:35:35Z</time>
      </trkpt>
      <trkpt lat="47.5236" lon="6.76378">
        <ele>398</ele>
        <time>2014-12-28T10:35:36Z</time>
      </trkpt>
      <trkpt lat="47.52354" lon="6.76402">
        <ele>399</ele>
        <time>2014-12-28T10:35:44Z</time>
      </trkpt>
      <trkpt lat="47.52353" lon="6.76409">
        <ele>399</ele>
        <time>2014-12-28T10:35:46Z</time>
      </trkpt>
      <trkpt lat="47.52353" lon="6.76412">
        <ele>399</ele>
        <time>2014-12-28T10:35:47Z</time>
      </trkpt>
      <trkpt lat="47.52353" lon="6.76415">
        <ele>399</ele>
        <time>2014-12-28T10:35:48Z</time>
      </trkpt>
      <trkpt lat="47.52352" lon="6.76419">
        <ele>400</ele>
        <time>2014-12-28T10:35:49Z</time>
      </trkpt>
      <trkpt lat="47.52352" lon="6.76425">
        <ele>400</ele>
        <time>2014-12-28T10:35:51Z</time>
      </trkpt>
      <trkpt lat="47.52351" lon="6.76428">
        <ele>400</ele>
        <time>2014-12-28T10:35:52Z</time>
      </trkpt>
      <trkpt lat="47.52351" lon="6.76432">
        <ele>400</ele>
        <time>2014-12-28T10:35:53Z</time>
      </trkpt>
      <trkpt lat="47.52351" lon="6.76435">
        <ele>400</ele>
        <time>2014-12-28T10:35:54Z</time>
      </trkpt>
      <trkpt lat="47.5235" lon="6.76439">
        <ele>400</ele>
        <time>2014-12-28T10:35:55Z</time>
      </trkpt>
      <trkpt lat="47.5235" lon="6.76443">
        <ele>400</ele>
        <time>2014-12-28T10:35:56Z</time>
      </trkpt>
      <trkpt lat="47.52351" lon="6.76449">
        <ele>400</ele>
        <time>2014-12-28T10:35:58Z</time>
      </trkpt>
      <trkpt lat="47.52351" lon="6.76452">
        <ele>400</ele>
        <time>2014-12-28T10:35:59Z</time>
      </trkpt>
      <trkpt lat="47.5235" lon="6.76455">
        <ele>400</ele>
        <time>2014-12-28T10:36:00Z</time>
      </trkpt>
      <trkpt lat="47.5235" lon="6.76458">
        <ele>400</ele>
        <time>2014-12-28T10:36:01Z</time>
      </trkpt>
      <trkpt lat="47.52349" lon="6.76465">
        <ele>400</ele>
        <time>2014-12-28T10:36:03Z</time>
      </trkpt>
      <trkpt lat="47.52349" lon="6.76468">
        <ele>400</ele>
        <time>2014-12-28T10:36:04Z</time>
      </trkpt>
      <trkpt lat="47.52348" lon="6.76474">
        <ele>401</ele>
        <time>2014-12-28T10:36:06Z</time>
      </trkpt>
      <trkpt lat="47.52348" lon="6.76477">
        <ele>401</ele>
        <time>2014-12-28T10:36:07Z</time>
      </trkpt>
      <trkpt lat="47.52347" lon="6.76484">
        <ele>401</ele>
        <time>2014-12-28T10:36:09Z</time>
      </trkpt>
      <trkpt lat="47.52346" lon="6.76486">
        <ele>401</ele>
        <time>2014-12-28T10:36:10Z</time>
      </trkpt>
      <trkpt lat="47.52346" lon="6.76492">
        <ele>401</ele>
        <time>2014-12-28T10:36:12Z</time>
      </trkpt>
      <trkpt lat="47.52345" lon="6.76495">
        <ele>401</ele>
        <time>2014-12-28T10:36:13Z</time>
      </trkpt>
      <trkpt lat="47.52344" lon="6.765">
        <ele>401</ele>
        <time>2014-12-28T10:36:15Z</time>
      </trkpt>
      <trkpt lat="47.52344" lon="6.76504">
        <ele>401</ele>
        <time>2014-12-28T10:36:16Z</time>
      </trkpt>
      <trkpt lat="47.52343" lon="6.76507">
        <ele>401</ele>
        <time>2014-12-28T10:36:17Z</time>
      </trkpt>
      <trkpt lat="47.52343" lon="6.76511">
        <ele>401</ele>
        <time>2014-12-28T10:36:18Z</time>
      </trkpt>
      <trkpt lat="47.52343" lon="6.76514">
        <ele>401</ele>
        <time>2014-12-28T10:36:19Z</time>
      </trkpt>
      <trkpt lat="47.52342" lon="6.76518">
        <ele>401</ele>
        <time>2014-12-28T10:36:20Z</time>
      </trkpt>
      <trkpt lat="47.52342" lon="6.76521">
        <ele>401</ele>
        <time>2014-12-28T10:36:21Z</time>
      </trkpt>
      <trkpt lat="47.52342" lon="6.76525">
        <ele>401</ele>
        <time>2014-12-28T10:36:22Z</time>
      </trkpt>
      <trkpt lat="47.52341" lon="6.76529">
        <ele>402</ele>
        <time>2014-12-28T10:36:23Z</time>
      </trkpt>
      <trkpt lat="47.5234" lon="6.76533">
        <ele>402</ele>
        <time>2014-12-28T10:36:24Z</time>
      </trkpt>
      <trkpt lat="47.5234" lon="6.76537">
        <ele>402</ele>
        <time>2014-12-28T10:36:25Z</time>
      </trkpt>
      <trkpt lat="47.52339" lon="6.7654">
        <ele>403</ele>
        <time>2014-12-28T10:36:26Z</time>
      </trkpt>
      <trkpt lat="47.52339" lon="6.76546">
        <ele>403</ele>
        <time>2014-12-28T10:36:28Z</time>
      </trkpt>
      <trkpt lat="47.52339" lon="6.76548">
        <ele>403</ele>
        <time>2014-12-28T10:36:29Z</time>
      </trkpt>
      <trkpt lat="47.52338" lon="6.76554">
        <ele>404</ele>
        <time>2014-12-28T10:36:31Z</time>
      </trkpt>
      <trkpt lat="47.52338" lon="6.76556">
        <ele>404</ele>
        <time>2014-12-28T10:36:32Z</time>
      </trkpt>
      <trkpt lat="47.52339" lon="6.76561">
        <ele>404</ele>
        <time>2014-12-28T10:36:34Z</time>
      </trkpt>
      <trkpt lat="47.5234" lon="6.76563">
        <ele>404</ele>
        <time>2014-12-28T10:36:35Z</time>
      </trkpt>
      <trkpt lat="47.52341" lon="6.76566">
        <ele>404</ele>
        <time>2014-12-28T10:36:36Z</time>
      </trkpt>
      <trkpt lat="47.5234" lon="6.76575">
        <ele>404</ele>
        <time>2014-12-28T10:36:39Z</time>
      </trkpt>
      <trkpt lat="47.52336" lon="6.7658">
        <ele>404</ele>
        <time>2014-12-28T10:36:41Z</time>
      </trkpt>
      <trkpt lat="47.52335" lon="6.76581">
        <ele>404</ele>
        <time>2014-12-28T10:36:42Z</time>
      </trkpt>
      <trkpt lat="47.52331" lon="6.76581">
        <ele>404</ele>
        <time>2014-12-28T10:36:45Z</time>
      </trkpt>
      <trkpt lat="47.52329" lon="6.76581">
        <ele>404</ele>
        <time>2014-12-28T10:36:46Z</time>
      </trkpt>
      <trkpt lat="47.52326" lon="6.7658">
        <ele>404</ele>
        <time>2014-12-28T10:36:47Z</time>
      </trkpt>
      <trkpt lat="47.52323" lon="6.76579">
        <ele>404</ele>
        <time>2014-12-28T10:36:48Z</time>
      </trkpt>
      <trkpt lat="47.5232" lon="6.76578">
        <ele>404</ele>
        <time>2014-12-28T10:36:49Z</time>
      </trkpt>
      <trkpt lat="47.52317" lon="6.76577">
        <ele>404</ele>
        <time>2014-12-28T10:36:50Z</time>
      </trkpt>
      <trkpt lat="47.52314" lon="6.76576">
        <ele>403</ele>
        <time>2014-12-28T10:36:51Z</time>
      </trkpt>
      <trkpt lat="47.52312" lon="6.76574">
        <ele>403</ele>
        <time>2014-12-28T10:36:52Z</time>
      </trkpt>
      <trkpt lat="47.52309" lon="6.7657">
        <ele>403</ele>
        <time>2014-12-28T10:36:54Z</time>
      </trkpt>
      <trkpt lat="47.52307" lon="6.76568">
        <ele>403</ele>
        <time>2014-12-28T10:36:55Z</time>
      </trkpt>
      <trkpt lat="47.52304" lon="6.76565">
        <ele>402</ele>
        <time>2014-12-28T10:36:57Z</time>
      </trkpt>
      <trkpt lat="47.52302" lon="6.76564">
        <ele>402</ele>
        <time>2014-12-28T10:36:58Z</time>
      </trkpt>
      <trkpt lat="47.52298" lon="6.76563">
        <ele>402</ele>
        <time>2014-12-28T10:37:00Z</time>
      </trkpt>
      <trkpt lat="47.52297" lon="6.76563">
        <ele>401</ele>
        <time>2014-12-28T10:37:01Z</time>
      </trkpt>
      <trkpt lat="47.52294" lon="6.76562">
        <ele>401</ele>
        <time>2014-12-28T10:37:02Z</time>
      </trkpt>
      <trkpt lat="47.52291" lon="6.76561">
        <ele>401</ele>
        <time>2014-12-28T10:37:03Z</time>
      </trkpt>
      <trkpt lat="47.52289" lon="6.7656">
        <ele>401</ele>
        <time>2014-12-28T10:37:04Z</time>
      </trkpt>
      <trkpt lat="47.52286" lon="6.76559">
        <ele>400</ele>
        <time>2014-12-28T10:37:05Z</time>
      </trkpt>
      <trkpt lat="47.52284" lon="6.76558">
        <ele>400</ele>
        <time>2014-12-28T10:37:06Z</time>
      </trkpt>
      <trkpt lat="47.52281" lon="6.76557">
        <ele>400</ele>
        <time>2014-12-28T10:37:07Z</time>
      </trkpt>
      <trkpt lat="47.52278" lon="6.76556">
        <ele>400</ele>
        <time>2014-12-28T10:37:08Z</time>
      </trkpt>
      <trkpt lat="47.52276" lon="6.76554">
        <ele>400</ele>
        <time>2014-12-28T10:37:09Z</time>
      </trkpt>
      <trkpt lat="47.52274" lon="6.76553">
        <ele>400</ele>
        <time>2014-12-28T10:37:10Z</time>
      </trkpt>
      <trkpt lat="47.52271" lon="6.76552">
        <ele>400</ele>
        <time>2014-12-28T10:37:11Z</time>
      </trkpt>
      <trkpt lat="47.52269" lon="6.76551">
        <ele>399</ele>
        <time>2014-12-28T10:37:12Z</time>
      </trkpt>
      <trkpt lat="47.52267" lon="6.76549">
        <ele>399</ele>
        <time>2014-12-28T10:37:13Z</time>
      </trkpt>
      <trkpt lat="47.52264" lon="6.76548">
        <ele>399</ele>
        <time>2014-12-28T10:37:14Z</time>
      </trkpt>
      <trkpt lat="47.52262" lon="6.76547">
        <ele>399</ele>
        <time>2014-12-28T10:37:15Z</time>
      </trkpt>
      <trkpt lat="47.5226" lon="6.76546">
        <ele>399</ele>
        <time>2014-12-28T10:37:16Z</time>
      </trkpt>
      <trkpt lat="47.52257" lon="6.76545">
        <ele>399</ele>
        <time>2014-12-28T10:37:17Z</time>
      </trkpt>
      <trkpt lat="47.52255" lon="6.76544">
        <ele>399</ele>
        <time>2014-12-28T10:37:18Z</time>
      </trkpt>
      <trkpt lat="47.52252" lon="6.76543">
        <ele>399</ele>
        <time>2014-12-28T10:37:19Z</time>
      </trkpt>
      <trkpt lat="47.5225" lon="6.76542">
        <ele>398</ele>
        <time>2014-12-28T10:37:20Z</time>
      </trkpt>
      <trkpt lat="47.52248" lon="6.76541">
        <ele>398</ele>
        <time>2014-12-28T10:37:21Z</time>
      </trkpt>
      <trkpt lat="47.52243" lon="6.76539">
        <ele>398</ele>
        <time>2014-12-28T10:37:23Z</time>
      </trkpt>
      <trkpt lat="47.52241" lon="6.76538">
        <ele>398</ele>
        <time>2014-12-28T10:37:24Z</time>
      </trkpt>
      <trkpt lat="47.52238" lon="6.76537">
        <ele>398</ele>
        <time>2014-12-28T10:37:25Z</time>
      </trkpt>
      <trkpt lat="47.52236" lon="6.76536">
        <ele>397</ele>
        <time>2014-12-28T10:37:26Z</time>
      </trkpt>
      <trkpt lat="47.52233" lon="6.76535">
        <ele>397</ele>
        <time>2014-12-28T10:37:27Z</time>
      </trkpt>
      <trkpt lat="47.52231" lon="6.76534">
        <ele>397</ele>
        <time>2014-12-28T10:37:28Z</time>
      </trkpt>
      <trkpt lat="47.52228" lon="6.76532">
        <ele>397</ele>
        <time>2014-12-28T10:37:29Z</time>
      </trkpt>
      <trkpt lat="47.52226" lon="6.76531">
        <ele>397</ele>
        <time>2014-12-28T10:37:30Z</time>
      </trkpt>
      <trkpt lat="47.52223" lon="6.7653">
        <ele>397</ele>
        <time>2014-12-28T10:37:31Z</time>
      </trkpt>
      <trkpt lat="47.52221" lon="6.76528">
        <ele>396</ele>
        <time>2014-12-28T10:37:32Z</time>
      </trkpt>
      <trkpt lat="47.52218" lon="6.76527">
        <ele>396</ele>
        <time>2014-12-28T10:37:33Z</time>
      </trkpt>
      <trkpt lat="47.52216" lon="6.76526">
        <ele>396</ele>
        <time>2014-12-28T10:37:34Z</time>
      </trkpt>
      <trkpt lat="47.52214" lon="6.76525">
        <ele>396</ele>
        <time>2014-12-28T10:37:35Z</time>
      </trkpt>
      <trkpt lat="47.52212" lon="6.76523">
        <ele>395</ele>
        <time>2014-12-28T10:37:36Z</time>
      </trkpt>
      <trkpt lat="47.5221" lon="6.76522">
        <ele>395</ele>
        <time>2014-12-28T10:37:37Z</time>
      </trkpt>
      <trkpt lat="47.52191" lon="6.76513">
        <ele>393</ele>
        <time>2014-12-28T10:37:45Z</time>
      </trkpt>
      <trkpt lat="47.52189" lon="6.76512">
        <ele>393</ele>
        <time>2014-12-28T10:37:46Z</time>
      </trkpt>
      <trkpt lat="47.52187" lon="6.76512">
        <ele>393</ele>
        <time>2014-12-28T10:37:47Z</time>
      </trkpt>
      <trkpt lat="47.52184" lon="6.76511">
        <ele>392</ele>
        <time>2014-12-28T10:37:48Z</time>
      </trkpt>
      <trkpt lat="47.52182" lon="6.7651">
        <ele>392</ele>
        <time>2014-12-28T10:37:49Z</time>
      </trkpt>
      <trkpt lat="47.5218" lon="6.76509">
        <ele>392</ele>
        <time>2014-12-28T10:37:50Z</time>
      </trkpt>
      <trkpt lat="47.52177" lon="6.76507">
        <ele>392</ele>
        <time>2014-12-28T10:37:51Z</time>
      </trkpt>
      <trkpt lat="47.52175" lon="6.76506">
        <ele>392</ele>
        <time>2014-12-28T10:37:52Z</time>
      </trkpt>
      <trkpt lat="47.52172" lon="6.76505">
        <ele>392</ele>
        <time>2014-12-28T10:37:53Z</time>
      </trkpt>
      <trkpt lat="47.5217" lon="6.76504">
        <ele>392</ele>
        <time>2014-12-28T10:37:54Z</time>
      </trkpt>
      <trkpt lat="47.52168" lon="6.76503">
        <ele>392</ele>
        <time>2014-12-28T10:37:55Z</time>
      </trkpt>
      <trkpt lat="47.52165" lon="6.76502">
        <ele>391</ele>
        <time>2014-12-28T10:37:56Z</time>
      </trkpt>
      <trkpt lat="47.52163" lon="6.76501">
        <ele>391</ele>
        <time>2014-12-28T10:37:57Z</time>
      </trkpt>
      <trkpt lat="47.5216" lon="6.76499">
        <ele>391</ele>
        <time>2014-12-28T10:37:58Z</time>
      </trkpt>
      <trkpt lat="47.52158" lon="6.76498">
        <ele>391</ele>
        <time>2014-12-28T10:37:59Z</time>
      </trkpt>
      <trkpt lat="47.52155" lon="6.76496">
        <ele>391</ele>
        <time>2014-12-28T10:38:00Z</time>
      </trkpt>
      <trkpt lat="47.52152" lon="6.76494">
        <ele>391</ele>
        <time>2014-12-28T10:38:01Z</time>
      </trkpt>
      <trkpt lat="47.52149" lon="6.76493">
        <ele>391</ele>
        <time>2014-12-28T10:38:02Z</time>
      </trkpt>
      <trkpt lat="47.52147" lon="6.76492">
        <ele>391</ele>
        <time>2014-12-28T10:38:03Z</time>
      </trkpt>
      <trkpt lat="47.52145" lon="6.7649">
        <ele>390</ele>
        <time>2014-12-28T10:38:04Z</time>
      </trkpt>
      <trkpt lat="47.52143" lon="6.76489">
        <ele>390</ele>
        <time>2014-12-28T10:38:05Z</time>
      </trkpt>
      <trkpt lat="47.5214" lon="6.76488">
        <ele>390</ele>
        <time>2014-12-28T10:38:06Z</time>
      </trkpt>
      <trkpt lat="47.52138" lon="6.76487">
        <ele>390</ele>
        <time>2014-12-28T10:38:07Z</time>
      </trkpt>
      <trkpt lat="47.52136" lon="6.76486">
        <ele>390</ele>
        <time>2014-12-28T10:38:08Z</time>
      </trkpt>
      <trkpt lat="47.52134" lon="6.76485">
        <ele>389</ele>
        <time>2014-12-28T10:38:09Z</time>
      </trkpt>
      <trkpt lat="47.52131" lon="6.76483">
        <ele>389</ele>
        <time>2014-12-28T10:38:10Z</time>
      </trkpt>
      <trkpt lat="47.52129" lon="6.76482">
        <ele>389</ele>
        <time>2014-12-28T10:38:11Z</time>
      </trkpt>
      <trkpt lat="47.52125" lon="6.7648">
        <ele>389</ele>
        <time>2014-12-28T10:38:13Z</time>
      </trkpt>
      <trkpt lat="47.52123" lon="6.76478">
        <ele>388</ele>
        <time>2014-12-28T10:38:14Z</time>
      </trkpt>
      <trkpt lat="47.52121" lon="6.76477">
        <ele>388</ele>
        <time>2014-12-28T10:38:15Z</time>
      </trkpt>
      <trkpt lat="47.52119" lon="6.76475">
        <ele>388</ele>
        <time>2014-12-28T10:38:16Z</time>
      </trkpt>
      <trkpt lat="47.52116" lon="6.76474">
        <ele>388</ele>
        <time>2014-12-28T10:38:17Z</time>
      </trkpt>
      <trkpt lat="47.52114" lon="6.76473">
        <ele>388</ele>
        <time>2014-12-28T10:38:18Z</time>
      </trkpt>
      <trkpt lat="47.5211" lon="6.76472">
        <ele>387</ele>
        <time>2014-12-28T10:38:20Z</time>
      </trkpt>
      <trkpt lat="47.52108" lon="6.76471">
        <ele>387</ele>
        <time>2014-12-28T10:38:21Z</time>
      </trkpt>
      <trkpt lat="47.52106" lon="6.7647">
        <ele>387</ele>
        <time>2014-12-28T10:38:22Z</time>
      </trkpt>
      <trkpt lat="47.52104" lon="6.76469">
        <ele>387</ele>
        <time>2014-12-28T10:38:23Z</time>
      </trkpt>
      <trkpt lat="47.52101" lon="6.76467">
        <ele>387</ele>
        <time>2014-12-28T10:38:24Z</time>
      </trkpt>
      <trkpt lat="47.52098" lon="6.76465">
        <ele>387</ele>
        <time>2014-12-28T10:38:25Z</time>
      </trkpt>
      <trkpt lat="47.52095" lon="6.76464">
        <ele>387</ele>
        <time>2014-12-28T10:38:26Z</time>
      </trkpt>
      <trkpt lat="47.52093" lon="6.76463">
        <ele>387</ele>
        <time>2014-12-28T10:38:27Z</time>
      </trkpt>
      <trkpt lat="47.5209" lon="6.76462">
        <ele>387</ele>
        <time>2014-12-28T10:38:28Z</time>
      </trkpt>
      <trkpt lat="47.52087" lon="6.76461">
        <ele>386</ele>
        <time>2014-12-28T10:38:29Z</time>
      </trkpt>
      <trkpt lat="47.52085" lon="6.7646">
        <ele>386</ele>
        <time>2014-12-28T10:38:30Z</time>
      </trkpt>
      <trkpt lat="47.52083" lon="6.76459">
        <ele>386</ele>
        <time>2014-12-28T10:38:31Z</time>
      </trkpt>
      <trkpt lat="47.52081" lon="6.76458">
        <ele>386</ele>
        <time>2014-12-28T10:38:32Z</time>
      </trkpt>
      <trkpt lat="47.52079" lon="6.76457">
        <ele>386</ele>
        <time>2014-12-28T10:38:33Z</time>
      </trkpt>
      <trkpt lat="47.52074" lon="6.76455">
        <ele>386</ele>
        <time>2014-12-28T10:38:35Z</time>
      </trkpt>
      <trkpt lat="47.52072" lon="6.76454">
        <ele>386</ele>
        <time>2014-12-28T10:38:36Z</time>
      </trkpt>
      <trkpt lat="47.52067" lon="6.76452">
        <ele>386</ele>
        <time>2014-12-28T10:38:39Z</time>
      </trkpt>
      <trkpt lat="47.52065" lon="6.76451">
        <ele>386</ele>
        <time>2014-12-28T10:38:40Z</time>
      </trkpt>
      <trkpt lat="47.52062" lon="6.7645">
        <ele>386</ele>
        <time>2014-12-28T10:38:41Z</time>
      </trkpt>
      <trkpt lat="47.52059" lon="6.76448">
        <ele>386</ele>
        <time>2014-12-28T10:38:42Z</time>
      </trkpt>
      <trkpt lat="47.52057" lon="6.76447">
        <ele>386</ele>
        <time>2014-12-28T10:38:43Z</time>
      </trkpt>
      <trkpt lat="47.52054" lon="6.76446">
        <ele>385</ele>
        <time>2014-12-28T10:38:44Z</time>
      </trkpt>
      <trkpt lat="47.52052" lon="6.76445">
        <ele>385</ele>
        <time>2014-12-28T10:38:45Z</time>
      </trkpt>
      <trkpt lat="47.52049" lon="6.76443">
        <ele>385</ele>
        <time>2014-12-28T10:38:46Z</time>
      </trkpt>
      <trkpt lat="47.52047" lon="6.76441">
        <ele>385</ele>
        <time>2014-12-28T10:38:47Z</time>
      </trkpt>
      <trkpt lat="47.52044" lon="6.76439">
        <ele>385</ele>
        <time>2014-12-28T10:38:48Z</time>
      </trkpt>
      <trkpt lat="47.52041" lon="6.76437">
        <ele>385</ele>
        <time>2014-12-28T10:38:49Z</time>
      </trkpt>
      <trkpt lat="47.52038" lon="6.76435">
        <ele>385</ele>
        <time>2014-12-28T10:38:50Z</time>
      </trkpt>
      <trkpt lat="47.52035" lon="6.76433">
        <ele>385</ele>
        <time>2014-12-28T10:38:51Z</time>
      </trkpt>
      <trkpt lat="47.52032" lon="6.76432">
        <ele>385</ele>
        <time>2014-12-28T10:38:52Z</time>
      </trkpt>
      <trkpt lat="47.52028" lon="6.76431">
        <ele>385</ele>
        <time>2014-12-28T10:38:53Z</time>
      </trkpt>
      <trkpt lat="47.52025" lon="6.76429">
        <ele>385</ele>
        <time>2014-12-28T10:38:54Z</time>
      </trkpt>
      <trkpt lat="47.52023" lon="6.76428">
        <ele>385</ele>
        <time>2014-12-28T10:38:55Z</time>
      </trkpt>
      <trkpt lat="47.5202" lon="6.76427">
        <ele>385</ele>
        <time>2014-12-28T10:38:56Z</time>
      </trkpt>
      <trkpt lat="47.52018" lon="6.76425">
        <ele>385</ele>
        <time>2014-12-28T10:38:57Z</time>
      </trkpt>
      <trkpt lat="47.52016" lon="6.76424">
        <ele>385</ele>
        <time>2014-12-28T10:38:58Z</time>
      </trkpt>
      <trkpt lat="47.52013" lon="6.76423">
        <ele>385</ele>
        <time>2014-12-28T10:38:59Z</time>
      </trkpt>
      <trkpt lat="47.52011" lon="6.76422">
        <ele>385</ele>
        <time>2014-12-28T10:39:00Z</time>
      </trkpt>
      <trkpt lat="47.52008" lon="6.7642">
        <ele>385</ele>
        <time>2014-12-28T10:39:01Z</time>
      </trkpt>
      <trkpt lat="47.52006" lon="6.76419">
        <ele>385</ele>
        <time>2014-12-28T10:39:02Z</time>
      </trkpt>
      <trkpt lat="47.52003" lon="6.76418">
        <ele>385</ele>
        <time>2014-12-28T10:39:03Z</time>
      </trkpt>
      <trkpt lat="47.52001" lon="6.76416">
        <ele>385</ele>
        <time>2014-12-28T10:39:04Z</time>
      </trkpt>
      <trkpt lat="47.51999" lon="6.76415">
        <ele>385</ele>
        <time>2014-12-28T10:39:05Z</time>
      </trkpt>
      <trkpt lat="47.51995" lon="6.76413">
        <ele>385</ele>
        <time>2014-12-28T10:39:07Z</time>
      </trkpt>
      <trkpt lat="47.51993" lon="6.76412">
        <ele>385</ele>
        <time>2014-12-28T10:39:08Z</time>
      </trkpt>
      <trkpt lat="47.51989" lon="6.76408">
        <ele>385</ele>
        <time>2014-12-28T10:39:10Z</time>
      </trkpt>
      <trkpt lat="47.51987" lon="6.76407">
        <ele>385</ele>
        <time>2014-12-28T10:39:11Z</time>
      </trkpt>
      <trkpt lat="47.51984" lon="6.76404">
        <ele>385</ele>
        <time>2014-12-28T10:39:13Z</time>
      </trkpt>
      <trkpt lat="47.51982" lon="6.76403">
        <ele>386</ele>
        <time>2014-12-28T10:39:14Z</time>
      </trkpt>
      <trkpt lat="47.51979" lon="6.764">
        <ele>386</ele>
        <time>2014-12-28T10:39:16Z</time>
      </trkpt>
      <trkpt lat="47.51978" lon="6.76399">
        <ele>386</ele>
        <time>2014-12-28T10:39:17Z</time>
      </trkpt>
      <trkpt lat="47.51974" lon="6.76396">
        <ele>386</ele>
        <time>2014-12-28T10:39:19Z</time>
      </trkpt>
      <trkpt lat="47.51972" lon="6.76395">
        <ele>386</ele>
        <time>2014-12-28T10:39:20Z</time>
      </trkpt>
      <trkpt lat="47.5197" lon="6.76393">
        <ele>387</ele>
        <time>2014-12-28T10:39:21Z</time>
      </trkpt>
      <trkpt lat="47.51968" lon="6.7639">
        <ele>387</ele>
        <time>2014-12-28T10:39:22Z</time>
      </trkpt>
      <trkpt lat="47.51965" lon="6.76387">
        <ele>387</ele>
        <time>2014-12-28T10:39:24Z</time>
      </trkpt>
      <trkpt lat="47.51963" lon="6.76387">
        <ele>387</ele>
        <time>2014-12-28T10:39:25Z</time>
      </trkpt>
      <trkpt lat="47.51961" lon="6.76388">
        <ele>387</ele>
        <time>2014-12-28T10:39:26Z</time>
      </trkpt>
      <trkpt lat="47.51959" lon="6.7639">
        <ele>387</ele>
        <time>2014-12-28T10:39:27Z</time>
      </trkpt>
      <trkpt lat="47.51957" lon="6.76393">
        <ele>387</ele>
        <time>2014-12-28T10:39:28Z</time>
      </trkpt>
      <trkpt lat="47.51955" lon="6.76396">
        <ele>386</ele>
        <time>2014-12-28T10:39:29Z</time>
      </trkpt>
      <trkpt lat="47.51954" lon="6.76399">
        <ele>386</ele>
        <time>2014-12-28T10:39:30Z</time>
      </trkpt>
      <trkpt lat="47.51953" lon="6.76402">
        <ele>386</ele>
        <time>2014-12-28T10:39:31Z</time>
      </trkpt>
      <trkpt lat="47.51952" lon="6.76409">
        <ele>386</ele>
        <time>2014-12-28T10:39:33Z</time>
      </trkpt>
      <trkpt lat="47.51952" lon="6.76411">
        <ele>386</ele>
        <time>2014-12-28T10:39:34Z</time>
      </trkpt>
      <trkpt lat="47.51952" lon="6.76417">
        <ele>385</ele>
        <time>2014-12-28T10:39:36Z</time>
      </trkpt>
      <trkpt lat="47.51945" lon="6.76443">
        <ele>382</ele>
        <time>2014-12-28T10:39:44Z</time>
      </trkpt>
      <trkpt lat="47.51944" lon="6.76446">
        <ele>382</ele>
        <time>2014-12-28T10:39:45Z</time>
      </trkpt>
      <trkpt lat="47.51943" lon="6.76449">
        <ele>382</ele>
        <time>2014-12-28T10:39:46Z</time>
      </trkpt>
      <trkpt lat="47.51942" lon="6.76452">
        <ele>382</ele>
        <time>2014-12-28T10:39:47Z</time>
      </trkpt>
      <trkpt lat="47.51941" lon="6.76455">
        <ele>382</ele>
        <time>2014-12-28T10:39:48Z</time>
      </trkpt>
      <trkpt lat="47.51939" lon="6.7646">
        <ele>381</ele>
        <time>2014-12-28T10:39:50Z</time>
      </trkpt>
      <trkpt lat="47.51939" lon="6.76462">
        <ele>381</ele>
        <time>2014-12-28T10:39:51Z</time>
      </trkpt>
      <trkpt lat="47.51938" lon="6.76467">
        <ele>381</ele>
        <time>2014-12-28T10:39:53Z</time>
      </trkpt>
      <trkpt lat="47.51937" lon="6.7647">
        <ele>381</ele>
        <time>2014-12-28T10:39:54Z</time>
      </trkpt>
      <trkpt lat="47.51935" lon="6.76474">
        <ele>380</ele>
        <time>2014-12-28T10:39:55Z</time>
      </trkpt>
      <trkpt lat="47.51934" lon="6.76478">
        <ele>380</ele>
        <time>2014-12-28T10:39:56Z</time>
      </trkpt>
      <trkpt lat="47.51932" lon="6.76482">
        <ele>380</ele>
        <time>2014-12-28T10:39:57Z</time>
      </trkpt>
      <trkpt lat="47.51931" lon="6.76486">
        <ele>379</ele>
        <time>2014-12-28T10:39:58Z</time>
      </trkpt>
      <trkpt lat="47.51929" lon="6.7649">
        <ele>379</ele>
        <time>2014-12-28T10:39:59Z</time>
      </trkpt>
      <trkpt lat="47.51927" lon="6.76493">
        <ele>379</ele>
        <time>2014-12-28T10:40:00Z</time>
      </trkpt>
      <trkpt lat="47.51926" lon="6.765">
        <ele>379</ele>
        <time>2014-12-28T10:40:02Z</time>
      </trkpt>
      <trkpt lat="47.51926" lon="6.76503">
        <ele>379</ele>
        <time>2014-12-28T10:40:03Z</time>
      </trkpt>
      <trkpt lat="47.51924" lon="6.76509">
        <ele>379</ele>
        <time>2014-12-28T10:40:05Z</time>
      </trkpt>
      <trkpt lat="47.51924" lon="6.76512">
        <ele>379</ele>
        <time>2014-12-28T10:40:06Z</time>
      </trkpt>
      <trkpt lat="47.51922" lon="6.76518">
        <ele>379</ele>
        <time>2014-12-28T10:40:08Z</time>
      </trkpt>
      <trkpt lat="47.51922" lon="6.76521">
        <ele>379</ele>
        <time>2014-12-28T10:40:09Z</time>
      </trkpt>
      <trkpt lat="47.51921" lon="6.76526">
        <ele>379</ele>
        <time>2014-12-28T10:40:11Z</time>
      </trkpt>
      <trkpt lat="47.5192" lon="6.76528">
        <ele>378</ele>
        <time>2014-12-28T10:40:12Z</time>
      </trkpt>
      <trkpt lat="47.51919" lon="6.76533">
        <ele>378</ele>
        <time>2014-12-28T10:40:14Z</time>
      </trkpt>
      <trkpt lat="47.51918" lon="6.76536">
        <ele>378</ele>
        <time>2014-12-28T10:40:15Z</time>
      </trkpt>
      <trkpt lat="47.51917" lon="6.76539">
        <ele>378</ele>
        <time>2014-12-28T10:40:16Z</time>
      </trkpt>
      <trkpt lat="47.51916" lon="6.76543">
        <ele>377</ele>
        <time>2014-12-28T10:40:17Z</time>
      </trkpt>
      <trkpt lat="47.51915" lon="6.76546">
        <ele>377</ele>
        <time>2014-12-28T10:40:18Z</time>
      </trkpt>
      <trkpt lat="47.51913" lon="6.7655">
        <ele>377</ele>
        <time>2014-12-28T10:40:19Z</time>
      </trkpt>
      <trkpt lat="47.51912" lon="6.76554">
        <ele>377</ele>
        <time>2014-12-28T10:40:20Z</time>
      </trkpt>
      <trkpt lat="47.51911" lon="6.76558">
        <ele>377</ele>
        <time>2014-12-28T10:40:21Z</time>
      </trkpt>
      <trkpt lat="47.5191" lon="6.76562">
        <ele>376</ele>
        <time>2014-12-28T10:40:22Z</time>
      </trkpt>
      <trkpt lat="47.51909" lon="6.76565">
        <ele>376</ele>
        <time>2014-12-28T10:40:23Z</time>
      </trkpt>
      <trkpt lat="47.51908" lon="6.76571">
        <ele>376</ele>
        <time>2014-12-28T10:40:25Z</time>
      </trkpt>
      <trkpt lat="47.51908" lon="6.76573">
        <ele>376</ele>
        <time>2014-12-28T10:40:26Z</time>
      </trkpt>
      <trkpt lat="47.51907" lon="6.7658">
        <ele>376</ele>
        <time>2014-12-28T10:40:28Z</time>
      </trkpt>
      <trkpt lat="47.51906" lon="6.76583">
        <ele>376</ele>
        <time>2014-12-28T10:40:29Z</time>
      </trkpt>
      <trkpt lat="47.51906" lon="6.76586">
        <ele>376</ele>
        <time>2014-12-28T10:40:30Z</time>
      </trkpt>
      <trkpt lat="47.51905" lon="6.7659">
        <ele>376</ele>
        <time>2014-12-28T10:40:31Z</time>
      </trkpt>
      <trkpt lat="47.51903" lon="6.76595">
        <ele>376</ele>
        <time>2014-12-28T10:40:32Z</time>
      </trkpt>
      <trkpt lat="47.51902" lon="6.76599">
        <ele>376</ele>
        <time>2014-12-28T10:40:33Z</time>
      </trkpt>
      <trkpt lat="47.51901" lon="6.76604">
        <ele>376</ele>
        <time>2014-12-28T10:40:34Z</time>
      </trkpt>
      <trkpt lat="47.519" lon="6.76607">
        <ele>376</ele>
        <time>2014-12-28T10:40:35Z</time>
      </trkpt>
      <trkpt lat="47.519" lon="6.76611">
        <ele>375</ele>
        <time>2014-12-28T10:40:36Z</time>
      </trkpt>
      <trkpt lat="47.51898" lon="6.76621">
        <ele>375</ele>
        <time>2014-12-28T10:40:39Z</time>
      </trkpt>
      <trkpt lat="47.51897" lon="6.76627">
        <ele>375</ele>
        <time>2014-12-28T10:40:41Z</time>
      </trkpt>
      <trkpt lat="47.51897" lon="6.76629">
        <ele>375</ele>
        <time>2014-12-28T10:40:42Z</time>
      </trkpt>
      <trkpt lat="47.51897" lon="6.76634">
        <ele>375</ele>
        <time>2014-12-28T10:40:44Z</time>
      </trkpt>
      <trkpt lat="47.51898" lon="6.76637">
        <ele>375</ele>
        <time>2014-12-28T10:40:45Z</time>
      </trkpt>
      <trkpt lat="47.51899" lon="6.76642">
        <ele>375</ele>
        <time>2014-12-28T10:40:47Z</time>
      </trkpt>
      <trkpt lat="47.51899" lon="6.76645">
        <ele>375</ele>
        <time>2014-12-28T10:40:48Z</time>
      </trkpt>
      <trkpt lat="47.51899" lon="6.76651">
        <ele>375</ele>
        <time>2014-12-28T10:40:50Z</time>
      </trkpt>
      <trkpt lat="47.51899" lon="6.76653">
        <ele>375</ele>
        <time>2014-12-28T10:40:51Z</time>
      </trkpt>
      <trkpt lat="47.51897" lon="6.76656">
        <ele>375</ele>
        <time>2014-12-28T10:40:52Z</time>
      </trkpt>
      <trkpt lat="47.51896" lon="6.7666">
        <ele>375</ele>
        <time>2014-12-28T10:40:53Z</time>
      </trkpt>
      <trkpt lat="47.51894" lon="6.76664">
        <ele>375</ele>
        <time>2014-12-28T10:40:54Z</time>
      </trkpt>
      <trkpt lat="47.51892" lon="6.76669">
        <ele>374</ele>
        <time>2014-12-28T10:40:55Z</time>
      </trkpt>
      <trkpt lat="47.5189" lon="6.76674">
        <ele>374</ele>
        <time>2014-12-28T10:40:56Z</time>
      </trkpt>
      <trkpt lat="47.51888" lon="6.76679">
        <ele>374</ele>
        <time>2014-12-28T10:40:57Z</time>
      </trkpt>
      <trkpt lat="47.51886" lon="6.76684">
        <ele>374</ele>
        <time>2014-12-28T10:40:58Z</time>
      </trkpt>
      <trkpt lat="47.51884" lon="6.76688">
        <ele>373</ele>
        <time>2014-12-28T10:40:59Z</time>
      </trkpt>
      <trkpt lat="47.51883" lon="6.76692">
        <ele>373</ele>
        <time>2014-12-28T10:41:00Z</time>
      </trkpt>
      <trkpt lat="47.51882" lon="6.76697">
        <ele>373</ele>
        <time>2014-12-28T10:41:01Z</time>
      </trkpt>
      <trkpt lat="47.5188" lon="6.76701">
        <ele>373</ele>
        <time>2014-12-28T10:41:02Z</time>
      </trkpt>
      <trkpt lat="47.51878" lon="6.76705">
        <ele>373</ele>
        <time>2014-12-28T10:41:03Z</time>
      </trkpt>
      <trkpt lat="47.51876" lon="6.7671">
        <ele>373</ele>
        <time>2014-12-28T10:41:04Z</time>
      </trkpt>
      <trkpt lat="47.51873" lon="6.76716">
        <ele>372</ele>
        <time>2014-12-28T10:41:05Z</time>
      </trkpt>
      <trkpt lat="47.51871" lon="6.76721">
        <ele>372</ele>
        <time>2014-12-28T10:41:06Z</time>
      </trkpt>
      <trkpt lat="47.5187" lon="6.76725">
        <ele>372</ele>
        <time>2014-12-28T10:41:07Z</time>
      </trkpt>
      <trkpt lat="47.51869" lon="6.7673">
        <ele>372</ele>
        <time>2014-12-28T10:41:08Z</time>
      </trkpt>
      <trkpt lat="47.51867" lon="6.76734">
        <ele>372</ele>
        <time>2014-12-28T10:41:09Z</time>
      </trkpt>
      <trkpt lat="47.51866" lon="6.76738">
        <ele>372</ele>
        <time>2014-12-28T10:41:10Z</time>
      </trkpt>
      <trkpt lat="47.51866" lon="6.76742">
        <ele>372</ele>
        <time>2014-12-28T10:41:11Z</time>
      </trkpt>
      <trkpt lat="47.51865" lon="6.76745">
        <ele>372</ele>
        <time>2014-12-28T10:41:12Z</time>
      </trkpt>
      <trkpt lat="47.51865" lon="6.76749">
        <ele>372</ele>
        <time>2014-12-28T10:41:13Z</time>
      </trkpt>
      <trkpt lat="47.51865" lon="6.76755">
        <ele>371</ele>
        <time>2014-12-28T10:41:15Z</time>
      </trkpt>
      <trkpt lat="47.51864" lon="6.76758">
        <ele>371</ele>
        <time>2014-12-28T10:41:16Z</time>
      </trkpt>
      <trkpt lat="47.51863" lon="6.76762">
        <ele>371</ele>
        <time>2014-12-28T10:41:17Z</time>
      </trkpt>
      <trkpt lat="47.51863" lon="6.76766">
        <ele>371</ele>
        <time>2014-12-28T10:41:18Z</time>
      </trkpt>
      <trkpt lat="47.51862" lon="6.7677">
        <ele>371</ele>
        <time>2014-12-28T10:41:19Z</time>
      </trkpt>
      <trkpt lat="47.51861" lon="6.76773">
        <ele>371</ele>
        <time>2014-12-28T10:41:20Z</time>
      </trkpt>
      <trkpt lat="47.5186" lon="6.76778">
        <ele>371</ele>
        <time>2014-12-28T10:41:22Z</time>
      </trkpt>
      <trkpt lat="47.5186" lon="6.76781">
        <ele>371</ele>
        <time>2014-12-28T10:41:23Z</time>
      </trkpt>
      <trkpt lat="47.51859" lon="6.76785">
        <ele>371</ele>
        <time>2014-12-28T10:41:24Z</time>
      </trkpt>
      <trkpt lat="47.51858" lon="6.76789">
        <ele>371</ele>
        <time>2014-12-28T10:41:25Z</time>
      </trkpt>
      <trkpt lat="47.51857" lon="6.76793">
        <ele>371</ele>
        <time>2014-12-28T10:41:26Z</time>
      </trkpt>
      <trkpt lat="47.51857" lon="6.76797">
        <ele>371</ele>
        <time>2014-12-28T10:41:26Z</time>
      </trkpt>
      <trkpt lat="47.51856" lon="6.76801">
        <ele>371</ele>
        <time>2014-12-28T10:41:28Z</time>
      </trkpt>
      <trkpt lat="47.51855" lon="6.76804">
        <ele>371</ele>
        <time>2014-12-28T10:41:29Z</time>
      </trkpt>
      <trkpt lat="47.51854" lon="6.76808">
        <ele>371</ele>
        <time>2014-12-28T10:41:30Z</time>
      </trkpt>
      <trkpt lat="47.51853" lon="6.76812">
        <ele>371</ele>
        <time>2014-12-28T10:41:31Z</time>
      </trkpt>
      <trkpt lat="47.51852" lon="6.76815">
        <ele>371</ele>
        <time>2014-12-28T10:41:32Z</time>
      </trkpt>
      <trkpt lat="47.51851" lon="6.76819">
        <ele>371</ele>
        <time>2014-12-28T10:41:33Z</time>
      </trkpt>
      <trkpt lat="47.51851" lon="6.76823">
        <ele>371</ele>
        <time>2014-12-28T10:41:34Z</time>
      </trkpt>
      <trkpt lat="47.5185" lon="6.76827">
        <ele>371</ele>
        <time>2014-12-28T10:41:35Z</time>
      </trkpt>
      <trkpt lat="47.51849" lon="6.76831">
        <ele>371</ele>
        <time>2014-12-28T10:41:36Z</time>
      </trkpt>
      <trkpt lat="47.51847" lon="6.7684">
        <ele>371</ele>
        <time>2014-12-28T10:41:39Z</time>
      </trkpt>
      <trkpt lat="47.51846" lon="6.76847">
        <ele>370</ele>
        <time>2014-12-28T10:41:41Z</time>
      </trkpt>
      <trkpt lat="47.51846" lon="6.7685">
        <ele>370</ele>
        <time>2014-12-28T10:41:42Z</time>
      </trkpt>
      <trkpt lat="47.51845" lon="6.76853">
        <ele>370</ele>
        <time>2014-12-28T10:41:43Z</time>
      </trkpt>
      <trkpt lat="47.51844" lon="6.76857">
        <ele>370</ele>
        <time>2014-12-28T10:41:44Z</time>
      </trkpt>
      <trkpt lat="47.51843" lon="6.7686">
        <ele>370</ele>
        <time>2014-12-28T10:41:45Z</time>
      </trkpt>
      <trkpt lat="47.51842" lon="6.76864">
        <ele>370</ele>
        <time>2014-12-28T10:41:46Z</time>
      </trkpt>
      <trkpt lat="47.51841" lon="6.76867">
        <ele>370</ele>
        <time>2014-12-28T10:41:47Z</time>
      </trkpt>
      <trkpt lat="47.5184" lon="6.7687">
        <ele>370</ele>
        <time>2014-12-28T10:41:48Z</time>
      </trkpt>
      <trkpt lat="47.51838" lon="6.76875">
        <ele>370</ele>
        <time>2014-12-28T10:41:50Z</time>
      </trkpt>
      <trkpt lat="47.51837" lon="6.76878">
        <ele>370</ele>
        <time>2014-12-28T10:41:51Z</time>
      </trkpt>
      <trkpt lat="47.51835" lon="6.76883">
        <ele>370</ele>
        <time>2014-12-28T10:41:53Z</time>
      </trkpt>
      <trkpt lat="47.51835" lon="6.76886">
        <ele>370</ele>
        <time>2014-12-28T10:41:54Z</time>
      </trkpt>
      <trkpt lat="47.51834" lon="6.7689">
        <ele>370</ele>
        <time>2014-12-28T10:41:55Z</time>
      </trkpt>
      <trkpt lat="47.51833" lon="6.76893">
        <ele>370</ele>
        <time>2014-12-28T10:41:56Z</time>
      </trkpt>
      <trkpt lat="47.51833" lon="6.76896">
        <ele>370</ele>
        <time>2014-12-28T10:41:57Z</time>
      </trkpt>
      <trkpt lat="47.51832" lon="6.76899">
        <ele>370</ele>
        <time>2014-12-28T10:41:58Z</time>
      </trkpt>
      <trkpt lat="47.51831" lon="6.76902">
        <ele>369</ele>
        <time>2014-12-28T10:41:59Z</time>
      </trkpt>
      <trkpt lat="47.51829" lon="6.76905">
        <ele>369</ele>
        <time>2014-12-28T10:42:00Z</time>
      </trkpt>
      <trkpt lat="47.51828" lon="6.76911">
        <ele>369</ele>
        <time>2014-12-28T10:42:02Z</time>
      </trkpt>
      <trkpt lat="47.51827" lon="6.76914">
        <ele>369</ele>
        <time>2014-12-28T10:42:03Z</time>
      </trkpt>
      <trkpt lat="47.51826" lon="6.7692">
        <ele>370</ele>
        <time>2014-12-28T10:42:05Z</time>
      </trkpt>
      <trkpt lat="47.51826" lon="6.76923">
        <ele>370</ele>
        <time>2014-12-28T10:42:06Z</time>
      </trkpt>
      <trkpt lat="47.51825" lon="6.76929">
        <ele>370</ele>
        <time>2014-12-28T10:42:08Z</time>
      </trkpt>
      <trkpt lat="47.51825" lon="6.76932">
        <ele>370</ele>
        <time>2014-12-28T10:42:09Z</time>
      </trkpt>
      <trkpt lat="47.51824" lon="6.76938">
        <ele>370</ele>
        <time>2014-12-28T10:42:11Z</time>
      </trkpt>
      <trkpt lat="47.51824" lon="6.76941">
        <ele>370</ele>
        <time>2014-12-28T10:42:12Z</time>
      </trkpt>
      <trkpt lat="47.51823" lon="6.76944">
        <ele>370</ele>
        <time>2014-12-28T10:42:13Z</time>
      </trkpt>
      <trkpt lat="47.51823" lon="6.76948">
        <ele>370</ele>
        <time>2014-12-28T10:42:14Z</time>
      </trkpt>
      <trkpt lat="47.51823" lon="6.76951">
        <ele>370</ele>
        <time>2014-12-28T10:42:15Z</time>
      </trkpt>
      <trkpt lat="47.51823" lon="6.76955">
        <ele>370</ele>
        <time>2014-12-28T10:42:16Z</time>
      </trkpt>
      <trkpt lat="47.51823" lon="6.76961">
        <ele>370</ele>
        <time>2014-12-28T10:42:18Z</time>
      </trkpt>
      <trkpt lat="47.51822" lon="6.76964">
        <ele>370</ele>
        <time>2014-12-28T10:42:19Z</time>
      </trkpt>
      <trkpt lat="47.51822" lon="6.76969">
        <ele>370</ele>
        <time>2014-12-28T10:42:20Z</time>
      </trkpt>
      <trkpt lat="47.51821" lon="6.76973">
        <ele>370</ele>
        <time>2014-12-28T10:42:21Z</time>
      </trkpt>
      <trkpt lat="47.51821" lon="6.76977">
        <ele>370</ele>
        <time>2014-12-28T10:42:22Z</time>
      </trkpt>
      <trkpt lat="47.51821" lon="6.76981">
        <ele>370</ele>
        <time>2014-12-28T10:42:23Z</time>
      </trkpt>
      <trkpt lat="47.51821" lon="6.76986">
        <ele>370</ele>
        <time>2014-12-28T10:42:25Z</time>
      </trkpt>
      <trkpt lat="47.51819" lon="6.76989">
        <ele>370</ele>
        <time>2014-12-28T10:42:26Z</time>
      </trkpt>
      <trkpt lat="47.51818" lon="6.76992">
        <ele>370</ele>
        <time>2014-12-28T10:42:27Z</time>
      </trkpt>
      <trkpt lat="47.51817" lon="6.76995">
        <ele>370</ele>
        <time>2014-12-28T10:42:28Z</time>
      </trkpt>
      <trkpt lat="47.51815" lon="6.77">
        <ele>370</ele>
        <time>2014-12-28T10:42:30Z</time>
      </trkpt>
      <trkpt lat="47.51814" lon="6.77003">
        <ele>370</ele>
        <time>2014-12-28T10:42:31Z</time>
      </trkpt>
      <trkpt lat="47.51811" lon="6.77008">
        <ele>371</ele>
        <time>2014-12-28T10:42:33Z</time>
      </trkpt>
      <trkpt lat="47.51811" lon="6.77011">
        <ele>371</ele>
        <time>2014-12-28T10:42:34Z</time>
      </trkpt>
      <trkpt lat="47.51809" lon="6.77017">
        <ele>371</ele>
        <time>2014-12-28T10:42:36Z</time>
      </trkpt>
      <trkpt lat="47.51808" lon="6.77037">
        <ele>372</ele>
        <time>2014-12-28T10:42:44Z</time>
      </trkpt>
      <trkpt lat="47.51808" lon="6.77044">
        <ele>372</ele>
        <time>2014-12-28T10:42:46Z</time>
      </trkpt>
      <trkpt lat="47.51807" lon="6.77047">
        <ele>372</ele>
        <time>2014-12-28T10:42:47Z</time>
      </trkpt>
      <trkpt lat="47.51807" lon="6.77052">
        <ele>372</ele>
        <time>2014-12-28T10:42:49Z</time>
      </trkpt>
      <trkpt lat="47.51807" lon="6.77054">
        <ele>372</ele>
        <time>2014-12-28T10:42:50Z</time>
      </trkpt>
      <trkpt lat="47.51807" lon="6.77059">
        <ele>372</ele>
        <time>2014-12-28T10:42:52Z</time>
      </trkpt>
      <trkpt lat="47.51806" lon="6.77062">
        <ele>372</ele>
        <time>2014-12-28T10:42:53Z</time>
      </trkpt>
      <trkpt lat="47.51806" lon="6.77065">
        <ele>372</ele>
        <time>2014-12-28T10:42:54Z</time>
      </trkpt>
      <trkpt lat="47.51805" lon="6.77069">
        <ele>372</ele>
        <time>2014-12-28T10:42:55Z</time>
      </trkpt>
      <trkpt lat="47.51805" lon="6.77072">
        <ele>373</ele>
        <time>2014-12-28T10:42:56Z</time>
      </trkpt>
      <trkpt lat="47.51804" lon="6.77075">
        <ele>373</ele>
        <time>2014-12-28T10:42:57Z</time>
      </trkpt>
      <trkpt lat="47.51803" lon="6.77079">
        <ele>373</ele>
        <time>2014-12-28T10:42:58Z</time>
      </trkpt>
      <trkpt lat="47.51802" lon="6.77082">
        <ele>373</ele>
        <time>2014-12-28T10:42:59Z</time>
      </trkpt>
      <trkpt lat="47.51801" lon="6.77085">
        <ele>374</ele>
        <time>2014-12-28T10:43:00Z</time>
      </trkpt>
      <trkpt lat="47.518" lon="6.77089">
        <ele>375</ele>
        <time>2014-12-28T10:43:01Z</time>
      </trkpt>
      <trkpt lat="47.51799" lon="6.77093">
        <ele>375</ele>
        <time>2014-12-28T10:43:02Z</time>
      </trkpt>
      <trkpt lat="47.51798" lon="6.77097">
        <ele>375</ele>
        <time>2014-12-28T10:43:03Z</time>
      </trkpt>
      <trkpt lat="47.51797" lon="6.771">
        <ele>375</ele>
        <time>2014-12-28T10:43:04Z</time>
      </trkpt>
      <trkpt lat="47.51796" lon="6.77104">
        <ele>375</ele>
        <time>2014-12-28T10:43:05Z</time>
      </trkpt>
      <trkpt lat="47.51795" lon="6.77108">
        <ele>375</ele>
        <time>2014-12-28T10:43:06Z</time>
      </trkpt>
      <trkpt lat="47.51794" lon="6.77111">
        <ele>376</ele>
        <time>2014-12-28T10:43:07Z</time>
      </trkpt>
      <trkpt lat="47.51792" lon="6.77115">
        <ele>376</ele>
        <time>2014-12-28T10:43:08Z</time>
      </trkpt>
      <trkpt lat="47.51791" lon="6.77118">
        <ele>376</ele>
        <time>2014-12-28T10:43:09Z</time>
      </trkpt>
      <trkpt lat="47.51789" lon="6.77121">
        <ele>376</ele>
        <time>2014-12-28T10:43:10Z</time>
      </trkpt>
      <trkpt lat="47.51786" lon="6.77124">
        <ele>376</ele>
        <time>2014-12-28T10:43:11Z</time>
      </trkpt>
      <trkpt lat="47.51785" lon="6.77128">
        <ele>376</ele>
        <time>2014-12-28T10:43:12Z</time>
      </trkpt>
      <trkpt lat="47.51784" lon="6.77131">
        <ele>376</ele>
        <time>2014-12-28T10:43:13Z</time>
      </trkpt>
      <trkpt lat="47.51785" lon="6.77137">
        <ele>377</ele>
        <time>2014-12-28T10:43:16Z</time>
      </trkpt>
      <trkpt lat="47.51784" lon="6.77141">
        <ele>377</ele>
        <time>2014-12-28T10:43:17Z</time>
      </trkpt>
      <trkpt lat="47.51784" lon="6.77146">
        <ele>377</ele>
        <time>2014-12-28T10:43:19Z</time>
      </trkpt>
      <trkpt lat="47.51783" lon="6.77149">
        <ele>377</ele>
        <time>2014-12-28T10:43:20Z</time>
      </trkpt>
      <trkpt lat="47.51783" lon="6.77154">
        <ele>377</ele>
        <time>2014-12-28T10:43:22Z</time>
      </trkpt>
      <trkpt lat="47.51782" lon="6.77156">
        <ele>377</ele>
        <time>2014-12-28T10:43:23Z</time>
      </trkpt>
      <trkpt lat="47.51782" lon="6.77162">
        <ele>377</ele>
        <time>2014-12-28T10:43:25Z</time>
      </trkpt>
      <trkpt lat="47.51781" lon="6.77165">
        <ele>377</ele>
        <time>2014-12-28T10:43:26Z</time>
      </trkpt>
      <trkpt lat="47.51781" lon="6.77168">
        <ele>379</ele>
        <time>2014-12-28T10:43:27Z</time>
      </trkpt>
      <trkpt lat="47.5178" lon="6.77173">
        <ele>379</ele>
        <time>2014-12-28T10:43:28Z</time>
      </trkpt>
      <trkpt lat="47.51779" lon="6.77178">
        <ele>379</ele>
        <time>2014-12-28T10:43:29Z</time>
      </trkpt>
      <trkpt lat="47.51779" lon="6.77182">
        <ele>379</ele>
        <time>2014-12-28T10:43:30Z</time>
      </trkpt>
      <trkpt lat="47.5178" lon="6.77188">
        <ele>380</ele>
        <time>2014-12-28T10:43:32Z</time>
      </trkpt>
      <trkpt lat="47.51781" lon="6.7719">
        <ele>380</ele>
        <time>2014-12-28T10:43:33Z</time>
      </trkpt>
      <trkpt lat="47.51784" lon="6.77195">
        <ele>380</ele>
        <time>2014-12-28T10:43:36Z</time>
      </trkpt>
      <trkpt lat="47.51784" lon="6.772">
        <ele>380</ele>
        <time>2014-12-28T10:43:39Z</time>
      </trkpt>
      <trkpt lat="47.51782" lon="6.77205">
        <ele>380</ele>
        <time>2014-12-28T10:43:41Z</time>
      </trkpt>
      <trkpt lat="47.5178" lon="6.77209">
        <ele>380</ele>
        <time>2014-12-28T10:43:42Z</time>
      </trkpt>
      <trkpt lat="47.51778" lon="6.77213">
        <ele>380</ele>
        <time>2014-12-28T10:43:43Z</time>
      </trkpt>
      <trkpt lat="47.51777" lon="6.77217">
        <ele>381</ele>
        <time>2014-12-28T10:43:44Z</time>
      </trkpt>
      <trkpt lat="47.51775" lon="6.77222">
        <ele>381</ele>
        <time>2014-12-28T10:43:45Z</time>
      </trkpt>
      <trkpt lat="47.51774" lon="6.77226">
        <ele>381</ele>
        <time>2014-12-28T10:43:46Z</time>
      </trkpt>
      <trkpt lat="47.51774" lon="6.77229">
        <ele>381</ele>
        <time>2014-12-28T10:43:47Z</time>
      </trkpt>
      <trkpt lat="47.51774" lon="6.77232">
        <ele>381</ele>
        <time>2014-12-28T10:43:48Z</time>
      </trkpt>
      <trkpt lat="47.51773" lon="6.77236">
        <ele>381</ele>
        <time>2014-12-28T10:43:49Z</time>
      </trkpt>
      <trkpt lat="47.51773" lon="6.7724">
        <ele>382</ele>
        <time>2014-12-28T10:43:50Z</time>
      </trkpt>
      <trkpt lat="47.51773" lon="6.77243">
        <ele>382</ele>
        <time>2014-12-28T10:43:51Z</time>
      </trkpt>
      <trkpt lat="47.51773" lon="6.77246">
        <ele>382</ele>
        <time>2014-12-28T10:43:52Z</time>
      </trkpt>
      <trkpt lat="47.51773" lon="6.77253">
        <ele>383</ele>
        <time>2014-12-28T10:43:54Z</time>
      </trkpt>
      <trkpt lat="47.51772" lon="6.77256">
        <ele>383</ele>
        <time>2014-12-28T10:43:55Z</time>
      </trkpt>
      <trkpt lat="47.51772" lon="6.7726">
        <ele>383</ele>
        <time>2014-12-28T10:43:56Z</time>
      </trkpt>
      <trkpt lat="47.51771" lon="6.77264">
        <ele>383</ele>
        <time>2014-12-28T10:43:57Z</time>
      </trkpt>
      <trkpt lat="47.5177" lon="6.77267">
        <ele>383</ele>
        <time>2014-12-28T10:43:58Z</time>
      </trkpt>
      <trkpt lat="47.51769" lon="6.7727">
        <ele>383</ele>
        <time>2014-12-28T10:43:59Z</time>
      </trkpt>
      <trkpt lat="47.51768" lon="6.77276">
        <ele>383</ele>
        <time>2014-12-28T10:44:01Z</time>
      </trkpt>
      <trkpt lat="47.51767" lon="6.77278">
        <ele>383</ele>
        <time>2014-12-28T10:44:02Z</time>
      </trkpt>
      <trkpt lat="47.51765" lon="6.77284">
        <ele>383</ele>
        <time>2014-12-28T10:44:04Z</time>
      </trkpt>
      <trkpt lat="47.51764" lon="6.77286">
        <ele>384</ele>
        <time>2014-12-28T10:44:05Z</time>
      </trkpt>
      <trkpt lat="47.51763" lon="6.77292">
        <ele>384</ele>
        <time>2014-12-28T10:44:07Z</time>
      </trkpt>
      <trkpt lat="47.51762" lon="6.77295">
        <ele>384</ele>
        <time>2014-12-28T10:44:08Z</time>
      </trkpt>
      <trkpt lat="47.51762" lon="6.77298">
        <ele>384</ele>
        <time>2014-12-28T10:44:09Z</time>
      </trkpt>
      <trkpt lat="47.51761" lon="6.77302">
        <ele>384</ele>
        <time>2014-12-28T10:44:10Z</time>
      </trkpt>
      <trkpt lat="47.5176" lon="6.77305">
        <ele>385</ele>
        <time>2014-12-28T10:44:11Z</time>
      </trkpt>
      <trkpt lat="47.51759" lon="6.77309">
        <ele>385</ele>
        <time>2014-12-28T10:44:12Z</time>
      </trkpt>
      <trkpt lat="47.51758" lon="6.77313">
        <ele>385</ele>
        <time>2014-12-28T10:44:13Z</time>
      </trkpt>
      <trkpt lat="47.51758" lon="6.77316">
        <ele>385</ele>
        <time>2014-12-28T10:44:14Z</time>
      </trkpt>
      <trkpt lat="47.51757" lon="6.7732">
        <ele>385</ele>
        <time>2014-12-28T10:44:15Z</time>
      </trkpt>
      <trkpt lat="47.51756" lon="6.77323">
        <ele>385</ele>
        <time>2014-12-28T10:44:16Z</time>
      </trkpt>
      <trkpt lat="47.51755" lon="6.77326">
        <ele>385</ele>
        <time>2014-12-28T10:44:17Z</time>
      </trkpt>
      <trkpt lat="47.51755" lon="6.7733">
        <ele>385</ele>
        <time>2014-12-28T10:44:18Z</time>
      </trkpt>
      <trkpt lat="47.51754" lon="6.77333">
        <ele>385</ele>
        <time>2014-12-28T10:44:19Z</time>
      </trkpt>
      <trkpt lat="47.51753" lon="6.77337">
        <ele>386</ele>
        <time>2014-12-28T10:44:20Z</time>
      </trkpt>
      <trkpt lat="47.51753" lon="6.7734">
        <ele>386</ele>
        <time>2014-12-28T10:44:21Z</time>
      </trkpt>
      <trkpt lat="47.51752" lon="6.77344">
        <ele>386</ele>
        <time>2014-12-28T10:44:22Z</time>
      </trkpt>
      <trkpt lat="47.51751" lon="6.77348">
        <ele>386</ele>
        <time>2014-12-28T10:44:23Z</time>
      </trkpt>
      <trkpt lat="47.51751" lon="6.77352">
        <ele>386</ele>
        <time>2014-12-28T10:44:24Z</time>
      </trkpt>
      <trkpt lat="47.5175" lon="6.77355">
        <ele>386</ele>
        <time>2014-12-28T10:44:25Z</time>
      </trkpt>
      <trkpt lat="47.5175" lon="6.77359">
        <ele>386</ele>
        <time>2014-12-28T10:44:26Z</time>
      </trkpt>
      <trkpt lat="47.51749" lon="6.77363">
        <ele>386</ele>
        <time>2014-12-28T10:44:27Z</time>
      </trkpt>
      <trkpt lat="47.51749" lon="6.77366">
        <ele>386</ele>
        <time>2014-12-28T10:44:28Z</time>
      </trkpt>
      <trkpt lat="47.51749" lon="6.7737">
        <ele>386</ele>
        <time>2014-12-28T10:44:29Z</time>
      </trkpt>
      <trkpt lat="47.51749" lon="6.77374">
        <ele>386</ele>
        <time>2014-12-28T10:44:30Z</time>
      </trkpt>
      <trkpt lat="47.51749" lon="6.77378">
        <ele>386</ele>
        <time>2014-12-28T10:44:31Z</time>
      </trkpt>
      <trkpt lat="47.51748" lon="6.77382">
        <ele>387</ele>
        <time>2014-12-28T10:44:32Z</time>
      </trkpt>
      <trkpt lat="47.51748" lon="6.77385">
        <ele>387</ele>
        <time>2014-12-28T10:44:33Z</time>
      </trkpt>
      <trkpt lat="47.51748" lon="6.77389">
        <ele>387</ele>
        <time>2014-12-28T10:44:34Z</time>
      </trkpt>
      <trkpt lat="47.51747" lon="6.77392">
        <ele>387</ele>
        <time>2014-12-28T10:44:35Z</time>
      </trkpt>
      <trkpt lat="47.51746" lon="6.77396">
        <ele>387</ele>
        <time>2014-12-28T10:44:36Z</time>
      </trkpt>
      <trkpt lat="47.51744" lon="6.77405">
        <ele>387</ele>
        <time>2014-12-28T10:44:39Z</time>
      </trkpt>
      <trkpt lat="47.51744" lon="6.77411">
        <ele>387</ele>
        <time>2014-12-28T10:44:41Z</time>
      </trkpt>
      <trkpt lat="47.51743" lon="6.77414">
        <ele>387</ele>
        <time>2014-12-28T10:44:42Z</time>
      </trkpt>
      <trkpt lat="47.51742" lon="6.77417">
        <ele>388</ele>
        <time>2014-12-28T10:44:43Z</time>
      </trkpt>
      <trkpt lat="47.51742" lon="6.7742">
        <ele>388</ele>
        <time>2014-12-28T10:44:44Z</time>
      </trkpt>
      <trkpt lat="47.51741" lon="6.77424">
        <ele>388</ele>
        <time>2014-12-28T10:44:45Z</time>
      </trkpt>
      <trkpt lat="47.5174" lon="6.77428">
        <ele>388</ele>
        <time>2014-12-28T10:44:46Z</time>
      </trkpt>
      <trkpt lat="47.51739" lon="6.77432">
        <ele>388</ele>
        <time>2014-12-28T10:44:47Z</time>
      </trkpt>
      <trkpt lat="47.51738" lon="6.77436">
        <ele>388</ele>
        <time>2014-12-28T10:44:48Z</time>
      </trkpt>
      <trkpt lat="47.51737" lon="6.7744">
        <ele>388</ele>
        <time>2014-12-28T10:44:49Z</time>
      </trkpt>
      <trkpt lat="47.51736" lon="6.77444">
        <ele>388</ele>
        <time>2014-12-28T10:44:50Z</time>
      </trkpt>
      <trkpt lat="47.51735" lon="6.77448">
        <ele>388</ele>
        <time>2014-12-28T10:44:51Z</time>
      </trkpt>
      <trkpt lat="47.51734" lon="6.77452">
        <ele>388</ele>
        <time>2014-12-28T10:44:52Z</time>
      </trkpt>
      <trkpt lat="47.51733" lon="6.77456">
        <ele>388</ele>
        <time>2014-12-28T10:44:53Z</time>
      </trkpt>
      <trkpt lat="47.51732" lon="6.7746">
        <ele>388</ele>
        <time>2014-12-28T10:44:54Z</time>
      </trkpt>
      <trkpt lat="47.51731" lon="6.77463">
        <ele>388</ele>
        <time>2014-12-28T10:44:55Z</time>
      </trkpt>
      <trkpt lat="47.5173" lon="6.77467">
        <ele>388</ele>
        <time>2014-12-28T10:44:56Z</time>
      </trkpt>
      <trkpt lat="47.51729" lon="6.7747">
        <ele>389</ele>
        <time>2014-12-28T10:44:57Z</time>
      </trkpt>
      <trkpt lat="47.51729" lon="6.77474">
        <ele>389</ele>
        <time>2014-12-28T10:44:58Z</time>
      </trkpt>
      <trkpt lat="47.51729" lon="6.77478">
        <ele>389</ele>
        <time>2014-12-28T10:44:59Z</time>
      </trkpt>
      <trkpt lat="47.5173" lon="6.77481">
        <ele>389</ele>
        <time>2014-12-28T10:45:00Z</time>
      </trkpt>
      <trkpt lat="47.51732" lon="6.77484">
        <ele>389</ele>
        <time>2014-12-28T10:45:01Z</time>
      </trkpt>
      <trkpt lat="47.51734" lon="6.77486">
        <ele>389</ele>
        <time>2014-12-28T10:45:02Z</time>
      </trkpt>
      <trkpt lat="47.51737" lon="6.77487">
        <ele>389</ele>
        <time>2014-12-28T10:45:03Z</time>
      </trkpt>
      <trkpt lat="47.5174" lon="6.77489">
        <ele>389</ele>
        <time>2014-12-28T10:45:03Z</time>
      </trkpt>
      <trkpt lat="47.51743" lon="6.7749">
        <ele>389</ele>
        <time>2014-12-28T10:45:05Z</time>
      </trkpt>
      <trkpt lat="47.51746" lon="6.77489">
        <ele>389</ele>
        <time>2014-12-28T10:45:06Z</time>
      </trkpt>
      <trkpt lat="47.5175" lon="6.77489">
        <ele>389</ele>
        <time>2014-12-28T10:45:08Z</time>
      </trkpt>
      <trkpt lat="47.51752" lon="6.77489">
        <ele>389</ele>
        <time>2014-12-28T10:45:09Z</time>
      </trkpt>
      <trkpt lat="47.51756" lon="6.77488">
        <ele>389</ele>
        <time>2014-12-28T10:45:11Z</time>
      </trkpt>
      <trkpt lat="47.51758" lon="6.77488">
        <ele>389</ele>
        <time>2014-12-28T10:45:12Z</time>
      </trkpt>
      <trkpt lat="47.51761" lon="6.77488">
        <ele>389</ele>
        <time>2014-12-28T10:45:13Z</time>
      </trkpt>
      <trkpt lat="47.51764" lon="6.77487">
        <ele>389</ele>
        <time>2014-12-28T10:45:14Z</time>
      </trkpt>
      <trkpt lat="47.51767" lon="6.77488">
        <ele>389</ele>
        <time>2014-12-28T10:45:15Z</time>
      </trkpt>
      <trkpt lat="47.5177" lon="6.77488">
        <ele>389</ele>
        <time>2014-12-28T10:45:16Z</time>
      </trkpt>
      <trkpt lat="47.51772" lon="6.77489">
        <ele>389</ele>
        <time>2014-12-28T10:45:17Z</time>
      </trkpt>
      <trkpt lat="47.51775" lon="6.7749">
        <ele>389</ele>
        <time>2014-12-28T10:45:18Z</time>
      </trkpt>
      <trkpt lat="47.51778" lon="6.77491">
        <ele>388</ele>
        <time>2014-12-28T10:45:19Z</time>
      </trkpt>
      <trkpt lat="47.51781" lon="6.77491">
        <ele>388</ele>
        <time>2014-12-28T10:45:20Z</time>
      </trkpt>
      <trkpt lat="47.51784" lon="6.77492">
        <ele>388</ele>
        <time>2014-12-28T10:45:21Z</time>
      </trkpt>
      <trkpt lat="47.51786" lon="6.77492">
        <ele>388</ele>
        <time>2014-12-28T10:45:22Z</time>
      </trkpt>
      <trkpt lat="47.5179" lon="6.77493">
        <ele>388</ele>
        <time>2014-12-28T10:45:24Z</time>
      </trkpt>
      <trkpt lat="47.51792" lon="6.77494">
        <ele>388</ele>
        <time>2014-12-28T10:45:25Z</time>
      </trkpt>
      <trkpt lat="47.51796" lon="6.77495">
        <ele>387</ele>
        <time>2014-12-28T10:45:28Z</time>
      </trkpt>
      <trkpt lat="47.51797" lon="6.77495">
        <ele>387</ele>
        <time>2014-12-28T10:45:29Z</time>
      </trkpt>
      <trkpt lat="47.518" lon="6.77496">
        <ele>387</ele>
        <time>2014-12-28T10:45:32Z</time>
      </trkpt>
      <trkpt lat="47.51801" lon="6.77497">
        <ele>387</ele>
        <time>2014-12-28T10:45:33Z</time>
      </trkpt>
      <trkpt lat="47.51804" lon="6.77497">
        <ele>387</ele>
        <time>2014-12-28T10:45:36Z</time>
      </trkpt>
      <trkpt lat="47.51807" lon="6.77492">
        <ele>387</ele>
        <time>2014-12-28T10:45:44Z</time>
      </trkpt>
      <trkpt lat="47.51803" lon="6.77488">
        <ele>387</ele>
        <time>2014-12-28T10:45:53Z</time>
      </trkpt>
      <trkpt lat="47.51803" lon="6.77487">
        <ele>387</ele>
        <time>2014-12-28T10:45:54Z</time>
      </trkpt>
      <trkpt lat="47.51804" lon="6.77482">
        <ele>387</ele>
        <time>2014-12-28T10:45:59Z</time>
      </trkpt>
      <trkpt lat="47.51805" lon="6.7748">
        <ele>387</ele>
        <time>2014-12-28T10:46:00Z</time>
      </trkpt>
      <trkpt lat="47.51807" lon="6.77474">
        <ele>387</ele>
        <time>2014-12-28T10:46:03Z</time>
      </trkpt>
      <trkpt lat="47.51806" lon="6.77473">
        <ele>387</ele>
        <time>2014-12-28T10:46:04Z</time>
      </trkpt>
      <trkpt lat="47.51803" lon="6.77475">
        <ele>387</ele>
        <time>2014-12-28T10:46:16Z</time>
      </trkpt>
    </trkseg>
  </trk>
</gpx>